<?xml version="1.0" encoding="UTF-8" standalone="no" ?>
<gpx xmlns="http://www.topografix.com/GPX/1/1" xmlns:xsi="http://www.w3.org/2001/XMLSchema-instance" xsi:schemaLocation="http://www.topografix.com/GPX/1/1 http://www.topografix.com/GPX/1/1/gpx.xsd" version="1.1" creator="VisuGPX - https://www.visugpx.com">
  <metadata>
    <name>St-Girons Montégut-C Balaguères Sapinière d'Arrout Audressein Moulis - By L'ORSALHER VTT</name>
  </metadata>
  <trk>
    <name><![CDATA[St-Girons Montégut-C Engomer Balaguères Sapinière d'Arrout Audressein Moulis]]></name>
    <extensions>
      <line xmlns="http://www.topografix.com/GPX/gpx_style/0/2">
        <color>0000FF</color>
        <width>4</width>
          <extensions>
            <sens>1</sens>
          </extensions>
      </line>
    </extensions>
    <trkseg>
      <trkpt lat="42.98378" lon="1.1381">
        <ele>394.6</ele>
        <time>2023-04-04T08:29:13.937Z</time>
      </trkpt>
      <trkpt lat="42.98378" lon="1.1381">
        <ele>394.6</ele>
        <time>2023-04-04T08:29:15.667Z</time>
      </trkpt>
      <trkpt lat="42.98406" lon="1.13836">
        <ele>394.5</ele>
        <time>2023-04-04T08:29:35.470Z</time>
      </trkpt>
      <trkpt lat="42.98393" lon="1.13808">
        <ele>394.5</ele>
        <time>2023-04-04T08:29:36.463Z</time>
      </trkpt>
      <trkpt lat="42.98388" lon="1.13805">
        <ele>394.6</ele>
        <time>2023-04-04T08:29:39.996Z</time>
      </trkpt>
      <trkpt lat="42.98387" lon="1.13804">
        <ele>394.8</ele>
        <time>2023-04-04T08:33:18.970Z</time>
      </trkpt>
      <trkpt lat="42.98387" lon="1.13804">
        <ele>394.8</ele>
        <time>2023-04-04T08:33:18.970Z</time>
      </trkpt>
      <trkpt lat="42.98387" lon="1.13804">
        <ele>394.8</ele>
        <time>2023-04-04T08:33:19.971Z</time>
      </trkpt>
      <trkpt lat="42.98387" lon="1.13805">
        <ele>394.8</ele>
        <time>2023-04-04T08:33:21.968Z</time>
      </trkpt>
      <trkpt lat="42.98389" lon="1.13806">
        <ele>394.8</ele>
        <time>2023-04-04T08:33:26.965Z</time>
      </trkpt>
      <trkpt lat="42.98389" lon="1.13807">
        <ele>394.8</ele>
        <time>2023-04-04T08:33:28.971Z</time>
      </trkpt>
      <trkpt lat="42.98389" lon="1.13807">
        <ele>394.8</ele>
        <time>2023-04-04T08:33:30.970Z</time>
      </trkpt>
      <trkpt lat="42.98389" lon="1.13806">
        <ele>394.8</ele>
        <time>2023-04-04T08:33:31.968Z</time>
      </trkpt>
      <trkpt lat="42.98389" lon="1.13806">
        <ele>394.8</ele>
        <time>2023-04-04T08:33:33.966Z</time>
      </trkpt>
      <trkpt lat="42.98388" lon="1.13806">
        <ele>394.8</ele>
        <time>2023-04-04T08:33:34.961Z</time>
      </trkpt>
      <trkpt lat="42.98386" lon="1.13807">
        <ele>394.8</ele>
        <time>2023-04-04T08:33:37.965Z</time>
      </trkpt>
      <trkpt lat="42.98387" lon="1.13806">
        <ele>394.8</ele>
        <time>2023-04-04T08:33:40.971Z</time>
      </trkpt>
      <trkpt lat="42.98387" lon="1.13806">
        <ele>394.8</ele>
        <time>2023-04-04T08:33:41.965Z</time>
      </trkpt>
      <trkpt lat="42.98388" lon="1.13807">
        <ele>394.8</ele>
        <time>2023-04-04T08:33:42.965Z</time>
      </trkpt>
      <trkpt lat="42.98389" lon="1.13808">
        <ele>394.8</ele>
        <time>2023-04-04T08:33:47.008Z</time>
      </trkpt>
      <trkpt lat="42.98391" lon="1.13807">
        <ele>394.7</ele>
        <time>2023-04-04T08:40:02.994Z</time>
      </trkpt>
      <trkpt lat="42.9839" lon="1.13792">
        <ele>394.7</ele>
        <time>2023-04-04T08:40:09.993Z</time>
      </trkpt>
      <trkpt lat="42.98392" lon="1.13778">
        <ele>394.7</ele>
        <time>2023-04-04T08:40:13.993Z</time>
      </trkpt>
      <trkpt lat="42.98392" lon="1.13764">
        <ele>394.8</ele>
        <time>2023-04-04T08:40:17.993Z</time>
      </trkpt>
      <trkpt lat="42.98389" lon="1.1375">
        <ele>394.9</ele>
        <time>2023-04-04T08:40:21.993Z</time>
      </trkpt>
      <trkpt lat="42.98385" lon="1.13738">
        <ele>395</ele>
        <time>2023-04-04T08:40:24.993Z</time>
      </trkpt>
      <trkpt lat="42.98383" lon="1.13724">
        <ele>395.2</ele>
        <time>2023-04-04T08:40:28.993Z</time>
      </trkpt>
      <trkpt lat="42.98379" lon="1.13711">
        <ele>395.7</ele>
        <time>2023-04-04T08:40:33.993Z</time>
      </trkpt>
      <trkpt lat="42.98373" lon="1.13699">
        <ele>396.4</ele>
        <time>2023-04-04T08:40:37.993Z</time>
      </trkpt>
      <trkpt lat="42.98369" lon="1.13688">
        <ele>396.9</ele>
        <time>2023-04-04T08:40:40.993Z</time>
      </trkpt>
      <trkpt lat="42.98364" lon="1.13677">
        <ele>397.3</ele>
        <time>2023-04-04T08:40:43.992Z</time>
      </trkpt>
      <trkpt lat="42.98359" lon="1.13666">
        <ele>397.6</ele>
        <time>2023-04-04T08:40:46.992Z</time>
      </trkpt>
      <trkpt lat="42.98353" lon="1.13652">
        <ele>397.8</ele>
        <time>2023-04-04T08:40:50.992Z</time>
      </trkpt>
      <trkpt lat="42.98352" lon="1.13639">
        <ele>397.9</ele>
        <time>2023-04-04T08:40:53.992Z</time>
      </trkpt>
      <trkpt lat="42.98345" lon="1.13627">
        <ele>397.9</ele>
        <time>2023-04-04T08:40:56.992Z</time>
      </trkpt>
      <trkpt lat="42.98341" lon="1.13615">
        <ele>397.9</ele>
        <time>2023-04-04T08:40:59.992Z</time>
      </trkpt>
      <trkpt lat="42.98335" lon="1.13602">
        <ele>397.7</ele>
        <time>2023-04-04T08:41:03.992Z</time>
      </trkpt>
      <trkpt lat="42.98331" lon="1.13588">
        <ele>397.6</ele>
        <time>2023-04-04T08:41:07.992Z</time>
      </trkpt>
      <trkpt lat="42.98326" lon="1.13574">
        <ele>397.6</ele>
        <time>2023-04-04T08:41:10.992Z</time>
      </trkpt>
      <trkpt lat="42.9832" lon="1.13558">
        <ele>397.6</ele>
        <time>2023-04-04T08:41:13.992Z</time>
      </trkpt>
      <trkpt lat="42.98315" lon="1.13544">
        <ele>397.6</ele>
        <time>2023-04-04T08:41:16.991Z</time>
      </trkpt>
      <trkpt lat="42.98308" lon="1.13531">
        <ele>397.7</ele>
        <time>2023-04-04T08:41:19.991Z</time>
      </trkpt>
      <trkpt lat="42.98301" lon="1.13519">
        <ele>397.7</ele>
        <time>2023-04-04T08:41:22.991Z</time>
      </trkpt>
      <trkpt lat="42.98294" lon="1.13508">
        <ele>397.8</ele>
        <time>2023-04-04T08:41:25.991Z</time>
      </trkpt>
      <trkpt lat="42.98285" lon="1.13497">
        <ele>397.9</ele>
        <time>2023-04-04T08:41:28.991Z</time>
      </trkpt>
      <trkpt lat="42.98277" lon="1.13487">
        <ele>397.9</ele>
        <time>2023-04-04T08:41:31.991Z</time>
      </trkpt>
      <trkpt lat="42.98269" lon="1.13477">
        <ele>397.9</ele>
        <time>2023-04-04T08:41:34.991Z</time>
      </trkpt>
      <trkpt lat="42.98261" lon="1.13465">
        <ele>397.9</ele>
        <time>2023-04-04T08:41:37.991Z</time>
      </trkpt>
      <trkpt lat="42.98252" lon="1.13454">
        <ele>397.9</ele>
        <time>2023-04-04T08:41:40.991Z</time>
      </trkpt>
      <trkpt lat="42.98243" lon="1.13442">
        <ele>397.9</ele>
        <time>2023-04-04T08:41:43.991Z</time>
      </trkpt>
      <trkpt lat="42.98236" lon="1.1343">
        <ele>397.8</ele>
        <time>2023-04-04T08:41:46.991Z</time>
      </trkpt>
      <trkpt lat="42.98229" lon="1.13418">
        <ele>397.8</ele>
        <time>2023-04-04T08:41:49.990Z</time>
      </trkpt>
      <trkpt lat="42.98222" lon="1.13407">
        <ele>397.7</ele>
        <time>2023-04-04T08:41:52.990Z</time>
      </trkpt>
      <trkpt lat="42.98216" lon="1.13396">
        <ele>397.7</ele>
        <time>2023-04-04T08:41:55.990Z</time>
      </trkpt>
      <trkpt lat="42.98219" lon="1.13384">
        <ele>397.7</ele>
        <time>2023-04-04T08:41:58.990Z</time>
      </trkpt>
      <trkpt lat="42.98226" lon="1.13373">
        <ele>397.7</ele>
        <time>2023-04-04T08:42:01.990Z</time>
      </trkpt>
      <trkpt lat="42.98233" lon="1.13363">
        <ele>397.7</ele>
        <time>2023-04-04T08:42:04.990Z</time>
      </trkpt>
      <trkpt lat="42.98239" lon="1.13351">
        <ele>397.8</ele>
        <time>2023-04-04T08:42:07.990Z</time>
      </trkpt>
      <trkpt lat="42.98243" lon="1.13338">
        <ele>397.8</ele>
        <time>2023-04-04T08:42:10.990Z</time>
      </trkpt>
      <trkpt lat="42.98248" lon="1.13326">
        <ele>397.9</ele>
        <time>2023-04-04T08:42:13.990Z</time>
      </trkpt>
      <trkpt lat="42.98255" lon="1.13315">
        <ele>398</ele>
        <time>2023-04-04T08:42:16.990Z</time>
      </trkpt>
      <trkpt lat="42.98262" lon="1.13305">
        <ele>398.2</ele>
        <time>2023-04-04T08:42:19.990Z</time>
      </trkpt>
      <trkpt lat="42.9827" lon="1.13295">
        <ele>398.5</ele>
        <time>2023-04-04T08:42:22.990Z</time>
      </trkpt>
      <trkpt lat="42.98278" lon="1.13284">
        <ele>399.1</ele>
        <time>2023-04-04T08:42:26.989Z</time>
      </trkpt>
      <trkpt lat="42.98285" lon="1.13275">
        <ele>400.6</ele>
        <time>2023-04-04T08:42:33.989Z</time>
      </trkpt>
      <trkpt lat="42.98288" lon="1.13274">
        <ele>401.5</ele>
        <time>2023-04-04T08:42:38.989Z</time>
      </trkpt>
      <trkpt lat="42.98288" lon="1.13272">
        <ele>402</ele>
        <time>2023-04-04T08:42:42.989Z</time>
      </trkpt>
      <trkpt lat="42.98283" lon="1.13259">
        <ele>402.4</ele>
        <time>2023-04-04T08:42:46.989Z</time>
      </trkpt>
      <trkpt lat="42.98276" lon="1.1325">
        <ele>402.5</ele>
        <time>2023-04-04T08:42:50.989Z</time>
      </trkpt>
      <trkpt lat="42.9828" lon="1.13236">
        <ele>402.9</ele>
        <time>2023-04-04T08:42:54.989Z</time>
      </trkpt>
      <trkpt lat="42.98285" lon="1.13223">
        <ele>403.7</ele>
        <time>2023-04-04T08:42:58.988Z</time>
      </trkpt>
      <trkpt lat="42.98294" lon="1.1321">
        <ele>405.5</ele>
        <time>2023-04-04T08:43:03.988Z</time>
      </trkpt>
      <trkpt lat="42.98301" lon="1.13202">
        <ele>407.4</ele>
        <time>2023-04-04T08:43:07.988Z</time>
      </trkpt>
      <trkpt lat="42.98309" lon="1.1319">
        <ele>409.4</ele>
        <time>2023-04-04T08:43:11.988Z</time>
      </trkpt>
      <trkpt lat="42.98314" lon="1.1318">
        <ele>411</ele>
        <time>2023-04-04T08:43:14.988Z</time>
      </trkpt>
      <trkpt lat="42.98319" lon="1.1317">
        <ele>412.5</ele>
        <time>2023-04-04T08:43:17.988Z</time>
      </trkpt>
      <trkpt lat="42.98326" lon="1.1316">
        <ele>414.3</ele>
        <time>2023-04-04T08:43:21.988Z</time>
      </trkpt>
      <trkpt lat="42.98333" lon="1.13148">
        <ele>415.9</ele>
        <time>2023-04-04T08:43:26.988Z</time>
      </trkpt>
      <trkpt lat="42.98338" lon="1.13135">
        <ele>417</ele>
        <time>2023-04-04T08:43:30.988Z</time>
      </trkpt>
      <trkpt lat="42.98339" lon="1.1312">
        <ele>417.9</ele>
        <time>2023-04-04T08:43:34.987Z</time>
      </trkpt>
      <trkpt lat="42.98345" lon="1.13106">
        <ele>418.8</ele>
        <time>2023-04-04T08:43:39.987Z</time>
      </trkpt>
      <trkpt lat="42.98349" lon="1.13093">
        <ele>419.6</ele>
        <time>2023-04-04T08:43:43.987Z</time>
      </trkpt>
      <trkpt lat="42.98357" lon="1.13084">
        <ele>420.3</ele>
        <time>2023-04-04T08:43:47.987Z</time>
      </trkpt>
      <trkpt lat="42.98365" lon="1.13075">
        <ele>421.3</ele>
        <time>2023-04-04T08:43:53.992Z</time>
      </trkpt>
      <trkpt lat="42.98373" lon="1.13068">
        <ele>422</ele>
        <time>2023-04-04T08:43:58.994Z</time>
      </trkpt>
      <trkpt lat="42.98379" lon="1.13058">
        <ele>422.6</ele>
        <time>2023-04-04T08:44:02.996Z</time>
      </trkpt>
      <trkpt lat="42.98384" lon="1.13045">
        <ele>423.3</ele>
        <time>2023-04-04T08:44:07.997Z</time>
      </trkpt>
      <trkpt lat="42.9839" lon="1.13033">
        <ele>423.9</ele>
        <time>2023-04-04T08:44:12.997Z</time>
      </trkpt>
      <trkpt lat="42.98397" lon="1.13023">
        <ele>424.7</ele>
        <time>2023-04-04T08:44:17.998Z</time>
      </trkpt>
      <trkpt lat="42.98408" lon="1.13022">
        <ele>425.2</ele>
        <time>2023-04-04T08:44:21.998Z</time>
      </trkpt>
      <trkpt lat="42.98414" lon="1.1301">
        <ele>425.8</ele>
        <time>2023-04-04T08:44:25.998Z</time>
      </trkpt>
      <trkpt lat="42.9842" lon="1.13">
        <ele>426.4</ele>
        <time>2023-04-04T08:44:29.998Z</time>
      </trkpt>
      <trkpt lat="42.98425" lon="1.12988">
        <ele>427</ele>
        <time>2023-04-04T08:44:33.998Z</time>
      </trkpt>
      <trkpt lat="42.9843" lon="1.12977">
        <ele>427.5</ele>
        <time>2023-04-04T08:44:37.998Z</time>
      </trkpt>
      <trkpt lat="42.98425" lon="1.12964">
        <ele>428</ele>
        <time>2023-04-04T08:44:41.998Z</time>
      </trkpt>
      <trkpt lat="42.98415" lon="1.12957">
        <ele>428.5</ele>
        <time>2023-04-04T08:44:46.998Z</time>
      </trkpt>
      <trkpt lat="42.98408" lon="1.12949">
        <ele>428.7</ele>
        <time>2023-04-04T08:44:49.998Z</time>
      </trkpt>
      <trkpt lat="42.984" lon="1.12941">
        <ele>428.8</ele>
        <time>2023-04-04T08:44:52.998Z</time>
      </trkpt>
      <trkpt lat="42.98391" lon="1.12932">
        <ele>429</ele>
        <time>2023-04-04T08:44:56.998Z</time>
      </trkpt>
      <trkpt lat="42.98381" lon="1.12924">
        <ele>429</ele>
        <time>2023-04-04T08:44:59.998Z</time>
      </trkpt>
      <trkpt lat="42.98373" lon="1.12917">
        <ele>429.1</ele>
        <time>2023-04-04T08:45:02.998Z</time>
      </trkpt>
      <trkpt lat="42.98363" lon="1.12908">
        <ele>429.2</ele>
        <time>2023-04-04T08:45:06.998Z</time>
      </trkpt>
      <trkpt lat="42.98353" lon="1.12899">
        <ele>429.2</ele>
        <time>2023-04-04T08:45:10.997Z</time>
      </trkpt>
      <trkpt lat="42.98344" lon="1.1289">
        <ele>429.2</ele>
        <time>2023-04-04T08:45:13.997Z</time>
      </trkpt>
      <trkpt lat="42.98337" lon="1.1288">
        <ele>429.3</ele>
        <time>2023-04-04T08:45:16.997Z</time>
      </trkpt>
      <trkpt lat="42.98328" lon="1.1287">
        <ele>429.3</ele>
        <time>2023-04-04T08:45:19.997Z</time>
      </trkpt>
      <trkpt lat="42.98322" lon="1.12862">
        <ele>429.3</ele>
        <time>2023-04-04T08:45:22.997Z</time>
      </trkpt>
      <trkpt lat="42.98315" lon="1.12853">
        <ele>429.3</ele>
        <time>2023-04-04T08:45:25.997Z</time>
      </trkpt>
      <trkpt lat="42.98308" lon="1.12841">
        <ele>429.4</ele>
        <time>2023-04-04T08:45:29.997Z</time>
      </trkpt>
      <trkpt lat="42.98302" lon="1.12831">
        <ele>429.4</ele>
        <time>2023-04-04T08:45:31.997Z</time>
      </trkpt>
      <trkpt lat="42.98297" lon="1.12817">
        <ele>429.5</ele>
        <time>2023-04-04T08:45:33.997Z</time>
      </trkpt>
      <trkpt lat="42.98292" lon="1.12805">
        <ele>429.6</ele>
        <time>2023-04-04T08:45:35.996Z</time>
      </trkpt>
      <trkpt lat="42.98283" lon="1.12798">
        <ele>429.7</ele>
        <time>2023-04-04T08:45:37.996Z</time>
      </trkpt>
      <trkpt lat="42.98272" lon="1.12787">
        <ele>430</ele>
        <time>2023-04-04T08:45:40.996Z</time>
      </trkpt>
      <trkpt lat="42.98262" lon="1.12779">
        <ele>430.2</ele>
        <time>2023-04-04T08:45:43.996Z</time>
      </trkpt>
      <trkpt lat="42.98254" lon="1.12773">
        <ele>430.3</ele>
        <time>2023-04-04T08:45:45.996Z</time>
      </trkpt>
      <trkpt lat="42.98245" lon="1.12762">
        <ele>430.4</ele>
        <time>2023-04-04T08:45:48.996Z</time>
      </trkpt>
      <trkpt lat="42.98234" lon="1.12754">
        <ele>430.4</ele>
        <time>2023-04-04T08:45:51.996Z</time>
      </trkpt>
      <trkpt lat="42.98223" lon="1.12744">
        <ele>430.4</ele>
        <time>2023-04-04T08:45:54.996Z</time>
      </trkpt>
      <trkpt lat="42.98214" lon="1.12739">
        <ele>430.4</ele>
        <time>2023-04-04T08:45:56.996Z</time>
      </trkpt>
      <trkpt lat="42.98203" lon="1.12735">
        <ele>430.4</ele>
        <time>2023-04-04T08:45:58.995Z</time>
      </trkpt>
      <trkpt lat="42.9819" lon="1.12734">
        <ele>430.2</ele>
        <time>2023-04-04T08:46:01.995Z</time>
      </trkpt>
      <trkpt lat="42.9818" lon="1.12731">
        <ele>429.9</ele>
        <time>2023-04-04T08:46:04.995Z</time>
      </trkpt>
      <trkpt lat="42.98169" lon="1.12726">
        <ele>429.5</ele>
        <time>2023-04-04T08:46:07.995Z</time>
      </trkpt>
      <trkpt lat="42.98157" lon="1.12719">
        <ele>429</ele>
        <time>2023-04-04T08:46:10.995Z</time>
      </trkpt>
      <trkpt lat="42.98148" lon="1.12715">
        <ele>428.7</ele>
        <time>2023-04-04T08:46:12.995Z</time>
      </trkpt>
      <trkpt lat="42.9814" lon="1.12708">
        <ele>428.3</ele>
        <time>2023-04-04T08:46:14.995Z</time>
      </trkpt>
      <trkpt lat="42.9813" lon="1.12699">
        <ele>427.9</ele>
        <time>2023-04-04T08:46:17.995Z</time>
      </trkpt>
      <trkpt lat="42.9812" lon="1.12693">
        <ele>427.5</ele>
        <time>2023-04-04T08:46:20.995Z</time>
      </trkpt>
      <trkpt lat="42.98112" lon="1.12686">
        <ele>427.2</ele>
        <time>2023-04-04T08:46:22.995Z</time>
      </trkpt>
      <trkpt lat="42.98103" lon="1.12672">
        <ele>427.1</ele>
        <time>2023-04-04T08:46:25.994Z</time>
      </trkpt>
      <trkpt lat="42.98096" lon="1.12663">
        <ele>427</ele>
        <time>2023-04-04T08:46:27.994Z</time>
      </trkpt>
      <trkpt lat="42.98087" lon="1.12656">
        <ele>427</ele>
        <time>2023-04-04T08:46:29.994Z</time>
      </trkpt>
      <trkpt lat="42.98079" lon="1.12648">
        <ele>427</ele>
        <time>2023-04-04T08:46:31.994Z</time>
      </trkpt>
      <trkpt lat="42.98069" lon="1.1264">
        <ele>426.9</ele>
        <time>2023-04-04T08:46:33.994Z</time>
      </trkpt>
      <trkpt lat="42.98061" lon="1.12631">
        <ele>426.8</ele>
        <time>2023-04-04T08:46:35.994Z</time>
      </trkpt>
      <trkpt lat="42.98052" lon="1.12622">
        <ele>426.8</ele>
        <time>2023-04-04T08:46:37.994Z</time>
      </trkpt>
      <trkpt lat="42.98043" lon="1.12613">
        <ele>426.7</ele>
        <time>2023-04-04T08:46:39.994Z</time>
      </trkpt>
      <trkpt lat="42.98034" lon="1.12604">
        <ele>426.5</ele>
        <time>2023-04-04T08:46:41.994Z</time>
      </trkpt>
      <trkpt lat="42.98026" lon="1.12594">
        <ele>426.4</ele>
        <time>2023-04-04T08:46:43.994Z</time>
      </trkpt>
      <trkpt lat="42.98018" lon="1.12587">
        <ele>426.2</ele>
        <time>2023-04-04T08:46:45.994Z</time>
      </trkpt>
      <trkpt lat="42.98011" lon="1.12578">
        <ele>426</ele>
        <time>2023-04-04T08:46:47.993Z</time>
      </trkpt>
      <trkpt lat="42.98004" lon="1.12567">
        <ele>425.9</ele>
        <time>2023-04-04T08:46:49.993Z</time>
      </trkpt>
      <trkpt lat="42.97996" lon="1.12555">
        <ele>425.7</ele>
        <time>2023-04-04T08:46:52.993Z</time>
      </trkpt>
      <trkpt lat="42.97986" lon="1.12544">
        <ele>425.6</ele>
        <time>2023-04-04T08:46:55.993Z</time>
      </trkpt>
      <trkpt lat="42.9798" lon="1.12534">
        <ele>425.5</ele>
        <time>2023-04-04T08:46:58.993Z</time>
      </trkpt>
      <trkpt lat="42.97972" lon="1.12523">
        <ele>425.5</ele>
        <time>2023-04-04T08:47:01.993Z</time>
      </trkpt>
      <trkpt lat="42.97963" lon="1.12514">
        <ele>425.5</ele>
        <time>2023-04-04T08:47:04.993Z</time>
      </trkpt>
      <trkpt lat="42.97954" lon="1.12504">
        <ele>425.5</ele>
        <time>2023-04-04T08:47:07.993Z</time>
      </trkpt>
      <trkpt lat="42.97947" lon="1.12494">
        <ele>425.6</ele>
        <time>2023-04-04T08:47:10.993Z</time>
      </trkpt>
      <trkpt lat="42.97937" lon="1.12481">
        <ele>425.9</ele>
        <time>2023-04-04T08:47:13.992Z</time>
      </trkpt>
      <trkpt lat="42.97928" lon="1.12472">
        <ele>426.2</ele>
        <time>2023-04-04T08:47:16.992Z</time>
      </trkpt>
      <trkpt lat="42.9792" lon="1.12462">
        <ele>426.6</ele>
        <time>2023-04-04T08:47:18.992Z</time>
      </trkpt>
      <trkpt lat="42.97918" lon="1.1245">
        <ele>427.4</ele>
        <time>2023-04-04T08:47:21.992Z</time>
      </trkpt>
      <trkpt lat="42.97917" lon="1.12437">
        <ele>428.4</ele>
        <time>2023-04-04T08:47:23.992Z</time>
      </trkpt>
      <trkpt lat="42.97917" lon="1.12422">
        <ele>430.4</ele>
        <time>2023-04-04T08:47:26.992Z</time>
      </trkpt>
      <trkpt lat="42.97913" lon="1.1241">
        <ele>432.8</ele>
        <time>2023-04-04T08:47:29.992Z</time>
      </trkpt>
      <trkpt lat="42.97901" lon="1.12401">
        <ele>434.5</ele>
        <time>2023-04-04T08:47:32.992Z</time>
      </trkpt>
      <trkpt lat="42.97893" lon="1.12394">
        <ele>435.1</ele>
        <time>2023-04-04T08:47:34.992Z</time>
      </trkpt>
      <trkpt lat="42.97887" lon="1.12384">
        <ele>435.7</ele>
        <time>2023-04-04T08:47:37.991Z</time>
      </trkpt>
      <trkpt lat="42.97882" lon="1.12367">
        <ele>436.3</ele>
        <time>2023-04-04T08:47:40.991Z</time>
      </trkpt>
      <trkpt lat="42.97878" lon="1.12354">
        <ele>437.2</ele>
        <time>2023-04-04T08:47:43.991Z</time>
      </trkpt>
      <trkpt lat="42.97874" lon="1.12342">
        <ele>438</ele>
        <time>2023-04-04T08:47:46.991Z</time>
      </trkpt>
      <trkpt lat="42.97868" lon="1.12326">
        <ele>438.7</ele>
        <time>2023-04-04T08:47:49.991Z</time>
      </trkpt>
      <trkpt lat="42.97865" lon="1.12308">
        <ele>439</ele>
        <time>2023-04-04T08:47:52.991Z</time>
      </trkpt>
      <trkpt lat="42.97863" lon="1.1229">
        <ele>439.1</ele>
        <time>2023-04-04T08:47:54.991Z</time>
      </trkpt>
      <trkpt lat="42.97859" lon="1.12274">
        <ele>439</ele>
        <time>2023-04-04T08:47:56.991Z</time>
      </trkpt>
      <trkpt lat="42.97852" lon="1.12259">
        <ele>438.7</ele>
        <time>2023-04-04T08:47:59.991Z</time>
      </trkpt>
      <trkpt lat="42.97843" lon="1.12246">
        <ele>438.1</ele>
        <time>2023-04-04T08:48:02.990Z</time>
      </trkpt>
      <trkpt lat="42.97838" lon="1.12233">
        <ele>437.2</ele>
        <time>2023-04-04T08:48:05.990Z</time>
      </trkpt>
      <trkpt lat="42.97848" lon="1.12225">
        <ele>436.6</ele>
        <time>2023-04-04T08:48:08.990Z</time>
      </trkpt>
      <trkpt lat="42.97857" lon="1.12219">
        <ele>436.6</ele>
        <time>2023-04-04T08:48:12.990Z</time>
      </trkpt>
      <trkpt lat="42.97867" lon="1.12216">
        <ele>437</ele>
        <time>2023-04-04T08:48:15.990Z</time>
      </trkpt>
      <trkpt lat="42.97876" lon="1.12209">
        <ele>437.9</ele>
        <time>2023-04-04T08:48:19.990Z</time>
      </trkpt>
      <trkpt lat="42.97885" lon="1.12202">
        <ele>439.2</ele>
        <time>2023-04-04T08:48:23.990Z</time>
      </trkpt>
      <trkpt lat="42.97895" lon="1.12195">
        <ele>440.8</ele>
        <time>2023-04-04T08:48:27.989Z</time>
      </trkpt>
      <trkpt lat="42.97903" lon="1.12189">
        <ele>442.2</ele>
        <time>2023-04-04T08:48:31.989Z</time>
      </trkpt>
      <trkpt lat="42.97912" lon="1.12182">
        <ele>443.6</ele>
        <time>2023-04-04T08:48:35.989Z</time>
      </trkpt>
      <trkpt lat="42.97923" lon="1.12177">
        <ele>445</ele>
        <time>2023-04-04T08:48:39.989Z</time>
      </trkpt>
      <trkpt lat="42.97932" lon="1.12173">
        <ele>445.8</ele>
        <time>2023-04-04T08:48:42.989Z</time>
      </trkpt>
      <trkpt lat="42.97941" lon="1.12169">
        <ele>446.6</ele>
        <time>2023-04-04T08:48:45.989Z</time>
      </trkpt>
      <trkpt lat="42.97952" lon="1.12165">
        <ele>447.5</ele>
        <time>2023-04-04T08:48:49.988Z</time>
      </trkpt>
      <trkpt lat="42.97961" lon="1.12162">
        <ele>448.1</ele>
        <time>2023-04-04T08:48:52.988Z</time>
      </trkpt>
      <trkpt lat="42.9797" lon="1.12158">
        <ele>448.6</ele>
        <time>2023-04-04T08:48:55.988Z</time>
      </trkpt>
      <trkpt lat="42.97979" lon="1.12153">
        <ele>449.1</ele>
        <time>2023-04-04T08:48:58.988Z</time>
      </trkpt>
      <trkpt lat="42.97987" lon="1.12146">
        <ele>449.3</ele>
        <time>2023-04-04T08:49:01.988Z</time>
      </trkpt>
      <trkpt lat="42.97994" lon="1.12136">
        <ele>449.2</ele>
        <time>2023-04-04T08:49:04.988Z</time>
      </trkpt>
      <trkpt lat="42.98001" lon="1.12125">
        <ele>448.8</ele>
        <time>2023-04-04T08:49:08.988Z</time>
      </trkpt>
      <trkpt lat="42.98009" lon="1.12115">
        <ele>448.2</ele>
        <time>2023-04-04T08:49:12.988Z</time>
      </trkpt>
      <trkpt lat="42.98015" lon="1.12106">
        <ele>447.6</ele>
        <time>2023-04-04T08:49:15.987Z</time>
      </trkpt>
      <trkpt lat="42.98023" lon="1.12098">
        <ele>446.9</ele>
        <time>2023-04-04T08:49:18.987Z</time>
      </trkpt>
      <trkpt lat="42.9803" lon="1.12087">
        <ele>446.2</ele>
        <time>2023-04-04T08:49:21.987Z</time>
      </trkpt>
      <trkpt lat="42.98034" lon="1.12075">
        <ele>445.3</ele>
        <time>2023-04-04T08:49:24.987Z</time>
      </trkpt>
      <trkpt lat="42.98034" lon="1.12058">
        <ele>444.1</ele>
        <time>2023-04-04T08:49:28.987Z</time>
      </trkpt>
      <trkpt lat="42.9803" lon="1.12042">
        <ele>443.2</ele>
        <time>2023-04-04T08:49:30.987Z</time>
      </trkpt>
      <trkpt lat="42.98029" lon="1.12028">
        <ele>442</ele>
        <time>2023-04-04T08:49:32.987Z</time>
      </trkpt>
      <trkpt lat="42.98029" lon="1.12012">
        <ele>440.7</ele>
        <time>2023-04-04T08:49:34.987Z</time>
      </trkpt>
      <trkpt lat="42.98039" lon="1.11997">
        <ele>439.4</ele>
        <time>2023-04-04T08:49:36.987Z</time>
      </trkpt>
      <trkpt lat="42.98045" lon="1.11983">
        <ele>438.5</ele>
        <time>2023-04-04T08:49:38.986Z</time>
      </trkpt>
      <trkpt lat="42.9805" lon="1.11968">
        <ele>438</ele>
        <time>2023-04-04T08:49:40.986Z</time>
      </trkpt>
      <trkpt lat="42.98051" lon="1.11953">
        <ele>437.8</ele>
        <time>2023-04-04T08:49:42.986Z</time>
      </trkpt>
      <trkpt lat="42.9805" lon="1.11935">
        <ele>437.7</ele>
        <time>2023-04-04T08:49:45.986Z</time>
      </trkpt>
      <trkpt lat="42.98051" lon="1.11918">
        <ele>437.7</ele>
        <time>2023-04-04T08:49:48.986Z</time>
      </trkpt>
      <trkpt lat="42.98051" lon="1.11901">
        <ele>437.9</ele>
        <time>2023-04-04T08:49:51.986Z</time>
      </trkpt>
      <trkpt lat="42.98055" lon="1.11885">
        <ele>438.3</ele>
        <time>2023-04-04T08:49:54.986Z</time>
      </trkpt>
      <trkpt lat="42.98061" lon="1.11871">
        <ele>439</ele>
        <time>2023-04-04T08:49:57.986Z</time>
      </trkpt>
      <trkpt lat="42.98068" lon="1.11858">
        <ele>439.9</ele>
        <time>2023-04-04T08:50:00.986Z</time>
      </trkpt>
      <trkpt lat="42.98077" lon="1.1185">
        <ele>441</ele>
        <time>2023-04-04T08:50:03.985Z</time>
      </trkpt>
      <trkpt lat="42.98086" lon="1.11841">
        <ele>442.2</ele>
        <time>2023-04-04T08:50:06.985Z</time>
      </trkpt>
      <trkpt lat="42.98094" lon="1.11833">
        <ele>443.3</ele>
        <time>2023-04-04T08:50:09.985Z</time>
      </trkpt>
      <trkpt lat="42.98101" lon="1.11825">
        <ele>444</ele>
        <time>2023-04-04T08:50:12.985Z</time>
      </trkpt>
      <trkpt lat="42.98109" lon="1.11816">
        <ele>444.4</ele>
        <time>2023-04-04T08:50:15.985Z</time>
      </trkpt>
      <trkpt lat="42.98118" lon="1.11807">
        <ele>444.9</ele>
        <time>2023-04-04T08:50:19.985Z</time>
      </trkpt>
      <trkpt lat="42.98126" lon="1.11799">
        <ele>445.1</ele>
        <time>2023-04-04T08:50:22.985Z</time>
      </trkpt>
      <trkpt lat="42.98135" lon="1.11791">
        <ele>445.4</ele>
        <time>2023-04-04T08:50:25.985Z</time>
      </trkpt>
      <trkpt lat="42.98143" lon="1.11784">
        <ele>445.6</ele>
        <time>2023-04-04T08:50:28.984Z</time>
      </trkpt>
      <trkpt lat="42.98152" lon="1.11776">
        <ele>445.9</ele>
        <time>2023-04-04T08:50:31.984Z</time>
      </trkpt>
      <trkpt lat="42.98161" lon="1.11767">
        <ele>446.4</ele>
        <time>2023-04-04T08:50:34.984Z</time>
      </trkpt>
      <trkpt lat="42.98169" lon="1.11755">
        <ele>446.9</ele>
        <time>2023-04-04T08:50:37.984Z</time>
      </trkpt>
      <trkpt lat="42.98175" lon="1.11744">
        <ele>447.4</ele>
        <time>2023-04-04T08:50:40.984Z</time>
      </trkpt>
      <trkpt lat="42.98179" lon="1.1173">
        <ele>447.7</ele>
        <time>2023-04-04T08:50:43.984Z</time>
      </trkpt>
      <trkpt lat="42.98185" lon="1.11717">
        <ele>447.7</ele>
        <time>2023-04-04T08:50:46.984Z</time>
      </trkpt>
      <trkpt lat="42.98189" lon="1.11702">
        <ele>447.6</ele>
        <time>2023-04-04T08:50:50.984Z</time>
      </trkpt>
      <trkpt lat="42.98194" lon="1.11691">
        <ele>447.4</ele>
        <time>2023-04-04T08:50:53.983Z</time>
      </trkpt>
      <trkpt lat="42.982" lon="1.11679">
        <ele>447.1</ele>
        <time>2023-04-04T08:50:56.983Z</time>
      </trkpt>
      <trkpt lat="42.98208" lon="1.11664">
        <ele>446.6</ele>
        <time>2023-04-04T08:50:59.983Z</time>
      </trkpt>
      <trkpt lat="42.98214" lon="1.11651">
        <ele>446</ele>
        <time>2023-04-04T08:51:02.983Z</time>
      </trkpt>
      <trkpt lat="42.98221" lon="1.11639">
        <ele>445.2</ele>
        <time>2023-04-04T08:51:05.983Z</time>
      </trkpt>
      <trkpt lat="42.98226" lon="1.11627">
        <ele>444.5</ele>
        <time>2023-04-04T08:51:07.983Z</time>
      </trkpt>
      <trkpt lat="42.98234" lon="1.11615">
        <ele>443.5</ele>
        <time>2023-04-04T08:51:10.983Z</time>
      </trkpt>
      <trkpt lat="42.98237" lon="1.116">
        <ele>442.9</ele>
        <time>2023-04-04T08:51:12.983Z</time>
      </trkpt>
      <trkpt lat="42.98245" lon="1.1159">
        <ele>441.9</ele>
        <time>2023-04-04T08:51:15.982Z</time>
      </trkpt>
      <trkpt lat="42.98252" lon="1.11576">
        <ele>441.1</ele>
        <time>2023-04-04T08:51:18.982Z</time>
      </trkpt>
      <trkpt lat="42.98259" lon="1.11561">
        <ele>440.5</ele>
        <time>2023-04-04T08:51:21.982Z</time>
      </trkpt>
      <trkpt lat="42.98267" lon="1.11548">
        <ele>440</ele>
        <time>2023-04-04T08:51:25.982Z</time>
      </trkpt>
      <trkpt lat="42.9827" lon="1.11534">
        <ele>439.8</ele>
        <time>2023-04-04T08:51:28.982Z</time>
      </trkpt>
      <trkpt lat="42.98275" lon="1.1152">
        <ele>439.7</ele>
        <time>2023-04-04T08:51:31.982Z</time>
      </trkpt>
      <trkpt lat="42.9828" lon="1.11505">
        <ele>439.7</ele>
        <time>2023-04-04T08:51:34.982Z</time>
      </trkpt>
      <trkpt lat="42.98286" lon="1.11495">
        <ele>439.7</ele>
        <time>2023-04-04T08:51:37.982Z</time>
      </trkpt>
      <trkpt lat="42.98292" lon="1.11484">
        <ele>439.6</ele>
        <time>2023-04-04T08:51:41.981Z</time>
      </trkpt>
      <trkpt lat="42.98292" lon="1.11468">
        <ele>439.6</ele>
        <time>2023-04-04T08:51:45.981Z</time>
      </trkpt>
      <trkpt lat="42.9829" lon="1.1145">
        <ele>439.8</ele>
        <time>2023-04-04T08:51:49.981Z</time>
      </trkpt>
      <trkpt lat="42.98286" lon="1.11437">
        <ele>440.1</ele>
        <time>2023-04-04T08:51:51.981Z</time>
      </trkpt>
      <trkpt lat="42.98285" lon="1.11422">
        <ele>440.8</ele>
        <time>2023-04-04T08:51:54.981Z</time>
      </trkpt>
      <trkpt lat="42.98285" lon="1.11407">
        <ele>442</ele>
        <time>2023-04-04T08:51:58.981Z</time>
      </trkpt>
      <trkpt lat="42.98285" lon="1.11395">
        <ele>442.9</ele>
        <time>2023-04-04T08:52:01.981Z</time>
      </trkpt>
      <trkpt lat="42.98284" lon="1.1138">
        <ele>443.9</ele>
        <time>2023-04-04T08:52:06.980Z</time>
      </trkpt>
      <trkpt lat="42.98282" lon="1.11368">
        <ele>444.5</ele>
        <time>2023-04-04T08:52:10.980Z</time>
      </trkpt>
      <trkpt lat="42.98281" lon="1.11355">
        <ele>444.8</ele>
        <time>2023-04-04T08:52:13.980Z</time>
      </trkpt>
      <trkpt lat="42.98279" lon="1.11343">
        <ele>445</ele>
        <time>2023-04-04T08:52:15.980Z</time>
      </trkpt>
      <trkpt lat="42.98282" lon="1.1133">
        <ele>445.2</ele>
        <time>2023-04-04T08:52:18.980Z</time>
      </trkpt>
      <trkpt lat="42.98282" lon="1.11317">
        <ele>445.3</ele>
        <time>2023-04-04T08:52:21.980Z</time>
      </trkpt>
      <trkpt lat="42.98283" lon="1.11304">
        <ele>445.1</ele>
        <time>2023-04-04T08:52:24.980Z</time>
      </trkpt>
      <trkpt lat="42.98284" lon="1.11289">
        <ele>444.8</ele>
        <time>2023-04-04T08:52:28.979Z</time>
      </trkpt>
      <trkpt lat="42.98286" lon="1.11274">
        <ele>444.3</ele>
        <time>2023-04-04T08:52:32.979Z</time>
      </trkpt>
      <trkpt lat="42.98288" lon="1.11261">
        <ele>443.7</ele>
        <time>2023-04-04T08:52:35.983Z</time>
      </trkpt>
      <trkpt lat="42.98292" lon="1.1125">
        <ele>442.9</ele>
        <time>2023-04-04T08:52:38.986Z</time>
      </trkpt>
      <trkpt lat="42.98298" lon="1.11235">
        <ele>441.6</ele>
        <time>2023-04-04T08:52:42.989Z</time>
      </trkpt>
      <trkpt lat="42.98302" lon="1.11221">
        <ele>440.4</ele>
        <time>2023-04-04T08:52:45.991Z</time>
      </trkpt>
      <trkpt lat="42.98306" lon="1.1121">
        <ele>439.5</ele>
        <time>2023-04-04T08:52:47.992Z</time>
      </trkpt>
      <trkpt lat="42.98309" lon="1.11195">
        <ele>438.5</ele>
        <time>2023-04-04T08:52:49.993Z</time>
      </trkpt>
      <trkpt lat="42.98315" lon="1.1118">
        <ele>437.2</ele>
        <time>2023-04-04T08:52:51.994Z</time>
      </trkpt>
      <trkpt lat="42.9832" lon="1.11161">
        <ele>435.8</ele>
        <time>2023-04-04T08:52:53.995Z</time>
      </trkpt>
      <trkpt lat="42.98325" lon="1.11144">
        <ele>434.5</ele>
        <time>2023-04-04T08:52:55.995Z</time>
      </trkpt>
      <trkpt lat="42.98329" lon="1.11123">
        <ele>433.7</ele>
        <time>2023-04-04T08:52:57.996Z</time>
      </trkpt>
      <trkpt lat="42.9833" lon="1.11104">
        <ele>433.4</ele>
        <time>2023-04-04T08:52:59.996Z</time>
      </trkpt>
      <trkpt lat="42.98339" lon="1.11083">
        <ele>433.2</ele>
        <time>2023-04-04T08:53:01.997Z</time>
      </trkpt>
      <trkpt lat="42.98345" lon="1.11072">
        <ele>432.9</ele>
        <time>2023-04-04T08:53:02.997Z</time>
      </trkpt>
      <trkpt lat="42.98362" lon="1.1106">
        <ele>432.1</ele>
        <time>2023-04-04T08:53:04.997Z</time>
      </trkpt>
      <trkpt lat="42.98371" lon="1.11062">
        <ele>431.5</ele>
        <time>2023-04-04T08:53:05.997Z</time>
      </trkpt>
      <trkpt lat="42.98381" lon="1.11069">
        <ele>431</ele>
        <time>2023-04-04T08:53:06.997Z</time>
      </trkpt>
      <trkpt lat="42.98394" lon="1.11083">
        <ele>430.3</ele>
        <time>2023-04-04T08:53:07.997Z</time>
      </trkpt>
      <trkpt lat="42.98406" lon="1.11093">
        <ele>429.6</ele>
        <time>2023-04-04T08:53:08.998Z</time>
      </trkpt>
      <trkpt lat="42.98421" lon="1.11102">
        <ele>428.6</ele>
        <time>2023-04-04T08:53:09.998Z</time>
      </trkpt>
      <trkpt lat="42.98433" lon="1.11106">
        <ele>427.5</ele>
        <time>2023-04-04T08:53:10.998Z</time>
      </trkpt>
      <trkpt lat="42.98445" lon="1.11107">
        <ele>426.3</ele>
        <time>2023-04-04T08:53:11.998Z</time>
      </trkpt>
      <trkpt lat="42.98458" lon="1.11107">
        <ele>425.1</ele>
        <time>2023-04-04T08:53:12.998Z</time>
      </trkpt>
      <trkpt lat="42.98469" lon="1.11112">
        <ele>423.9</ele>
        <time>2023-04-04T08:53:13.998Z</time>
      </trkpt>
      <trkpt lat="42.9848" lon="1.11117">
        <ele>422.7</ele>
        <time>2023-04-04T08:53:14.998Z</time>
      </trkpt>
      <trkpt lat="42.9849" lon="1.11122">
        <ele>421.6</ele>
        <time>2023-04-04T08:53:15.998Z</time>
      </trkpt>
      <trkpt lat="42.98503" lon="1.11126">
        <ele>420.5</ele>
        <time>2023-04-04T08:53:16.998Z</time>
      </trkpt>
      <trkpt lat="42.98515" lon="1.11128">
        <ele>419.6</ele>
        <time>2023-04-04T08:53:17.998Z</time>
      </trkpt>
      <trkpt lat="42.98526" lon="1.1113">
        <ele>418.9</ele>
        <time>2023-04-04T08:53:18.998Z</time>
      </trkpt>
      <trkpt lat="42.98535" lon="1.11131">
        <ele>417.9</ele>
        <time>2023-04-04T08:53:20.998Z</time>
      </trkpt>
      <trkpt lat="42.98548" lon="1.11124">
        <ele>417.4</ele>
        <time>2023-04-04T08:53:22.998Z</time>
      </trkpt>
      <trkpt lat="42.9856" lon="1.11117">
        <ele>417</ele>
        <time>2023-04-04T08:53:24.998Z</time>
      </trkpt>
      <trkpt lat="42.98551" lon="1.11101">
        <ele>416.9</ele>
        <time>2023-04-04T08:53:25.998Z</time>
      </trkpt>
      <trkpt lat="42.98545" lon="1.11086">
        <ele>416.8</ele>
        <time>2023-04-04T08:53:27.998Z</time>
      </trkpt>
      <trkpt lat="42.98538" lon="1.1107">
        <ele>416.8</ele>
        <time>2023-04-04T08:53:29.998Z</time>
      </trkpt>
      <trkpt lat="42.98533" lon="1.11056">
        <ele>416.9</ele>
        <time>2023-04-04T08:53:31.998Z</time>
      </trkpt>
      <trkpt lat="42.98528" lon="1.11044">
        <ele>417</ele>
        <time>2023-04-04T08:53:33.998Z</time>
      </trkpt>
      <trkpt lat="42.98524" lon="1.11028">
        <ele>417.3</ele>
        <time>2023-04-04T08:53:35.998Z</time>
      </trkpt>
      <trkpt lat="42.98522" lon="1.11016">
        <ele>417.5</ele>
        <time>2023-04-04T08:53:37.998Z</time>
      </trkpt>
      <trkpt lat="42.98521" lon="1.11001">
        <ele>417.9</ele>
        <time>2023-04-04T08:53:40.998Z</time>
      </trkpt>
      <trkpt lat="42.98522" lon="1.10988">
        <ele>418.2</ele>
        <time>2023-04-04T08:53:42.998Z</time>
      </trkpt>
      <trkpt lat="42.98523" lon="1.10973">
        <ele>418.5</ele>
        <time>2023-04-04T08:53:44.998Z</time>
      </trkpt>
      <trkpt lat="42.98523" lon="1.10959">
        <ele>418.8</ele>
        <time>2023-04-04T08:53:46.998Z</time>
      </trkpt>
      <trkpt lat="42.98524" lon="1.10947">
        <ele>419.1</ele>
        <time>2023-04-04T08:53:48.998Z</time>
      </trkpt>
      <trkpt lat="42.98524" lon="1.10934">
        <ele>419.3</ele>
        <time>2023-04-04T08:53:50.998Z</time>
      </trkpt>
      <trkpt lat="42.98524" lon="1.1092">
        <ele>419.6</ele>
        <time>2023-04-04T08:53:52.998Z</time>
      </trkpt>
      <trkpt lat="42.98527" lon="1.10904">
        <ele>419.9</ele>
        <time>2023-04-04T08:53:54.998Z</time>
      </trkpt>
      <trkpt lat="42.98536" lon="1.10901">
        <ele>420.4</ele>
        <time>2023-04-04T08:53:57.998Z</time>
      </trkpt>
      <trkpt lat="42.98549" lon="1.10896">
        <ele>421</ele>
        <time>2023-04-04T08:54:00.998Z</time>
      </trkpt>
      <trkpt lat="42.9856" lon="1.10891">
        <ele>421.9</ele>
        <time>2023-04-04T08:54:04.997Z</time>
      </trkpt>
      <trkpt lat="42.98568" lon="1.10883">
        <ele>422.8</ele>
        <time>2023-04-04T08:54:08.997Z</time>
      </trkpt>
      <trkpt lat="42.98575" lon="1.10874">
        <ele>423.7</ele>
        <time>2023-04-04T08:54:12.997Z</time>
      </trkpt>
      <trkpt lat="42.98578" lon="1.10861">
        <ele>424.3</ele>
        <time>2023-04-04T08:54:15.997Z</time>
      </trkpt>
      <trkpt lat="42.98584" lon="1.10851">
        <ele>425.2</ele>
        <time>2023-04-04T08:54:19.997Z</time>
      </trkpt>
      <trkpt lat="42.98589" lon="1.10837">
        <ele>426.2</ele>
        <time>2023-04-04T08:54:23.997Z</time>
      </trkpt>
      <trkpt lat="42.98597" lon="1.10825">
        <ele>427.4</ele>
        <time>2023-04-04T08:54:27.996Z</time>
      </trkpt>
      <trkpt lat="42.98608" lon="1.10822">
        <ele>428.5</ele>
        <time>2023-04-04T08:54:30.996Z</time>
      </trkpt>
      <trkpt lat="42.98617" lon="1.10826">
        <ele>429.6</ele>
        <time>2023-04-04T08:54:33.996Z</time>
      </trkpt>
      <trkpt lat="42.98626" lon="1.10835">
        <ele>430.8</ele>
        <time>2023-04-04T08:54:37.996Z</time>
      </trkpt>
      <trkpt lat="42.98637" lon="1.10838">
        <ele>431.7</ele>
        <time>2023-04-04T08:54:42.996Z</time>
      </trkpt>
      <trkpt lat="42.98645" lon="1.1083">
        <ele>432.7</ele>
        <time>2023-04-04T08:54:46.996Z</time>
      </trkpt>
      <trkpt lat="42.98652" lon="1.10823">
        <ele>433.8</ele>
        <time>2023-04-04T08:54:50.995Z</time>
      </trkpt>
      <trkpt lat="42.98661" lon="1.10816">
        <ele>435.7</ele>
        <time>2023-04-04T08:54:56.995Z</time>
      </trkpt>
      <trkpt lat="42.9867" lon="1.10808">
        <ele>437.3</ele>
        <time>2023-04-04T08:55:02.995Z</time>
      </trkpt>
      <trkpt lat="42.98678" lon="1.108">
        <ele>438</ele>
        <time>2023-04-04T08:55:07.995Z</time>
      </trkpt>
      <trkpt lat="42.98686" lon="1.10791">
        <ele>438.3</ele>
        <time>2023-04-04T08:55:12.995Z</time>
      </trkpt>
      <trkpt lat="42.98695" lon="1.10785">
        <ele>438.4</ele>
        <time>2023-04-04T08:55:16.994Z</time>
      </trkpt>
      <trkpt lat="42.98706" lon="1.10778">
        <ele>438.2</ele>
        <time>2023-04-04T08:55:20.994Z</time>
      </trkpt>
      <trkpt lat="42.98714" lon="1.10773">
        <ele>438</ele>
        <time>2023-04-04T08:55:24.994Z</time>
      </trkpt>
      <trkpt lat="42.98722" lon="1.10765">
        <ele>437.7</ele>
        <time>2023-04-04T08:55:29.994Z</time>
      </trkpt>
      <trkpt lat="42.98729" lon="1.10755">
        <ele>437.3</ele>
        <time>2023-04-04T08:55:35.994Z</time>
      </trkpt>
      <trkpt lat="42.98732" lon="1.10742">
        <ele>437.2</ele>
        <time>2023-04-04T08:55:40.993Z</time>
      </trkpt>
      <trkpt lat="42.98735" lon="1.1073">
        <ele>437.2</ele>
        <time>2023-04-04T08:55:45.993Z</time>
      </trkpt>
      <trkpt lat="42.98739" lon="1.10719">
        <ele>437.2</ele>
        <time>2023-04-04T08:55:50.993Z</time>
      </trkpt>
      <trkpt lat="42.98743" lon="1.10707">
        <ele>437.3</ele>
        <time>2023-04-04T08:55:55.993Z</time>
      </trkpt>
      <trkpt lat="42.98745" lon="1.10694">
        <ele>437.5</ele>
        <time>2023-04-04T08:56:00.993Z</time>
      </trkpt>
      <trkpt lat="42.98748" lon="1.1068">
        <ele>437.7</ele>
        <time>2023-04-04T08:56:05.992Z</time>
      </trkpt>
      <trkpt lat="42.98754" lon="1.10669">
        <ele>438.2</ele>
        <time>2023-04-04T08:56:12.992Z</time>
      </trkpt>
      <trkpt lat="42.98755" lon="1.10655">
        <ele>438.7</ele>
        <time>2023-04-04T08:56:18.992Z</time>
      </trkpt>
      <trkpt lat="42.98757" lon="1.10643">
        <ele>439.4</ele>
        <time>2023-04-04T08:56:24.992Z</time>
      </trkpt>
      <trkpt lat="42.98762" lon="1.1063">
        <ele>440</ele>
        <time>2023-04-04T08:56:29.991Z</time>
      </trkpt>
      <trkpt lat="42.98767" lon="1.10615">
        <ele>440.5</ele>
        <time>2023-04-04T08:56:33.991Z</time>
      </trkpt>
      <trkpt lat="42.98773" lon="1.10604">
        <ele>440.9</ele>
        <time>2023-04-04T08:56:37.991Z</time>
      </trkpt>
      <trkpt lat="42.98778" lon="1.10593">
        <ele>441.1</ele>
        <time>2023-04-04T08:56:41.991Z</time>
      </trkpt>
      <trkpt lat="42.98784" lon="1.1058">
        <ele>441.3</ele>
        <time>2023-04-04T08:56:46.991Z</time>
      </trkpt>
      <trkpt lat="42.98791" lon="1.10568">
        <ele>441.5</ele>
        <time>2023-04-04T08:56:51.990Z</time>
      </trkpt>
      <trkpt lat="42.98795" lon="1.10556">
        <ele>441.6</ele>
        <time>2023-04-04T08:56:57.990Z</time>
      </trkpt>
      <trkpt lat="42.98799" lon="1.10544">
        <ele>441.7</ele>
        <time>2023-04-04T08:57:01.990Z</time>
      </trkpt>
      <trkpt lat="42.98803" lon="1.10531">
        <ele>441.9</ele>
        <time>2023-04-04T08:57:05.990Z</time>
      </trkpt>
      <trkpt lat="42.98809" lon="1.1052">
        <ele>442.1</ele>
        <time>2023-04-04T08:57:09.990Z</time>
      </trkpt>
      <trkpt lat="42.98815" lon="1.10508">
        <ele>442.3</ele>
        <time>2023-04-04T08:57:13.990Z</time>
      </trkpt>
      <trkpt lat="42.98818" lon="1.10496">
        <ele>442.5</ele>
        <time>2023-04-04T08:57:18.989Z</time>
      </trkpt>
      <trkpt lat="42.98821" lon="1.10484">
        <ele>442.7</ele>
        <time>2023-04-04T08:57:23.989Z</time>
      </trkpt>
      <trkpt lat="42.98823" lon="1.1048">
        <ele>442.8</ele>
        <time>2023-04-04T08:57:27.989Z</time>
      </trkpt>
      <trkpt lat="42.98823" lon="1.10478">
        <ele>443.5</ele>
        <time>2023-04-04T09:01:04.998Z</time>
      </trkpt>
      <trkpt lat="42.98823" lon="1.10475">
        <ele>443.5</ele>
        <time>2023-04-04T09:01:09.997Z</time>
      </trkpt>
      <trkpt lat="42.98824" lon="1.10473">
        <ele>443.6</ele>
        <time>2023-04-04T09:01:31.997Z</time>
      </trkpt>
      <trkpt lat="42.98824" lon="1.10469">
        <ele>443.6</ele>
        <time>2023-04-04T09:01:37.996Z</time>
      </trkpt>
      <trkpt lat="42.98824" lon="1.10469">
        <ele>443.7</ele>
        <time>2023-04-04T09:01:45.996Z</time>
      </trkpt>
      <trkpt lat="42.98829" lon="1.10455">
        <ele>443.7</ele>
        <time>2023-04-04T09:01:51.996Z</time>
      </trkpt>
      <trkpt lat="42.98834" lon="1.10441">
        <ele>443.8</ele>
        <time>2023-04-04T09:01:55.996Z</time>
      </trkpt>
      <trkpt lat="42.98838" lon="1.10429">
        <ele>443.8</ele>
        <time>2023-04-04T09:01:58.996Z</time>
      </trkpt>
      <trkpt lat="42.98842" lon="1.10417">
        <ele>444</ele>
        <time>2023-04-04T09:02:01.995Z</time>
      </trkpt>
      <trkpt lat="42.98848" lon="1.10404">
        <ele>444.3</ele>
        <time>2023-04-04T09:02:05.995Z</time>
      </trkpt>
      <trkpt lat="42.98852" lon="1.10393">
        <ele>444.9</ele>
        <time>2023-04-04T09:02:09.995Z</time>
      </trkpt>
      <trkpt lat="42.98855" lon="1.10381">
        <ele>445.6</ele>
        <time>2023-04-04T09:02:13.995Z</time>
      </trkpt>
      <trkpt lat="42.98862" lon="1.10371">
        <ele>446.4</ele>
        <time>2023-04-04T09:02:17.995Z</time>
      </trkpt>
      <trkpt lat="42.98867" lon="1.10359">
        <ele>446.9</ele>
        <time>2023-04-04T09:02:20.995Z</time>
      </trkpt>
      <trkpt lat="42.98864" lon="1.10342">
        <ele>447.5</ele>
        <time>2023-04-04T09:02:23.994Z</time>
      </trkpt>
      <trkpt lat="42.9886" lon="1.10329">
        <ele>448.2</ele>
        <time>2023-04-04T09:02:26.994Z</time>
      </trkpt>
      <trkpt lat="42.98858" lon="1.10315">
        <ele>449.1</ele>
        <time>2023-04-04T09:02:30.994Z</time>
      </trkpt>
      <trkpt lat="42.98856" lon="1.10302">
        <ele>449.9</ele>
        <time>2023-04-04T09:02:34.994Z</time>
      </trkpt>
      <trkpt lat="42.98854" lon="1.10288">
        <ele>450.5</ele>
        <time>2023-04-04T09:02:38.994Z</time>
      </trkpt>
      <trkpt lat="42.98851" lon="1.10274">
        <ele>451.3</ele>
        <time>2023-04-04T09:02:43.994Z</time>
      </trkpt>
      <trkpt lat="42.98846" lon="1.10261">
        <ele>452.1</ele>
        <time>2023-04-04T09:02:48.993Z</time>
      </trkpt>
      <trkpt lat="42.98845" lon="1.10248">
        <ele>452.8</ele>
        <time>2023-04-04T09:02:52.993Z</time>
      </trkpt>
      <trkpt lat="42.98845" lon="1.10236">
        <ele>454.1</ele>
        <time>2023-04-04T09:02:57.993Z</time>
      </trkpt>
      <trkpt lat="42.98842" lon="1.10222">
        <ele>456.1</ele>
        <time>2023-04-04T09:03:02.993Z</time>
      </trkpt>
      <trkpt lat="42.98842" lon="1.10208">
        <ele>458.8</ele>
        <time>2023-04-04T09:03:08.993Z</time>
      </trkpt>
      <trkpt lat="42.9884" lon="1.10196">
        <ele>460.8</ele>
        <time>2023-04-04T09:03:12.992Z</time>
      </trkpt>
      <trkpt lat="42.98839" lon="1.10183">
        <ele>463.1</ele>
        <time>2023-04-04T09:03:16.992Z</time>
      </trkpt>
      <trkpt lat="42.9884" lon="1.10169">
        <ele>466.3</ele>
        <time>2023-04-04T09:03:23.992Z</time>
      </trkpt>
      <trkpt lat="42.98845" lon="1.10159">
        <ele>467.6</ele>
        <time>2023-04-04T09:03:27.992Z</time>
      </trkpt>
      <trkpt lat="42.98851" lon="1.10147">
        <ele>469.1</ele>
        <time>2023-04-04T09:03:32.992Z</time>
      </trkpt>
      <trkpt lat="42.98852" lon="1.10134">
        <ele>471.4</ele>
        <time>2023-04-04T09:03:38.991Z</time>
      </trkpt>
      <trkpt lat="42.98857" lon="1.10123">
        <ele>473.4</ele>
        <time>2023-04-04T09:03:43.991Z</time>
      </trkpt>
      <trkpt lat="42.98865" lon="1.10113">
        <ele>474.6</ele>
        <time>2023-04-04T09:03:48.991Z</time>
      </trkpt>
      <trkpt lat="42.98876" lon="1.10105">
        <ele>474.7</ele>
        <time>2023-04-04T09:03:52.991Z</time>
      </trkpt>
      <trkpt lat="42.98886" lon="1.10097">
        <ele>474.4</ele>
        <time>2023-04-04T09:03:56.991Z</time>
      </trkpt>
      <trkpt lat="42.98894" lon="1.10088">
        <ele>473.8</ele>
        <time>2023-04-04T09:04:01.990Z</time>
      </trkpt>
      <trkpt lat="42.989" lon="1.10076">
        <ele>473.3</ele>
        <time>2023-04-04T09:04:06.990Z</time>
      </trkpt>
      <trkpt lat="42.98907" lon="1.10067">
        <ele>473.1</ele>
        <time>2023-04-04T09:04:10.990Z</time>
      </trkpt>
      <trkpt lat="42.98911" lon="1.10055">
        <ele>473</ele>
        <time>2023-04-04T09:04:15.990Z</time>
      </trkpt>
      <trkpt lat="42.98916" lon="1.10041">
        <ele>473.1</ele>
        <time>2023-04-04T09:04:20.990Z</time>
      </trkpt>
      <trkpt lat="42.98922" lon="1.10028">
        <ele>473.5</ele>
        <time>2023-04-04T09:04:25.989Z</time>
      </trkpt>
      <trkpt lat="42.98928" lon="1.10017">
        <ele>474.1</ele>
        <time>2023-04-04T09:04:30.989Z</time>
      </trkpt>
      <trkpt lat="42.98936" lon="1.1001">
        <ele>474.7</ele>
        <time>2023-04-04T09:04:35.989Z</time>
      </trkpt>
      <trkpt lat="42.98943" lon="1.1">
        <ele>475.2</ele>
        <time>2023-04-04T09:04:39.989Z</time>
      </trkpt>
      <trkpt lat="42.98949" lon="1.09987">
        <ele>475.9</ele>
        <time>2023-04-04T09:04:43.989Z</time>
      </trkpt>
      <trkpt lat="42.98954" lon="1.09974">
        <ele>477.1</ele>
        <time>2023-04-04T09:04:47.989Z</time>
      </trkpt>
      <trkpt lat="42.98954" lon="1.0996">
        <ele>479.3</ele>
        <time>2023-04-04T09:04:52.988Z</time>
      </trkpt>
      <trkpt lat="42.98956" lon="1.09947">
        <ele>483.5</ele>
        <time>2023-04-04T09:04:59.988Z</time>
      </trkpt>
      <trkpt lat="42.98963" lon="1.09936">
        <ele>484.9</ele>
        <time>2023-04-04T09:05:05.988Z</time>
      </trkpt>
      <trkpt lat="42.98971" lon="1.09926">
        <ele>485.7</ele>
        <time>2023-04-04T09:05:11.988Z</time>
      </trkpt>
      <trkpt lat="42.98979" lon="1.09919">
        <ele>485.8</ele>
        <time>2023-04-04T09:05:15.987Z</time>
      </trkpt>
      <trkpt lat="42.98988" lon="1.0991">
        <ele>485.7</ele>
        <time>2023-04-04T09:05:20.987Z</time>
      </trkpt>
      <trkpt lat="42.98993" lon="1.099">
        <ele>485.4</ele>
        <time>2023-04-04T09:05:25.987Z</time>
      </trkpt>
      <trkpt lat="42.98997" lon="1.09886">
        <ele>485.2</ele>
        <time>2023-04-04T09:05:29.987Z</time>
      </trkpt>
      <trkpt lat="42.98998" lon="1.09873">
        <ele>485.2</ele>
        <time>2023-04-04T09:05:33.987Z</time>
      </trkpt>
      <trkpt lat="42.99001" lon="1.0986">
        <ele>485.4</ele>
        <time>2023-04-04T09:05:37.986Z</time>
      </trkpt>
      <trkpt lat="42.99002" lon="1.09847">
        <ele>485.6</ele>
        <time>2023-04-04T09:05:41.986Z</time>
      </trkpt>
      <trkpt lat="42.99003" lon="1.09833">
        <ele>486</ele>
        <time>2023-04-04T09:05:45.986Z</time>
      </trkpt>
      <trkpt lat="42.98998" lon="1.09821">
        <ele>486.8</ele>
        <time>2023-04-04T09:05:51.986Z</time>
      </trkpt>
      <trkpt lat="42.98991" lon="1.09814">
        <ele>487.8</ele>
        <time>2023-04-04T09:05:56.986Z</time>
      </trkpt>
      <trkpt lat="42.98981" lon="1.09805">
        <ele>489.1</ele>
        <time>2023-04-04T09:06:01.985Z</time>
      </trkpt>
      <trkpt lat="42.98971" lon="1.09796">
        <ele>490.3</ele>
        <time>2023-04-04T09:06:05.985Z</time>
      </trkpt>
      <trkpt lat="42.98964" lon="1.09787">
        <ele>491.8</ele>
        <time>2023-04-04T09:06:11.985Z</time>
      </trkpt>
      <trkpt lat="42.9896" lon="1.09774">
        <ele>492.4</ele>
        <time>2023-04-04T09:06:16.985Z</time>
      </trkpt>
      <trkpt lat="42.98958" lon="1.0976">
        <ele>492.4</ele>
        <time>2023-04-04T09:06:21.985Z</time>
      </trkpt>
      <trkpt lat="42.98955" lon="1.09746">
        <ele>492.1</ele>
        <time>2023-04-04T09:06:26.984Z</time>
      </trkpt>
      <trkpt lat="42.98952" lon="1.09734">
        <ele>491.7</ele>
        <time>2023-04-04T09:06:30.984Z</time>
      </trkpt>
      <trkpt lat="42.9895" lon="1.0972">
        <ele>491.1</ele>
        <time>2023-04-04T09:06:35.984Z</time>
      </trkpt>
      <trkpt lat="42.98951" lon="1.09706">
        <ele>490.3</ele>
        <time>2023-04-04T09:06:40.984Z</time>
      </trkpt>
      <trkpt lat="42.9895" lon="1.09692">
        <ele>489.2</ele>
        <time>2023-04-04T09:06:45.984Z</time>
      </trkpt>
      <trkpt lat="42.98947" lon="1.09677">
        <ele>487.8</ele>
        <time>2023-04-04T09:06:51.983Z</time>
      </trkpt>
      <trkpt lat="42.98945" lon="1.09663">
        <ele>486.9</ele>
        <time>2023-04-04T09:06:56.983Z</time>
      </trkpt>
      <trkpt lat="42.98942" lon="1.0965">
        <ele>486.3</ele>
        <time>2023-04-04T09:07:01.989Z</time>
      </trkpt>
      <trkpt lat="42.98941" lon="1.09637">
        <ele>485.9</ele>
        <time>2023-04-04T09:07:06.992Z</time>
      </trkpt>
      <trkpt lat="42.98937" lon="1.09625">
        <ele>485.6</ele>
        <time>2023-04-04T09:07:11.994Z</time>
      </trkpt>
      <trkpt lat="42.98932" lon="1.09614">
        <ele>485.7</ele>
        <time>2023-04-04T09:07:15.995Z</time>
      </trkpt>
      <trkpt lat="42.98927" lon="1.09604">
        <ele>485.9</ele>
        <time>2023-04-04T09:07:19.996Z</time>
      </trkpt>
      <trkpt lat="42.98919" lon="1.09592">
        <ele>486.3</ele>
        <time>2023-04-04T09:07:23.997Z</time>
      </trkpt>
      <trkpt lat="42.98913" lon="1.09578">
        <ele>487</ele>
        <time>2023-04-04T09:07:27.998Z</time>
      </trkpt>
      <trkpt lat="42.98909" lon="1.09565">
        <ele>488.7</ele>
        <time>2023-04-04T09:07:31.998Z</time>
      </trkpt>
      <trkpt lat="42.98905" lon="1.09554">
        <ele>490.9</ele>
        <time>2023-04-04T09:07:35.998Z</time>
      </trkpt>
      <trkpt lat="42.989" lon="1.09541">
        <ele>493.1</ele>
        <time>2023-04-04T09:07:39.998Z</time>
      </trkpt>
      <trkpt lat="42.98894" lon="1.09532">
        <ele>495.4</ele>
        <time>2023-04-04T09:07:43.998Z</time>
      </trkpt>
      <trkpt lat="42.98888" lon="1.09522">
        <ele>497.8</ele>
        <time>2023-04-04T09:07:47.998Z</time>
      </trkpt>
      <trkpt lat="42.9888" lon="1.09511">
        <ele>500.2</ele>
        <time>2023-04-04T09:07:51.998Z</time>
      </trkpt>
      <trkpt lat="42.98873" lon="1.09503">
        <ele>503.1</ele>
        <time>2023-04-04T09:07:56.998Z</time>
      </trkpt>
      <trkpt lat="42.98866" lon="1.09493">
        <ele>505.3</ele>
        <time>2023-04-04T09:08:00.998Z</time>
      </trkpt>
      <trkpt lat="42.98858" lon="1.09483">
        <ele>508.2</ele>
        <time>2023-04-04T09:08:04.998Z</time>
      </trkpt>
      <trkpt lat="42.9885" lon="1.09476">
        <ele>511.2</ele>
        <time>2023-04-04T09:08:08.998Z</time>
      </trkpt>
      <trkpt lat="42.98842" lon="1.09466">
        <ele>514.1</ele>
        <time>2023-04-04T09:08:13.998Z</time>
      </trkpt>
      <trkpt lat="42.98832" lon="1.09461">
        <ele>516.6</ele>
        <time>2023-04-04T09:08:18.998Z</time>
      </trkpt>
      <trkpt lat="42.98822" lon="1.0946">
        <ele>518.6</ele>
        <time>2023-04-04T09:08:22.997Z</time>
      </trkpt>
      <trkpt lat="42.98813" lon="1.09457">
        <ele>520.6</ele>
        <time>2023-04-04T09:08:27.997Z</time>
      </trkpt>
      <trkpt lat="42.98803" lon="1.09454">
        <ele>522.5</ele>
        <time>2023-04-04T09:08:32.997Z</time>
      </trkpt>
      <trkpt lat="42.98793" lon="1.09452">
        <ele>524.7</ele>
        <time>2023-04-04T09:08:38.997Z</time>
      </trkpt>
      <trkpt lat="42.98785" lon="1.09444">
        <ele>526</ele>
        <time>2023-04-04T09:08:43.997Z</time>
      </trkpt>
      <trkpt lat="42.98775" lon="1.09436">
        <ele>527.2</ele>
        <time>2023-04-04T09:08:48.996Z</time>
      </trkpt>
      <trkpt lat="42.98767" lon="1.09427">
        <ele>528.1</ele>
        <time>2023-04-04T09:08:52.996Z</time>
      </trkpt>
      <trkpt lat="42.9876" lon="1.09416">
        <ele>528.8</ele>
        <time>2023-04-04T09:08:56.996Z</time>
      </trkpt>
      <trkpt lat="42.98754" lon="1.09404">
        <ele>530.2</ele>
        <time>2023-04-04T09:09:01.996Z</time>
      </trkpt>
      <trkpt lat="42.98748" lon="1.09392">
        <ele>532.8</ele>
        <time>2023-04-04T09:09:07.996Z</time>
      </trkpt>
      <trkpt lat="42.98749" lon="1.09379">
        <ele>534.9</ele>
        <time>2023-04-04T09:09:12.995Z</time>
      </trkpt>
      <trkpt lat="42.98755" lon="1.09368">
        <ele>536.6</ele>
        <time>2023-04-04T09:09:17.995Z</time>
      </trkpt>
      <trkpt lat="42.9876" lon="1.09357">
        <ele>537.6</ele>
        <time>2023-04-04T09:09:21.995Z</time>
      </trkpt>
      <trkpt lat="42.98765" lon="1.09343">
        <ele>539</ele>
        <time>2023-04-04T09:09:26.995Z</time>
      </trkpt>
      <trkpt lat="42.98775" lon="1.09337">
        <ele>539.9</ele>
        <time>2023-04-04T09:09:30.995Z</time>
      </trkpt>
      <trkpt lat="42.98784" lon="1.09331">
        <ele>540.8</ele>
        <time>2023-04-04T09:09:36.994Z</time>
      </trkpt>
      <trkpt lat="42.98793" lon="1.09334">
        <ele>540.9</ele>
        <time>2023-04-04T09:09:41.994Z</time>
      </trkpt>
      <trkpt lat="42.98803" lon="1.09332">
        <ele>540.7</ele>
        <time>2023-04-04T09:09:45.994Z</time>
      </trkpt>
      <trkpt lat="42.98813" lon="1.09329">
        <ele>540.6</ele>
        <time>2023-04-04T09:09:50.994Z</time>
      </trkpt>
      <trkpt lat="42.98822" lon="1.09326">
        <ele>540.7</ele>
        <time>2023-04-04T09:09:55.994Z</time>
      </trkpt>
      <trkpt lat="42.98831" lon="1.09322">
        <ele>540.7</ele>
        <time>2023-04-04T09:10:00.993Z</time>
      </trkpt>
      <trkpt lat="42.98841" lon="1.09316">
        <ele>541.1</ele>
        <time>2023-04-04T09:10:05.993Z</time>
      </trkpt>
      <trkpt lat="42.98849" lon="1.09311">
        <ele>541.8</ele>
        <time>2023-04-04T09:10:10.993Z</time>
      </trkpt>
      <trkpt lat="42.98857" lon="1.09303">
        <ele>543.5</ele>
        <time>2023-04-04T09:10:16.993Z</time>
      </trkpt>
      <trkpt lat="42.98867" lon="1.09297">
        <ele>545.2</ele>
        <time>2023-04-04T09:10:20.993Z</time>
      </trkpt>
      <trkpt lat="42.98876" lon="1.09291">
        <ele>547.1</ele>
        <time>2023-04-04T09:10:24.992Z</time>
      </trkpt>
      <trkpt lat="42.98887" lon="1.09287">
        <ele>549.5</ele>
        <time>2023-04-04T09:10:30.992Z</time>
      </trkpt>
      <trkpt lat="42.98897" lon="1.09285">
        <ele>550.3</ele>
        <time>2023-04-04T09:10:34.992Z</time>
      </trkpt>
      <trkpt lat="42.98906" lon="1.09282">
        <ele>550.8</ele>
        <time>2023-04-04T09:10:37.992Z</time>
      </trkpt>
      <trkpt lat="42.98914" lon="1.09277">
        <ele>551.6</ele>
        <time>2023-04-04T09:10:41.992Z</time>
      </trkpt>
      <trkpt lat="42.98923" lon="1.09276">
        <ele>552.5</ele>
        <time>2023-04-04T09:10:45.992Z</time>
      </trkpt>
      <trkpt lat="42.98933" lon="1.09274">
        <ele>553.3</ele>
        <time>2023-04-04T09:10:49.991Z</time>
      </trkpt>
      <trkpt lat="42.98943" lon="1.09271">
        <ele>554.5</ele>
        <time>2023-04-04T09:10:53.991Z</time>
      </trkpt>
      <trkpt lat="42.98954" lon="1.09268">
        <ele>555.7</ele>
        <time>2023-04-04T09:10:57.991Z</time>
      </trkpt>
      <trkpt lat="42.98963" lon="1.09267">
        <ele>556.6</ele>
        <time>2023-04-04T09:11:00.991Z</time>
      </trkpt>
      <trkpt lat="42.98975" lon="1.09265">
        <ele>557.9</ele>
        <time>2023-04-04T09:11:04.991Z</time>
      </trkpt>
      <trkpt lat="42.98984" lon="1.09267">
        <ele>558.5</ele>
        <time>2023-04-04T09:11:07.991Z</time>
      </trkpt>
      <trkpt lat="42.98994" lon="1.09266">
        <ele>559.2</ele>
        <time>2023-04-04T09:11:11.990Z</time>
      </trkpt>
      <trkpt lat="42.99004" lon="1.09265">
        <ele>559.8</ele>
        <time>2023-04-04T09:11:15.990Z</time>
      </trkpt>
      <trkpt lat="42.99015" lon="1.09264">
        <ele>560.1</ele>
        <time>2023-04-04T09:11:19.990Z</time>
      </trkpt>
      <trkpt lat="42.99024" lon="1.09261">
        <ele>560.2</ele>
        <time>2023-04-04T09:11:22.990Z</time>
      </trkpt>
      <trkpt lat="42.99034" lon="1.09262">
        <ele>560.4</ele>
        <time>2023-04-04T09:11:27.990Z</time>
      </trkpt>
      <trkpt lat="42.99043" lon="1.09266">
        <ele>560.3</ele>
        <time>2023-04-04T09:11:31.990Z</time>
      </trkpt>
      <trkpt lat="42.99053" lon="1.0927">
        <ele>559.7</ele>
        <time>2023-04-04T09:11:36.989Z</time>
      </trkpt>
      <trkpt lat="42.99063" lon="1.09277">
        <ele>558.2</ele>
        <time>2023-04-04T09:11:42.989Z</time>
      </trkpt>
      <trkpt lat="42.99072" lon="1.09282">
        <ele>556.5</ele>
        <time>2023-04-04T09:11:46.989Z</time>
      </trkpt>
      <trkpt lat="42.99081" lon="1.0929">
        <ele>553.1</ele>
        <time>2023-04-04T09:11:52.989Z</time>
      </trkpt>
      <trkpt lat="42.99092" lon="1.09294">
        <ele>550.1</ele>
        <time>2023-04-04T09:11:57.989Z</time>
      </trkpt>
      <trkpt lat="42.99101" lon="1.09292">
        <ele>547.5</ele>
        <time>2023-04-04T09:12:02.988Z</time>
      </trkpt>
      <trkpt lat="42.99112" lon="1.0929">
        <ele>545.5</ele>
        <time>2023-04-04T09:12:07.988Z</time>
      </trkpt>
      <trkpt lat="42.99123" lon="1.09287">
        <ele>544.1</ele>
        <time>2023-04-04T09:12:11.988Z</time>
      </trkpt>
      <trkpt lat="42.99133" lon="1.09282">
        <ele>543</ele>
        <time>2023-04-04T09:12:15.988Z</time>
      </trkpt>
      <trkpt lat="42.99142" lon="1.09276">
        <ele>542.2</ele>
        <time>2023-04-04T09:12:19.988Z</time>
      </trkpt>
      <trkpt lat="42.9915" lon="1.09267">
        <ele>541.9</ele>
        <time>2023-04-04T09:12:24.987Z</time>
      </trkpt>
      <trkpt lat="42.99158" lon="1.09257">
        <ele>542.2</ele>
        <time>2023-04-04T09:12:29.987Z</time>
      </trkpt>
      <trkpt lat="42.99166" lon="1.09248">
        <ele>542.5</ele>
        <time>2023-04-04T09:12:34.987Z</time>
      </trkpt>
      <trkpt lat="42.99174" lon="1.09239">
        <ele>542.6</ele>
        <time>2023-04-04T09:12:38.987Z</time>
      </trkpt>
      <trkpt lat="42.99181" lon="1.0923">
        <ele>542.5</ele>
        <time>2023-04-04T09:12:41.987Z</time>
      </trkpt>
      <trkpt lat="42.99188" lon="1.09222">
        <ele>542</ele>
        <time>2023-04-04T09:12:45.987Z</time>
      </trkpt>
      <trkpt lat="42.99194" lon="1.09209">
        <ele>541.3</ele>
        <time>2023-04-04T09:12:49.986Z</time>
      </trkpt>
      <trkpt lat="42.992" lon="1.09197">
        <ele>540.2</ele>
        <time>2023-04-04T09:12:54.986Z</time>
      </trkpt>
      <trkpt lat="42.99205" lon="1.09184">
        <ele>539</ele>
        <time>2023-04-04T09:12:59.986Z</time>
      </trkpt>
      <trkpt lat="42.99208" lon="1.0917">
        <ele>538</ele>
        <time>2023-04-04T09:13:04.986Z</time>
      </trkpt>
      <trkpt lat="42.9921" lon="1.09158">
        <ele>537.3</ele>
        <time>2023-04-04T09:13:09.986Z</time>
      </trkpt>
      <trkpt lat="42.99213" lon="1.09144">
        <ele>536.5</ele>
        <time>2023-04-04T09:13:15.985Z</time>
      </trkpt>
      <trkpt lat="42.99216" lon="1.09131">
        <ele>535.7</ele>
        <time>2023-04-04T09:13:20.985Z</time>
      </trkpt>
      <trkpt lat="42.99219" lon="1.09117">
        <ele>534.5</ele>
        <time>2023-04-04T09:13:27.985Z</time>
      </trkpt>
      <trkpt lat="42.9922" lon="1.09102">
        <ele>533.5</ele>
        <time>2023-04-04T09:13:33.985Z</time>
      </trkpt>
      <trkpt lat="42.9922" lon="1.09089">
        <ele>532.9</ele>
        <time>2023-04-04T09:13:37.984Z</time>
      </trkpt>
      <trkpt lat="42.99217" lon="1.09077">
        <ele>532.9</ele>
        <time>2023-04-04T09:13:42.984Z</time>
      </trkpt>
      <trkpt lat="42.99211" lon="1.09086">
        <ele>533.9</ele>
        <time>2023-04-04T09:13:48.984Z</time>
      </trkpt>
      <trkpt lat="42.99203" lon="1.09094">
        <ele>535.9</ele>
        <time>2023-04-04T09:13:54.984Z</time>
      </trkpt>
      <trkpt lat="42.99195" lon="1.09101">
        <ele>539.6</ele>
        <time>2023-04-04T09:14:00.983Z</time>
      </trkpt>
      <trkpt lat="42.99187" lon="1.09109">
        <ele>544.4</ele>
        <time>2023-04-04T09:14:08.983Z</time>
      </trkpt>
      <trkpt lat="42.99177" lon="1.09115">
        <ele>547.4</ele>
        <time>2023-04-04T09:14:14.990Z</time>
      </trkpt>
      <trkpt lat="42.99168" lon="1.0912">
        <ele>551.2</ele>
        <time>2023-04-04T09:14:19.993Z</time>
      </trkpt>
      <trkpt lat="42.9916" lon="1.09126">
        <ele>554.7</ele>
        <time>2023-04-04T09:14:24.995Z</time>
      </trkpt>
      <trkpt lat="42.99151" lon="1.09131">
        <ele>557.9</ele>
        <time>2023-04-04T09:14:31.996Z</time>
      </trkpt>
      <trkpt lat="42.99147" lon="1.09117">
        <ele>560.4</ele>
        <time>2023-04-04T09:14:39.997Z</time>
      </trkpt>
      <trkpt lat="42.99148" lon="1.09105">
        <ele>561.7</ele>
        <time>2023-04-04T09:14:46.998Z</time>
      </trkpt>
      <trkpt lat="42.99152" lon="1.09093">
        <ele>561.7</ele>
        <time>2023-04-04T09:14:52.998Z</time>
      </trkpt>
      <trkpt lat="42.99155" lon="1.0908">
        <ele>561.7</ele>
        <time>2023-04-04T09:14:59.998Z</time>
      </trkpt>
      <trkpt lat="42.99158" lon="1.09067">
        <ele>561.4</ele>
        <time>2023-04-04T09:15:04.998Z</time>
      </trkpt>
      <trkpt lat="42.9916" lon="1.09053">
        <ele>561</ele>
        <time>2023-04-04T09:15:08.998Z</time>
      </trkpt>
      <trkpt lat="42.99159" lon="1.0904">
        <ele>560.6</ele>
        <time>2023-04-04T09:15:12.998Z</time>
      </trkpt>
      <trkpt lat="42.99158" lon="1.09028">
        <ele>560.3</ele>
        <time>2023-04-04T09:15:16.998Z</time>
      </trkpt>
      <trkpt lat="42.99158" lon="1.09014">
        <ele>560.1</ele>
        <time>2023-04-04T09:15:21.998Z</time>
      </trkpt>
      <trkpt lat="42.99158" lon="1.08999">
        <ele>559.9</ele>
        <time>2023-04-04T09:15:26.998Z</time>
      </trkpt>
      <trkpt lat="42.99155" lon="1.08986">
        <ele>559.8</ele>
        <time>2023-04-04T09:15:30.997Z</time>
      </trkpt>
      <trkpt lat="42.99153" lon="1.08973">
        <ele>559.8</ele>
        <time>2023-04-04T09:15:34.997Z</time>
      </trkpt>
      <trkpt lat="42.99149" lon="1.0896">
        <ele>559.9</ele>
        <time>2023-04-04T09:15:39.997Z</time>
      </trkpt>
      <trkpt lat="42.99144" lon="1.08946">
        <ele>560.1</ele>
        <time>2023-04-04T09:15:43.997Z</time>
      </trkpt>
      <trkpt lat="42.9914" lon="1.08933">
        <ele>560.6</ele>
        <time>2023-04-04T09:15:47.997Z</time>
      </trkpt>
      <trkpt lat="42.99136" lon="1.08923">
        <ele>561.1</ele>
        <time>2023-04-04T09:15:50.997Z</time>
      </trkpt>
      <trkpt lat="42.9913" lon="1.08913">
        <ele>562</ele>
        <time>2023-04-04T09:15:53.997Z</time>
      </trkpt>
      <trkpt lat="42.99124" lon="1.08899">
        <ele>564.1</ele>
        <time>2023-04-04T09:15:57.996Z</time>
      </trkpt>
      <trkpt lat="42.99118" lon="1.08889">
        <ele>566.5</ele>
        <time>2023-04-04T09:16:00.996Z</time>
      </trkpt>
      <trkpt lat="42.99112" lon="1.08878">
        <ele>569.8</ele>
        <time>2023-04-04T09:16:04.996Z</time>
      </trkpt>
      <trkpt lat="42.99108" lon="1.08867">
        <ele>571.9</ele>
        <time>2023-04-04T09:16:07.996Z</time>
      </trkpt>
      <trkpt lat="42.99104" lon="1.08852">
        <ele>573.5</ele>
        <time>2023-04-04T09:16:10.996Z</time>
      </trkpt>
      <trkpt lat="42.99097" lon="1.08842">
        <ele>575.4</ele>
        <time>2023-04-04T09:16:14.996Z</time>
      </trkpt>
      <trkpt lat="42.99088" lon="1.08834">
        <ele>577.5</ele>
        <time>2023-04-04T09:16:18.996Z</time>
      </trkpt>
      <trkpt lat="42.9908" lon="1.08823">
        <ele>580.1</ele>
        <time>2023-04-04T09:16:22.995Z</time>
      </trkpt>
      <trkpt lat="42.99073" lon="1.08811">
        <ele>582.6</ele>
        <time>2023-04-04T09:16:25.995Z</time>
      </trkpt>
      <trkpt lat="42.99065" lon="1.08803">
        <ele>585.7</ele>
        <time>2023-04-04T09:16:29.996Z</time>
      </trkpt>
      <trkpt lat="42.99058" lon="1.08791">
        <ele>588.2</ele>
        <time>2023-04-04T09:16:33.996Z</time>
      </trkpt>
      <trkpt lat="42.9905" lon="1.0878">
        <ele>590.4</ele>
        <time>2023-04-04T09:16:37.997Z</time>
      </trkpt>
      <trkpt lat="42.99043" lon="1.08768">
        <ele>592.3</ele>
        <time>2023-04-04T09:16:41.997Z</time>
      </trkpt>
      <trkpt lat="42.99034" lon="1.08761">
        <ele>593.9</ele>
        <time>2023-04-04T09:16:45.997Z</time>
      </trkpt>
      <trkpt lat="42.99025" lon="1.08758">
        <ele>595.3</ele>
        <time>2023-04-04T09:16:49.997Z</time>
      </trkpt>
      <trkpt lat="42.99015" lon="1.08756">
        <ele>596.6</ele>
        <time>2023-04-04T09:16:54.997Z</time>
      </trkpt>
      <trkpt lat="42.99006" lon="1.08759">
        <ele>597.7</ele>
        <time>2023-04-04T09:16:59.997Z</time>
      </trkpt>
      <trkpt lat="42.98998" lon="1.08765">
        <ele>598.7</ele>
        <time>2023-04-04T09:17:04.997Z</time>
      </trkpt>
      <trkpt lat="42.98987" lon="1.08766">
        <ele>599.4</ele>
        <time>2023-04-04T09:17:09.997Z</time>
      </trkpt>
      <trkpt lat="42.98978" lon="1.08765">
        <ele>600</ele>
        <time>2023-04-04T09:17:14.997Z</time>
      </trkpt>
      <trkpt lat="42.98968" lon="1.08766">
        <ele>600.6</ele>
        <time>2023-04-04T09:17:19.997Z</time>
      </trkpt>
      <trkpt lat="42.98957" lon="1.08768">
        <ele>601.2</ele>
        <time>2023-04-04T09:17:25.997Z</time>
      </trkpt>
      <trkpt lat="42.98947" lon="1.08771">
        <ele>601.9</ele>
        <time>2023-04-04T09:17:31.996Z</time>
      </trkpt>
      <trkpt lat="42.98938" lon="1.08772">
        <ele>602.5</ele>
        <time>2023-04-04T09:17:35.996Z</time>
      </trkpt>
      <trkpt lat="42.98929" lon="1.08774">
        <ele>603.4</ele>
        <time>2023-04-04T09:17:40.996Z</time>
      </trkpt>
      <trkpt lat="42.98918" lon="1.08777">
        <ele>604.6</ele>
        <time>2023-04-04T09:17:46.996Z</time>
      </trkpt>
      <trkpt lat="42.9891" lon="1.0878">
        <ele>605.8</ele>
        <time>2023-04-04T09:17:51.996Z</time>
      </trkpt>
      <trkpt lat="42.98899" lon="1.08785">
        <ele>607.5</ele>
        <time>2023-04-04T09:17:57.995Z</time>
      </trkpt>
      <trkpt lat="42.98888" lon="1.08786">
        <ele>608.9</ele>
        <time>2023-04-04T09:18:02.995Z</time>
      </trkpt>
      <trkpt lat="42.98878" lon="1.0879">
        <ele>610.3</ele>
        <time>2023-04-04T09:18:07.995Z</time>
      </trkpt>
      <trkpt lat="42.9887" lon="1.08795">
        <ele>611.8</ele>
        <time>2023-04-04T09:18:11.995Z</time>
      </trkpt>
      <trkpt lat="42.98861" lon="1.088">
        <ele>614</ele>
        <time>2023-04-04T09:18:15.995Z</time>
      </trkpt>
      <trkpt lat="42.98851" lon="1.08804">
        <ele>617.3</ele>
        <time>2023-04-04T09:18:23.994Z</time>
      </trkpt>
      <trkpt lat="42.98842" lon="1.08804">
        <ele>619</ele>
        <time>2023-04-04T09:18:30.994Z</time>
      </trkpt>
      <trkpt lat="42.98832" lon="1.08806">
        <ele>620.2</ele>
        <time>2023-04-04T09:18:36.994Z</time>
      </trkpt>
      <trkpt lat="42.98823" lon="1.08804">
        <ele>620.9</ele>
        <time>2023-04-04T09:18:41.994Z</time>
      </trkpt>
      <trkpt lat="42.98814" lon="1.088">
        <ele>621.1</ele>
        <time>2023-04-04T09:18:47.993Z</time>
      </trkpt>
      <trkpt lat="42.98805" lon="1.08798">
        <ele>621.2</ele>
        <time>2023-04-04T09:18:52.993Z</time>
      </trkpt>
      <trkpt lat="42.98796" lon="1.088">
        <ele>621.4</ele>
        <time>2023-04-04T09:18:59.993Z</time>
      </trkpt>
      <trkpt lat="42.98785" lon="1.08801">
        <ele>621.9</ele>
        <time>2023-04-04T09:19:06.993Z</time>
      </trkpt>
      <trkpt lat="42.98776" lon="1.08805">
        <ele>623.1</ele>
        <time>2023-04-04T09:19:13.992Z</time>
      </trkpt>
      <trkpt lat="42.98766" lon="1.08807">
        <ele>624.6</ele>
        <time>2023-04-04T09:19:19.992Z</time>
      </trkpt>
      <trkpt lat="42.98756" lon="1.08808">
        <ele>626</ele>
        <time>2023-04-04T09:19:24.992Z</time>
      </trkpt>
      <trkpt lat="42.98745" lon="1.08808">
        <ele>627.4</ele>
        <time>2023-04-04T09:19:30.992Z</time>
      </trkpt>
      <trkpt lat="42.98736" lon="1.08808">
        <ele>628.3</ele>
        <time>2023-04-04T09:19:35.991Z</time>
      </trkpt>
      <trkpt lat="42.98726" lon="1.08807">
        <ele>629</ele>
        <time>2023-04-04T09:19:40.991Z</time>
      </trkpt>
      <trkpt lat="42.98717" lon="1.08805">
        <ele>629.6</ele>
        <time>2023-04-04T09:19:45.991Z</time>
      </trkpt>
      <trkpt lat="42.98707" lon="1.08802">
        <ele>629.9</ele>
        <time>2023-04-04T09:19:50.991Z</time>
      </trkpt>
      <trkpt lat="42.98696" lon="1.08801">
        <ele>630.2</ele>
        <time>2023-04-04T09:19:55.991Z</time>
      </trkpt>
      <trkpt lat="42.98687" lon="1.08801">
        <ele>630.6</ele>
        <time>2023-04-04T09:19:59.990Z</time>
      </trkpt>
      <trkpt lat="42.98677" lon="1.088">
        <ele>631.2</ele>
        <time>2023-04-04T09:20:04.990Z</time>
      </trkpt>
      <trkpt lat="42.98667" lon="1.088">
        <ele>631.8</ele>
        <time>2023-04-04T09:20:08.990Z</time>
      </trkpt>
      <trkpt lat="42.98658" lon="1.088">
        <ele>632.6</ele>
        <time>2023-04-04T09:20:12.990Z</time>
      </trkpt>
      <trkpt lat="42.98648" lon="1.08798">
        <ele>633.7</ele>
        <time>2023-04-04T09:20:17.990Z</time>
      </trkpt>
      <trkpt lat="42.98638" lon="1.08795">
        <ele>634.5</ele>
        <time>2023-04-04T09:20:22.989Z</time>
      </trkpt>
      <trkpt lat="42.9863" lon="1.08791">
        <ele>635.1</ele>
        <time>2023-04-04T09:20:28.989Z</time>
      </trkpt>
      <trkpt lat="42.9862" lon="1.08787">
        <ele>635.4</ele>
        <time>2023-04-04T09:20:33.989Z</time>
      </trkpt>
      <trkpt lat="42.9861" lon="1.08781">
        <ele>635.4</ele>
        <time>2023-04-04T09:20:38.989Z</time>
      </trkpt>
      <trkpt lat="42.986" lon="1.08773">
        <ele>635.2</ele>
        <time>2023-04-04T09:20:43.989Z</time>
      </trkpt>
      <trkpt lat="42.9859" lon="1.08768">
        <ele>634.9</ele>
        <time>2023-04-04T09:20:48.988Z</time>
      </trkpt>
      <trkpt lat="42.98581" lon="1.08763">
        <ele>634.5</ele>
        <time>2023-04-04T09:20:53.988Z</time>
      </trkpt>
      <trkpt lat="42.98572" lon="1.08757">
        <ele>634.1</ele>
        <time>2023-04-04T09:20:58.988Z</time>
      </trkpt>
      <trkpt lat="42.98561" lon="1.08753">
        <ele>633.9</ele>
        <time>2023-04-04T09:21:03.988Z</time>
      </trkpt>
      <trkpt lat="42.98553" lon="1.08749">
        <ele>633.9</ele>
        <time>2023-04-04T09:21:07.988Z</time>
      </trkpt>
      <trkpt lat="42.98543" lon="1.08742">
        <ele>633.7</ele>
        <time>2023-04-04T09:21:12.987Z</time>
      </trkpt>
      <trkpt lat="42.98534" lon="1.08737">
        <ele>633.6</ele>
        <time>2023-04-04T09:21:17.987Z</time>
      </trkpt>
      <trkpt lat="42.98524" lon="1.08736">
        <ele>633.6</ele>
        <time>2023-04-04T09:21:21.990Z</time>
      </trkpt>
      <trkpt lat="42.98515" lon="1.08739">
        <ele>634</ele>
        <time>2023-04-04T09:21:25.993Z</time>
      </trkpt>
      <trkpt lat="42.98505" lon="1.08745">
        <ele>635.3</ele>
        <time>2023-04-04T09:21:29.994Z</time>
      </trkpt>
      <trkpt lat="42.98499" lon="1.08754">
        <ele>638.3</ele>
        <time>2023-04-04T09:21:33.995Z</time>
      </trkpt>
      <trkpt lat="42.98493" lon="1.08763">
        <ele>642.2</ele>
        <time>2023-04-04T09:21:37.996Z</time>
      </trkpt>
      <trkpt lat="42.98486" lon="1.08773">
        <ele>645.4</ele>
        <time>2023-04-04T09:21:41.997Z</time>
      </trkpt>
      <trkpt lat="42.9848" lon="1.08785">
        <ele>648.5</ele>
        <time>2023-04-04T09:21:46.998Z</time>
      </trkpt>
      <trkpt lat="42.98475" lon="1.08796">
        <ele>650.8</ele>
        <time>2023-04-04T09:21:50.998Z</time>
      </trkpt>
      <trkpt lat="42.9847" lon="1.08806">
        <ele>653</ele>
        <time>2023-04-04T09:21:54.998Z</time>
      </trkpt>
      <trkpt lat="42.98464" lon="1.08818">
        <ele>655.4</ele>
        <time>2023-04-04T09:21:59.998Z</time>
      </trkpt>
      <trkpt lat="42.98459" lon="1.08829">
        <ele>657.3</ele>
        <time>2023-04-04T09:22:03.998Z</time>
      </trkpt>
      <trkpt lat="42.98451" lon="1.08839">
        <ele>659.2</ele>
        <time>2023-04-04T09:22:08.998Z</time>
      </trkpt>
      <trkpt lat="42.98443" lon="1.08846">
        <ele>660</ele>
        <time>2023-04-04T09:22:12.998Z</time>
      </trkpt>
      <trkpt lat="42.98435" lon="1.08857">
        <ele>660.6</ele>
        <time>2023-04-04T09:22:17.998Z</time>
      </trkpt>
      <trkpt lat="42.98427" lon="1.08866">
        <ele>660.9</ele>
        <time>2023-04-04T09:22:21.998Z</time>
      </trkpt>
      <trkpt lat="42.98421" lon="1.08875">
        <ele>661.1</ele>
        <time>2023-04-04T09:22:25.998Z</time>
      </trkpt>
      <trkpt lat="42.9841" lon="1.08881">
        <ele>661.2</ele>
        <time>2023-04-04T09:22:29.998Z</time>
      </trkpt>
      <trkpt lat="42.98399" lon="1.08879">
        <ele>661</ele>
        <time>2023-04-04T09:22:34.998Z</time>
      </trkpt>
      <trkpt lat="42.9839" lon="1.08874">
        <ele>660.5</ele>
        <time>2023-04-04T09:22:38.998Z</time>
      </trkpt>
      <trkpt lat="42.9838" lon="1.08868">
        <ele>659.5</ele>
        <time>2023-04-04T09:22:43.997Z</time>
      </trkpt>
      <trkpt lat="42.98374" lon="1.08858">
        <ele>658.2</ele>
        <time>2023-04-04T09:22:48.997Z</time>
      </trkpt>
      <trkpt lat="42.98366" lon="1.08848">
        <ele>656.7</ele>
        <time>2023-04-04T09:22:53.997Z</time>
      </trkpt>
      <trkpt lat="42.98357" lon="1.0884">
        <ele>655.4</ele>
        <time>2023-04-04T09:22:57.997Z</time>
      </trkpt>
      <trkpt lat="42.98349" lon="1.08831">
        <ele>654</ele>
        <time>2023-04-04T09:23:01.997Z</time>
      </trkpt>
      <trkpt lat="42.98342" lon="1.08822">
        <ele>652.4</ele>
        <time>2023-04-04T09:23:05.997Z</time>
      </trkpt>
      <trkpt lat="42.98334" lon="1.08811">
        <ele>650.5</ele>
        <time>2023-04-04T09:23:09.996Z</time>
      </trkpt>
      <trkpt lat="42.98329" lon="1.08801">
        <ele>649.1</ele>
        <time>2023-04-04T09:23:12.996Z</time>
      </trkpt>
      <trkpt lat="42.98323" lon="1.08789">
        <ele>647.5</ele>
        <time>2023-04-04T09:23:16.996Z</time>
      </trkpt>
      <trkpt lat="42.9832" lon="1.08776">
        <ele>646.1</ele>
        <time>2023-04-04T09:23:21.996Z</time>
      </trkpt>
      <trkpt lat="42.98314" lon="1.08762">
        <ele>645</ele>
        <time>2023-04-04T09:23:26.996Z</time>
      </trkpt>
      <trkpt lat="42.98309" lon="1.0875">
        <ele>644.4</ele>
        <time>2023-04-04T09:23:30.995Z</time>
      </trkpt>
      <trkpt lat="42.98305" lon="1.08739">
        <ele>644</ele>
        <time>2023-04-04T09:23:35.995Z</time>
      </trkpt>
      <trkpt lat="42.983" lon="1.08728">
        <ele>643.7</ele>
        <time>2023-04-04T09:23:41.995Z</time>
      </trkpt>
      <trkpt lat="42.98293" lon="1.08718">
        <ele>643.8</ele>
        <time>2023-04-04T09:23:47.995Z</time>
      </trkpt>
      <trkpt lat="42.98287" lon="1.08707">
        <ele>644</ele>
        <time>2023-04-04T09:23:52.995Z</time>
      </trkpt>
      <trkpt lat="42.9828" lon="1.08698">
        <ele>644.3</ele>
        <time>2023-04-04T09:23:56.994Z</time>
      </trkpt>
      <trkpt lat="42.9827" lon="1.0869">
        <ele>645</ele>
        <time>2023-04-04T09:24:00.994Z</time>
      </trkpt>
      <trkpt lat="42.98265" lon="1.08676">
        <ele>646.4</ele>
        <time>2023-04-04T09:24:05.994Z</time>
      </trkpt>
      <trkpt lat="42.98259" lon="1.08665">
        <ele>647.8</ele>
        <time>2023-04-04T09:24:09.994Z</time>
      </trkpt>
      <trkpt lat="42.98252" lon="1.08654">
        <ele>649.8</ele>
        <time>2023-04-04T09:24:13.994Z</time>
      </trkpt>
      <trkpt lat="42.98246" lon="1.08645">
        <ele>652.1</ele>
        <time>2023-04-04T09:24:17.994Z</time>
      </trkpt>
      <trkpt lat="42.98239" lon="1.08635">
        <ele>653.8</ele>
        <time>2023-04-04T09:24:21.993Z</time>
      </trkpt>
      <trkpt lat="42.98233" lon="1.08624">
        <ele>655.4</ele>
        <time>2023-04-04T09:24:25.993Z</time>
      </trkpt>
      <trkpt lat="42.98225" lon="1.08613">
        <ele>656.9</ele>
        <time>2023-04-04T09:24:29.993Z</time>
      </trkpt>
      <trkpt lat="42.9822" lon="1.08601">
        <ele>658.5</ele>
        <time>2023-04-04T09:24:33.993Z</time>
      </trkpt>
      <trkpt lat="42.98213" lon="1.0859">
        <ele>660.1</ele>
        <time>2023-04-04T09:24:37.993Z</time>
      </trkpt>
      <trkpt lat="42.98206" lon="1.08578">
        <ele>662.1</ele>
        <time>2023-04-04T09:24:42.993Z</time>
      </trkpt>
      <trkpt lat="42.98201" lon="1.08565">
        <ele>663.7</ele>
        <time>2023-04-04T09:24:47.992Z</time>
      </trkpt>
      <trkpt lat="42.98196" lon="1.08553">
        <ele>664.9</ele>
        <time>2023-04-04T09:24:51.992Z</time>
      </trkpt>
      <trkpt lat="42.98191" lon="1.0854">
        <ele>666.3</ele>
        <time>2023-04-04T09:24:55.992Z</time>
      </trkpt>
      <trkpt lat="42.98185" lon="1.08528">
        <ele>667.7</ele>
        <time>2023-04-04T09:24:59.992Z</time>
      </trkpt>
      <trkpt lat="42.9818" lon="1.08515">
        <ele>669.4</ele>
        <time>2023-04-04T09:25:03.992Z</time>
      </trkpt>
      <trkpt lat="42.98174" lon="1.08504">
        <ele>671.4</ele>
        <time>2023-04-04T09:25:07.991Z</time>
      </trkpt>
      <trkpt lat="42.98168" lon="1.08492">
        <ele>673</ele>
        <time>2023-04-04T09:25:11.991Z</time>
      </trkpt>
      <trkpt lat="42.98159" lon="1.08485">
        <ele>673.8</ele>
        <time>2023-04-04T09:25:17.991Z</time>
      </trkpt>
      <trkpt lat="42.98148" lon="1.08483">
        <ele>673.5</ele>
        <time>2023-04-04T09:25:22.991Z</time>
      </trkpt>
      <trkpt lat="42.98137" lon="1.08481">
        <ele>672.8</ele>
        <time>2023-04-04T09:25:27.991Z</time>
      </trkpt>
      <trkpt lat="42.98128" lon="1.08476">
        <ele>671.9</ele>
        <time>2023-04-04T09:25:32.990Z</time>
      </trkpt>
      <trkpt lat="42.98118" lon="1.08468">
        <ele>671.2</ele>
        <time>2023-04-04T09:25:36.990Z</time>
      </trkpt>
      <trkpt lat="42.98109" lon="1.08461">
        <ele>670.6</ele>
        <time>2023-04-04T09:25:39.990Z</time>
      </trkpt>
      <trkpt lat="42.98097" lon="1.08445">
        <ele>670.4</ele>
        <time>2023-04-04T09:25:42.990Z</time>
      </trkpt>
      <trkpt lat="42.98089" lon="1.08436">
        <ele>670.4</ele>
        <time>2023-04-04T09:25:44.990Z</time>
      </trkpt>
      <trkpt lat="42.98076" lon="1.08427">
        <ele>670.6</ele>
        <time>2023-04-04T09:25:46.990Z</time>
      </trkpt>
      <trkpt lat="42.98068" lon="1.08418">
        <ele>670.6</ele>
        <time>2023-04-04T09:25:47.990Z</time>
      </trkpt>
      <trkpt lat="42.98055" lon="1.08403">
        <ele>670.8</ele>
        <time>2023-04-04T09:25:49.990Z</time>
      </trkpt>
      <trkpt lat="42.98046" lon="1.08397">
        <ele>671</ele>
        <time>2023-04-04T09:25:50.990Z</time>
      </trkpt>
      <trkpt lat="42.98032" lon="1.08385">
        <ele>671.3</ele>
        <time>2023-04-04T09:25:52.990Z</time>
      </trkpt>
      <trkpt lat="42.98018" lon="1.08371">
        <ele>671.8</ele>
        <time>2023-04-04T09:25:54.990Z</time>
      </trkpt>
      <trkpt lat="42.98003" lon="1.08361">
        <ele>672.6</ele>
        <time>2023-04-04T09:25:56.989Z</time>
      </trkpt>
      <trkpt lat="42.97988" lon="1.08349">
        <ele>673.3</ele>
        <time>2023-04-04T09:25:58.989Z</time>
      </trkpt>
      <trkpt lat="42.97978" lon="1.08336">
        <ele>673.6</ele>
        <time>2023-04-04T09:26:00.989Z</time>
      </trkpt>
      <trkpt lat="42.97967" lon="1.08328">
        <ele>673.7</ele>
        <time>2023-04-04T09:26:02.989Z</time>
      </trkpt>
      <trkpt lat="42.97958" lon="1.08324">
        <ele>673.5</ele>
        <time>2023-04-04T09:26:04.989Z</time>
      </trkpt>
      <trkpt lat="42.97947" lon="1.08318">
        <ele>672.9</ele>
        <time>2023-04-04T09:26:06.989Z</time>
      </trkpt>
      <trkpt lat="42.97934" lon="1.08312">
        <ele>671.9</ele>
        <time>2023-04-04T09:26:08.989Z</time>
      </trkpt>
      <trkpt lat="42.97924" lon="1.08302">
        <ele>670.7</ele>
        <time>2023-04-04T09:26:10.989Z</time>
      </trkpt>
      <trkpt lat="42.97915" lon="1.0829">
        <ele>670</ele>
        <time>2023-04-04T09:26:13.989Z</time>
      </trkpt>
      <trkpt lat="42.97908" lon="1.0828">
        <ele>669.8</ele>
        <time>2023-04-04T09:26:17.989Z</time>
      </trkpt>
      <trkpt lat="42.97901" lon="1.08269">
        <ele>670.1</ele>
        <time>2023-04-04T09:26:20.988Z</time>
      </trkpt>
      <trkpt lat="42.97895" lon="1.0826">
        <ele>670.6</ele>
        <time>2023-04-04T09:26:23.988Z</time>
      </trkpt>
      <trkpt lat="42.97888" lon="1.0825">
        <ele>671.3</ele>
        <time>2023-04-04T09:26:27.988Z</time>
      </trkpt>
      <trkpt lat="42.97882" lon="1.08239">
        <ele>672.1</ele>
        <time>2023-04-04T09:26:31.988Z</time>
      </trkpt>
      <trkpt lat="42.97876" lon="1.08229">
        <ele>673</ele>
        <time>2023-04-04T09:26:35.988Z</time>
      </trkpt>
      <trkpt lat="42.9787" lon="1.08219">
        <ele>673.7</ele>
        <time>2023-04-04T09:26:39.988Z</time>
      </trkpt>
      <trkpt lat="42.97863" lon="1.08209">
        <ele>674.4</ele>
        <time>2023-04-04T09:26:43.988Z</time>
      </trkpt>
      <trkpt lat="42.97857" lon="1.08197">
        <ele>675.5</ele>
        <time>2023-04-04T09:26:48.987Z</time>
      </trkpt>
      <trkpt lat="42.97852" lon="1.08185">
        <ele>677</ele>
        <time>2023-04-04T09:26:53.987Z</time>
      </trkpt>
      <trkpt lat="42.97848" lon="1.08174">
        <ele>678.8</ele>
        <time>2023-04-04T09:26:58.987Z</time>
      </trkpt>
      <trkpt lat="42.97845" lon="1.08163">
        <ele>680.9</ele>
        <time>2023-04-04T09:27:03.987Z</time>
      </trkpt>
      <trkpt lat="42.97843" lon="1.08149">
        <ele>682.3</ele>
        <time>2023-04-04T09:27:09.986Z</time>
      </trkpt>
      <trkpt lat="42.97842" lon="1.08135">
        <ele>683.2</ele>
        <time>2023-04-04T09:27:15.986Z</time>
      </trkpt>
      <trkpt lat="42.97843" lon="1.08122">
        <ele>684</ele>
        <time>2023-04-04T09:27:21.986Z</time>
      </trkpt>
      <trkpt lat="42.97844" lon="1.08108">
        <ele>685</ele>
        <time>2023-04-04T09:27:27.986Z</time>
      </trkpt>
      <trkpt lat="42.97847" lon="1.08096">
        <ele>685.9</ele>
        <time>2023-04-04T09:27:32.986Z</time>
      </trkpt>
      <trkpt lat="42.97849" lon="1.08082">
        <ele>686.8</ele>
        <time>2023-04-04T09:27:37.985Z</time>
      </trkpt>
      <trkpt lat="42.97849" lon="1.0807">
        <ele>686.9</ele>
        <time>2023-04-04T09:27:41.985Z</time>
      </trkpt>
      <trkpt lat="42.97851" lon="1.08057">
        <ele>686.6</ele>
        <time>2023-04-04T09:27:44.985Z</time>
      </trkpt>
      <trkpt lat="42.97854" lon="1.08041">
        <ele>685.6</ele>
        <time>2023-04-04T09:27:48.985Z</time>
      </trkpt>
      <trkpt lat="42.97855" lon="1.08026">
        <ele>684.1</ele>
        <time>2023-04-04T09:27:51.985Z</time>
      </trkpt>
      <trkpt lat="42.9786" lon="1.08013">
        <ele>682</ele>
        <time>2023-04-04T09:27:54.985Z</time>
      </trkpt>
      <trkpt lat="42.97864" lon="1.07998">
        <ele>679.4</ele>
        <time>2023-04-04T09:27:57.985Z</time>
      </trkpt>
      <trkpt lat="42.97869" lon="1.07985">
        <ele>677.3</ele>
        <time>2023-04-04T09:28:00.984Z</time>
      </trkpt>
      <trkpt lat="42.97871" lon="1.07971">
        <ele>676</ele>
        <time>2023-04-04T09:28:03.984Z</time>
      </trkpt>
      <trkpt lat="42.97872" lon="1.07958">
        <ele>675.1</ele>
        <time>2023-04-04T09:28:07.984Z</time>
      </trkpt>
      <trkpt lat="42.97873" lon="1.07945">
        <ele>674.7</ele>
        <time>2023-04-04T09:28:10.984Z</time>
      </trkpt>
      <trkpt lat="42.97872" lon="1.07931">
        <ele>674.3</ele>
        <time>2023-04-04T09:28:13.984Z</time>
      </trkpt>
      <trkpt lat="42.97872" lon="1.07916">
        <ele>674</ele>
        <time>2023-04-04T09:28:16.984Z</time>
      </trkpt>
      <trkpt lat="42.97873" lon="1.07902">
        <ele>673.9</ele>
        <time>2023-04-04T09:28:19.984Z</time>
      </trkpt>
      <trkpt lat="42.97873" lon="1.07888">
        <ele>673.9</ele>
        <time>2023-04-04T09:28:22.983Z</time>
      </trkpt>
      <trkpt lat="42.97873" lon="1.07873">
        <ele>674</ele>
        <time>2023-04-04T09:28:25.983Z</time>
      </trkpt>
      <trkpt lat="42.97872" lon="1.07858">
        <ele>674.1</ele>
        <time>2023-04-04T09:28:28.983Z</time>
      </trkpt>
      <trkpt lat="42.9787" lon="1.07843">
        <ele>674.3</ele>
        <time>2023-04-04T09:28:31.986Z</time>
      </trkpt>
      <trkpt lat="42.97867" lon="1.07829">
        <ele>674.6</ele>
        <time>2023-04-04T09:28:35.989Z</time>
      </trkpt>
      <trkpt lat="42.97866" lon="1.07817">
        <ele>674.5</ele>
        <time>2023-04-04T09:28:39.992Z</time>
      </trkpt>
      <trkpt lat="42.97864" lon="1.07804">
        <ele>674</ele>
        <time>2023-04-04T09:28:43.994Z</time>
      </trkpt>
      <trkpt lat="42.97857" lon="1.07796">
        <ele>673.2</ele>
        <time>2023-04-04T09:28:47.995Z</time>
      </trkpt>
      <trkpt lat="42.9785" lon="1.07788">
        <ele>671.9</ele>
        <time>2023-04-04T09:28:51.996Z</time>
      </trkpt>
      <trkpt lat="42.97844" lon="1.07779">
        <ele>669.8</ele>
        <time>2023-04-04T09:28:57.997Z</time>
      </trkpt>
      <trkpt lat="42.97843" lon="1.07778">
        <ele>669</ele>
        <time>2023-04-04T09:29:00.997Z</time>
      </trkpt>
      <trkpt lat="42.97843" lon="1.07778">
        <ele>668.6</ele>
        <time>2023-04-04T09:29:02.998Z</time>
      </trkpt>
      <trkpt lat="42.97843" lon="1.07778">
        <ele>668.4</ele>
        <time>2023-04-04T09:29:03.998Z</time>
      </trkpt>
      <trkpt lat="42.97843" lon="1.07777">
        <ele>667.7</ele>
        <time>2023-04-04T09:29:12.998Z</time>
      </trkpt>
      <trkpt lat="42.97843" lon="1.07777">
        <ele>667.7</ele>
        <time>2023-04-04T09:29:13.998Z</time>
      </trkpt>
      <trkpt lat="42.97843" lon="1.07777">
        <ele>667.5</ele>
        <time>2023-04-04T09:29:17.998Z</time>
      </trkpt>
      <trkpt lat="42.97843" lon="1.07778">
        <ele>667.5</ele>
        <time>2023-04-04T09:29:19.998Z</time>
      </trkpt>
      <trkpt lat="42.97843" lon="1.0778">
        <ele>667.2</ele>
        <time>2023-04-04T09:36:03.982Z</time>
      </trkpt>
      <trkpt lat="42.97844" lon="1.0778">
        <ele>667.2</ele>
        <time>2023-04-04T09:36:07.982Z</time>
      </trkpt>
      <trkpt lat="42.97842" lon="1.07782">
        <ele>667.2</ele>
        <time>2023-04-04T09:36:24.981Z</time>
      </trkpt>
      <trkpt lat="42.97842" lon="1.07782">
        <ele>667.2</ele>
        <time>2023-04-04T09:36:25.981Z</time>
      </trkpt>
      <trkpt lat="42.97841" lon="1.07782">
        <ele>667.2</ele>
        <time>2023-04-04T09:36:36.981Z</time>
      </trkpt>
      <trkpt lat="42.97841" lon="1.07782">
        <ele>667.2</ele>
        <time>2023-04-04T09:36:38.981Z</time>
      </trkpt>
      <trkpt lat="42.97841" lon="1.07781">
        <ele>667.3</ele>
        <time>2023-04-04T09:37:00.980Z</time>
      </trkpt>
      <trkpt lat="42.97841" lon="1.07781">
        <ele>667.3</ele>
        <time>2023-04-04T09:37:01.980Z</time>
      </trkpt>
      <trkpt lat="42.97842" lon="1.07782">
        <ele>667.3</ele>
        <time>2023-04-04T09:37:02.980Z</time>
      </trkpt>
      <trkpt lat="42.97834" lon="1.07775">
        <ele>667.3</ele>
        <time>2023-04-04T09:37:13.979Z</time>
      </trkpt>
      <trkpt lat="42.97825" lon="1.07771">
        <ele>667.2</ele>
        <time>2023-04-04T09:37:20.979Z</time>
      </trkpt>
      <trkpt lat="42.97816" lon="1.07766">
        <ele>666.8</ele>
        <time>2023-04-04T09:37:38.978Z</time>
      </trkpt>
      <trkpt lat="42.97807" lon="1.07764">
        <ele>666.5</ele>
        <time>2023-04-04T09:37:42.978Z</time>
      </trkpt>
      <trkpt lat="42.97797" lon="1.07761">
        <ele>666</ele>
        <time>2023-04-04T09:37:46.978Z</time>
      </trkpt>
      <trkpt lat="42.97789" lon="1.07756">
        <ele>665.2</ele>
        <time>2023-04-04T09:37:51.978Z</time>
      </trkpt>
      <trkpt lat="42.97781" lon="1.0775">
        <ele>664.4</ele>
        <time>2023-04-04T09:37:55.978Z</time>
      </trkpt>
      <trkpt lat="42.97771" lon="1.07747">
        <ele>663.6</ele>
        <time>2023-04-04T09:38:00.985Z</time>
      </trkpt>
      <trkpt lat="42.97761" lon="1.07742">
        <ele>662.6</ele>
        <time>2023-04-04T09:38:06.990Z</time>
      </trkpt>
      <trkpt lat="42.97751" lon="1.07737">
        <ele>661.9</ele>
        <time>2023-04-04T09:38:11.993Z</time>
      </trkpt>
      <trkpt lat="42.97742" lon="1.07733">
        <ele>661.5</ele>
        <time>2023-04-04T09:38:16.995Z</time>
      </trkpt>
      <trkpt lat="42.97733" lon="1.0773">
        <ele>661.5</ele>
        <time>2023-04-04T09:38:21.996Z</time>
      </trkpt>
      <trkpt lat="42.97724" lon="1.07728">
        <ele>661.8</ele>
        <time>2023-04-04T09:38:26.997Z</time>
      </trkpt>
      <trkpt lat="42.97715" lon="1.07723">
        <ele>662.2</ele>
        <time>2023-04-04T09:38:31.998Z</time>
      </trkpt>
      <trkpt lat="42.97708" lon="1.07714">
        <ele>662.8</ele>
        <time>2023-04-04T09:38:37.998Z</time>
      </trkpt>
      <trkpt lat="42.977" lon="1.07705">
        <ele>663.3</ele>
        <time>2023-04-04T09:38:43.998Z</time>
      </trkpt>
      <trkpt lat="42.97695" lon="1.07694">
        <ele>663.6</ele>
        <time>2023-04-04T09:38:49.998Z</time>
      </trkpt>
      <trkpt lat="42.97687" lon="1.07687">
        <ele>663.9</ele>
        <time>2023-04-04T09:38:54.998Z</time>
      </trkpt>
      <trkpt lat="42.97679" lon="1.07678">
        <ele>664.4</ele>
        <time>2023-04-04T09:39:01.998Z</time>
      </trkpt>
      <trkpt lat="42.97671" lon="1.07668">
        <ele>664.9</ele>
        <time>2023-04-04T09:39:07.998Z</time>
      </trkpt>
      <trkpt lat="42.97663" lon="1.07658">
        <ele>665.3</ele>
        <time>2023-04-04T09:39:12.998Z</time>
      </trkpt>
      <trkpt lat="42.97655" lon="1.07652">
        <ele>666</ele>
        <time>2023-04-04T09:39:17.998Z</time>
      </trkpt>
      <trkpt lat="42.97648" lon="1.07644">
        <ele>667.4</ele>
        <time>2023-04-04T09:39:22.998Z</time>
      </trkpt>
      <trkpt lat="42.97639" lon="1.07636">
        <ele>669.2</ele>
        <time>2023-04-04T09:39:27.998Z</time>
      </trkpt>
      <trkpt lat="42.97631" lon="1.07627">
        <ele>671.3</ele>
        <time>2023-04-04T09:39:33.997Z</time>
      </trkpt>
      <trkpt lat="42.97625" lon="1.07617">
        <ele>672.8</ele>
        <time>2023-04-04T09:39:39.997Z</time>
      </trkpt>
      <trkpt lat="42.97616" lon="1.07612">
        <ele>674.5</ele>
        <time>2023-04-04T09:39:44.997Z</time>
      </trkpt>
      <trkpt lat="42.97608" lon="1.07603">
        <ele>676.2</ele>
        <time>2023-04-04T09:39:48.997Z</time>
      </trkpt>
      <trkpt lat="42.97602" lon="1.07593">
        <ele>677.7</ele>
        <time>2023-04-04T09:39:52.997Z</time>
      </trkpt>
      <trkpt lat="42.97595" lon="1.07585">
        <ele>679.3</ele>
        <time>2023-04-04T09:39:57.996Z</time>
      </trkpt>
      <trkpt lat="42.97587" lon="1.07577">
        <ele>680.9</ele>
        <time>2023-04-04T09:40:02.996Z</time>
      </trkpt>
      <trkpt lat="42.97578" lon="1.0757">
        <ele>682.8</ele>
        <time>2023-04-04T09:40:08.996Z</time>
      </trkpt>
      <trkpt lat="42.9757" lon="1.0756">
        <ele>685.1</ele>
        <time>2023-04-04T09:40:13.996Z</time>
      </trkpt>
      <trkpt lat="42.97562" lon="1.07552">
        <ele>687.5</ele>
        <time>2023-04-04T09:40:19.996Z</time>
      </trkpt>
      <trkpt lat="42.97556" lon="1.07544">
        <ele>689.3</ele>
        <time>2023-04-04T09:40:25.995Z</time>
      </trkpt>
      <trkpt lat="42.97548" lon="1.07536">
        <ele>691.2</ele>
        <time>2023-04-04T09:40:32.995Z</time>
      </trkpt>
      <trkpt lat="42.9754" lon="1.07527">
        <ele>693.7</ele>
        <time>2023-04-04T09:40:39.995Z</time>
      </trkpt>
      <trkpt lat="42.97536" lon="1.07514">
        <ele>694.7</ele>
        <time>2023-04-04T09:40:47.995Z</time>
      </trkpt>
      <trkpt lat="42.97529" lon="1.07505">
        <ele>694.9</ele>
        <time>2023-04-04T09:40:52.994Z</time>
      </trkpt>
      <trkpt lat="42.9752" lon="1.07499">
        <ele>697</ele>
        <time>2023-04-04T09:40:59.994Z</time>
      </trkpt>
      <trkpt lat="42.97511" lon="1.07494">
        <ele>699.6</ele>
        <time>2023-04-04T09:41:04.994Z</time>
      </trkpt>
      <trkpt lat="42.975" lon="1.07489">
        <ele>703.5</ele>
        <time>2023-04-04T09:41:08.994Z</time>
      </trkpt>
      <trkpt lat="42.97494" lon="1.07479">
        <ele>708.6</ele>
        <time>2023-04-04T09:41:14.994Z</time>
      </trkpt>
      <trkpt lat="42.9749" lon="1.07466">
        <ele>710.7</ele>
        <time>2023-04-04T09:41:19.993Z</time>
      </trkpt>
      <trkpt lat="42.97483" lon="1.07455">
        <ele>713</ele>
        <time>2023-04-04T09:41:24.993Z</time>
      </trkpt>
      <trkpt lat="42.97479" lon="1.07443">
        <ele>715</ele>
        <time>2023-04-04T09:41:29.993Z</time>
      </trkpt>
      <trkpt lat="42.97474" lon="1.07431">
        <ele>716.8</ele>
        <time>2023-04-04T09:41:36.993Z</time>
      </trkpt>
      <trkpt lat="42.97466" lon="1.07421">
        <ele>718.9</ele>
        <time>2023-04-04T09:41:41.992Z</time>
      </trkpt>
      <trkpt lat="42.97461" lon="1.0741">
        <ele>721.9</ele>
        <time>2023-04-04T09:41:46.992Z</time>
      </trkpt>
      <trkpt lat="42.97456" lon="1.07399">
        <ele>727.2</ele>
        <time>2023-04-04T09:41:54.992Z</time>
      </trkpt>
      <trkpt lat="42.97447" lon="1.0739">
        <ele>731.7</ele>
        <time>2023-04-04T09:42:00.992Z</time>
      </trkpt>
      <trkpt lat="42.9744" lon="1.07382">
        <ele>735.7</ele>
        <time>2023-04-04T09:42:04.992Z</time>
      </trkpt>
      <trkpt lat="42.97433" lon="1.07373">
        <ele>741.2</ele>
        <time>2023-04-04T09:42:10.991Z</time>
      </trkpt>
      <trkpt lat="42.97425" lon="1.07363">
        <ele>744.9</ele>
        <time>2023-04-04T09:42:16.991Z</time>
      </trkpt>
      <trkpt lat="42.97418" lon="1.07357">
        <ele>748</ele>
        <time>2023-04-04T09:42:21.991Z</time>
      </trkpt>
      <trkpt lat="42.9741" lon="1.07351">
        <ele>750.9</ele>
        <time>2023-04-04T09:42:27.991Z</time>
      </trkpt>
      <trkpt lat="42.97402" lon="1.0734">
        <ele>752.5</ele>
        <time>2023-04-04T09:42:32.991Z</time>
      </trkpt>
      <trkpt lat="42.97394" lon="1.0733">
        <ele>754</ele>
        <time>2023-04-04T09:42:37.990Z</time>
      </trkpt>
      <trkpt lat="42.97388" lon="1.0732">
        <ele>756.5</ele>
        <time>2023-04-04T09:42:42.990Z</time>
      </trkpt>
      <trkpt lat="42.97381" lon="1.07311">
        <ele>759.9</ele>
        <time>2023-04-04T09:42:47.990Z</time>
      </trkpt>
      <trkpt lat="42.97372" lon="1.07304">
        <ele>763.2</ele>
        <time>2023-04-04T09:42:52.990Z</time>
      </trkpt>
      <trkpt lat="42.97364" lon="1.07296">
        <ele>766.2</ele>
        <time>2023-04-04T09:42:57.990Z</time>
      </trkpt>
      <trkpt lat="42.97357" lon="1.07289">
        <ele>769</ele>
        <time>2023-04-04T09:43:02.989Z</time>
      </trkpt>
      <trkpt lat="42.97347" lon="1.07282">
        <ele>771.8</ele>
        <time>2023-04-04T09:43:08.989Z</time>
      </trkpt>
      <trkpt lat="42.97338" lon="1.07281">
        <ele>773.6</ele>
        <time>2023-04-04T09:43:13.989Z</time>
      </trkpt>
      <trkpt lat="42.97328" lon="1.07281">
        <ele>775</ele>
        <time>2023-04-04T09:43:19.989Z</time>
      </trkpt>
      <trkpt lat="42.97319" lon="1.07278">
        <ele>776.1</ele>
        <time>2023-04-04T09:43:27.988Z</time>
      </trkpt>
      <trkpt lat="42.97311" lon="1.07278">
        <ele>777</ele>
        <time>2023-04-04T09:43:38.988Z</time>
      </trkpt>
      <trkpt lat="42.97312" lon="1.0728">
        <ele>777.5</ele>
        <time>2023-04-04T09:44:00.987Z</time>
      </trkpt>
      <trkpt lat="42.97312" lon="1.0728">
        <ele>777.5</ele>
        <time>2023-04-04T09:44:01.987Z</time>
      </trkpt>
      <trkpt lat="42.97311" lon="1.07279">
        <ele>777.5</ele>
        <time>2023-04-04T09:44:04.987Z</time>
      </trkpt>
      <trkpt lat="42.97311" lon="1.07272">
        <ele>777.7</ele>
        <time>2023-04-04T09:44:11.987Z</time>
      </trkpt>
      <trkpt lat="42.97313" lon="1.07272">
        <ele>777.9</ele>
        <time>2023-04-04T09:44:15.987Z</time>
      </trkpt>
      <trkpt lat="42.97314" lon="1.07271">
        <ele>777.9</ele>
        <time>2023-04-04T09:44:17.986Z</time>
      </trkpt>
      <trkpt lat="42.97316" lon="1.0727">
        <ele>778.1</ele>
        <time>2023-04-04T09:44:21.986Z</time>
      </trkpt>
      <trkpt lat="42.97316" lon="1.0727">
        <ele>778.1</ele>
        <time>2023-04-04T09:44:22.986Z</time>
      </trkpt>
      <trkpt lat="42.97315" lon="1.07277">
        <ele>778.3</ele>
        <time>2023-04-04T09:44:31.986Z</time>
      </trkpt>
      <trkpt lat="42.97315" lon="1.07277">
        <ele>778.2</ele>
        <time>2023-04-04T09:44:32.986Z</time>
      </trkpt>
      <trkpt lat="42.97313" lon="1.07278">
        <ele>777.9</ele>
        <time>2023-04-04T09:45:58.998Z</time>
      </trkpt>
      <trkpt lat="42.973" lon="1.07273">
        <ele>777.9</ele>
        <time>2023-04-04T09:46:03.998Z</time>
      </trkpt>
      <trkpt lat="42.9729" lon="1.07263">
        <ele>778</ele>
        <time>2023-04-04T09:46:06.998Z</time>
      </trkpt>
      <trkpt lat="42.97286" lon="1.07251">
        <ele>778.3</ele>
        <time>2023-04-04T09:46:10.998Z</time>
      </trkpt>
      <trkpt lat="42.97284" lon="1.07238">
        <ele>780.5</ele>
        <time>2023-04-04T09:46:17.998Z</time>
      </trkpt>
      <trkpt lat="42.97277" lon="1.07227">
        <ele>784.5</ele>
        <time>2023-04-04T09:46:22.998Z</time>
      </trkpt>
      <trkpt lat="42.97274" lon="1.07213">
        <ele>789.9</ele>
        <time>2023-04-04T09:46:28.998Z</time>
      </trkpt>
      <trkpt lat="42.97266" lon="1.07205">
        <ele>793.3</ele>
        <time>2023-04-04T09:46:34.997Z</time>
      </trkpt>
      <trkpt lat="42.97256" lon="1.07198">
        <ele>794.8</ele>
        <time>2023-04-04T09:46:38.997Z</time>
      </trkpt>
      <trkpt lat="42.97246" lon="1.07196">
        <ele>795.6</ele>
        <time>2023-04-04T09:46:42.997Z</time>
      </trkpt>
      <trkpt lat="42.97236" lon="1.07192">
        <ele>796</ele>
        <time>2023-04-04T09:46:49.997Z</time>
      </trkpt>
      <trkpt lat="42.97228" lon="1.07187">
        <ele>796.2</ele>
        <time>2023-04-04T09:46:54.997Z</time>
      </trkpt>
      <trkpt lat="42.97219" lon="1.07182">
        <ele>796.4</ele>
        <time>2023-04-04T09:46:59.996Z</time>
      </trkpt>
      <trkpt lat="42.9721" lon="1.07177">
        <ele>796.5</ele>
        <time>2023-04-04T09:47:04.996Z</time>
      </trkpt>
      <trkpt lat="42.972" lon="1.07169">
        <ele>796.6</ele>
        <time>2023-04-04T09:47:08.996Z</time>
      </trkpt>
      <trkpt lat="42.97191" lon="1.07164">
        <ele>796.7</ele>
        <time>2023-04-04T09:47:12.996Z</time>
      </trkpt>
      <trkpt lat="42.97182" lon="1.07157">
        <ele>797</ele>
        <time>2023-04-04T09:47:16.996Z</time>
      </trkpt>
      <trkpt lat="42.97175" lon="1.07145">
        <ele>798.3</ele>
        <time>2023-04-04T09:47:22.996Z</time>
      </trkpt>
      <trkpt lat="42.97173" lon="1.07133">
        <ele>800.9</ele>
        <time>2023-04-04T09:47:26.995Z</time>
      </trkpt>
      <trkpt lat="42.97174" lon="1.07118">
        <ele>807.7</ele>
        <time>2023-04-04T09:47:31.995Z</time>
      </trkpt>
      <trkpt lat="42.97174" lon="1.07106">
        <ele>814.5</ele>
        <time>2023-04-04T09:47:37.995Z</time>
      </trkpt>
      <trkpt lat="42.97168" lon="1.07097">
        <ele>818.2</ele>
        <time>2023-04-04T09:47:43.995Z</time>
      </trkpt>
      <trkpt lat="42.97161" lon="1.07086">
        <ele>820.4</ele>
        <time>2023-04-04T09:47:49.995Z</time>
      </trkpt>
      <trkpt lat="42.97153" lon="1.07081">
        <ele>821.8</ele>
        <time>2023-04-04T09:47:54.994Z</time>
      </trkpt>
      <trkpt lat="42.97144" lon="1.07076">
        <ele>822.1</ele>
        <time>2023-04-04T09:48:00.994Z</time>
      </trkpt>
      <trkpt lat="42.97134" lon="1.07073">
        <ele>822.1</ele>
        <time>2023-04-04T09:48:06.994Z</time>
      </trkpt>
      <trkpt lat="42.97124" lon="1.07071">
        <ele>821.6</ele>
        <time>2023-04-04T09:48:12.994Z</time>
      </trkpt>
      <trkpt lat="42.97113" lon="1.0707">
        <ele>820.8</ele>
        <time>2023-04-04T09:48:16.994Z</time>
      </trkpt>
      <trkpt lat="42.97104" lon="1.0707">
        <ele>819.3</ele>
        <time>2023-04-04T09:48:20.993Z</time>
      </trkpt>
      <trkpt lat="42.97094" lon="1.0707">
        <ele>816.9</ele>
        <time>2023-04-04T09:48:25.993Z</time>
      </trkpt>
      <trkpt lat="42.97084" lon="1.07076">
        <ele>814.3</ele>
        <time>2023-04-04T09:48:29.993Z</time>
      </trkpt>
      <trkpt lat="42.97075" lon="1.07079">
        <ele>811.8</ele>
        <time>2023-04-04T09:48:34.993Z</time>
      </trkpt>
      <trkpt lat="42.97066" lon="1.07082">
        <ele>811.2</ele>
        <time>2023-04-04T09:48:39.993Z</time>
      </trkpt>
      <trkpt lat="42.97055" lon="1.07081">
        <ele>811.4</ele>
        <time>2023-04-04T09:48:45.992Z</time>
      </trkpt>
      <trkpt lat="42.97046" lon="1.07079">
        <ele>812</ele>
        <time>2023-04-04T09:48:50.992Z</time>
      </trkpt>
      <trkpt lat="42.97039" lon="1.07071">
        <ele>814.1</ele>
        <time>2023-04-04T09:48:58.992Z</time>
      </trkpt>
      <trkpt lat="42.97029" lon="1.07068">
        <ele>816</ele>
        <time>2023-04-04T09:49:03.992Z</time>
      </trkpt>
      <trkpt lat="42.97019" lon="1.07071">
        <ele>818</ele>
        <time>2023-04-04T09:49:09.991Z</time>
      </trkpt>
      <trkpt lat="42.97009" lon="1.07068">
        <ele>819.5</ele>
        <time>2023-04-04T09:49:16.991Z</time>
      </trkpt>
      <trkpt lat="42.97006" lon="1.07055">
        <ele>822.6</ele>
        <time>2023-04-04T09:49:26.991Z</time>
      </trkpt>
      <trkpt lat="42.97014" lon="1.07046">
        <ele>824.7</ele>
        <time>2023-04-04T09:49:34.991Z</time>
      </trkpt>
      <trkpt lat="42.97018" lon="1.07035">
        <ele>826.2</ele>
        <time>2023-04-04T09:49:39.990Z</time>
      </trkpt>
      <trkpt lat="42.97024" lon="1.07023">
        <ele>828.3</ele>
        <time>2023-04-04T09:49:46.990Z</time>
      </trkpt>
      <trkpt lat="42.97027" lon="1.07011">
        <ele>830.8</ele>
        <time>2023-04-04T09:49:53.990Z</time>
      </trkpt>
      <trkpt lat="42.97028" lon="1.06998">
        <ele>833.3</ele>
        <time>2023-04-04T09:50:00.990Z</time>
      </trkpt>
      <trkpt lat="42.97026" lon="1.06989">
        <ele>835.2</ele>
        <time>2023-04-04T09:50:06.989Z</time>
      </trkpt>
      <trkpt lat="42.97026" lon="1.06987">
        <ele>835.4</ele>
        <time>2023-04-04T09:50:07.989Z</time>
      </trkpt>
      <trkpt lat="42.97024" lon="1.06975">
        <ele>836.8</ele>
        <time>2023-04-04T09:50:14.989Z</time>
      </trkpt>
      <trkpt lat="42.97017" lon="1.06965">
        <ele>838.5</ele>
        <time>2023-04-04T09:50:22.989Z</time>
      </trkpt>
      <trkpt lat="42.9701" lon="1.06956">
        <ele>840</ele>
        <time>2023-04-04T09:50:29.988Z</time>
      </trkpt>
      <trkpt lat="42.97003" lon="1.0695">
        <ele>841.9</ele>
        <time>2023-04-04T09:50:39.988Z</time>
      </trkpt>
      <trkpt lat="42.97002" lon="1.06949">
        <ele>842.2</ele>
        <time>2023-04-04T09:50:41.988Z</time>
      </trkpt>
      <trkpt lat="42.97002" lon="1.06949">
        <ele>842.4</ele>
        <time>2023-04-04T09:50:43.988Z</time>
      </trkpt>
      <trkpt lat="42.97" lon="1.06946">
        <ele>843.4</ele>
        <time>2023-04-04T09:52:12.984Z</time>
      </trkpt>
      <trkpt lat="42.97" lon="1.06946">
        <ele>843.5</ele>
        <time>2023-04-04T09:52:13.984Z</time>
      </trkpt>
      <trkpt lat="42.96999" lon="1.06947">
        <ele>843.5</ele>
        <time>2023-04-04T09:52:19.984Z</time>
      </trkpt>
      <trkpt lat="42.96999" lon="1.06947">
        <ele>843.5</ele>
        <time>2023-04-04T09:52:21.986Z</time>
      </trkpt>
      <trkpt lat="42.96998" lon="1.06947">
        <ele>843.5</ele>
        <time>2023-04-04T09:52:23.988Z</time>
      </trkpt>
      <trkpt lat="42.96998" lon="1.06947">
        <ele>843.5</ele>
        <time>2023-04-04T09:52:24.989Z</time>
      </trkpt>
      <trkpt lat="42.96999" lon="1.06944">
        <ele>843.9</ele>
        <time>2023-04-04T09:54:12.997Z</time>
      </trkpt>
      <trkpt lat="42.96999" lon="1.06944">
        <ele>843.9</ele>
        <time>2023-04-04T09:54:13.997Z</time>
      </trkpt>
      <trkpt lat="42.96999" lon="1.06943">
        <ele>843.9</ele>
        <time>2023-04-04T09:54:17.996Z</time>
      </trkpt>
      <trkpt lat="42.96998" lon="1.06942">
        <ele>843.9</ele>
        <time>2023-04-04T09:54:19.996Z</time>
      </trkpt>
      <trkpt lat="42.96998" lon="1.06941">
        <ele>843.9</ele>
        <time>2023-04-04T09:54:21.996Z</time>
      </trkpt>
      <trkpt lat="42.96993" lon="1.06929">
        <ele>844.1</ele>
        <time>2023-04-04T09:54:33.996Z</time>
      </trkpt>
      <trkpt lat="42.96988" lon="1.06916">
        <ele>844.3</ele>
        <time>2023-04-04T09:54:38.996Z</time>
      </trkpt>
      <trkpt lat="42.96984" lon="1.06903">
        <ele>844.7</ele>
        <time>2023-04-04T09:54:42.995Z</time>
      </trkpt>
      <trkpt lat="42.96981" lon="1.0689">
        <ele>845.4</ele>
        <time>2023-04-04T09:54:45.995Z</time>
      </trkpt>
      <trkpt lat="42.96974" lon="1.06881">
        <ele>846.2</ele>
        <time>2023-04-04T09:54:47.995Z</time>
      </trkpt>
      <trkpt lat="42.96971" lon="1.06866">
        <ele>848.1</ele>
        <time>2023-04-04T09:54:50.995Z</time>
      </trkpt>
      <trkpt lat="42.9697" lon="1.06853">
        <ele>852.2</ele>
        <time>2023-04-04T09:54:57.995Z</time>
      </trkpt>
      <trkpt lat="42.96963" lon="1.06844">
        <ele>853.8</ele>
        <time>2023-04-04T09:55:02.995Z</time>
      </trkpt>
      <trkpt lat="42.96954" lon="1.06837">
        <ele>854.6</ele>
        <time>2023-04-04T09:55:06.994Z</time>
      </trkpt>
      <trkpt lat="42.96944" lon="1.06829">
        <ele>855.4</ele>
        <time>2023-04-04T09:55:10.994Z</time>
      </trkpt>
      <trkpt lat="42.96935" lon="1.06827">
        <ele>856</ele>
        <time>2023-04-04T09:55:12.994Z</time>
      </trkpt>
      <trkpt lat="42.96926" lon="1.06824">
        <ele>856.6</ele>
        <time>2023-04-04T09:55:14.994Z</time>
      </trkpt>
      <trkpt lat="42.96917" lon="1.0682">
        <ele>857.3</ele>
        <time>2023-04-04T09:55:16.994Z</time>
      </trkpt>
      <trkpt lat="42.96904" lon="1.06813">
        <ele>858.3</ele>
        <time>2023-04-04T09:55:19.994Z</time>
      </trkpt>
      <trkpt lat="42.96895" lon="1.06806">
        <ele>858.9</ele>
        <time>2023-04-04T09:55:21.994Z</time>
      </trkpt>
      <trkpt lat="42.96886" lon="1.068">
        <ele>859.4</ele>
        <time>2023-04-04T09:55:23.994Z</time>
      </trkpt>
      <trkpt lat="42.96877" lon="1.06795">
        <ele>859.9</ele>
        <time>2023-04-04T09:55:26.994Z</time>
      </trkpt>
      <trkpt lat="42.96867" lon="1.0679">
        <ele>860.3</ele>
        <time>2023-04-04T09:55:30.993Z</time>
      </trkpt>
      <trkpt lat="42.96857" lon="1.06786">
        <ele>860.2</ele>
        <time>2023-04-04T09:55:33.993Z</time>
      </trkpt>
      <trkpt lat="42.96845" lon="1.06775">
        <ele>860.2</ele>
        <time>2023-04-04T09:55:35.993Z</time>
      </trkpt>
      <trkpt lat="42.96835" lon="1.06768">
        <ele>860.2</ele>
        <time>2023-04-04T09:55:38.993Z</time>
      </trkpt>
      <trkpt lat="42.96826" lon="1.06769">
        <ele>859.9</ele>
        <time>2023-04-04T09:55:40.993Z</time>
      </trkpt>
      <trkpt lat="42.96814" lon="1.06763">
        <ele>859.2</ele>
        <time>2023-04-04T09:55:43.993Z</time>
      </trkpt>
      <trkpt lat="42.96803" lon="1.06763">
        <ele>857.6</ele>
        <time>2023-04-04T09:55:46.993Z</time>
      </trkpt>
      <trkpt lat="42.96793" lon="1.06763">
        <ele>854.4</ele>
        <time>2023-04-04T09:55:50.993Z</time>
      </trkpt>
      <trkpt lat="42.96784" lon="1.06764">
        <ele>851.6</ele>
        <time>2023-04-04T09:55:53.993Z</time>
      </trkpt>
      <trkpt lat="42.96774" lon="1.06761">
        <ele>848.7</ele>
        <time>2023-04-04T09:55:56.992Z</time>
      </trkpt>
      <trkpt lat="42.96765" lon="1.06752">
        <ele>848.1</ele>
        <time>2023-04-04T09:55:57.992Z</time>
      </trkpt>
      <trkpt lat="42.96755" lon="1.06751">
        <ele>846.6</ele>
        <time>2023-04-04T09:55:59.992Z</time>
      </trkpt>
      <trkpt lat="42.96741" lon="1.06749">
        <ele>844.3</ele>
        <time>2023-04-04T09:56:02.992Z</time>
      </trkpt>
      <trkpt lat="42.96733" lon="1.06739">
        <ele>843.4</ele>
        <time>2023-04-04T09:56:04.992Z</time>
      </trkpt>
      <trkpt lat="42.9672" lon="1.0673">
        <ele>842.9</ele>
        <time>2023-04-04T09:56:07.992Z</time>
      </trkpt>
      <trkpt lat="42.9671" lon="1.06721">
        <ele>842.6</ele>
        <time>2023-04-04T09:56:09.992Z</time>
      </trkpt>
      <trkpt lat="42.96702" lon="1.06715">
        <ele>842.4</ele>
        <time>2023-04-04T09:56:11.992Z</time>
      </trkpt>
      <trkpt lat="42.9669" lon="1.06721">
        <ele>841.6</ele>
        <time>2023-04-04T09:56:13.992Z</time>
      </trkpt>
      <trkpt lat="42.96677" lon="1.06721">
        <ele>839.8</ele>
        <time>2023-04-04T09:56:15.992Z</time>
      </trkpt>
      <trkpt lat="42.96666" lon="1.06718">
        <ele>835.7</ele>
        <time>2023-04-04T09:56:19.992Z</time>
      </trkpt>
      <trkpt lat="42.96656" lon="1.06715">
        <ele>833</ele>
        <time>2023-04-04T09:56:22.991Z</time>
      </trkpt>
      <trkpt lat="42.96641" lon="1.06711">
        <ele>831.2</ele>
        <time>2023-04-04T09:56:24.991Z</time>
      </trkpt>
      <trkpt lat="42.96629" lon="1.06706">
        <ele>829.6</ele>
        <time>2023-04-04T09:56:26.991Z</time>
      </trkpt>
      <trkpt lat="42.96619" lon="1.06703">
        <ele>828.2</ele>
        <time>2023-04-04T09:56:28.991Z</time>
      </trkpt>
      <trkpt lat="42.96606" lon="1.06702">
        <ele>826.2</ele>
        <time>2023-04-04T09:56:30.991Z</time>
      </trkpt>
      <trkpt lat="42.96589" lon="1.06704">
        <ele>823.2</ele>
        <time>2023-04-04T09:56:32.991Z</time>
      </trkpt>
      <trkpt lat="42.96579" lon="1.06705">
        <ele>819.5</ele>
        <time>2023-04-04T09:56:34.991Z</time>
      </trkpt>
      <trkpt lat="42.96569" lon="1.06705">
        <ele>813.5</ele>
        <time>2023-04-04T09:56:41.991Z</time>
      </trkpt>
      <trkpt lat="42.9656" lon="1.06703">
        <ele>812.1</ele>
        <time>2023-04-04T09:56:47.990Z</time>
      </trkpt>
      <trkpt lat="42.9655" lon="1.06703">
        <ele>810.9</ele>
        <time>2023-04-04T09:56:52.990Z</time>
      </trkpt>
      <trkpt lat="42.96538" lon="1.06702">
        <ele>809.6</ele>
        <time>2023-04-04T09:56:56.990Z</time>
      </trkpt>
      <trkpt lat="42.96526" lon="1.06698">
        <ele>808.4</ele>
        <time>2023-04-04T09:56:59.990Z</time>
      </trkpt>
      <trkpt lat="42.96514" lon="1.06693">
        <ele>807.5</ele>
        <time>2023-04-04T09:57:01.990Z</time>
      </trkpt>
      <trkpt lat="42.96504" lon="1.06692">
        <ele>806.5</ele>
        <time>2023-04-04T09:57:03.990Z</time>
      </trkpt>
      <trkpt lat="42.9649" lon="1.06688">
        <ele>804.7</ele>
        <time>2023-04-04T09:57:06.990Z</time>
      </trkpt>
      <trkpt lat="42.9648" lon="1.06687">
        <ele>803.5</ele>
        <time>2023-04-04T09:57:08.990Z</time>
      </trkpt>
      <trkpt lat="42.96468" lon="1.06683">
        <ele>802</ele>
        <time>2023-04-04T09:57:11.989Z</time>
      </trkpt>
      <trkpt lat="42.96457" lon="1.06679">
        <ele>801</ele>
        <time>2023-04-04T09:57:13.989Z</time>
      </trkpt>
      <trkpt lat="42.96448" lon="1.06677">
        <ele>800</ele>
        <time>2023-04-04T09:57:15.989Z</time>
      </trkpt>
      <trkpt lat="42.96438" lon="1.06676">
        <ele>798.7</ele>
        <time>2023-04-04T09:57:18.989Z</time>
      </trkpt>
      <trkpt lat="42.96426" lon="1.06678">
        <ele>795.6</ele>
        <time>2023-04-04T09:57:24.989Z</time>
      </trkpt>
      <trkpt lat="42.96417" lon="1.06678">
        <ele>793.7</ele>
        <time>2023-04-04T09:57:27.989Z</time>
      </trkpt>
      <trkpt lat="42.96405" lon="1.06674">
        <ele>792</ele>
        <time>2023-04-04T09:57:30.989Z</time>
      </trkpt>
      <trkpt lat="42.9639" lon="1.06669">
        <ele>790.7</ele>
        <time>2023-04-04T09:57:32.989Z</time>
      </trkpt>
      <trkpt lat="42.96377" lon="1.06663">
        <ele>789.3</ele>
        <time>2023-04-04T09:57:34.989Z</time>
      </trkpt>
      <trkpt lat="42.96367" lon="1.06659">
        <ele>787.1</ele>
        <time>2023-04-04T09:57:37.988Z</time>
      </trkpt>
      <trkpt lat="42.96355" lon="1.06659">
        <ele>785</ele>
        <time>2023-04-04T09:57:40.988Z</time>
      </trkpt>
      <trkpt lat="42.96344" lon="1.06658">
        <ele>782.5</ele>
        <time>2023-04-04T09:57:43.988Z</time>
      </trkpt>
      <trkpt lat="42.96334" lon="1.06652">
        <ele>780.3</ele>
        <time>2023-04-04T09:57:46.988Z</time>
      </trkpt>
      <trkpt lat="42.96324" lon="1.06648">
        <ele>778.4</ele>
        <time>2023-04-04T09:57:49.988Z</time>
      </trkpt>
      <trkpt lat="42.96314" lon="1.06644">
        <ele>775.7</ele>
        <time>2023-04-04T09:57:54.988Z</time>
      </trkpt>
      <trkpt lat="42.96302" lon="1.06639">
        <ele>773.6</ele>
        <time>2023-04-04T09:57:58.988Z</time>
      </trkpt>
      <trkpt lat="42.96294" lon="1.06633">
        <ele>772</ele>
        <time>2023-04-04T09:58:01.987Z</time>
      </trkpt>
      <trkpt lat="42.96285" lon="1.06627">
        <ele>770.3</ele>
        <time>2023-04-04T09:58:04.987Z</time>
      </trkpt>
      <trkpt lat="42.96274" lon="1.06619">
        <ele>768.3</ele>
        <time>2023-04-04T09:58:08.987Z</time>
      </trkpt>
      <trkpt lat="42.96264" lon="1.06615">
        <ele>766.5</ele>
        <time>2023-04-04T09:58:11.987Z</time>
      </trkpt>
      <trkpt lat="42.96258" lon="1.06606">
        <ele>765.2</ele>
        <time>2023-04-04T09:58:14.987Z</time>
      </trkpt>
      <trkpt lat="42.9625" lon="1.06599">
        <ele>764</ele>
        <time>2023-04-04T09:58:18.987Z</time>
      </trkpt>
      <trkpt lat="42.96246" lon="1.06597">
        <ele>762.6</ele>
        <time>2023-04-04T09:58:24.987Z</time>
      </trkpt>
      <trkpt lat="42.96245" lon="1.06597">
        <ele>762.4</ele>
        <time>2023-04-04T09:58:25.987Z</time>
      </trkpt>
      <trkpt lat="42.96237" lon="1.0659">
        <ele>761.3</ele>
        <time>2023-04-04T09:58:34.986Z</time>
      </trkpt>
      <trkpt lat="42.96228" lon="1.06592">
        <ele>760.4</ele>
        <time>2023-04-04T09:58:37.986Z</time>
      </trkpt>
      <trkpt lat="42.96219" lon="1.06588">
        <ele>758.7</ele>
        <time>2023-04-04T09:58:40.986Z</time>
      </trkpt>
      <trkpt lat="42.96209" lon="1.06583">
        <ele>755.9</ele>
        <time>2023-04-04T09:58:44.986Z</time>
      </trkpt>
      <trkpt lat="42.962" lon="1.06575">
        <ele>754.5</ele>
        <time>2023-04-04T09:58:46.986Z</time>
      </trkpt>
      <trkpt lat="42.96189" lon="1.06568">
        <ele>752.8</ele>
        <time>2023-04-04T09:58:48.986Z</time>
      </trkpt>
      <trkpt lat="42.96181" lon="1.06562">
        <ele>751.1</ele>
        <time>2023-04-04T09:58:50.986Z</time>
      </trkpt>
      <trkpt lat="42.96171" lon="1.06551">
        <ele>749.2</ele>
        <time>2023-04-04T09:58:53.985Z</time>
      </trkpt>
      <trkpt lat="42.96164" lon="1.06543">
        <ele>748.2</ele>
        <time>2023-04-04T09:58:55.985Z</time>
      </trkpt>
      <trkpt lat="42.96156" lon="1.06535">
        <ele>747</ele>
        <time>2023-04-04T09:58:58.985Z</time>
      </trkpt>
      <trkpt lat="42.96147" lon="1.06528">
        <ele>745.8</ele>
        <time>2023-04-04T09:59:02.985Z</time>
      </trkpt>
      <trkpt lat="42.96141" lon="1.06519">
        <ele>745</ele>
        <time>2023-04-04T09:59:06.985Z</time>
      </trkpt>
      <trkpt lat="42.96133" lon="1.06511">
        <ele>744.5</ele>
        <time>2023-04-04T09:59:10.985Z</time>
      </trkpt>
      <trkpt lat="42.96125" lon="1.06504">
        <ele>744</ele>
        <time>2023-04-04T09:59:12.985Z</time>
      </trkpt>
      <trkpt lat="42.96119" lon="1.06494">
        <ele>743.4</ele>
        <time>2023-04-04T09:59:15.985Z</time>
      </trkpt>
      <trkpt lat="42.96108" lon="1.06489">
        <ele>742</ele>
        <time>2023-04-04T09:59:20.984Z</time>
      </trkpt>
      <trkpt lat="42.96099" lon="1.06482">
        <ele>740.3</ele>
        <time>2023-04-04T09:59:24.984Z</time>
      </trkpt>
      <trkpt lat="42.9609" lon="1.06479">
        <ele>738.6</ele>
        <time>2023-04-04T09:59:27.984Z</time>
      </trkpt>
      <trkpt lat="42.9608" lon="1.06473">
        <ele>735.6</ele>
        <time>2023-04-04T09:59:31.984Z</time>
      </trkpt>
      <trkpt lat="42.96072" lon="1.06466">
        <ele>733.7</ele>
        <time>2023-04-04T09:59:34.984Z</time>
      </trkpt>
      <trkpt lat="42.96062" lon="1.06461">
        <ele>730.8</ele>
        <time>2023-04-04T09:59:39.984Z</time>
      </trkpt>
      <trkpt lat="42.96051" lon="1.06462">
        <ele>728.6</ele>
        <time>2023-04-04T09:59:42.983Z</time>
      </trkpt>
      <trkpt lat="42.96039" lon="1.06464">
        <ele>725.3</ele>
        <time>2023-04-04T09:59:45.987Z</time>
      </trkpt>
      <trkpt lat="42.96026" lon="1.06468">
        <ele>720.8</ele>
        <time>2023-04-04T09:59:48.989Z</time>
      </trkpt>
      <trkpt lat="42.96015" lon="1.06472">
        <ele>716.9</ele>
        <time>2023-04-04T09:59:50.990Z</time>
      </trkpt>
      <trkpt lat="42.95997" lon="1.06481">
        <ele>711.6</ele>
        <time>2023-04-04T09:59:52.992Z</time>
      </trkpt>
      <trkpt lat="42.95984" lon="1.06484">
        <ele>704.9</ele>
        <time>2023-04-04T09:59:54.993Z</time>
      </trkpt>
      <trkpt lat="42.95972" lon="1.06486">
        <ele>699.2</ele>
        <time>2023-04-04T09:59:56.994Z</time>
      </trkpt>
      <trkpt lat="42.95959" lon="1.06483">
        <ele>694.8</ele>
        <time>2023-04-04T09:59:58.994Z</time>
      </trkpt>
      <trkpt lat="42.95949" lon="1.06482">
        <ele>691.4</ele>
        <time>2023-04-04T10:00:00.995Z</time>
      </trkpt>
      <trkpt lat="42.95937" lon="1.06483">
        <ele>687.9</ele>
        <time>2023-04-04T10:00:02.996Z</time>
      </trkpt>
      <trkpt lat="42.95926" lon="1.06479">
        <ele>683.2</ele>
        <time>2023-04-04T10:00:06.996Z</time>
      </trkpt>
      <trkpt lat="42.9592" lon="1.06474">
        <ele>680.2</ele>
        <time>2023-04-04T10:00:12.997Z</time>
      </trkpt>
      <trkpt lat="42.95921" lon="1.06475">
        <ele>679.2</ele>
        <time>2023-04-04T10:00:25.998Z</time>
      </trkpt>
      <trkpt lat="42.95921" lon="1.06475">
        <ele>679.1</ele>
        <time>2023-04-04T10:00:26.998Z</time>
      </trkpt>
      <trkpt lat="42.9592" lon="1.06475">
        <ele>678.9</ele>
        <time>2023-04-04T10:00:36.998Z</time>
      </trkpt>
      <trkpt lat="42.9592" lon="1.06475">
        <ele>678.9</ele>
        <time>2023-04-04T10:00:37.998Z</time>
      </trkpt>
      <trkpt lat="42.95919" lon="1.06475">
        <ele>678.7</ele>
        <time>2023-04-04T10:00:48.998Z</time>
      </trkpt>
      <trkpt lat="42.95924" lon="1.06464">
        <ele>678.9</ele>
        <time>2023-04-04T10:00:54.998Z</time>
      </trkpt>
      <trkpt lat="42.95929" lon="1.0645">
        <ele>680.1</ele>
        <time>2023-04-04T10:00:59.998Z</time>
      </trkpt>
      <trkpt lat="42.95921" lon="1.06437">
        <ele>681.1</ele>
        <time>2023-04-04T10:01:02.998Z</time>
      </trkpt>
      <trkpt lat="42.9591" lon="1.06427">
        <ele>681.5</ele>
        <time>2023-04-04T10:01:05.998Z</time>
      </trkpt>
      <trkpt lat="42.95898" lon="1.06417">
        <ele>681.3</ele>
        <time>2023-04-04T10:01:07.997Z</time>
      </trkpt>
      <trkpt lat="42.95887" lon="1.06406">
        <ele>680.5</ele>
        <time>2023-04-04T10:01:09.997Z</time>
      </trkpt>
      <trkpt lat="42.95878" lon="1.06399">
        <ele>679.8</ele>
        <time>2023-04-04T10:01:10.997Z</time>
      </trkpt>
      <trkpt lat="42.95867" lon="1.06396">
        <ele>677.3</ele>
        <time>2023-04-04T10:01:12.997Z</time>
      </trkpt>
      <trkpt lat="42.95856" lon="1.06393">
        <ele>673.5</ele>
        <time>2023-04-04T10:01:14.997Z</time>
      </trkpt>
      <trkpt lat="42.95845" lon="1.06392">
        <ele>667.5</ele>
        <time>2023-04-04T10:01:17.997Z</time>
      </trkpt>
      <trkpt lat="42.95835" lon="1.06386">
        <ele>662.1</ele>
        <time>2023-04-04T10:01:21.997Z</time>
      </trkpt>
      <trkpt lat="42.95825" lon="1.06381">
        <ele>658.6</ele>
        <time>2023-04-04T10:01:26.997Z</time>
      </trkpt>
      <trkpt lat="42.95815" lon="1.06377">
        <ele>655.8</ele>
        <time>2023-04-04T10:01:35.996Z</time>
      </trkpt>
      <trkpt lat="42.95806" lon="1.06372">
        <ele>654.4</ele>
        <time>2023-04-04T10:01:39.996Z</time>
      </trkpt>
      <trkpt lat="42.95796" lon="1.06371">
        <ele>652.5</ele>
        <time>2023-04-04T10:01:44.996Z</time>
      </trkpt>
      <trkpt lat="42.95787" lon="1.0637">
        <ele>649.8</ele>
        <time>2023-04-04T10:01:53.996Z</time>
      </trkpt>
      <trkpt lat="42.95786" lon="1.06356">
        <ele>647.9</ele>
        <time>2023-04-04T10:01:59.995Z</time>
      </trkpt>
      <trkpt lat="42.95789" lon="1.06344">
        <ele>646.3</ele>
        <time>2023-04-04T10:02:04.995Z</time>
      </trkpt>
      <trkpt lat="42.95793" lon="1.06331">
        <ele>644.8</ele>
        <time>2023-04-04T10:02:10.995Z</time>
      </trkpt>
      <trkpt lat="42.95795" lon="1.06318">
        <ele>643.8</ele>
        <time>2023-04-04T10:02:18.995Z</time>
      </trkpt>
      <trkpt lat="42.95785" lon="1.06315">
        <ele>642.1</ele>
        <time>2023-04-04T10:02:23.994Z</time>
      </trkpt>
      <trkpt lat="42.95784" lon="1.06316">
        <ele>640.7</ele>
        <time>2023-04-04T10:02:27.994Z</time>
      </trkpt>
      <trkpt lat="42.95785" lon="1.06316">
        <ele>640.5</ele>
        <time>2023-04-04T10:02:28.994Z</time>
      </trkpt>
      <trkpt lat="42.95785" lon="1.06316">
        <ele>640</ele>
        <time>2023-04-04T10:02:31.994Z</time>
      </trkpt>
      <trkpt lat="42.95789" lon="1.0632">
        <ele>639.6</ele>
        <time>2023-04-04T10:02:36.994Z</time>
      </trkpt>
      <trkpt lat="42.95789" lon="1.0632">
        <ele>639.7</ele>
        <time>2023-04-04T10:02:37.994Z</time>
      </trkpt>
      <trkpt lat="42.95788" lon="1.0632">
        <ele>639.7</ele>
        <time>2023-04-04T10:02:38.994Z</time>
      </trkpt>
      <trkpt lat="42.95779" lon="1.06322">
        <ele>639.5</ele>
        <time>2023-04-04T10:02:44.994Z</time>
      </trkpt>
      <trkpt lat="42.9577" lon="1.06324">
        <ele>638.9</ele>
        <time>2023-04-04T10:02:48.993Z</time>
      </trkpt>
      <trkpt lat="42.95757" lon="1.06327">
        <ele>637.9</ele>
        <time>2023-04-04T10:02:51.993Z</time>
      </trkpt>
      <trkpt lat="42.95747" lon="1.06331">
        <ele>636.1</ele>
        <time>2023-04-04T10:02:54.993Z</time>
      </trkpt>
      <trkpt lat="42.95738" lon="1.06335">
        <ele>632.7</ele>
        <time>2023-04-04T10:03:00.993Z</time>
      </trkpt>
      <trkpt lat="42.95729" lon="1.06338">
        <ele>630.5</ele>
        <time>2023-04-04T10:03:06.993Z</time>
      </trkpt>
      <trkpt lat="42.95721" lon="1.06343">
        <ele>628.6</ele>
        <time>2023-04-04T10:03:15.992Z</time>
      </trkpt>
      <trkpt lat="42.95721" lon="1.06343">
        <ele>628.5</ele>
        <time>2023-04-04T10:03:16.992Z</time>
      </trkpt>
      <trkpt lat="42.95721" lon="1.06344">
        <ele>628.4</ele>
        <time>2023-04-04T10:03:17.992Z</time>
      </trkpt>
      <trkpt lat="42.95721" lon="1.06344">
        <ele>628.3</ele>
        <time>2023-04-04T10:03:18.992Z</time>
      </trkpt>
      <trkpt lat="42.95721" lon="1.06344">
        <ele>628.3</ele>
        <time>2023-04-04T10:03:19.992Z</time>
      </trkpt>
      <trkpt lat="42.95713" lon="1.06351">
        <ele>628</ele>
        <time>2023-04-04T10:03:28.992Z</time>
      </trkpt>
      <trkpt lat="42.95703" lon="1.06353">
        <ele>627.6</ele>
        <time>2023-04-04T10:03:32.992Z</time>
      </trkpt>
      <trkpt lat="42.95693" lon="1.0635">
        <ele>626.1</ele>
        <time>2023-04-04T10:03:37.991Z</time>
      </trkpt>
      <trkpt lat="42.95682" lon="1.06349">
        <ele>623</ele>
        <time>2023-04-04T10:03:42.991Z</time>
      </trkpt>
      <trkpt lat="42.95672" lon="1.06347">
        <ele>620.1</ele>
        <time>2023-04-04T10:03:46.991Z</time>
      </trkpt>
      <trkpt lat="42.9566" lon="1.06344">
        <ele>617</ele>
        <time>2023-04-04T10:03:49.991Z</time>
      </trkpt>
      <trkpt lat="42.95646" lon="1.06341">
        <ele>613.5</ele>
        <time>2023-04-04T10:03:52.991Z</time>
      </trkpt>
      <trkpt lat="42.95633" lon="1.06336">
        <ele>610.8</ele>
        <time>2023-04-04T10:03:54.991Z</time>
      </trkpt>
      <trkpt lat="42.95618" lon="1.06338">
        <ele>607.7</ele>
        <time>2023-04-04T10:03:56.991Z</time>
      </trkpt>
      <trkpt lat="42.95604" lon="1.06329">
        <ele>603.5</ele>
        <time>2023-04-04T10:03:58.991Z</time>
      </trkpt>
      <trkpt lat="42.95592" lon="1.06329">
        <ele>599.5</ele>
        <time>2023-04-04T10:04:00.991Z</time>
      </trkpt>
      <trkpt lat="42.95579" lon="1.06328">
        <ele>596.5</ele>
        <time>2023-04-04T10:04:02.990Z</time>
      </trkpt>
      <trkpt lat="42.95568" lon="1.06327">
        <ele>593.9</ele>
        <time>2023-04-04T10:04:04.990Z</time>
      </trkpt>
      <trkpt lat="42.95556" lon="1.06324">
        <ele>591.9</ele>
        <time>2023-04-04T10:04:06.990Z</time>
      </trkpt>
      <trkpt lat="42.95546" lon="1.06322">
        <ele>590</ele>
        <time>2023-04-04T10:04:08.990Z</time>
      </trkpt>
      <trkpt lat="42.95536" lon="1.06317">
        <ele>587.9</ele>
        <time>2023-04-04T10:04:10.990Z</time>
      </trkpt>
      <trkpt lat="42.95527" lon="1.06314">
        <ele>585.2</ele>
        <time>2023-04-04T10:04:13.990Z</time>
      </trkpt>
      <trkpt lat="42.95516" lon="1.06314">
        <ele>582.8</ele>
        <time>2023-04-04T10:04:17.990Z</time>
      </trkpt>
      <trkpt lat="42.95505" lon="1.06309">
        <ele>580.4</ele>
        <time>2023-04-04T10:04:22.990Z</time>
      </trkpt>
      <trkpt lat="42.95494" lon="1.06308">
        <ele>578.9</ele>
        <time>2023-04-04T10:04:25.990Z</time>
      </trkpt>
      <trkpt lat="42.95483" lon="1.06308">
        <ele>577.8</ele>
        <time>2023-04-04T10:04:27.989Z</time>
      </trkpt>
      <trkpt lat="42.95474" lon="1.06305">
        <ele>576.1</ele>
        <time>2023-04-04T10:04:30.989Z</time>
      </trkpt>
      <trkpt lat="42.95464" lon="1.06304">
        <ele>574</ele>
        <time>2023-04-04T10:04:34.989Z</time>
      </trkpt>
      <trkpt lat="42.95453" lon="1.06298">
        <ele>572.2</ele>
        <time>2023-04-04T10:04:37.989Z</time>
      </trkpt>
      <trkpt lat="42.95443" lon="1.06303">
        <ele>570.3</ele>
        <time>2023-04-04T10:04:41.989Z</time>
      </trkpt>
      <trkpt lat="42.95434" lon="1.0631">
        <ele>569.9</ele>
        <time>2023-04-04T10:04:44.989Z</time>
      </trkpt>
      <trkpt lat="42.95425" lon="1.06304">
        <ele>568.6</ele>
        <time>2023-04-04T10:04:52.988Z</time>
      </trkpt>
      <trkpt lat="42.95416" lon="1.06295">
        <ele>567.3</ele>
        <time>2023-04-04T10:04:57.988Z</time>
      </trkpt>
      <trkpt lat="42.95409" lon="1.06287">
        <ele>565.6</ele>
        <time>2023-04-04T10:05:01.988Z</time>
      </trkpt>
      <trkpt lat="42.95411" lon="1.06274">
        <ele>563.3</ele>
        <time>2023-04-04T10:05:06.988Z</time>
      </trkpt>
      <trkpt lat="42.95405" lon="1.06263">
        <ele>561.4</ele>
        <time>2023-04-04T10:05:10.988Z</time>
      </trkpt>
      <trkpt lat="42.95391" lon="1.06262">
        <ele>560.1</ele>
        <time>2023-04-04T10:05:12.988Z</time>
      </trkpt>
      <trkpt lat="42.95386" lon="1.06251">
        <ele>558.3</ele>
        <time>2023-04-04T10:05:14.988Z</time>
      </trkpt>
      <trkpt lat="42.95377" lon="1.06246">
        <ele>556.2</ele>
        <time>2023-04-04T10:05:17.987Z</time>
      </trkpt>
      <trkpt lat="42.95369" lon="1.06253">
        <ele>554.3</ele>
        <time>2023-04-04T10:05:20.987Z</time>
      </trkpt>
      <trkpt lat="42.95357" lon="1.06253">
        <ele>553.1</ele>
        <time>2023-04-04T10:05:22.987Z</time>
      </trkpt>
      <trkpt lat="42.95344" lon="1.06257">
        <ele>551.8</ele>
        <time>2023-04-04T10:05:24.987Z</time>
      </trkpt>
      <trkpt lat="42.95334" lon="1.06254">
        <ele>550.3</ele>
        <time>2023-04-04T10:05:26.987Z</time>
      </trkpt>
      <trkpt lat="42.95325" lon="1.06251">
        <ele>548.7</ele>
        <time>2023-04-04T10:05:28.987Z</time>
      </trkpt>
      <trkpt lat="42.95313" lon="1.0625">
        <ele>546</ele>
        <time>2023-04-04T10:05:32.987Z</time>
      </trkpt>
      <trkpt lat="42.953" lon="1.06254">
        <ele>544.6</ele>
        <time>2023-04-04T10:05:34.987Z</time>
      </trkpt>
      <trkpt lat="42.95286" lon="1.06255">
        <ele>543</ele>
        <time>2023-04-04T10:05:36.987Z</time>
      </trkpt>
      <trkpt lat="42.95274" lon="1.06255">
        <ele>541.1</ele>
        <time>2023-04-04T10:05:38.987Z</time>
      </trkpt>
      <trkpt lat="42.95263" lon="1.06258">
        <ele>538.7</ele>
        <time>2023-04-04T10:05:41.986Z</time>
      </trkpt>
      <trkpt lat="42.95255" lon="1.06264">
        <ele>536.6</ele>
        <time>2023-04-04T10:05:46.986Z</time>
      </trkpt>
      <trkpt lat="42.95246" lon="1.06267">
        <ele>535.8</ele>
        <time>2023-04-04T10:05:48.986Z</time>
      </trkpt>
      <trkpt lat="42.95236" lon="1.06269">
        <ele>534.6</ele>
        <time>2023-04-04T10:05:52.986Z</time>
      </trkpt>
      <trkpt lat="42.95225" lon="1.06273">
        <ele>533.5</ele>
        <time>2023-04-04T10:05:56.986Z</time>
      </trkpt>
      <trkpt lat="42.95214" lon="1.06276">
        <ele>532.1</ele>
        <time>2023-04-04T10:06:01.986Z</time>
      </trkpt>
      <trkpt lat="42.95203" lon="1.06279">
        <ele>530.9</ele>
        <time>2023-04-04T10:06:05.985Z</time>
      </trkpt>
      <trkpt lat="42.95192" lon="1.06284">
        <ele>529.8</ele>
        <time>2023-04-04T10:06:08.985Z</time>
      </trkpt>
      <trkpt lat="42.95182" lon="1.06288">
        <ele>528.3</ele>
        <time>2023-04-04T10:06:11.985Z</time>
      </trkpt>
      <trkpt lat="42.95169" lon="1.06291">
        <ele>526.4</ele>
        <time>2023-04-04T10:06:14.985Z</time>
      </trkpt>
      <trkpt lat="42.9516" lon="1.06293">
        <ele>524.6</ele>
        <time>2023-04-04T10:06:17.985Z</time>
      </trkpt>
      <trkpt lat="42.9515" lon="1.06295">
        <ele>523.3</ele>
        <time>2023-04-04T10:06:20.985Z</time>
      </trkpt>
      <trkpt lat="42.9514" lon="1.06296">
        <ele>522.5</ele>
        <time>2023-04-04T10:06:23.985Z</time>
      </trkpt>
      <trkpt lat="42.9513" lon="1.06296">
        <ele>521.7</ele>
        <time>2023-04-04T10:06:27.985Z</time>
      </trkpt>
      <trkpt lat="42.95121" lon="1.06294">
        <ele>521.2</ele>
        <time>2023-04-04T10:06:32.984Z</time>
      </trkpt>
      <trkpt lat="42.95121" lon="1.06294">
        <ele>521.2</ele>
        <time>2023-04-04T10:06:33.984Z</time>
      </trkpt>
      <trkpt lat="42.95117" lon="1.06293">
        <ele>520.6</ele>
        <time>2023-04-04T10:07:05.993Z</time>
      </trkpt>
      <trkpt lat="42.95112" lon="1.06282">
        <ele>520.8</ele>
        <time>2023-04-04T10:07:12.995Z</time>
      </trkpt>
      <trkpt lat="42.95106" lon="1.06272">
        <ele>521.2</ele>
        <time>2023-04-04T10:07:16.996Z</time>
      </trkpt>
      <trkpt lat="42.95101" lon="1.0626">
        <ele>521.9</ele>
        <time>2023-04-04T10:07:20.997Z</time>
      </trkpt>
      <trkpt lat="42.95093" lon="1.06248">
        <ele>523.2</ele>
        <time>2023-04-04T10:07:23.997Z</time>
      </trkpt>
      <trkpt lat="42.95085" lon="1.06233">
        <ele>524.8</ele>
        <time>2023-04-04T10:07:25.998Z</time>
      </trkpt>
      <trkpt lat="42.95075" lon="1.06215">
        <ele>526</ele>
        <time>2023-04-04T10:07:26.998Z</time>
      </trkpt>
      <trkpt lat="42.95069" lon="1.06204">
        <ele>527.3</ele>
        <time>2023-04-04T10:07:27.998Z</time>
      </trkpt>
      <trkpt lat="42.95065" lon="1.06191">
        <ele>528.8</ele>
        <time>2023-04-04T10:07:28.998Z</time>
      </trkpt>
      <trkpt lat="42.95059" lon="1.06169">
        <ele>532</ele>
        <time>2023-04-04T10:07:30.998Z</time>
      </trkpt>
      <trkpt lat="42.95053" lon="1.06152">
        <ele>534.7</ele>
        <time>2023-04-04T10:07:32.998Z</time>
      </trkpt>
      <trkpt lat="42.95049" lon="1.06132">
        <ele>536.8</ele>
        <time>2023-04-04T10:07:34.998Z</time>
      </trkpt>
      <trkpt lat="42.95042" lon="1.06114">
        <ele>538.4</ele>
        <time>2023-04-04T10:07:36.998Z</time>
      </trkpt>
      <trkpt lat="42.95032" lon="1.06104">
        <ele>539.1</ele>
        <time>2023-04-04T10:07:38.998Z</time>
      </trkpt>
      <trkpt lat="42.95026" lon="1.06085">
        <ele>539.4</ele>
        <time>2023-04-04T10:07:40.998Z</time>
      </trkpt>
      <trkpt lat="42.95021" lon="1.06071">
        <ele>539.6</ele>
        <time>2023-04-04T10:07:41.998Z</time>
      </trkpt>
      <trkpt lat="42.95014" lon="1.06051">
        <ele>539.7</ele>
        <time>2023-04-04T10:07:43.998Z</time>
      </trkpt>
      <trkpt lat="42.95005" lon="1.06036">
        <ele>539.6</ele>
        <time>2023-04-04T10:07:45.998Z</time>
      </trkpt>
      <trkpt lat="42.95" lon="1.06022">
        <ele>539.4</ele>
        <time>2023-04-04T10:07:47.998Z</time>
      </trkpt>
      <trkpt lat="42.94994" lon="1.06008">
        <ele>539</ele>
        <time>2023-04-04T10:07:49.998Z</time>
      </trkpt>
      <trkpt lat="42.94985" lon="1.0599">
        <ele>537.9</ele>
        <time>2023-04-04T10:07:51.998Z</time>
      </trkpt>
      <trkpt lat="42.9498" lon="1.05973">
        <ele>535.9</ele>
        <time>2023-04-04T10:07:53.998Z</time>
      </trkpt>
      <trkpt lat="42.94975" lon="1.05955">
        <ele>532.9</ele>
        <time>2023-04-04T10:07:55.998Z</time>
      </trkpt>
      <trkpt lat="42.94971" lon="1.05943">
        <ele>530.9</ele>
        <time>2023-04-04T10:07:56.998Z</time>
      </trkpt>
      <trkpt lat="42.94968" lon="1.0592">
        <ele>526.7</ele>
        <time>2023-04-04T10:07:58.998Z</time>
      </trkpt>
      <trkpt lat="42.94965" lon="1.05907">
        <ele>522.8</ele>
        <time>2023-04-04T10:08:00.998Z</time>
      </trkpt>
      <trkpt lat="42.94957" lon="1.059">
        <ele>517.4</ele>
        <time>2023-04-04T10:08:03.998Z</time>
      </trkpt>
      <trkpt lat="42.94947" lon="1.05904">
        <ele>512</ele>
        <time>2023-04-04T10:08:07.998Z</time>
      </trkpt>
      <trkpt lat="42.9494" lon="1.05912">
        <ele>509.2</ele>
        <time>2023-04-04T10:08:11.998Z</time>
      </trkpt>
      <trkpt lat="42.94935" lon="1.05902">
        <ele>505.7</ele>
        <time>2023-04-04T10:08:16.998Z</time>
      </trkpt>
      <trkpt lat="42.94942" lon="1.0589">
        <ele>504.4</ele>
        <time>2023-04-04T10:08:21.998Z</time>
      </trkpt>
      <trkpt lat="42.94945" lon="1.05878">
        <ele>503.9</ele>
        <time>2023-04-04T10:08:26.997Z</time>
      </trkpt>
      <trkpt lat="42.94953" lon="1.05866">
        <ele>503.7</ele>
        <time>2023-04-04T10:08:31.997Z</time>
      </trkpt>
      <trkpt lat="42.9496" lon="1.05855">
        <ele>504</ele>
        <time>2023-04-04T10:08:34.997Z</time>
      </trkpt>
      <trkpt lat="42.94967" lon="1.0584">
        <ele>504.4</ele>
        <time>2023-04-04T10:08:37.997Z</time>
      </trkpt>
      <trkpt lat="42.94972" lon="1.05826">
        <ele>504.6</ele>
        <time>2023-04-04T10:08:40.997Z</time>
      </trkpt>
      <trkpt lat="42.94978" lon="1.05816">
        <ele>504.7</ele>
        <time>2023-04-04T10:08:43.997Z</time>
      </trkpt>
      <trkpt lat="42.94984" lon="1.05804">
        <ele>504.6</ele>
        <time>2023-04-04T10:08:46.997Z</time>
      </trkpt>
      <trkpt lat="42.9499" lon="1.05792">
        <ele>504.4</ele>
        <time>2023-04-04T10:08:50.996Z</time>
      </trkpt>
      <trkpt lat="42.94999" lon="1.05782">
        <ele>504</ele>
        <time>2023-04-04T10:08:55.996Z</time>
      </trkpt>
      <trkpt lat="42.95006" lon="1.05774">
        <ele>503.9</ele>
        <time>2023-04-04T10:08:58.996Z</time>
      </trkpt>
      <trkpt lat="42.95013" lon="1.05765">
        <ele>503.8</ele>
        <time>2023-04-04T10:09:02.996Z</time>
      </trkpt>
      <trkpt lat="42.95006" lon="1.05755">
        <ele>503.2</ele>
        <time>2023-04-04T10:09:06.996Z</time>
      </trkpt>
      <trkpt lat="42.94998" lon="1.05747">
        <ele>501.1</ele>
        <time>2023-04-04T10:09:09.996Z</time>
      </trkpt>
      <trkpt lat="42.94991" lon="1.05737">
        <ele>495.3</ele>
        <time>2023-04-04T10:09:13.996Z</time>
      </trkpt>
      <trkpt lat="42.94981" lon="1.0573">
        <ele>490.6</ele>
        <time>2023-04-04T10:09:16.995Z</time>
      </trkpt>
      <trkpt lat="42.94971" lon="1.05725">
        <ele>486.7</ele>
        <time>2023-04-04T10:09:19.995Z</time>
      </trkpt>
      <trkpt lat="42.94963" lon="1.05718">
        <ele>483.7</ele>
        <time>2023-04-04T10:09:22.995Z</time>
      </trkpt>
      <trkpt lat="42.94954" lon="1.05711">
        <ele>481.1</ele>
        <time>2023-04-04T10:09:25.995Z</time>
      </trkpt>
      <trkpt lat="42.94945" lon="1.05707">
        <ele>478.9</ele>
        <time>2023-04-04T10:09:28.995Z</time>
      </trkpt>
      <trkpt lat="42.94934" lon="1.05701">
        <ele>476.3</ele>
        <time>2023-04-04T10:09:32.995Z</time>
      </trkpt>
      <trkpt lat="42.94925" lon="1.05697">
        <ele>474.1</ele>
        <time>2023-04-04T10:09:36.995Z</time>
      </trkpt>
      <trkpt lat="42.94916" lon="1.05692">
        <ele>471.9</ele>
        <time>2023-04-04T10:09:42.994Z</time>
      </trkpt>
      <trkpt lat="42.94908" lon="1.05687">
        <ele>470.6</ele>
        <time>2023-04-04T10:09:48.994Z</time>
      </trkpt>
      <trkpt lat="42.94905" lon="1.05674">
        <ele>469.6</ele>
        <time>2023-04-04T10:09:59.994Z</time>
      </trkpt>
      <trkpt lat="42.94906" lon="1.05661">
        <ele>469.3</ele>
        <time>2023-04-04T10:10:04.993Z</time>
      </trkpt>
      <trkpt lat="42.94909" lon="1.05648">
        <ele>469.2</ele>
        <time>2023-04-04T10:10:09.993Z</time>
      </trkpt>
      <trkpt lat="42.94911" lon="1.05635">
        <ele>469.2</ele>
        <time>2023-04-04T10:10:14.993Z</time>
      </trkpt>
      <trkpt lat="42.94914" lon="1.05621">
        <ele>469.2</ele>
        <time>2023-04-04T10:10:19.993Z</time>
      </trkpt>
      <trkpt lat="42.94918" lon="1.0561">
        <ele>469.3</ele>
        <time>2023-04-04T10:10:23.993Z</time>
      </trkpt>
      <trkpt lat="42.94921" lon="1.05597">
        <ele>469.4</ele>
        <time>2023-04-04T10:10:27.993Z</time>
      </trkpt>
      <trkpt lat="42.94926" lon="1.05583">
        <ele>469.5</ele>
        <time>2023-04-04T10:10:32.992Z</time>
      </trkpt>
      <trkpt lat="42.94929" lon="1.0557">
        <ele>469.6</ele>
        <time>2023-04-04T10:10:36.992Z</time>
      </trkpt>
      <trkpt lat="42.94932" lon="1.05557">
        <ele>469.7</ele>
        <time>2023-04-04T10:10:40.992Z</time>
      </trkpt>
      <trkpt lat="42.94937" lon="1.05543">
        <ele>469.8</ele>
        <time>2023-04-04T10:10:44.992Z</time>
      </trkpt>
      <trkpt lat="42.9494" lon="1.0553">
        <ele>469.9</ele>
        <time>2023-04-04T10:10:48.992Z</time>
      </trkpt>
      <trkpt lat="42.94944" lon="1.05519">
        <ele>470.1</ele>
        <time>2023-04-04T10:10:52.992Z</time>
      </trkpt>
      <trkpt lat="42.9495" lon="1.05509">
        <ele>470.2</ele>
        <time>2023-04-04T10:10:55.991Z</time>
      </trkpt>
      <trkpt lat="42.94956" lon="1.05497">
        <ele>470.4</ele>
        <time>2023-04-04T10:10:58.991Z</time>
      </trkpt>
      <trkpt lat="42.94963" lon="1.05486">
        <ele>470.7</ele>
        <time>2023-04-04T10:11:02.991Z</time>
      </trkpt>
      <trkpt lat="42.94967" lon="1.05473">
        <ele>471.1</ele>
        <time>2023-04-04T10:11:05.991Z</time>
      </trkpt>
      <trkpt lat="42.94971" lon="1.05459">
        <ele>471.8</ele>
        <time>2023-04-04T10:11:09.991Z</time>
      </trkpt>
      <trkpt lat="42.94975" lon="1.05448">
        <ele>472.4</ele>
        <time>2023-04-04T10:11:12.991Z</time>
      </trkpt>
      <trkpt lat="42.94979" lon="1.05433">
        <ele>473.4</ele>
        <time>2023-04-04T10:11:16.991Z</time>
      </trkpt>
      <trkpt lat="42.94984" lon="1.05422">
        <ele>474.2</ele>
        <time>2023-04-04T10:11:19.990Z</time>
      </trkpt>
      <trkpt lat="42.94988" lon="1.05411">
        <ele>475.2</ele>
        <time>2023-04-04T10:11:22.990Z</time>
      </trkpt>
      <trkpt lat="42.94993" lon="1.05397">
        <ele>476.8</ele>
        <time>2023-04-04T10:11:26.990Z</time>
      </trkpt>
      <trkpt lat="42.94997" lon="1.05385">
        <ele>478.3</ele>
        <time>2023-04-04T10:11:29.990Z</time>
      </trkpt>
      <trkpt lat="42.95001" lon="1.05372">
        <ele>480.1</ele>
        <time>2023-04-04T10:11:32.990Z</time>
      </trkpt>
      <trkpt lat="42.95003" lon="1.05356">
        <ele>482.6</ele>
        <time>2023-04-04T10:11:36.990Z</time>
      </trkpt>
      <trkpt lat="42.95004" lon="1.05344">
        <ele>484.4</ele>
        <time>2023-04-04T10:11:39.990Z</time>
      </trkpt>
      <trkpt lat="42.95004" lon="1.05329">
        <ele>486.2</ele>
        <time>2023-04-04T10:11:42.990Z</time>
      </trkpt>
      <trkpt lat="42.95008" lon="1.05313">
        <ele>487.9</ele>
        <time>2023-04-04T10:11:45.989Z</time>
      </trkpt>
      <trkpt lat="42.95009" lon="1.05299">
        <ele>489.4</ele>
        <time>2023-04-04T10:11:48.989Z</time>
      </trkpt>
      <trkpt lat="42.9501" lon="1.05286">
        <ele>490.5</ele>
        <time>2023-04-04T10:11:51.989Z</time>
      </trkpt>
      <trkpt lat="42.95014" lon="1.05272">
        <ele>492</ele>
        <time>2023-04-04T10:11:54.989Z</time>
      </trkpt>
      <trkpt lat="42.95017" lon="1.0526">
        <ele>493.8</ele>
        <time>2023-04-04T10:11:57.989Z</time>
      </trkpt>
      <trkpt lat="42.95022" lon="1.05247">
        <ele>496.6</ele>
        <time>2023-04-04T10:12:01.989Z</time>
      </trkpt>
      <trkpt lat="42.95028" lon="1.05232">
        <ele>499.3</ele>
        <time>2023-04-04T10:12:04.989Z</time>
      </trkpt>
      <trkpt lat="42.95032" lon="1.0522">
        <ele>502</ele>
        <time>2023-04-04T10:12:07.989Z</time>
      </trkpt>
      <trkpt lat="42.95035" lon="1.05204">
        <ele>504.8</ele>
        <time>2023-04-04T10:12:10.988Z</time>
      </trkpt>
      <trkpt lat="42.95037" lon="1.05191">
        <ele>506.8</ele>
        <time>2023-04-04T10:12:13.988Z</time>
      </trkpt>
      <trkpt lat="42.95043" lon="1.05171">
        <ele>509.2</ele>
        <time>2023-04-04T10:12:16.988Z</time>
      </trkpt>
      <trkpt lat="42.95045" lon="1.05156">
        <ele>511</ele>
        <time>2023-04-04T10:12:18.988Z</time>
      </trkpt>
      <trkpt lat="42.95048" lon="1.05143">
        <ele>512.5</ele>
        <time>2023-04-04T10:12:20.988Z</time>
      </trkpt>
      <trkpt lat="42.9505" lon="1.05128">
        <ele>514.2</ele>
        <time>2023-04-04T10:12:23.988Z</time>
      </trkpt>
      <trkpt lat="42.95052" lon="1.05114">
        <ele>515.2</ele>
        <time>2023-04-04T10:12:26.988Z</time>
      </trkpt>
      <trkpt lat="42.95052" lon="1.05102">
        <ele>515.9</ele>
        <time>2023-04-04T10:12:30.988Z</time>
      </trkpt>
      <trkpt lat="42.95054" lon="1.05092">
        <ele>516.8</ele>
        <time>2023-04-04T10:12:37.987Z</time>
      </trkpt>
      <trkpt lat="42.95052" lon="1.05087">
        <ele>517</ele>
        <time>2023-04-04T10:12:42.987Z</time>
      </trkpt>
      <trkpt lat="42.95054" lon="1.05083">
        <ele>516.7</ele>
        <time>2023-04-04T10:12:48.987Z</time>
      </trkpt>
      <trkpt lat="42.95053" lon="1.05084">
        <ele>516.8</ele>
        <time>2023-04-04T10:12:59.986Z</time>
      </trkpt>
      <trkpt lat="42.95053" lon="1.05084">
        <ele>516.7</ele>
        <time>2023-04-04T10:13:01.986Z</time>
      </trkpt>
      <trkpt lat="42.95056" lon="1.05082">
        <ele>516.7</ele>
        <time>2023-04-04T10:13:10.986Z</time>
      </trkpt>
      <trkpt lat="42.95056" lon="1.0508">
        <ele>516.9</ele>
        <time>2023-04-04T10:13:13.986Z</time>
      </trkpt>
      <trkpt lat="42.95056" lon="1.0508">
        <ele>517</ele>
        <time>2023-04-04T10:13:15.986Z</time>
      </trkpt>
      <trkpt lat="42.95056" lon="1.0508">
        <ele>517</ele>
        <time>2023-04-04T10:13:16.986Z</time>
      </trkpt>
      <trkpt lat="42.95056" lon="1.05079">
        <ele>518</ele>
        <time>2023-04-04T10:13:54.984Z</time>
      </trkpt>
      <trkpt lat="42.95056" lon="1.05079">
        <ele>518</ele>
        <time>2023-04-04T10:13:57.984Z</time>
      </trkpt>
      <trkpt lat="42.95056" lon="1.05077">
        <ele>518</ele>
        <time>2023-04-04T10:13:59.984Z</time>
      </trkpt>
      <trkpt lat="42.95053" lon="1.0508">
        <ele>517.9</ele>
        <time>2023-04-04T10:14:03.984Z</time>
      </trkpt>
      <trkpt lat="42.95053" lon="1.05079">
        <ele>516.9</ele>
        <time>2023-04-04T10:14:32.983Z</time>
      </trkpt>
      <trkpt lat="42.95053" lon="1.05079">
        <ele>516.9</ele>
        <time>2023-04-04T10:14:33.983Z</time>
      </trkpt>
      <trkpt lat="42.95054" lon="1.05082">
        <ele>516.8</ele>
        <time>2023-04-04T10:14:37.983Z</time>
      </trkpt>
      <trkpt lat="42.95054" lon="1.05082">
        <ele>516.8</ele>
        <time>2023-04-04T10:14:39.982Z</time>
      </trkpt>
      <trkpt lat="42.95052" lon="1.05083">
        <ele>516.8</ele>
        <time>2023-04-04T10:14:40.982Z</time>
      </trkpt>
      <trkpt lat="42.95053" lon="1.05082">
        <ele>516.7</ele>
        <time>2023-04-04T10:14:44.982Z</time>
      </trkpt>
      <trkpt lat="42.95054" lon="1.05082">
        <ele>516.6</ele>
        <time>2023-04-04T10:14:59.982Z</time>
      </trkpt>
      <trkpt lat="42.95054" lon="1.05082">
        <ele>516.6</ele>
        <time>2023-04-04T10:15:00.982Z</time>
      </trkpt>
      <trkpt lat="42.95055" lon="1.05076">
        <ele>516.7</ele>
        <time>2023-04-04T10:15:07.981Z</time>
      </trkpt>
      <trkpt lat="42.95055" lon="1.05076">
        <ele>516.7</ele>
        <time>2023-04-04T10:15:09.981Z</time>
      </trkpt>
      <trkpt lat="42.95054" lon="1.05076">
        <ele>516.8</ele>
        <time>2023-04-04T10:15:16.981Z</time>
      </trkpt>
      <trkpt lat="42.95055" lon="1.05076">
        <ele>516.8</ele>
        <time>2023-04-04T10:15:19.981Z</time>
      </trkpt>
      <trkpt lat="42.95056" lon="1.05076">
        <ele>516.9</ele>
        <time>2023-04-04T10:15:21.981Z</time>
      </trkpt>
      <trkpt lat="42.95056" lon="1.05076">
        <ele>516.9</ele>
        <time>2023-04-04T10:15:22.981Z</time>
      </trkpt>
      <trkpt lat="42.95057" lon="1.05077">
        <ele>517.4</ele>
        <time>2023-04-04T10:16:24.978Z</time>
      </trkpt>
      <trkpt lat="42.95057" lon="1.05077">
        <ele>517.5</ele>
        <time>2023-04-04T10:16:25.978Z</time>
      </trkpt>
      <trkpt lat="42.95057" lon="1.05078">
        <ele>517.9</ele>
        <time>2023-04-04T10:16:51.977Z</time>
      </trkpt>
      <trkpt lat="42.95057" lon="1.05078">
        <ele>517.9</ele>
        <time>2023-04-04T10:16:52.977Z</time>
      </trkpt>
      <trkpt lat="42.95058" lon="1.05079">
        <ele>518.1</ele>
        <time>2023-04-04T10:17:04.977Z</time>
      </trkpt>
      <trkpt lat="42.9506" lon="1.05077">
        <ele>518.5</ele>
        <time>2023-04-04T10:17:10.976Z</time>
      </trkpt>
      <trkpt lat="42.95061" lon="1.05077">
        <ele>519</ele>
        <time>2023-04-04T10:17:17.976Z</time>
      </trkpt>
      <trkpt lat="42.95062" lon="1.05078">
        <ele>519.3</ele>
        <time>2023-04-04T10:17:19.976Z</time>
      </trkpt>
      <trkpt lat="42.95061" lon="1.05078">
        <ele>520.7</ele>
        <time>2023-04-04T10:17:40.975Z</time>
      </trkpt>
      <trkpt lat="42.95061" lon="1.05078">
        <ele>520.7</ele>
        <time>2023-04-04T10:17:42.975Z</time>
      </trkpt>
      <trkpt lat="42.95061" lon="1.05077">
        <ele>520.8</ele>
        <time>2023-04-04T10:18:04.974Z</time>
      </trkpt>
      <trkpt lat="42.95059" lon="1.05078">
        <ele>520.8</ele>
        <time>2023-04-04T10:18:07.974Z</time>
      </trkpt>
      <trkpt lat="42.9506" lon="1.05078">
        <ele>520.7</ele>
        <time>2023-04-04T10:18:08.974Z</time>
      </trkpt>
      <trkpt lat="42.9506" lon="1.05078">
        <ele>520.7</ele>
        <time>2023-04-04T10:18:09.974Z</time>
      </trkpt>
      <trkpt lat="42.95061" lon="1.05079">
        <ele>520.4</ele>
        <time>2023-04-04T10:18:36.973Z</time>
      </trkpt>
      <trkpt lat="42.95061" lon="1.05079">
        <ele>520.4</ele>
        <time>2023-04-04T10:18:37.973Z</time>
      </trkpt>
      <trkpt lat="42.9506" lon="1.0508">
        <ele>520.4</ele>
        <time>2023-04-04T10:18:38.973Z</time>
      </trkpt>
      <trkpt lat="42.9506" lon="1.0508">
        <ele>520.4</ele>
        <time>2023-04-04T10:18:40.973Z</time>
      </trkpt>
      <trkpt lat="42.9506" lon="1.0508">
        <ele>520.5</ele>
        <time>2023-04-04T10:18:45.973Z</time>
      </trkpt>
      <trkpt lat="42.9506" lon="1.0508">
        <ele>520.5</ele>
        <time>2023-04-04T10:18:46.973Z</time>
      </trkpt>
      <trkpt lat="42.95061" lon="1.05079">
        <ele>520.5</ele>
        <time>2023-04-04T10:18:49.972Z</time>
      </trkpt>
      <trkpt lat="42.95061" lon="1.05079">
        <ele>520.5</ele>
        <time>2023-04-04T10:18:50.972Z</time>
      </trkpt>
      <trkpt lat="42.95061" lon="1.05079">
        <ele>520.6</ele>
        <time>2023-04-04T10:19:00.972Z</time>
      </trkpt>
      <trkpt lat="42.95061" lon="1.05079">
        <ele>520.6</ele>
        <time>2023-04-04T10:19:01.972Z</time>
      </trkpt>
      <trkpt lat="42.95061" lon="1.05079">
        <ele>520.7</ele>
        <time>2023-04-04T10:19:10.972Z</time>
      </trkpt>
      <trkpt lat="42.95061" lon="1.05079">
        <ele>520.7</ele>
        <time>2023-04-04T10:19:11.972Z</time>
      </trkpt>
      <trkpt lat="42.95061" lon="1.05079">
        <ele>520.7</ele>
        <time>2023-04-04T10:19:13.976Z</time>
      </trkpt>
      <trkpt lat="42.95061" lon="1.05079">
        <ele>520.7</ele>
        <time>2023-04-04T10:19:14.977Z</time>
      </trkpt>
      <trkpt lat="42.95061" lon="1.0508">
        <ele>520.9</ele>
        <time>2023-04-04T10:19:42.996Z</time>
      </trkpt>
      <trkpt lat="42.95061" lon="1.05081">
        <ele>520.9</ele>
        <time>2023-04-04T10:19:45.997Z</time>
      </trkpt>
      <trkpt lat="42.9506" lon="1.05079">
        <ele>520.9</ele>
        <time>2023-04-04T10:19:49.997Z</time>
      </trkpt>
      <trkpt lat="42.95063" lon="1.05065">
        <ele>520.9</ele>
        <time>2023-04-04T10:19:56.998Z</time>
      </trkpt>
      <trkpt lat="42.95063" lon="1.05053">
        <ele>520.9</ele>
        <time>2023-04-04T10:20:00.998Z</time>
      </trkpt>
      <trkpt lat="42.95065" lon="1.05038">
        <ele>521</ele>
        <time>2023-04-04T10:20:04.998Z</time>
      </trkpt>
      <trkpt lat="42.95067" lon="1.05025">
        <ele>521.2</ele>
        <time>2023-04-04T10:20:08.998Z</time>
      </trkpt>
      <trkpt lat="42.9507" lon="1.05013">
        <ele>521.5</ele>
        <time>2023-04-04T10:20:13.998Z</time>
      </trkpt>
      <trkpt lat="42.95075" lon="1.05002">
        <ele>522.2</ele>
        <time>2023-04-04T10:20:17.998Z</time>
      </trkpt>
      <trkpt lat="42.95082" lon="1.04993">
        <ele>524.4</ele>
        <time>2023-04-04T10:20:21.998Z</time>
      </trkpt>
      <trkpt lat="42.95087" lon="1.0498">
        <ele>528.5</ele>
        <time>2023-04-04T10:20:26.998Z</time>
      </trkpt>
      <trkpt lat="42.95089" lon="1.04965">
        <ele>530.3</ele>
        <time>2023-04-04T10:20:29.998Z</time>
      </trkpt>
      <trkpt lat="42.95091" lon="1.0495">
        <ele>530.9</ele>
        <time>2023-04-04T10:20:31.998Z</time>
      </trkpt>
      <trkpt lat="42.95092" lon="1.04931">
        <ele>531.4</ele>
        <time>2023-04-04T10:20:34.998Z</time>
      </trkpt>
      <trkpt lat="42.95091" lon="1.04917">
        <ele>531.2</ele>
        <time>2023-04-04T10:20:36.998Z</time>
      </trkpt>
      <trkpt lat="42.95092" lon="1.04903">
        <ele>530.8</ele>
        <time>2023-04-04T10:20:38.998Z</time>
      </trkpt>
      <trkpt lat="42.95095" lon="1.04888">
        <ele>530.4</ele>
        <time>2023-04-04T10:20:41.998Z</time>
      </trkpt>
      <trkpt lat="42.95099" lon="1.04874">
        <ele>530.2</ele>
        <time>2023-04-04T10:20:44.998Z</time>
      </trkpt>
      <trkpt lat="42.95102" lon="1.04859">
        <ele>530.3</ele>
        <time>2023-04-04T10:20:49.997Z</time>
      </trkpt>
      <trkpt lat="42.95101" lon="1.04843">
        <ele>530.1</ele>
        <time>2023-04-04T10:20:52.997Z</time>
      </trkpt>
      <trkpt lat="42.95104" lon="1.04828">
        <ele>529.9</ele>
        <time>2023-04-04T10:20:56.997Z</time>
      </trkpt>
      <trkpt lat="42.95109" lon="1.04812">
        <ele>530</ele>
        <time>2023-04-04T10:21:01.997Z</time>
      </trkpt>
      <trkpt lat="42.95111" lon="1.04798">
        <ele>530.1</ele>
        <time>2023-04-04T10:21:05.997Z</time>
      </trkpt>
      <trkpt lat="42.95109" lon="1.04784">
        <ele>530.1</ele>
        <time>2023-04-04T10:21:09.997Z</time>
      </trkpt>
      <trkpt lat="42.95109" lon="1.04771">
        <ele>529.8</ele>
        <time>2023-04-04T10:21:13.997Z</time>
      </trkpt>
      <trkpt lat="42.9511" lon="1.04757">
        <ele>529.4</ele>
        <time>2023-04-04T10:21:17.996Z</time>
      </trkpt>
      <trkpt lat="42.95107" lon="1.04743">
        <ele>528.8</ele>
        <time>2023-04-04T10:21:20.996Z</time>
      </trkpt>
      <trkpt lat="42.95101" lon="1.04732">
        <ele>527.3</ele>
        <time>2023-04-04T10:21:23.996Z</time>
      </trkpt>
      <trkpt lat="42.95096" lon="1.04718">
        <ele>523.4</ele>
        <time>2023-04-04T10:21:27.996Z</time>
      </trkpt>
      <trkpt lat="42.95089" lon="1.04706">
        <ele>518.5</ele>
        <time>2023-04-04T10:21:32.996Z</time>
      </trkpt>
      <trkpt lat="42.9508" lon="1.04697">
        <ele>513.6</ele>
        <time>2023-04-04T10:21:36.996Z</time>
      </trkpt>
      <trkpt lat="42.95072" lon="1.04688">
        <ele>509.8</ele>
        <time>2023-04-04T10:21:39.995Z</time>
      </trkpt>
      <trkpt lat="42.95068" lon="1.04676">
        <ele>506.6</ele>
        <time>2023-04-04T10:21:43.995Z</time>
      </trkpt>
      <trkpt lat="42.95063" lon="1.04663">
        <ele>504.6</ele>
        <time>2023-04-04T10:21:46.995Z</time>
      </trkpt>
      <trkpt lat="42.95056" lon="1.04654">
        <ele>503</ele>
        <time>2023-04-04T10:21:48.995Z</time>
      </trkpt>
      <trkpt lat="42.95051" lon="1.04643">
        <ele>500.4</ele>
        <time>2023-04-04T10:21:51.995Z</time>
      </trkpt>
      <trkpt lat="42.95047" lon="1.04631">
        <ele>498.1</ele>
        <time>2023-04-04T10:21:54.995Z</time>
      </trkpt>
      <trkpt lat="42.95043" lon="1.04617">
        <ele>496.3</ele>
        <time>2023-04-04T10:21:57.995Z</time>
      </trkpt>
      <trkpt lat="42.95039" lon="1.04603">
        <ele>494.7</ele>
        <time>2023-04-04T10:22:00.995Z</time>
      </trkpt>
      <trkpt lat="42.95036" lon="1.04586">
        <ele>493.3</ele>
        <time>2023-04-04T10:22:03.995Z</time>
      </trkpt>
      <trkpt lat="42.95032" lon="1.0457">
        <ele>491.8</ele>
        <time>2023-04-04T10:22:06.994Z</time>
      </trkpt>
      <trkpt lat="42.95027" lon="1.04555">
        <ele>490</ele>
        <time>2023-04-04T10:22:09.994Z</time>
      </trkpt>
      <trkpt lat="42.95023" lon="1.0454">
        <ele>488</ele>
        <time>2023-04-04T10:22:12.994Z</time>
      </trkpt>
      <trkpt lat="42.95018" lon="1.04525">
        <ele>485.9</ele>
        <time>2023-04-04T10:22:15.994Z</time>
      </trkpt>
      <trkpt lat="42.95014" lon="1.0451">
        <ele>484</ele>
        <time>2023-04-04T10:22:18.994Z</time>
      </trkpt>
      <trkpt lat="42.95012" lon="1.04498">
        <ele>482.8</ele>
        <time>2023-04-04T10:22:20.994Z</time>
      </trkpt>
      <trkpt lat="42.95008" lon="1.04484">
        <ele>481.4</ele>
        <time>2023-04-04T10:22:23.994Z</time>
      </trkpt>
      <trkpt lat="42.95005" lon="1.04472">
        <ele>480.5</ele>
        <time>2023-04-04T10:22:26.994Z</time>
      </trkpt>
      <trkpt lat="42.95" lon="1.04461">
        <ele>479.6</ele>
        <time>2023-04-04T10:22:29.993Z</time>
      </trkpt>
      <trkpt lat="42.94996" lon="1.04449">
        <ele>479</ele>
        <time>2023-04-04T10:22:32.993Z</time>
      </trkpt>
      <trkpt lat="42.94994" lon="1.04436">
        <ele>478.6</ele>
        <time>2023-04-04T10:22:37.993Z</time>
      </trkpt>
      <trkpt lat="42.94992" lon="1.04424">
        <ele>478.5</ele>
        <time>2023-04-04T10:22:41.993Z</time>
      </trkpt>
      <trkpt lat="42.94987" lon="1.04412">
        <ele>478.5</ele>
        <time>2023-04-04T10:22:46.993Z</time>
      </trkpt>
      <trkpt lat="42.94983" lon="1.04398">
        <ele>478.6</ele>
        <time>2023-04-04T10:22:50.993Z</time>
      </trkpt>
      <trkpt lat="42.9498" lon="1.04386">
        <ele>478.7</ele>
        <time>2023-04-04T10:22:53.993Z</time>
      </trkpt>
      <trkpt lat="42.94976" lon="1.04374">
        <ele>478.8</ele>
        <time>2023-04-04T10:22:57.992Z</time>
      </trkpt>
      <trkpt lat="42.9498" lon="1.0436">
        <ele>478.9</ele>
        <time>2023-04-04T10:23:01.992Z</time>
      </trkpt>
      <trkpt lat="42.94984" lon="1.04349">
        <ele>479.1</ele>
        <time>2023-04-04T10:23:05.992Z</time>
      </trkpt>
      <trkpt lat="42.9499" lon="1.04338">
        <ele>479.5</ele>
        <time>2023-04-04T10:23:09.992Z</time>
      </trkpt>
      <trkpt lat="42.94991" lon="1.04326">
        <ele>479.8</ele>
        <time>2023-04-04T10:23:12.992Z</time>
      </trkpt>
      <trkpt lat="42.9499" lon="1.04311">
        <ele>480.5</ele>
        <time>2023-04-04T10:23:16.992Z</time>
      </trkpt>
      <trkpt lat="42.94994" lon="1.04299">
        <ele>481.7</ele>
        <time>2023-04-04T10:23:20.991Z</time>
      </trkpt>
      <trkpt lat="42.95" lon="1.04288">
        <ele>483.1</ele>
        <time>2023-04-04T10:23:24.991Z</time>
      </trkpt>
      <trkpt lat="42.95002" lon="1.04276">
        <ele>485.1</ele>
        <time>2023-04-04T10:23:28.991Z</time>
      </trkpt>
      <trkpt lat="42.95004" lon="1.0426">
        <ele>487.6</ele>
        <time>2023-04-04T10:23:33.991Z</time>
      </trkpt>
      <trkpt lat="42.95006" lon="1.04247">
        <ele>488.7</ele>
        <time>2023-04-04T10:23:35.991Z</time>
      </trkpt>
      <trkpt lat="42.95009" lon="1.04235">
        <ele>490.6</ele>
        <time>2023-04-04T10:23:39.991Z</time>
      </trkpt>
      <trkpt lat="42.95013" lon="1.04221">
        <ele>492.1</ele>
        <time>2023-04-04T10:23:44.990Z</time>
      </trkpt>
      <trkpt lat="42.95014" lon="1.04209">
        <ele>493</ele>
        <time>2023-04-04T10:23:48.990Z</time>
      </trkpt>
      <trkpt lat="42.95016" lon="1.04196">
        <ele>493.6</ele>
        <time>2023-04-04T10:23:52.990Z</time>
      </trkpt>
      <trkpt lat="42.95018" lon="1.04184">
        <ele>494.3</ele>
        <time>2023-04-04T10:23:56.990Z</time>
      </trkpt>
      <trkpt lat="42.95015" lon="1.04171">
        <ele>494.5</ele>
        <time>2023-04-04T10:24:02.990Z</time>
      </trkpt>
      <trkpt lat="42.95015" lon="1.04155">
        <ele>494.2</ele>
        <time>2023-04-04T10:24:08.989Z</time>
      </trkpt>
      <trkpt lat="42.95014" lon="1.04141">
        <ele>494</ele>
        <time>2023-04-04T10:24:12.989Z</time>
      </trkpt>
      <trkpt lat="42.95016" lon="1.04126">
        <ele>493.7</ele>
        <time>2023-04-04T10:24:17.989Z</time>
      </trkpt>
      <trkpt lat="42.95018" lon="1.04114">
        <ele>493.6</ele>
        <time>2023-04-04T10:24:21.989Z</time>
      </trkpt>
      <trkpt lat="42.95025" lon="1.04105">
        <ele>493.7</ele>
        <time>2023-04-04T10:24:26.989Z</time>
      </trkpt>
      <trkpt lat="42.95033" lon="1.04098">
        <ele>494.4</ele>
        <time>2023-04-04T10:24:33.988Z</time>
      </trkpt>
      <trkpt lat="42.95033" lon="1.04098">
        <ele>494.7</ele>
        <time>2023-04-04T10:24:35.988Z</time>
      </trkpt>
      <trkpt lat="42.95033" lon="1.04098">
        <ele>494.8</ele>
        <time>2023-04-04T10:24:36.988Z</time>
      </trkpt>
      <trkpt lat="42.95038" lon="1.04086">
        <ele>495.6</ele>
        <time>2023-04-04T10:24:41.988Z</time>
      </trkpt>
      <trkpt lat="42.95044" lon="1.04075">
        <ele>496.4</ele>
        <time>2023-04-04T10:24:46.988Z</time>
      </trkpt>
      <trkpt lat="42.95051" lon="1.04065">
        <ele>497.6</ele>
        <time>2023-04-04T10:24:52.988Z</time>
      </trkpt>
      <trkpt lat="42.95058" lon="1.04058">
        <ele>498.4</ele>
        <time>2023-04-04T10:24:56.988Z</time>
      </trkpt>
      <trkpt lat="42.95064" lon="1.04049">
        <ele>499</ele>
        <time>2023-04-04T10:25:00.987Z</time>
      </trkpt>
      <trkpt lat="42.95072" lon="1.04039">
        <ele>499.3</ele>
        <time>2023-04-04T10:25:04.987Z</time>
      </trkpt>
      <trkpt lat="42.95079" lon="1.04027">
        <ele>499.2</ele>
        <time>2023-04-04T10:25:10.987Z</time>
      </trkpt>
      <trkpt lat="42.95082" lon="1.04015">
        <ele>498.7</ele>
        <time>2023-04-04T10:25:15.987Z</time>
      </trkpt>
      <trkpt lat="42.95086" lon="1.04002">
        <ele>497.8</ele>
        <time>2023-04-04T10:25:20.987Z</time>
      </trkpt>
      <trkpt lat="42.95091" lon="1.0399">
        <ele>497.2</ele>
        <time>2023-04-04T10:25:25.986Z</time>
      </trkpt>
      <trkpt lat="42.9509" lon="1.03978">
        <ele>497</ele>
        <time>2023-04-04T10:25:30.986Z</time>
      </trkpt>
      <trkpt lat="42.9508" lon="1.03977">
        <ele>495.7</ele>
        <time>2023-04-04T10:25:41.986Z</time>
      </trkpt>
      <trkpt lat="42.95077" lon="1.03989">
        <ele>495.4</ele>
        <time>2023-04-04T10:25:46.986Z</time>
      </trkpt>
      <trkpt lat="42.95071" lon="1.03999">
        <ele>495.3</ele>
        <time>2023-04-04T10:25:52.985Z</time>
      </trkpt>
      <trkpt lat="42.9506" lon="1.04004">
        <ele>495.4</ele>
        <time>2023-04-04T10:25:58.985Z</time>
      </trkpt>
      <trkpt lat="42.9505" lon="1.04006">
        <ele>495.9</ele>
        <time>2023-04-04T10:26:05.985Z</time>
      </trkpt>
      <trkpt lat="42.95042" lon="1.04013">
        <ele>496.4</ele>
        <time>2023-04-04T10:26:10.985Z</time>
      </trkpt>
      <trkpt lat="42.95034" lon="1.04024">
        <ele>496.9</ele>
        <time>2023-04-04T10:26:16.984Z</time>
      </trkpt>
      <trkpt lat="42.95026" lon="1.04029">
        <ele>497.2</ele>
        <time>2023-04-04T10:26:21.984Z</time>
      </trkpt>
      <trkpt lat="42.95019" lon="1.04038">
        <ele>497.2</ele>
        <time>2023-04-04T10:26:28.984Z</time>
      </trkpt>
      <trkpt lat="42.95008" lon="1.04046">
        <ele>496.9</ele>
        <time>2023-04-04T10:26:35.984Z</time>
      </trkpt>
      <trkpt lat="42.95002" lon="1.04058">
        <ele>495.9</ele>
        <time>2023-04-04T10:26:42.983Z</time>
      </trkpt>
      <trkpt lat="42.94992" lon="1.04062">
        <ele>494.6</ele>
        <time>2023-04-04T10:26:48.983Z</time>
      </trkpt>
      <trkpt lat="42.94984" lon="1.04065">
        <ele>494.5</ele>
        <time>2023-04-04T10:26:54.987Z</time>
      </trkpt>
      <trkpt lat="42.94975" lon="1.04065">
        <ele>495</ele>
        <time>2023-04-04T10:26:58.990Z</time>
      </trkpt>
      <trkpt lat="42.94981" lon="1.04055">
        <ele>497.3</ele>
        <time>2023-04-04T10:27:10.995Z</time>
      </trkpt>
      <trkpt lat="42.94989" lon="1.04044">
        <ele>497.4</ele>
        <time>2023-04-04T10:27:14.996Z</time>
      </trkpt>
      <trkpt lat="42.94995" lon="1.04033">
        <ele>497.6</ele>
        <time>2023-04-04T10:27:19.997Z</time>
      </trkpt>
      <trkpt lat="42.95" lon="1.04022">
        <ele>497.8</ele>
        <time>2023-04-04T10:27:25.998Z</time>
      </trkpt>
      <trkpt lat="42.95003" lon="1.04008">
        <ele>498.3</ele>
        <time>2023-04-04T10:27:31.998Z</time>
      </trkpt>
      <trkpt lat="42.95007" lon="1.03997">
        <ele>499.1</ele>
        <time>2023-04-04T10:27:36.998Z</time>
      </trkpt>
      <trkpt lat="42.95009" lon="1.03984">
        <ele>500.3</ele>
        <time>2023-04-04T10:27:42.998Z</time>
      </trkpt>
      <trkpt lat="42.95015" lon="1.03971">
        <ele>501.2</ele>
        <time>2023-04-04T10:27:48.998Z</time>
      </trkpt>
      <trkpt lat="42.95015" lon="1.03956">
        <ele>501.9</ele>
        <time>2023-04-04T10:27:53.998Z</time>
      </trkpt>
      <trkpt lat="42.95016" lon="1.03944">
        <ele>502.6</ele>
        <time>2023-04-04T10:27:57.998Z</time>
      </trkpt>
      <trkpt lat="42.95011" lon="1.0393">
        <ele>503.6</ele>
        <time>2023-04-04T10:28:02.998Z</time>
      </trkpt>
      <trkpt lat="42.95005" lon="1.03916">
        <ele>505.1</ele>
        <time>2023-04-04T10:28:07.998Z</time>
      </trkpt>
      <trkpt lat="42.95" lon="1.03905">
        <ele>507.8</ele>
        <time>2023-04-04T10:28:11.998Z</time>
      </trkpt>
      <trkpt lat="42.94996" lon="1.03893">
        <ele>512.3</ele>
        <time>2023-04-04T10:28:15.998Z</time>
      </trkpt>
      <trkpt lat="42.94991" lon="1.03882">
        <ele>518.2</ele>
        <time>2023-04-04T10:28:20.997Z</time>
      </trkpt>
      <trkpt lat="42.94985" lon="1.03869">
        <ele>523.5</ele>
        <time>2023-04-04T10:28:25.997Z</time>
      </trkpt>
      <trkpt lat="42.94979" lon="1.03857">
        <ele>528.8</ele>
        <time>2023-04-04T10:28:31.997Z</time>
      </trkpt>
      <trkpt lat="42.94972" lon="1.03848">
        <ele>532.5</ele>
        <time>2023-04-04T10:28:36.997Z</time>
      </trkpt>
      <trkpt lat="42.94968" lon="1.03834">
        <ele>537</ele>
        <time>2023-04-04T10:28:44.997Z</time>
      </trkpt>
      <trkpt lat="42.94962" lon="1.03823">
        <ele>539.7</ele>
        <time>2023-04-04T10:28:47.996Z</time>
      </trkpt>
      <trkpt lat="42.94957" lon="1.03812">
        <ele>544</ele>
        <time>2023-04-04T10:28:50.996Z</time>
      </trkpt>
      <trkpt lat="42.94958" lon="1.03799">
        <ele>552.1</ele>
        <time>2023-04-04T10:28:57.996Z</time>
      </trkpt>
      <trkpt lat="42.94968" lon="1.03801">
        <ele>553</ele>
        <time>2023-04-04T10:29:04.996Z</time>
      </trkpt>
      <trkpt lat="42.94978" lon="1.03794">
        <ele>553.1</ele>
        <time>2023-04-04T10:29:09.996Z</time>
      </trkpt>
      <trkpt lat="42.94988" lon="1.03791">
        <ele>553.5</ele>
        <time>2023-04-04T10:29:13.995Z</time>
      </trkpt>
      <trkpt lat="42.94998" lon="1.03788">
        <ele>553.8</ele>
        <time>2023-04-04T10:29:19.995Z</time>
      </trkpt>
      <trkpt lat="42.95007" lon="1.03787">
        <ele>553.7</ele>
        <time>2023-04-04T10:29:26.995Z</time>
      </trkpt>
      <trkpt lat="42.95017" lon="1.03787">
        <ele>552.5</ele>
        <time>2023-04-04T10:29:32.995Z</time>
      </trkpt>
      <trkpt lat="42.95027" lon="1.03789">
        <ele>549.3</ele>
        <time>2023-04-04T10:29:38.994Z</time>
      </trkpt>
      <trkpt lat="42.95038" lon="1.03787">
        <ele>544.7</ele>
        <time>2023-04-04T10:29:45.994Z</time>
      </trkpt>
      <trkpt lat="42.95047" lon="1.03785">
        <ele>542.4</ele>
        <time>2023-04-04T10:29:49.994Z</time>
      </trkpt>
      <trkpt lat="42.95055" lon="1.03778">
        <ele>540.2</ele>
        <time>2023-04-04T10:29:54.994Z</time>
      </trkpt>
      <trkpt lat="42.95064" lon="1.03774">
        <ele>538.5</ele>
        <time>2023-04-04T10:29:59.994Z</time>
      </trkpt>
      <trkpt lat="42.95071" lon="1.03766">
        <ele>536.9</ele>
        <time>2023-04-04T10:30:05.993Z</time>
      </trkpt>
      <trkpt lat="42.9508" lon="1.03761">
        <ele>535.3</ele>
        <time>2023-04-04T10:30:15.993Z</time>
      </trkpt>
      <trkpt lat="42.95091" lon="1.03759">
        <ele>533.3</ele>
        <time>2023-04-04T10:30:20.993Z</time>
      </trkpt>
      <trkpt lat="42.951" lon="1.03755">
        <ele>530.4</ele>
        <time>2023-04-04T10:30:24.993Z</time>
      </trkpt>
      <trkpt lat="42.95109" lon="1.03747">
        <ele>526.9</ele>
        <time>2023-04-04T10:30:29.992Z</time>
      </trkpt>
      <trkpt lat="42.95115" lon="1.03737">
        <ele>525.3</ele>
        <time>2023-04-04T10:30:34.992Z</time>
      </trkpt>
      <trkpt lat="42.95123" lon="1.03726">
        <ele>524.7</ele>
        <time>2023-04-04T10:30:40.992Z</time>
      </trkpt>
      <trkpt lat="42.95126" lon="1.03714">
        <ele>524.8</ele>
        <time>2023-04-04T10:30:45.992Z</time>
      </trkpt>
      <trkpt lat="42.95132" lon="1.03701">
        <ele>525.4</ele>
        <time>2023-04-04T10:30:51.991Z</time>
      </trkpt>
      <trkpt lat="42.95138" lon="1.03689">
        <ele>525.9</ele>
        <time>2023-04-04T10:30:56.991Z</time>
      </trkpt>
      <trkpt lat="42.95142" lon="1.03673">
        <ele>526.5</ele>
        <time>2023-04-04T10:31:01.991Z</time>
      </trkpt>
      <trkpt lat="42.95146" lon="1.0366">
        <ele>527.6</ele>
        <time>2023-04-04T10:31:05.991Z</time>
      </trkpt>
      <trkpt lat="42.95154" lon="1.03649">
        <ele>528.5</ele>
        <time>2023-04-04T10:31:09.991Z</time>
      </trkpt>
      <trkpt lat="42.95158" lon="1.03637">
        <ele>529.1</ele>
        <time>2023-04-04T10:31:13.991Z</time>
      </trkpt>
      <trkpt lat="42.95164" lon="1.03626">
        <ele>529.6</ele>
        <time>2023-04-04T10:31:16.990Z</time>
      </trkpt>
      <trkpt lat="42.95171" lon="1.03615">
        <ele>529.9</ele>
        <time>2023-04-04T10:31:18.990Z</time>
      </trkpt>
      <trkpt lat="42.95177" lon="1.03605">
        <ele>530.1</ele>
        <time>2023-04-04T10:31:20.990Z</time>
      </trkpt>
      <trkpt lat="42.95185" lon="1.03594">
        <ele>530.2</ele>
        <time>2023-04-04T10:31:22.990Z</time>
      </trkpt>
      <trkpt lat="42.95191" lon="1.03578">
        <ele>530.4</ele>
        <time>2023-04-04T10:31:25.990Z</time>
      </trkpt>
      <trkpt lat="42.95197" lon="1.03562">
        <ele>530.6</ele>
        <time>2023-04-04T10:31:28.990Z</time>
      </trkpt>
      <trkpt lat="42.95206" lon="1.03547">
        <ele>530.5</ele>
        <time>2023-04-04T10:31:31.990Z</time>
      </trkpt>
      <trkpt lat="42.95209" lon="1.03532">
        <ele>530.4</ele>
        <time>2023-04-04T10:31:35.990Z</time>
      </trkpt>
      <trkpt lat="42.95216" lon="1.03521">
        <ele>530.2</ele>
        <time>2023-04-04T10:31:39.990Z</time>
      </trkpt>
      <trkpt lat="42.9522" lon="1.03506">
        <ele>529.8</ele>
        <time>2023-04-04T10:31:43.989Z</time>
      </trkpt>
      <trkpt lat="42.95226" lon="1.03489">
        <ele>529.6</ele>
        <time>2023-04-04T10:31:47.989Z</time>
      </trkpt>
      <trkpt lat="42.95233" lon="1.03478">
        <ele>529.1</ele>
        <time>2023-04-04T10:31:51.989Z</time>
      </trkpt>
      <trkpt lat="42.95238" lon="1.03467">
        <ele>528.1</ele>
        <time>2023-04-04T10:31:56.989Z</time>
      </trkpt>
      <trkpt lat="42.95236" lon="1.03453">
        <ele>528.4</ele>
        <time>2023-04-04T10:32:00.989Z</time>
      </trkpt>
      <trkpt lat="42.95236" lon="1.0344">
        <ele>529.3</ele>
        <time>2023-04-04T10:32:04.989Z</time>
      </trkpt>
      <trkpt lat="42.95234" lon="1.03427">
        <ele>530.8</ele>
        <time>2023-04-04T10:32:07.988Z</time>
      </trkpt>
      <trkpt lat="42.95233" lon="1.03413">
        <ele>533.4</ele>
        <time>2023-04-04T10:32:10.988Z</time>
      </trkpt>
      <trkpt lat="42.95233" lon="1.03399">
        <ele>536.3</ele>
        <time>2023-04-04T10:32:14.988Z</time>
      </trkpt>
      <trkpt lat="42.95235" lon="1.03385">
        <ele>537.3</ele>
        <time>2023-04-04T10:32:17.988Z</time>
      </trkpt>
      <trkpt lat="42.95231" lon="1.03371">
        <ele>538.1</ele>
        <time>2023-04-04T10:32:20.988Z</time>
      </trkpt>
      <trkpt lat="42.95224" lon="1.03358">
        <ele>539.7</ele>
        <time>2023-04-04T10:32:23.988Z</time>
      </trkpt>
      <trkpt lat="42.95217" lon="1.03346">
        <ele>541.9</ele>
        <time>2023-04-04T10:32:26.988Z</time>
      </trkpt>
      <trkpt lat="42.9521" lon="1.03337">
        <ele>544.7</ele>
        <time>2023-04-04T10:32:29.988Z</time>
      </trkpt>
      <trkpt lat="42.95202" lon="1.03326">
        <ele>548.5</ele>
        <time>2023-04-04T10:32:34.987Z</time>
      </trkpt>
      <trkpt lat="42.95193" lon="1.03318">
        <ele>550.7</ele>
        <time>2023-04-04T10:32:37.987Z</time>
      </trkpt>
      <trkpt lat="42.95185" lon="1.03306">
        <ele>553.4</ele>
        <time>2023-04-04T10:32:41.987Z</time>
      </trkpt>
      <trkpt lat="42.95178" lon="1.03298">
        <ele>555.5</ele>
        <time>2023-04-04T10:32:45.987Z</time>
      </trkpt>
      <trkpt lat="42.95171" lon="1.03288">
        <ele>557.1</ele>
        <time>2023-04-04T10:32:49.987Z</time>
      </trkpt>
      <trkpt lat="42.95164" lon="1.0328">
        <ele>558.9</ele>
        <time>2023-04-04T10:32:54.987Z</time>
      </trkpt>
      <trkpt lat="42.95158" lon="1.03268">
        <ele>560.2</ele>
        <time>2023-04-04T10:32:58.986Z</time>
      </trkpt>
      <trkpt lat="42.9515" lon="1.03258">
        <ele>561.5</ele>
        <time>2023-04-04T10:33:02.986Z</time>
      </trkpt>
      <trkpt lat="42.95146" lon="1.03246">
        <ele>563</ele>
        <time>2023-04-04T10:33:08.986Z</time>
      </trkpt>
      <trkpt lat="42.95141" lon="1.03234">
        <ele>565.3</ele>
        <time>2023-04-04T10:33:13.986Z</time>
      </trkpt>
      <trkpt lat="42.95135" lon="1.03223">
        <ele>568.8</ele>
        <time>2023-04-04T10:33:18.986Z</time>
      </trkpt>
      <trkpt lat="42.95132" lon="1.03211">
        <ele>572</ele>
        <time>2023-04-04T10:33:22.985Z</time>
      </trkpt>
      <trkpt lat="42.95129" lon="1.03197">
        <ele>576.2</ele>
        <time>2023-04-04T10:33:28.985Z</time>
      </trkpt>
      <trkpt lat="42.95126" lon="1.03182">
        <ele>578.8</ele>
        <time>2023-04-04T10:33:32.985Z</time>
      </trkpt>
      <trkpt lat="42.95123" lon="1.03196">
        <ele>581.4</ele>
        <time>2023-04-04T10:33:42.985Z</time>
      </trkpt>
      <trkpt lat="42.95124" lon="1.03209">
        <ele>580.6</ele>
        <time>2023-04-04T10:33:47.984Z</time>
      </trkpt>
      <trkpt lat="42.95124" lon="1.03223">
        <ele>578.9</ele>
        <time>2023-04-04T10:33:53.984Z</time>
      </trkpt>
      <trkpt lat="42.95122" lon="1.03236">
        <ele>576.6</ele>
        <time>2023-04-04T10:33:59.984Z</time>
      </trkpt>
      <trkpt lat="42.95125" lon="1.03251">
        <ele>574.3</ele>
        <time>2023-04-04T10:34:06.989Z</time>
      </trkpt>
      <trkpt lat="42.95128" lon="1.03265">
        <ele>572.8</ele>
        <time>2023-04-04T10:34:11.992Z</time>
      </trkpt>
      <trkpt lat="42.95133" lon="1.03279">
        <ele>572.3</ele>
        <time>2023-04-04T10:34:16.994Z</time>
      </trkpt>
      <trkpt lat="42.95137" lon="1.0329">
        <ele>571.9</ele>
        <time>2023-04-04T10:34:20.995Z</time>
      </trkpt>
      <trkpt lat="42.95141" lon="1.03304">
        <ele>571.6</ele>
        <time>2023-04-04T10:34:25.996Z</time>
      </trkpt>
      <trkpt lat="42.95142" lon="1.03317">
        <ele>571.6</ele>
        <time>2023-04-04T10:34:30.997Z</time>
      </trkpt>
      <trkpt lat="42.95145" lon="1.03329">
        <ele>571.7</ele>
        <time>2023-04-04T10:34:36.998Z</time>
      </trkpt>
      <trkpt lat="42.9515" lon="1.03341">
        <ele>571.6</ele>
        <time>2023-04-04T10:34:42.998Z</time>
      </trkpt>
      <trkpt lat="42.95155" lon="1.03352">
        <ele>571.2</ele>
        <time>2023-04-04T10:34:48.998Z</time>
      </trkpt>
      <trkpt lat="42.95158" lon="1.03367">
        <ele>570.7</ele>
        <time>2023-04-04T10:34:53.998Z</time>
      </trkpt>
      <trkpt lat="42.95159" lon="1.0338">
        <ele>570.2</ele>
        <time>2023-04-04T10:34:57.998Z</time>
      </trkpt>
      <trkpt lat="42.95158" lon="1.03392">
        <ele>570</ele>
        <time>2023-04-04T10:35:01.998Z</time>
      </trkpt>
      <trkpt lat="42.95159" lon="1.03406">
        <ele>570</ele>
        <time>2023-04-04T10:35:06.998Z</time>
      </trkpt>
      <trkpt lat="42.95157" lon="1.0342">
        <ele>570.2</ele>
        <time>2023-04-04T10:35:11.998Z</time>
      </trkpt>
      <trkpt lat="42.95156" lon="1.03434">
        <ele>570.2</ele>
        <time>2023-04-04T10:35:16.998Z</time>
      </trkpt>
      <trkpt lat="42.95153" lon="1.03446">
        <ele>570.1</ele>
        <time>2023-04-04T10:35:21.998Z</time>
      </trkpt>
      <trkpt lat="42.95148" lon="1.03456">
        <ele>570.2</ele>
        <time>2023-04-04T10:35:26.998Z</time>
      </trkpt>
      <trkpt lat="42.95143" lon="1.0347">
        <ele>570.5</ele>
        <time>2023-04-04T10:35:32.998Z</time>
      </trkpt>
      <trkpt lat="42.9514" lon="1.03484">
        <ele>571</ele>
        <time>2023-04-04T10:35:38.998Z</time>
      </trkpt>
      <trkpt lat="42.95136" lon="1.03497">
        <ele>571.4</ele>
        <time>2023-04-04T10:35:44.998Z</time>
      </trkpt>
      <trkpt lat="42.95132" lon="1.03509">
        <ele>571.9</ele>
        <time>2023-04-04T10:35:49.998Z</time>
      </trkpt>
      <trkpt lat="42.95125" lon="1.03521">
        <ele>572.4</ele>
        <time>2023-04-04T10:35:54.998Z</time>
      </trkpt>
      <trkpt lat="42.95117" lon="1.0353">
        <ele>573.4</ele>
        <time>2023-04-04T10:35:59.998Z</time>
      </trkpt>
      <trkpt lat="42.95109" lon="1.0354">
        <ele>575.1</ele>
        <time>2023-04-04T10:36:04.998Z</time>
      </trkpt>
      <trkpt lat="42.95102" lon="1.0355">
        <ele>577</ele>
        <time>2023-04-04T10:36:09.998Z</time>
      </trkpt>
      <trkpt lat="42.95095" lon="1.03558">
        <ele>579</ele>
        <time>2023-04-04T10:36:14.997Z</time>
      </trkpt>
      <trkpt lat="42.95088" lon="1.03566">
        <ele>580.7</ele>
        <time>2023-04-04T10:36:18.997Z</time>
      </trkpt>
      <trkpt lat="42.9508" lon="1.03576">
        <ele>582.8</ele>
        <time>2023-04-04T10:36:23.997Z</time>
      </trkpt>
      <trkpt lat="42.95073" lon="1.03584">
        <ele>584.5</ele>
        <time>2023-04-04T10:36:28.997Z</time>
      </trkpt>
      <trkpt lat="42.95065" lon="1.03591">
        <ele>586</ele>
        <time>2023-04-04T10:36:33.997Z</time>
      </trkpt>
      <trkpt lat="42.95056" lon="1.03596">
        <ele>587.7</ele>
        <time>2023-04-04T10:36:37.997Z</time>
      </trkpt>
      <trkpt lat="42.95048" lon="1.036">
        <ele>590.1</ele>
        <time>2023-04-04T10:36:41.996Z</time>
      </trkpt>
      <trkpt lat="42.95039" lon="1.03605">
        <ele>593.7</ele>
        <time>2023-04-04T10:36:47.996Z</time>
      </trkpt>
      <trkpt lat="42.95029" lon="1.03606">
        <ele>597.4</ele>
        <time>2023-04-04T10:36:52.996Z</time>
      </trkpt>
      <trkpt lat="42.95022" lon="1.03598">
        <ele>602.9</ele>
        <time>2023-04-04T10:36:58.996Z</time>
      </trkpt>
      <trkpt lat="42.95018" lon="1.03587">
        <ele>607.8</ele>
        <time>2023-04-04T10:37:03.996Z</time>
      </trkpt>
      <trkpt lat="42.95014" lon="1.03575">
        <ele>612.5</ele>
        <time>2023-04-04T10:37:08.995Z</time>
      </trkpt>
      <trkpt lat="42.9501" lon="1.03563">
        <ele>616.8</ele>
        <time>2023-04-04T10:37:14.995Z</time>
      </trkpt>
      <trkpt lat="42.95006" lon="1.0355">
        <ele>620.1</ele>
        <time>2023-04-04T10:37:20.995Z</time>
      </trkpt>
      <trkpt lat="42.95005" lon="1.03537">
        <ele>623</ele>
        <time>2023-04-04T10:37:26.995Z</time>
      </trkpt>
      <trkpt lat="42.95003" lon="1.03525">
        <ele>625.2</ele>
        <time>2023-04-04T10:37:31.994Z</time>
      </trkpt>
      <trkpt lat="42.95002" lon="1.03511">
        <ele>627.5</ele>
        <time>2023-04-04T10:37:36.994Z</time>
      </trkpt>
      <trkpt lat="42.95001" lon="1.03497">
        <ele>630.2</ele>
        <time>2023-04-04T10:37:42.994Z</time>
      </trkpt>
      <trkpt lat="42.95" lon="1.03485">
        <ele>631.9</ele>
        <time>2023-04-04T10:37:47.994Z</time>
      </trkpt>
      <trkpt lat="42.94999" lon="1.03471">
        <ele>632.9</ele>
        <time>2023-04-04T10:37:53.994Z</time>
      </trkpt>
      <trkpt lat="42.94997" lon="1.03457">
        <ele>633.5</ele>
        <time>2023-04-04T10:37:58.993Z</time>
      </trkpt>
      <trkpt lat="42.94996" lon="1.03444">
        <ele>634.1</ele>
        <time>2023-04-04T10:38:03.993Z</time>
      </trkpt>
      <trkpt lat="42.94994" lon="1.0343">
        <ele>634.6</ele>
        <time>2023-04-04T10:38:08.993Z</time>
      </trkpt>
      <trkpt lat="42.94995" lon="1.03417">
        <ele>635.2</ele>
        <time>2023-04-04T10:38:14.993Z</time>
      </trkpt>
      <trkpt lat="42.94995" lon="1.03404">
        <ele>635.4</ele>
        <time>2023-04-04T10:38:20.993Z</time>
      </trkpt>
      <trkpt lat="42.94996" lon="1.03389">
        <ele>635.1</ele>
        <time>2023-04-04T10:38:25.992Z</time>
      </trkpt>
      <trkpt lat="42.94997" lon="1.03377">
        <ele>634.5</ele>
        <time>2023-04-04T10:38:29.992Z</time>
      </trkpt>
      <trkpt lat="42.94996" lon="1.03363">
        <ele>633.3</ele>
        <time>2023-04-04T10:38:35.992Z</time>
      </trkpt>
      <trkpt lat="42.94996" lon="1.03351">
        <ele>632.2</ele>
        <time>2023-04-04T10:38:39.992Z</time>
      </trkpt>
      <trkpt lat="42.94993" lon="1.03337">
        <ele>631</ele>
        <time>2023-04-04T10:38:43.992Z</time>
      </trkpt>
      <trkpt lat="42.94989" lon="1.03324">
        <ele>629.8</ele>
        <time>2023-04-04T10:38:48.991Z</time>
      </trkpt>
      <trkpt lat="42.94984" lon="1.03313">
        <ele>629</ele>
        <time>2023-04-04T10:38:53.991Z</time>
      </trkpt>
      <trkpt lat="42.9498" lon="1.033">
        <ele>628.4</ele>
        <time>2023-04-04T10:38:59.991Z</time>
      </trkpt>
      <trkpt lat="42.94975" lon="1.03289">
        <ele>628.1</ele>
        <time>2023-04-04T10:39:04.991Z</time>
      </trkpt>
      <trkpt lat="42.94971" lon="1.03276">
        <ele>627.9</ele>
        <time>2023-04-04T10:39:09.991Z</time>
      </trkpt>
      <trkpt lat="42.94966" lon="1.03264">
        <ele>627.9</ele>
        <time>2023-04-04T10:39:14.990Z</time>
      </trkpt>
      <trkpt lat="42.94962" lon="1.03252">
        <ele>628</ele>
        <time>2023-04-04T10:39:19.990Z</time>
      </trkpt>
      <trkpt lat="42.9496" lon="1.03239">
        <ele>628.2</ele>
        <time>2023-04-04T10:39:25.990Z</time>
      </trkpt>
      <trkpt lat="42.94955" lon="1.03227">
        <ele>629.3</ele>
        <time>2023-04-04T10:39:32.990Z</time>
      </trkpt>
      <trkpt lat="42.94954" lon="1.03214">
        <ele>631</ele>
        <time>2023-04-04T10:39:38.989Z</time>
      </trkpt>
      <trkpt lat="42.94956" lon="1.03201">
        <ele>632.4</ele>
        <time>2023-04-04T10:39:43.989Z</time>
      </trkpt>
      <trkpt lat="42.94958" lon="1.03189">
        <ele>633.3</ele>
        <time>2023-04-04T10:39:48.989Z</time>
      </trkpt>
      <trkpt lat="42.94959" lon="1.03174">
        <ele>634.1</ele>
        <time>2023-04-04T10:39:53.989Z</time>
      </trkpt>
      <trkpt lat="42.94962" lon="1.03164">
        <ele>634.9</ele>
        <time>2023-04-04T10:40:00.988Z</time>
      </trkpt>
      <trkpt lat="42.94963" lon="1.03164">
        <ele>635</ele>
        <time>2023-04-04T10:40:01.988Z</time>
      </trkpt>
      <trkpt lat="42.94967" lon="1.03162">
        <ele>635.9</ele>
        <time>2023-04-04T10:40:33.987Z</time>
      </trkpt>
      <trkpt lat="42.94965" lon="1.03163">
        <ele>635.4</ele>
        <time>2023-04-04T10:40:51.986Z</time>
      </trkpt>
      <trkpt lat="42.94965" lon="1.03163">
        <ele>635.4</ele>
        <time>2023-04-04T10:40:52.986Z</time>
      </trkpt>
      <trkpt lat="42.94964" lon="1.03161">
        <ele>635.4</ele>
        <time>2023-04-04T10:41:08.986Z</time>
      </trkpt>
      <trkpt lat="42.94964" lon="1.03161">
        <ele>635.4</ele>
        <time>2023-04-04T10:41:09.986Z</time>
      </trkpt>
      <trkpt lat="42.94966" lon="1.0316">
        <ele>635.8</ele>
        <time>2023-04-04T10:41:27.985Z</time>
      </trkpt>
      <trkpt lat="42.94966" lon="1.0316">
        <ele>635.8</ele>
        <time>2023-04-04T10:41:29.985Z</time>
      </trkpt>
      <trkpt lat="42.94968" lon="1.03161">
        <ele>635.9</ele>
        <time>2023-04-04T10:41:42.984Z</time>
      </trkpt>
      <trkpt lat="42.94968" lon="1.03161">
        <ele>635.9</ele>
        <time>2023-04-04T10:41:45.984Z</time>
      </trkpt>
      <trkpt lat="42.94968" lon="1.0316">
        <ele>635.8</ele>
        <time>2023-04-04T10:41:51.984Z</time>
      </trkpt>
      <trkpt lat="42.94969" lon="1.0316">
        <ele>635.8</ele>
        <time>2023-04-04T10:41:53.984Z</time>
      </trkpt>
      <trkpt lat="42.9497" lon="1.03159">
        <ele>635.7</ele>
        <time>2023-04-04T10:41:55.984Z</time>
      </trkpt>
      <trkpt lat="42.9497" lon="1.03159">
        <ele>635.7</ele>
        <time>2023-04-04T10:41:56.984Z</time>
      </trkpt>
      <trkpt lat="42.94967" lon="1.03158">
        <ele>635.3</ele>
        <time>2023-04-04T10:42:48.998Z</time>
      </trkpt>
      <trkpt lat="42.94966" lon="1.03157">
        <ele>635.3</ele>
        <time>2023-04-04T10:42:50.998Z</time>
      </trkpt>
      <trkpt lat="42.94966" lon="1.03158">
        <ele>635.6</ele>
        <time>2023-04-04T10:42:58.998Z</time>
      </trkpt>
      <trkpt lat="42.94966" lon="1.03158">
        <ele>635.7</ele>
        <time>2023-04-04T10:43:00.998Z</time>
      </trkpt>
      <trkpt lat="42.94966" lon="1.03158">
        <ele>635.9</ele>
        <time>2023-04-04T10:43:09.998Z</time>
      </trkpt>
      <trkpt lat="42.94966" lon="1.03158">
        <ele>635.9</ele>
        <time>2023-04-04T10:43:10.998Z</time>
      </trkpt>
      <trkpt lat="42.94966" lon="1.03158">
        <ele>636.6</ele>
        <time>2023-04-04T10:45:03.993Z</time>
      </trkpt>
      <trkpt lat="42.94966" lon="1.03157">
        <ele>636.6</ele>
        <time>2023-04-04T10:45:05.993Z</time>
      </trkpt>
      <trkpt lat="42.94966" lon="1.03155">
        <ele>636.7</ele>
        <time>2023-04-04T10:45:25.993Z</time>
      </trkpt>
      <trkpt lat="42.94973" lon="1.03145">
        <ele>636.7</ele>
        <time>2023-04-04T10:45:31.992Z</time>
      </trkpt>
      <trkpt lat="42.9498" lon="1.03135">
        <ele>636.8</ele>
        <time>2023-04-04T10:45:36.992Z</time>
      </trkpt>
      <trkpt lat="42.94987" lon="1.03125">
        <ele>637</ele>
        <time>2023-04-04T10:45:43.992Z</time>
      </trkpt>
      <trkpt lat="42.94995" lon="1.03115">
        <ele>637.2</ele>
        <time>2023-04-04T10:45:47.992Z</time>
      </trkpt>
      <trkpt lat="42.95003" lon="1.03105">
        <ele>637.4</ele>
        <time>2023-04-04T10:45:51.991Z</time>
      </trkpt>
      <trkpt lat="42.95011" lon="1.03096">
        <ele>637.6</ele>
        <time>2023-04-04T10:45:55.991Z</time>
      </trkpt>
      <trkpt lat="42.95015" lon="1.03085">
        <ele>637.9</ele>
        <time>2023-04-04T10:45:59.991Z</time>
      </trkpt>
      <trkpt lat="42.95024" lon="1.03076">
        <ele>638.4</ele>
        <time>2023-04-04T10:46:03.991Z</time>
      </trkpt>
      <trkpt lat="42.95032" lon="1.03064">
        <ele>639.2</ele>
        <time>2023-04-04T10:46:08.991Z</time>
      </trkpt>
      <trkpt lat="42.95039" lon="1.03055">
        <ele>640.1</ele>
        <time>2023-04-04T10:46:13.991Z</time>
      </trkpt>
      <trkpt lat="42.95049" lon="1.03046">
        <ele>640.7</ele>
        <time>2023-04-04T10:46:17.990Z</time>
      </trkpt>
      <trkpt lat="42.95056" lon="1.03038">
        <ele>641.1</ele>
        <time>2023-04-04T10:46:21.990Z</time>
      </trkpt>
      <trkpt lat="42.95064" lon="1.03029">
        <ele>641.6</ele>
        <time>2023-04-04T10:46:26.990Z</time>
      </trkpt>
      <trkpt lat="42.95072" lon="1.03019">
        <ele>642.2</ele>
        <time>2023-04-04T10:46:32.990Z</time>
      </trkpt>
      <trkpt lat="42.95081" lon="1.0301">
        <ele>642.6</ele>
        <time>2023-04-04T10:46:37.990Z</time>
      </trkpt>
      <trkpt lat="42.95089" lon="1.03001">
        <ele>643</ele>
        <time>2023-04-04T10:46:41.989Z</time>
      </trkpt>
      <trkpt lat="42.95094" lon="1.02989">
        <ele>643.1</ele>
        <time>2023-04-04T10:46:45.989Z</time>
      </trkpt>
      <trkpt lat="42.95096" lon="1.02975">
        <ele>643</ele>
        <time>2023-04-04T10:46:50.989Z</time>
      </trkpt>
      <trkpt lat="42.95096" lon="1.02962">
        <ele>642.8</ele>
        <time>2023-04-04T10:46:54.989Z</time>
      </trkpt>
      <trkpt lat="42.95096" lon="1.02947">
        <ele>642.7</ele>
        <time>2023-04-04T10:46:58.989Z</time>
      </trkpt>
      <trkpt lat="42.95096" lon="1.02931">
        <ele>642.5</ele>
        <time>2023-04-04T10:47:02.989Z</time>
      </trkpt>
      <trkpt lat="42.95096" lon="1.02917">
        <ele>642.3</ele>
        <time>2023-04-04T10:47:05.988Z</time>
      </trkpt>
      <trkpt lat="42.95094" lon="1.02903">
        <ele>641.9</ele>
        <time>2023-04-04T10:47:08.988Z</time>
      </trkpt>
      <trkpt lat="42.9509" lon="1.0289">
        <ele>641.3</ele>
        <time>2023-04-04T10:47:11.988Z</time>
      </trkpt>
      <trkpt lat="42.95085" lon="1.02878">
        <ele>640</ele>
        <time>2023-04-04T10:47:16.988Z</time>
      </trkpt>
      <trkpt lat="42.9508" lon="1.02866">
        <ele>638.9</ele>
        <time>2023-04-04T10:47:21.988Z</time>
      </trkpt>
      <trkpt lat="42.95074" lon="1.02855">
        <ele>638.4</ele>
        <time>2023-04-04T10:47:26.988Z</time>
      </trkpt>
      <trkpt lat="42.9507" lon="1.02844">
        <ele>638.3</ele>
        <time>2023-04-04T10:47:31.987Z</time>
      </trkpt>
      <trkpt lat="42.95066" lon="1.02832">
        <ele>638.3</ele>
        <time>2023-04-04T10:47:35.987Z</time>
      </trkpt>
      <trkpt lat="42.95062" lon="1.02819">
        <ele>638.3</ele>
        <time>2023-04-04T10:47:41.987Z</time>
      </trkpt>
      <trkpt lat="42.95059" lon="1.02807">
        <ele>638.3</ele>
        <time>2023-04-04T10:47:46.987Z</time>
      </trkpt>
      <trkpt lat="42.95054" lon="1.02795">
        <ele>638.4</ele>
        <time>2023-04-04T10:47:53.986Z</time>
      </trkpt>
      <trkpt lat="42.95049" lon="1.02782">
        <ele>638.7</ele>
        <time>2023-04-04T10:47:59.986Z</time>
      </trkpt>
      <trkpt lat="42.95045" lon="1.0277">
        <ele>639.2</ele>
        <time>2023-04-04T10:48:06.986Z</time>
      </trkpt>
      <trkpt lat="42.95041" lon="1.02759">
        <ele>639.9</ele>
        <time>2023-04-04T10:48:12.986Z</time>
      </trkpt>
      <trkpt lat="42.95036" lon="1.02771">
        <ele>643.5</ele>
        <time>2023-04-04T10:48:30.985Z</time>
      </trkpt>
      <trkpt lat="42.95038" lon="1.02784">
        <ele>644.9</ele>
        <time>2023-04-04T10:48:38.985Z</time>
      </trkpt>
      <trkpt lat="42.95036" lon="1.02797">
        <ele>645.9</ele>
        <time>2023-04-04T10:48:45.984Z</time>
      </trkpt>
      <trkpt lat="42.95033" lon="1.0281">
        <ele>647.6</ele>
        <time>2023-04-04T10:48:52.984Z</time>
      </trkpt>
      <trkpt lat="42.95027" lon="1.0282">
        <ele>650</ele>
        <time>2023-04-04T10:48:57.984Z</time>
      </trkpt>
      <trkpt lat="42.95019" lon="1.02826">
        <ele>654.7</ele>
        <time>2023-04-04T10:49:04.984Z</time>
      </trkpt>
      <trkpt lat="42.95018" lon="1.02813">
        <ele>657</ele>
        <time>2023-04-04T10:49:11.986Z</time>
      </trkpt>
      <trkpt lat="42.95013" lon="1.02801">
        <ele>657.6</ele>
        <time>2023-04-04T10:49:18.991Z</time>
      </trkpt>
      <trkpt lat="42.95006" lon="1.02792">
        <ele>658.8</ele>
        <time>2023-04-04T10:49:23.994Z</time>
      </trkpt>
      <trkpt lat="42.95002" lon="1.02779">
        <ele>660.5</ele>
        <time>2023-04-04T10:49:29.996Z</time>
      </trkpt>
      <trkpt lat="42.94997" lon="1.02768">
        <ele>662.5</ele>
        <time>2023-04-04T10:49:37.997Z</time>
      </trkpt>
      <trkpt lat="42.94995" lon="1.02755">
        <ele>663.5</ele>
        <time>2023-04-04T10:49:44.998Z</time>
      </trkpt>
      <trkpt lat="42.94996" lon="1.02743">
        <ele>663.5</ele>
        <time>2023-04-04T10:49:52.998Z</time>
      </trkpt>
      <trkpt lat="42.9499" lon="1.02733">
        <ele>663.7</ele>
        <time>2023-04-04T10:49:59.998Z</time>
      </trkpt>
      <trkpt lat="42.94985" lon="1.02722">
        <ele>664.4</ele>
        <time>2023-04-04T10:50:05.998Z</time>
      </trkpt>
      <trkpt lat="42.94983" lon="1.02708">
        <ele>665.3</ele>
        <time>2023-04-04T10:50:11.998Z</time>
      </trkpt>
      <trkpt lat="42.94979" lon="1.02696">
        <ele>666</ele>
        <time>2023-04-04T10:50:17.998Z</time>
      </trkpt>
      <trkpt lat="42.94976" lon="1.02684">
        <ele>666.8</ele>
        <time>2023-04-04T10:50:24.998Z</time>
      </trkpt>
      <trkpt lat="42.94972" lon="1.02672">
        <ele>667.8</ele>
        <time>2023-04-04T10:50:31.998Z</time>
      </trkpt>
      <trkpt lat="42.9497" lon="1.0266">
        <ele>668.6</ele>
        <time>2023-04-04T10:50:38.998Z</time>
      </trkpt>
      <trkpt lat="42.94964" lon="1.02647">
        <ele>669.5</ele>
        <time>2023-04-04T10:50:43.997Z</time>
      </trkpt>
      <trkpt lat="42.94959" lon="1.02635">
        <ele>671.6</ele>
        <time>2023-04-04T10:50:49.997Z</time>
      </trkpt>
      <trkpt lat="42.94957" lon="1.02623">
        <ele>673.7</ele>
        <time>2023-04-04T10:50:55.997Z</time>
      </trkpt>
      <trkpt lat="42.94957" lon="1.02608">
        <ele>674.4</ele>
        <time>2023-04-04T10:51:02.997Z</time>
      </trkpt>
      <trkpt lat="42.94957" lon="1.02594">
        <ele>674.8</ele>
        <time>2023-04-04T10:51:11.996Z</time>
      </trkpt>
      <trkpt lat="42.94953" lon="1.02581">
        <ele>675.1</ele>
        <time>2023-04-04T10:51:16.996Z</time>
      </trkpt>
      <trkpt lat="42.94952" lon="1.02566">
        <ele>675.7</ele>
        <time>2023-04-04T10:51:22.996Z</time>
      </trkpt>
      <trkpt lat="42.94949" lon="1.02553">
        <ele>677.1</ele>
        <time>2023-04-04T10:51:28.996Z</time>
      </trkpt>
      <trkpt lat="42.94945" lon="1.02538">
        <ele>679.5</ele>
        <time>2023-04-04T10:51:34.995Z</time>
      </trkpt>
      <trkpt lat="42.94945" lon="1.02524">
        <ele>682.2</ele>
        <time>2023-04-04T10:51:41.995Z</time>
      </trkpt>
      <trkpt lat="42.94948" lon="1.02511">
        <ele>682.7</ele>
        <time>2023-04-04T10:51:48.995Z</time>
      </trkpt>
      <trkpt lat="42.94948" lon="1.02497">
        <ele>682.9</ele>
        <time>2023-04-04T10:51:54.995Z</time>
      </trkpt>
      <trkpt lat="42.94948" lon="1.02483">
        <ele>683.6</ele>
        <time>2023-04-04T10:52:01.994Z</time>
      </trkpt>
      <trkpt lat="42.94949" lon="1.02468">
        <ele>684.5</ele>
        <time>2023-04-04T10:52:08.994Z</time>
      </trkpt>
      <trkpt lat="42.94951" lon="1.02456">
        <ele>685.2</ele>
        <time>2023-04-04T10:52:13.994Z</time>
      </trkpt>
      <trkpt lat="42.94953" lon="1.02443">
        <ele>685.8</ele>
        <time>2023-04-04T10:52:19.994Z</time>
      </trkpt>
      <trkpt lat="42.94955" lon="1.0243">
        <ele>686.2</ele>
        <time>2023-04-04T10:52:25.993Z</time>
      </trkpt>
      <trkpt lat="42.94959" lon="1.02418">
        <ele>686.3</ele>
        <time>2023-04-04T10:52:32.993Z</time>
      </trkpt>
      <trkpt lat="42.94962" lon="1.02405">
        <ele>686.4</ele>
        <time>2023-04-04T10:52:39.993Z</time>
      </trkpt>
      <trkpt lat="42.94964" lon="1.02402">
        <ele>686.4</ele>
        <time>2023-04-04T10:52:43.993Z</time>
      </trkpt>
      <trkpt lat="42.94964" lon="1.02401">
        <ele>686.5</ele>
        <time>2023-04-04T10:52:44.993Z</time>
      </trkpt>
      <trkpt lat="42.94965" lon="1.02388">
        <ele>686.7</ele>
        <time>2023-04-04T10:52:49.992Z</time>
      </trkpt>
      <trkpt lat="42.94967" lon="1.02374">
        <ele>687.4</ele>
        <time>2023-04-04T10:52:56.992Z</time>
      </trkpt>
      <trkpt lat="42.94968" lon="1.0236">
        <ele>688.7</ele>
        <time>2023-04-04T10:53:02.992Z</time>
      </trkpt>
      <trkpt lat="42.94968" lon="1.02345">
        <ele>690.6</ele>
        <time>2023-04-04T10:53:07.992Z</time>
      </trkpt>
      <trkpt lat="42.94968" lon="1.02331">
        <ele>693.6</ele>
        <time>2023-04-04T10:53:13.992Z</time>
      </trkpt>
      <trkpt lat="42.94969" lon="1.02319">
        <ele>694.8</ele>
        <time>2023-04-04T10:53:18.991Z</time>
      </trkpt>
      <trkpt lat="42.94966" lon="1.02306">
        <ele>696.2</ele>
        <time>2023-04-04T10:53:25.991Z</time>
      </trkpt>
      <trkpt lat="42.94964" lon="1.02293">
        <ele>697.7</ele>
        <time>2023-04-04T10:53:31.991Z</time>
      </trkpt>
      <trkpt lat="42.94964" lon="1.0228">
        <ele>698.8</ele>
        <time>2023-04-04T10:53:37.991Z</time>
      </trkpt>
      <trkpt lat="42.94967" lon="1.02267">
        <ele>699</ele>
        <time>2023-04-04T10:53:43.990Z</time>
      </trkpt>
      <trkpt lat="42.94963" lon="1.02253">
        <ele>699.6</ele>
        <time>2023-04-04T10:53:50.990Z</time>
      </trkpt>
      <trkpt lat="42.94958" lon="1.02242">
        <ele>700.6</ele>
        <time>2023-04-04T10:53:55.990Z</time>
      </trkpt>
      <trkpt lat="42.94952" lon="1.02232">
        <ele>702.3</ele>
        <time>2023-04-04T10:54:00.990Z</time>
      </trkpt>
      <trkpt lat="42.94945" lon="1.0222">
        <ele>704.7</ele>
        <time>2023-04-04T10:54:06.989Z</time>
      </trkpt>
      <trkpt lat="42.94939" lon="1.02209">
        <ele>707.5</ele>
        <time>2023-04-04T10:54:11.989Z</time>
      </trkpt>
      <trkpt lat="42.94937" lon="1.02196">
        <ele>708.9</ele>
        <time>2023-04-04T10:54:17.989Z</time>
      </trkpt>
      <trkpt lat="42.94931" lon="1.02184">
        <ele>710.1</ele>
        <time>2023-04-04T10:54:24.989Z</time>
      </trkpt>
      <trkpt lat="42.94925" lon="1.02174">
        <ele>711.3</ele>
        <time>2023-04-04T10:54:30.989Z</time>
      </trkpt>
      <trkpt lat="42.94917" lon="1.02164">
        <ele>712.9</ele>
        <time>2023-04-04T10:54:35.988Z</time>
      </trkpt>
      <trkpt lat="42.9491" lon="1.02155">
        <ele>715.3</ele>
        <time>2023-04-04T10:54:41.988Z</time>
      </trkpt>
      <trkpt lat="42.94905" lon="1.02143">
        <ele>716.4</ele>
        <time>2023-04-04T10:54:47.988Z</time>
      </trkpt>
      <trkpt lat="42.94898" lon="1.02134">
        <ele>717</ele>
        <time>2023-04-04T10:54:52.988Z</time>
      </trkpt>
      <trkpt lat="42.9489" lon="1.02125">
        <ele>718.1</ele>
        <time>2023-04-04T10:54:57.987Z</time>
      </trkpt>
      <trkpt lat="42.94882" lon="1.02119">
        <ele>720</ele>
        <time>2023-04-04T10:55:02.987Z</time>
      </trkpt>
      <trkpt lat="42.94874" lon="1.02111">
        <ele>723</ele>
        <time>2023-04-04T10:55:08.987Z</time>
      </trkpt>
      <trkpt lat="42.94866" lon="1.02103">
        <ele>725.8</ele>
        <time>2023-04-04T10:55:13.987Z</time>
      </trkpt>
      <trkpt lat="42.94857" lon="1.02097">
        <ele>729.4</ele>
        <time>2023-04-04T10:55:20.987Z</time>
      </trkpt>
      <trkpt lat="42.94848" lon="1.02089">
        <ele>732</ele>
        <time>2023-04-04T10:55:25.986Z</time>
      </trkpt>
      <trkpt lat="42.94838" lon="1.02085">
        <ele>735.5</ele>
        <time>2023-04-04T10:55:30.986Z</time>
      </trkpt>
      <trkpt lat="42.94828" lon="1.02079">
        <ele>739</ele>
        <time>2023-04-04T10:55:34.986Z</time>
      </trkpt>
      <trkpt lat="42.94818" lon="1.02074">
        <ele>741.2</ele>
        <time>2023-04-04T10:55:38.986Z</time>
      </trkpt>
      <trkpt lat="42.94809" lon="1.02067">
        <ele>742.6</ele>
        <time>2023-04-04T10:55:42.986Z</time>
      </trkpt>
      <trkpt lat="42.948" lon="1.0206">
        <ele>743.8</ele>
        <time>2023-04-04T10:55:46.986Z</time>
      </trkpt>
      <trkpt lat="42.94793" lon="1.02051">
        <ele>745.4</ele>
        <time>2023-04-04T10:55:53.985Z</time>
      </trkpt>
      <trkpt lat="42.94792" lon="1.02039">
        <ele>745.7</ele>
        <time>2023-04-04T10:56:00.985Z</time>
      </trkpt>
      <trkpt lat="42.94789" lon="1.02025">
        <ele>745.5</ele>
        <time>2023-04-04T10:56:07.985Z</time>
      </trkpt>
      <trkpt lat="42.94784" lon="1.02013">
        <ele>745.4</ele>
        <time>2023-04-04T10:56:13.984Z</time>
      </trkpt>
      <trkpt lat="42.94779" lon="1.02001">
        <ele>745.5</ele>
        <time>2023-04-04T10:56:20.984Z</time>
      </trkpt>
      <trkpt lat="42.94773" lon="1.01991">
        <ele>745.6</ele>
        <time>2023-04-04T10:56:25.984Z</time>
      </trkpt>
      <trkpt lat="42.94764" lon="1.01986">
        <ele>746.2</ele>
        <time>2023-04-04T10:56:31.984Z</time>
      </trkpt>
      <trkpt lat="42.94756" lon="1.01978">
        <ele>748.5</ele>
        <time>2023-04-04T10:56:41.992Z</time>
      </trkpt>
      <trkpt lat="42.94749" lon="1.01969">
        <ele>750.5</ele>
        <time>2023-04-04T10:56:48.995Z</time>
      </trkpt>
      <trkpt lat="42.94742" lon="1.0196">
        <ele>751.5</ele>
        <time>2023-04-04T10:56:55.996Z</time>
      </trkpt>
      <trkpt lat="42.94735" lon="1.0195">
        <ele>752.3</ele>
        <time>2023-04-04T10:57:02.998Z</time>
      </trkpt>
      <trkpt lat="42.94731" lon="1.01937">
        <ele>753</ele>
        <time>2023-04-04T10:57:11.998Z</time>
      </trkpt>
      <trkpt lat="42.94725" lon="1.01928">
        <ele>753.4</ele>
        <time>2023-04-04T10:57:16.998Z</time>
      </trkpt>
      <trkpt lat="42.94723" lon="1.01915">
        <ele>754.1</ele>
        <time>2023-04-04T10:57:24.998Z</time>
      </trkpt>
      <trkpt lat="42.9472" lon="1.01903">
        <ele>754.5</ele>
        <time>2023-04-04T10:57:34.998Z</time>
      </trkpt>
      <trkpt lat="42.94717" lon="1.0189">
        <ele>754.6</ele>
        <time>2023-04-04T10:57:41.998Z</time>
      </trkpt>
      <trkpt lat="42.94715" lon="1.01877">
        <ele>754.7</ele>
        <time>2023-04-04T10:57:47.998Z</time>
      </trkpt>
      <trkpt lat="42.9471" lon="1.01866">
        <ele>754.8</ele>
        <time>2023-04-04T10:57:52.998Z</time>
      </trkpt>
      <trkpt lat="42.94704" lon="1.01853">
        <ele>755.4</ele>
        <time>2023-04-04T10:57:57.998Z</time>
      </trkpt>
      <trkpt lat="42.94701" lon="1.0184">
        <ele>756</ele>
        <time>2023-04-04T10:58:01.997Z</time>
      </trkpt>
      <trkpt lat="42.94697" lon="1.01829">
        <ele>757</ele>
        <time>2023-04-04T10:58:06.997Z</time>
      </trkpt>
      <trkpt lat="42.94692" lon="1.01818">
        <ele>758</ele>
        <time>2023-04-04T10:58:11.997Z</time>
      </trkpt>
      <trkpt lat="42.94686" lon="1.01806">
        <ele>758.8</ele>
        <time>2023-04-04T10:58:15.997Z</time>
      </trkpt>
      <trkpt lat="42.94682" lon="1.01794">
        <ele>759.7</ele>
        <time>2023-04-04T10:58:19.997Z</time>
      </trkpt>
      <trkpt lat="42.94677" lon="1.01782">
        <ele>760.4</ele>
        <time>2023-04-04T10:58:24.997Z</time>
      </trkpt>
      <trkpt lat="42.94674" lon="1.0177">
        <ele>761.2</ele>
        <time>2023-04-04T10:58:29.996Z</time>
      </trkpt>
      <trkpt lat="42.94673" lon="1.01758">
        <ele>761.4</ele>
        <time>2023-04-04T10:58:33.996Z</time>
      </trkpt>
      <trkpt lat="42.9467" lon="1.01746">
        <ele>761.5</ele>
        <time>2023-04-04T10:58:38.996Z</time>
      </trkpt>
      <trkpt lat="42.94668" lon="1.01733">
        <ele>761.5</ele>
        <time>2023-04-04T10:58:43.996Z</time>
      </trkpt>
      <trkpt lat="42.94665" lon="1.0172">
        <ele>761.7</ele>
        <time>2023-04-04T10:58:48.996Z</time>
      </trkpt>
      <trkpt lat="42.94661" lon="1.01709">
        <ele>761.9</ele>
        <time>2023-04-04T10:58:52.995Z</time>
      </trkpt>
      <trkpt lat="42.94656" lon="1.01696">
        <ele>762.3</ele>
        <time>2023-04-04T10:58:57.995Z</time>
      </trkpt>
      <trkpt lat="42.94648" lon="1.01685">
        <ele>763.3</ele>
        <time>2023-04-04T10:59:02.995Z</time>
      </trkpt>
      <trkpt lat="42.94644" lon="1.01672">
        <ele>765.2</ele>
        <time>2023-04-04T10:59:07.995Z</time>
      </trkpt>
      <trkpt lat="42.94641" lon="1.01659">
        <ele>766.8</ele>
        <time>2023-04-04T10:59:11.995Z</time>
      </trkpt>
      <trkpt lat="42.94639" lon="1.01645">
        <ele>768.6</ele>
        <time>2023-04-04T10:59:16.994Z</time>
      </trkpt>
      <trkpt lat="42.94636" lon="1.01634">
        <ele>770</ele>
        <time>2023-04-04T10:59:20.994Z</time>
      </trkpt>
      <trkpt lat="42.94632" lon="1.01621">
        <ele>771.6</ele>
        <time>2023-04-04T10:59:24.994Z</time>
      </trkpt>
      <trkpt lat="42.94626" lon="1.0161">
        <ele>774.4</ele>
        <time>2023-04-04T10:59:29.994Z</time>
      </trkpt>
      <trkpt lat="42.94627" lon="1.01596">
        <ele>779.2</ele>
        <time>2023-04-04T10:59:42.993Z</time>
      </trkpt>
      <trkpt lat="42.94633" lon="1.01579">
        <ele>778.4</ele>
        <time>2023-04-04T10:59:45.993Z</time>
      </trkpt>
      <trkpt lat="42.94637" lon="1.01566">
        <ele>777.8</ele>
        <time>2023-04-04T10:59:47.993Z</time>
      </trkpt>
      <trkpt lat="42.94643" lon="1.01555">
        <ele>777.5</ele>
        <time>2023-04-04T10:59:48.993Z</time>
      </trkpt>
      <trkpt lat="42.94645" lon="1.01534">
        <ele>777.1</ele>
        <time>2023-04-04T10:59:50.993Z</time>
      </trkpt>
      <trkpt lat="42.94657" lon="1.0153">
        <ele>776.4</ele>
        <time>2023-04-04T10:59:51.993Z</time>
      </trkpt>
      <trkpt lat="42.94662" lon="1.01518">
        <ele>775.5</ele>
        <time>2023-04-04T10:59:52.993Z</time>
      </trkpt>
      <trkpt lat="42.94667" lon="1.01505">
        <ele>774.5</ele>
        <time>2023-04-04T10:59:53.993Z</time>
      </trkpt>
      <trkpt lat="42.94674" lon="1.01487">
        <ele>772.9</ele>
        <time>2023-04-04T10:59:55.993Z</time>
      </trkpt>
      <trkpt lat="42.94678" lon="1.01473">
        <ele>772.6</ele>
        <time>2023-04-04T10:59:57.993Z</time>
      </trkpt>
      <trkpt lat="42.94683" lon="1.0146">
        <ele>773.3</ele>
        <time>2023-04-04T11:00:00.993Z</time>
      </trkpt>
      <trkpt lat="42.94688" lon="1.01446">
        <ele>774.6</ele>
        <time>2023-04-04T11:00:03.993Z</time>
      </trkpt>
      <trkpt lat="42.94689" lon="1.01434">
        <ele>777.1</ele>
        <time>2023-04-04T11:00:06.992Z</time>
      </trkpt>
      <trkpt lat="42.94695" lon="1.01425">
        <ele>778.7</ele>
        <time>2023-04-04T11:00:08.992Z</time>
      </trkpt>
      <trkpt lat="42.94702" lon="1.01416">
        <ele>780.5</ele>
        <time>2023-04-04T11:00:11.992Z</time>
      </trkpt>
      <trkpt lat="42.94707" lon="1.01405">
        <ele>782.4</ele>
        <time>2023-04-04T11:00:14.992Z</time>
      </trkpt>
      <trkpt lat="42.94715" lon="1.01395">
        <ele>784.6</ele>
        <time>2023-04-04T11:00:18.992Z</time>
      </trkpt>
      <trkpt lat="42.94722" lon="1.01384">
        <ele>786.6</ele>
        <time>2023-04-04T11:00:23.992Z</time>
      </trkpt>
      <trkpt lat="42.94729" lon="1.01375">
        <ele>787.8</ele>
        <time>2023-04-04T11:00:26.992Z</time>
      </trkpt>
      <trkpt lat="42.94735" lon="1.01363">
        <ele>789.5</ele>
        <time>2023-04-04T11:00:29.992Z</time>
      </trkpt>
      <trkpt lat="42.94741" lon="1.01353">
        <ele>792</ele>
        <time>2023-04-04T11:00:32.991Z</time>
      </trkpt>
      <trkpt lat="42.9475" lon="1.0134">
        <ele>795.9</ele>
        <time>2023-04-04T11:00:36.991Z</time>
      </trkpt>
      <trkpt lat="42.94758" lon="1.01334">
        <ele>797.6</ele>
        <time>2023-04-04T11:00:38.991Z</time>
      </trkpt>
      <trkpt lat="42.94768" lon="1.01328">
        <ele>798.9</ele>
        <time>2023-04-04T11:00:41.991Z</time>
      </trkpt>
      <trkpt lat="42.94777" lon="1.01321">
        <ele>799.8</ele>
        <time>2023-04-04T11:00:44.991Z</time>
      </trkpt>
      <trkpt lat="42.94788" lon="1.01315">
        <ele>800.5</ele>
        <time>2023-04-04T11:00:48.991Z</time>
      </trkpt>
      <trkpt lat="42.94797" lon="1.01313">
        <ele>800.6</ele>
        <time>2023-04-04T11:00:52.991Z</time>
      </trkpt>
      <trkpt lat="42.94809" lon="1.0131">
        <ele>800.3</ele>
        <time>2023-04-04T11:00:55.990Z</time>
      </trkpt>
      <trkpt lat="42.94819" lon="1.01305">
        <ele>799.9</ele>
        <time>2023-04-04T11:00:58.990Z</time>
      </trkpt>
      <trkpt lat="42.94831" lon="1.01298">
        <ele>799.6</ele>
        <time>2023-04-04T11:01:01.990Z</time>
      </trkpt>
      <trkpt lat="42.9484" lon="1.01293">
        <ele>799.5</ele>
        <time>2023-04-04T11:01:02.990Z</time>
      </trkpt>
      <trkpt lat="42.94852" lon="1.01289">
        <ele>799.2</ele>
        <time>2023-04-04T11:01:04.990Z</time>
      </trkpt>
      <trkpt lat="42.94862" lon="1.01279">
        <ele>799.1</ele>
        <time>2023-04-04T11:01:07.990Z</time>
      </trkpt>
      <trkpt lat="42.9487" lon="1.01273">
        <ele>799.2</ele>
        <time>2023-04-04T11:01:09.990Z</time>
      </trkpt>
      <trkpt lat="42.94883" lon="1.01263">
        <ele>799.4</ele>
        <time>2023-04-04T11:01:11.990Z</time>
      </trkpt>
      <trkpt lat="42.94891" lon="1.01256">
        <ele>799.6</ele>
        <time>2023-04-04T11:01:13.990Z</time>
      </trkpt>
      <trkpt lat="42.94902" lon="1.01249">
        <ele>799.8</ele>
        <time>2023-04-04T11:01:15.990Z</time>
      </trkpt>
      <trkpt lat="42.94911" lon="1.01246">
        <ele>799.9</ele>
        <time>2023-04-04T11:01:17.990Z</time>
      </trkpt>
      <trkpt lat="42.94922" lon="1.01241">
        <ele>799.9</ele>
        <time>2023-04-04T11:01:19.990Z</time>
      </trkpt>
      <trkpt lat="42.94936" lon="1.01236">
        <ele>799.9</ele>
        <time>2023-04-04T11:01:21.989Z</time>
      </trkpt>
      <trkpt lat="42.94946" lon="1.01232">
        <ele>799.8</ele>
        <time>2023-04-04T11:01:23.989Z</time>
      </trkpt>
      <trkpt lat="42.94963" lon="1.01232">
        <ele>799.7</ele>
        <time>2023-04-04T11:01:25.989Z</time>
      </trkpt>
      <trkpt lat="42.9498" lon="1.01225">
        <ele>799.5</ele>
        <time>2023-04-04T11:01:27.989Z</time>
      </trkpt>
      <trkpt lat="42.94988" lon="1.0122">
        <ele>799.5</ele>
        <time>2023-04-04T11:01:28.989Z</time>
      </trkpt>
      <trkpt lat="42.95003" lon="1.01211">
        <ele>799.4</ele>
        <time>2023-04-04T11:01:30.989Z</time>
      </trkpt>
      <trkpt lat="42.95015" lon="1.01201">
        <ele>799.5</ele>
        <time>2023-04-04T11:01:32.989Z</time>
      </trkpt>
      <trkpt lat="42.95024" lon="1.01198">
        <ele>799.6</ele>
        <time>2023-04-04T11:01:33.989Z</time>
      </trkpt>
      <trkpt lat="42.95034" lon="1.01196">
        <ele>799.7</ele>
        <time>2023-04-04T11:01:34.989Z</time>
      </trkpt>
      <trkpt lat="42.95051" lon="1.01197">
        <ele>799.7</ele>
        <time>2023-04-04T11:01:36.989Z</time>
      </trkpt>
      <trkpt lat="42.95066" lon="1.01209">
        <ele>799.6</ele>
        <time>2023-04-04T11:01:38.989Z</time>
      </trkpt>
      <trkpt lat="42.95076" lon="1.01215">
        <ele>799.4</ele>
        <time>2023-04-04T11:01:39.989Z</time>
      </trkpt>
      <trkpt lat="42.95092" lon="1.01222">
        <ele>799</ele>
        <time>2023-04-04T11:01:41.989Z</time>
      </trkpt>
      <trkpt lat="42.95105" lon="1.01218">
        <ele>798.8</ele>
        <time>2023-04-04T11:01:43.989Z</time>
      </trkpt>
      <trkpt lat="42.95113" lon="1.01212">
        <ele>798.9</ele>
        <time>2023-04-04T11:01:45.988Z</time>
      </trkpt>
      <trkpt lat="42.95124" lon="1.01206">
        <ele>799.2</ele>
        <time>2023-04-04T11:01:48.988Z</time>
      </trkpt>
      <trkpt lat="42.95134" lon="1.01198">
        <ele>800</ele>
        <time>2023-04-04T11:01:53.988Z</time>
      </trkpt>
      <trkpt lat="42.95144" lon="1.0119">
        <ele>800.8</ele>
        <time>2023-04-04T11:01:56.988Z</time>
      </trkpt>
      <trkpt lat="42.9515" lon="1.01181">
        <ele>802</ele>
        <time>2023-04-04T11:02:00.988Z</time>
      </trkpt>
      <trkpt lat="42.95155" lon="1.01169">
        <ele>803.6</ele>
        <time>2023-04-04T11:02:06.988Z</time>
      </trkpt>
      <trkpt lat="42.9516" lon="1.01158">
        <ele>803.8</ele>
        <time>2023-04-04T11:02:12.987Z</time>
      </trkpt>
      <trkpt lat="42.95164" lon="1.01146">
        <ele>802.2</ele>
        <time>2023-04-04T11:02:20.987Z</time>
      </trkpt>
      <trkpt lat="42.95168" lon="1.01145">
        <ele>800.2</ele>
        <time>2023-04-04T11:02:30.987Z</time>
      </trkpt>
      <trkpt lat="42.95167" lon="1.01144">
        <ele>799.8</ele>
        <time>2023-04-04T11:02:34.987Z</time>
      </trkpt>
      <trkpt lat="42.95162" lon="1.01143">
        <ele>799.3</ele>
        <time>2023-04-04T11:02:41.986Z</time>
      </trkpt>
      <trkpt lat="42.95161" lon="1.01143">
        <ele>799.3</ele>
        <time>2023-04-04T11:02:42.986Z</time>
      </trkpt>
      <trkpt lat="42.95161" lon="1.01143">
        <ele>799.3</ele>
        <time>2023-04-04T11:02:43.986Z</time>
      </trkpt>
      <trkpt lat="42.95163" lon="1.01145">
        <ele>799.2</ele>
        <time>2023-04-04T11:02:46.986Z</time>
      </trkpt>
      <trkpt lat="42.95166" lon="1.01145">
        <ele>799.2</ele>
        <time>2023-04-04T11:02:49.986Z</time>
      </trkpt>
      <trkpt lat="42.95167" lon="1.01145">
        <ele>799.1</ele>
        <time>2023-04-04T11:03:03.985Z</time>
      </trkpt>
      <trkpt lat="42.95165" lon="1.01143">
        <ele>799.1</ele>
        <time>2023-04-04T11:03:07.985Z</time>
      </trkpt>
      <trkpt lat="42.95165" lon="1.01142">
        <ele>799</ele>
        <time>2023-04-04T11:03:09.985Z</time>
      </trkpt>
      <trkpt lat="42.95166" lon="1.01142">
        <ele>799</ele>
        <time>2023-04-04T11:03:11.985Z</time>
      </trkpt>
      <trkpt lat="42.95168" lon="1.01146">
        <ele>798.4</ele>
        <time>2023-04-04T11:04:14.998Z</time>
      </trkpt>
      <trkpt lat="42.95165" lon="1.01134">
        <ele>798.3</ele>
        <time>2023-04-04T11:04:21.998Z</time>
      </trkpt>
      <trkpt lat="42.95158" lon="1.01122">
        <ele>797.5</ele>
        <time>2023-04-04T11:04:26.998Z</time>
      </trkpt>
      <trkpt lat="42.95151" lon="1.01111">
        <ele>795.6</ele>
        <time>2023-04-04T11:04:30.998Z</time>
      </trkpt>
      <trkpt lat="42.95143" lon="1.01105">
        <ele>792.8</ele>
        <time>2023-04-04T11:04:34.998Z</time>
      </trkpt>
      <trkpt lat="42.95136" lon="1.01096">
        <ele>790</ele>
        <time>2023-04-04T11:04:39.998Z</time>
      </trkpt>
      <trkpt lat="42.95127" lon="1.01088">
        <ele>788.4</ele>
        <time>2023-04-04T11:04:44.998Z</time>
      </trkpt>
      <trkpt lat="42.95118" lon="1.0108">
        <ele>787.3</ele>
        <time>2023-04-04T11:04:49.998Z</time>
      </trkpt>
      <trkpt lat="42.9511" lon="1.01073">
        <ele>786.5</ele>
        <time>2023-04-04T11:04:53.998Z</time>
      </trkpt>
      <trkpt lat="42.95103" lon="1.01064">
        <ele>785.3</ele>
        <time>2023-04-04T11:04:58.998Z</time>
      </trkpt>
      <trkpt lat="42.95096" lon="1.01055">
        <ele>784</ele>
        <time>2023-04-04T11:05:03.998Z</time>
      </trkpt>
      <trkpt lat="42.9509" lon="1.01046">
        <ele>782.7</ele>
        <time>2023-04-04T11:05:08.998Z</time>
      </trkpt>
      <trkpt lat="42.95082" lon="1.0104">
        <ele>781.9</ele>
        <time>2023-04-04T11:05:13.997Z</time>
      </trkpt>
      <trkpt lat="42.95073" lon="1.01036">
        <ele>781.7</ele>
        <time>2023-04-04T11:05:18.997Z</time>
      </trkpt>
      <trkpt lat="42.95065" lon="1.01031">
        <ele>782</ele>
        <time>2023-04-04T11:05:22.997Z</time>
      </trkpt>
      <trkpt lat="42.95056" lon="1.01024">
        <ele>782.4</ele>
        <time>2023-04-04T11:05:27.997Z</time>
      </trkpt>
      <trkpt lat="42.95046" lon="1.01019">
        <ele>783</ele>
        <time>2023-04-04T11:05:32.997Z</time>
      </trkpt>
      <trkpt lat="42.95036" lon="1.01016">
        <ele>784.4</ele>
        <time>2023-04-04T11:05:39.996Z</time>
      </trkpt>
      <trkpt lat="42.95026" lon="1.01011">
        <ele>785.8</ele>
        <time>2023-04-04T11:05:44.996Z</time>
      </trkpt>
      <trkpt lat="42.95016" lon="1.01007">
        <ele>787.8</ele>
        <time>2023-04-04T11:05:49.996Z</time>
      </trkpt>
      <trkpt lat="42.95006" lon="1.01002">
        <ele>790.4</ele>
        <time>2023-04-04T11:05:57.996Z</time>
      </trkpt>
      <trkpt lat="42.94997" lon="1.00998">
        <ele>792</ele>
        <time>2023-04-04T11:06:03.995Z</time>
      </trkpt>
      <trkpt lat="42.94988" lon="1.00993">
        <ele>792.8</ele>
        <time>2023-04-04T11:06:08.995Z</time>
      </trkpt>
      <trkpt lat="42.94979" lon="1.00989">
        <ele>793.5</ele>
        <time>2023-04-04T11:06:13.995Z</time>
      </trkpt>
      <trkpt lat="42.94969" lon="1.00984">
        <ele>794.1</ele>
        <time>2023-04-04T11:06:18.995Z</time>
      </trkpt>
      <trkpt lat="42.94959" lon="1.00979">
        <ele>794.7</ele>
        <time>2023-04-04T11:06:23.995Z</time>
      </trkpt>
      <trkpt lat="42.9495" lon="1.00972">
        <ele>795.1</ele>
        <time>2023-04-04T11:06:28.994Z</time>
      </trkpt>
      <trkpt lat="42.9494" lon="1.00966">
        <ele>795.3</ele>
        <time>2023-04-04T11:06:33.994Z</time>
      </trkpt>
      <trkpt lat="42.94931" lon="1.0096">
        <ele>795.4</ele>
        <time>2023-04-04T11:06:38.994Z</time>
      </trkpt>
      <trkpt lat="42.94921" lon="1.00953">
        <ele>795.5</ele>
        <time>2023-04-04T11:06:43.994Z</time>
      </trkpt>
      <trkpt lat="42.94913" lon="1.00948">
        <ele>795.5</ele>
        <time>2023-04-04T11:06:47.994Z</time>
      </trkpt>
      <trkpt lat="42.94904" lon="1.00942">
        <ele>795.6</ele>
        <time>2023-04-04T11:06:51.993Z</time>
      </trkpt>
      <trkpt lat="42.94895" lon="1.00938">
        <ele>795.8</ele>
        <time>2023-04-04T11:06:55.993Z</time>
      </trkpt>
      <trkpt lat="42.94885" lon="1.00932">
        <ele>796.3</ele>
        <time>2023-04-04T11:07:00.993Z</time>
      </trkpt>
      <trkpt lat="42.94881" lon="1.00918">
        <ele>796.3</ele>
        <time>2023-04-04T11:07:07.993Z</time>
      </trkpt>
      <trkpt lat="42.94872" lon="1.00912">
        <ele>796</ele>
        <time>2023-04-04T11:07:12.993Z</time>
      </trkpt>
      <trkpt lat="42.94863" lon="1.00909">
        <ele>796.1</ele>
        <time>2023-04-04T11:07:15.992Z</time>
      </trkpt>
      <trkpt lat="42.94854" lon="1.00902">
        <ele>796.4</ele>
        <time>2023-04-04T11:07:20.992Z</time>
      </trkpt>
      <trkpt lat="42.94845" lon="1.00895">
        <ele>796.6</ele>
        <time>2023-04-04T11:07:25.992Z</time>
      </trkpt>
      <trkpt lat="42.94837" lon="1.00889">
        <ele>796.8</ele>
        <time>2023-04-04T11:07:29.992Z</time>
      </trkpt>
      <trkpt lat="42.94827" lon="1.00883">
        <ele>797.5</ele>
        <time>2023-04-04T11:07:36.992Z</time>
      </trkpt>
      <trkpt lat="42.94818" lon="1.00877">
        <ele>798.4</ele>
        <time>2023-04-04T11:07:42.991Z</time>
      </trkpt>
      <trkpt lat="42.9481" lon="1.00868">
        <ele>799</ele>
        <time>2023-04-04T11:07:46.991Z</time>
      </trkpt>
      <trkpt lat="42.94801" lon="1.0086">
        <ele>799.5</ele>
        <time>2023-04-04T11:07:51.991Z</time>
      </trkpt>
      <trkpt lat="42.94792" lon="1.00856">
        <ele>800.2</ele>
        <time>2023-04-04T11:07:55.991Z</time>
      </trkpt>
      <trkpt lat="42.94783" lon="1.00849">
        <ele>801.2</ele>
        <time>2023-04-04T11:08:00.991Z</time>
      </trkpt>
      <trkpt lat="42.94773" lon="1.00843">
        <ele>802.3</ele>
        <time>2023-04-04T11:08:05.990Z</time>
      </trkpt>
      <trkpt lat="42.94764" lon="1.0084">
        <ele>803.5</ele>
        <time>2023-04-04T11:08:09.990Z</time>
      </trkpt>
      <trkpt lat="42.94754" lon="1.00835">
        <ele>805.4</ele>
        <time>2023-04-04T11:08:14.990Z</time>
      </trkpt>
      <trkpt lat="42.94744" lon="1.00831">
        <ele>807</ele>
        <time>2023-04-04T11:08:18.990Z</time>
      </trkpt>
      <trkpt lat="42.94735" lon="1.00824">
        <ele>809.2</ele>
        <time>2023-04-04T11:08:23.990Z</time>
      </trkpt>
      <trkpt lat="42.94725" lon="1.00819">
        <ele>810.9</ele>
        <time>2023-04-04T11:08:28.989Z</time>
      </trkpt>
      <trkpt lat="42.94716" lon="1.00813">
        <ele>812.5</ele>
        <time>2023-04-04T11:08:32.989Z</time>
      </trkpt>
      <trkpt lat="42.94707" lon="1.00808">
        <ele>813.5</ele>
        <time>2023-04-04T11:08:35.989Z</time>
      </trkpt>
      <trkpt lat="42.94701" lon="1.00798">
        <ele>814.5</ele>
        <time>2023-04-04T11:08:40.989Z</time>
      </trkpt>
      <trkpt lat="42.94694" lon="1.00787">
        <ele>814.3</ele>
        <time>2023-04-04T11:08:46.989Z</time>
      </trkpt>
      <trkpt lat="42.94688" lon="1.00777">
        <ele>813.7</ele>
        <time>2023-04-04T11:08:52.988Z</time>
      </trkpt>
      <trkpt lat="42.94688" lon="1.00763">
        <ele>811.7</ele>
        <time>2023-04-04T11:08:59.988Z</time>
      </trkpt>
      <trkpt lat="42.94684" lon="1.00751">
        <ele>808.4</ele>
        <time>2023-04-04T11:09:04.988Z</time>
      </trkpt>
      <trkpt lat="42.94675" lon="1.00742">
        <ele>807</ele>
        <time>2023-04-04T11:09:08.988Z</time>
      </trkpt>
      <trkpt lat="42.94671" lon="1.0073">
        <ele>806.3</ele>
        <time>2023-04-04T11:09:13.988Z</time>
      </trkpt>
      <trkpt lat="42.94665" lon="1.00718">
        <ele>806</ele>
        <time>2023-04-04T11:09:18.987Z</time>
      </trkpt>
      <trkpt lat="42.9466" lon="1.00708">
        <ele>805.9</ele>
        <time>2023-04-04T11:09:22.987Z</time>
      </trkpt>
      <trkpt lat="42.94656" lon="1.00694">
        <ele>806</ele>
        <time>2023-04-04T11:09:27.987Z</time>
      </trkpt>
      <trkpt lat="42.94651" lon="1.00682">
        <ele>806</ele>
        <time>2023-04-04T11:09:32.987Z</time>
      </trkpt>
      <trkpt lat="42.94647" lon="1.00667">
        <ele>806.2</ele>
        <time>2023-04-04T11:09:37.987Z</time>
      </trkpt>
      <trkpt lat="42.94646" lon="1.00654">
        <ele>806.2</ele>
        <time>2023-04-04T11:09:42.986Z</time>
      </trkpt>
      <trkpt lat="42.94644" lon="1.00641">
        <ele>806.1</ele>
        <time>2023-04-04T11:09:48.986Z</time>
      </trkpt>
      <trkpt lat="42.94645" lon="1.00628">
        <ele>806.1</ele>
        <time>2023-04-04T11:09:54.986Z</time>
      </trkpt>
      <trkpt lat="42.94647" lon="1.00614">
        <ele>805.4</ele>
        <time>2023-04-04T11:10:00.986Z</time>
      </trkpt>
      <trkpt lat="42.94646" lon="1.006">
        <ele>804.3</ele>
        <time>2023-04-04T11:10:06.985Z</time>
      </trkpt>
      <trkpt lat="42.94649" lon="1.00587">
        <ele>802.5</ele>
        <time>2023-04-04T11:10:11.985Z</time>
      </trkpt>
      <trkpt lat="42.94648" lon="1.00572">
        <ele>801.1</ele>
        <time>2023-04-04T11:10:16.985Z</time>
      </trkpt>
      <trkpt lat="42.94646" lon="1.0056">
        <ele>801.8</ele>
        <time>2023-04-04T11:10:20.985Z</time>
      </trkpt>
      <trkpt lat="42.94645" lon="1.00545">
        <ele>803.5</ele>
        <time>2023-04-04T11:10:25.985Z</time>
      </trkpt>
      <trkpt lat="42.94647" lon="1.00529">
        <ele>804.9</ele>
        <time>2023-04-04T11:10:29.985Z</time>
      </trkpt>
      <trkpt lat="42.9465" lon="1.00516">
        <ele>805.9</ele>
        <time>2023-04-04T11:10:33.984Z</time>
      </trkpt>
      <trkpt lat="42.94653" lon="1.00503">
        <ele>806.5</ele>
        <time>2023-04-04T11:10:38.984Z</time>
      </trkpt>
      <trkpt lat="42.94658" lon="1.00489">
        <ele>806.5</ele>
        <time>2023-04-04T11:10:42.984Z</time>
      </trkpt>
      <trkpt lat="42.94663" lon="1.00476">
        <ele>806.6</ele>
        <time>2023-04-04T11:10:45.984Z</time>
      </trkpt>
      <trkpt lat="42.9467" lon="1.00463">
        <ele>806.7</ele>
        <time>2023-04-04T11:10:48.984Z</time>
      </trkpt>
      <trkpt lat="42.94677" lon="1.0045">
        <ele>806.7</ele>
        <time>2023-04-04T11:10:51.984Z</time>
      </trkpt>
      <trkpt lat="42.94684" lon="1.00439">
        <ele>806.6</ele>
        <time>2023-04-04T11:10:54.983Z</time>
      </trkpt>
      <trkpt lat="42.9469" lon="1.0043">
        <ele>806.5</ele>
        <time>2023-04-04T11:10:57.987Z</time>
      </trkpt>
      <trkpt lat="42.94696" lon="1.00419">
        <ele>806.2</ele>
        <time>2023-04-04T11:11:01.990Z</time>
      </trkpt>
      <trkpt lat="42.94701" lon="1.00409">
        <ele>806.1</ele>
        <time>2023-04-04T11:11:05.992Z</time>
      </trkpt>
      <trkpt lat="42.94708" lon="1.00399">
        <ele>806</ele>
        <time>2023-04-04T11:11:08.994Z</time>
      </trkpt>
      <trkpt lat="42.94713" lon="1.00388">
        <ele>806.1</ele>
        <time>2023-04-04T11:11:11.995Z</time>
      </trkpt>
      <trkpt lat="42.94718" lon="1.00376">
        <ele>806.6</ele>
        <time>2023-04-04T11:11:15.996Z</time>
      </trkpt>
      <trkpt lat="42.94725" lon="1.00366">
        <ele>807.2</ele>
        <time>2023-04-04T11:11:20.997Z</time>
      </trkpt>
      <trkpt lat="42.94731" lon="1.00356">
        <ele>808.1</ele>
        <time>2023-04-04T11:11:25.997Z</time>
      </trkpt>
      <trkpt lat="42.94738" lon="1.00348">
        <ele>808.8</ele>
        <time>2023-04-04T11:11:30.998Z</time>
      </trkpt>
      <trkpt lat="42.94745" lon="1.00337">
        <ele>809.4</ele>
        <time>2023-04-04T11:11:36.998Z</time>
      </trkpt>
      <trkpt lat="42.94752" lon="1.00327">
        <ele>810.1</ele>
        <time>2023-04-04T11:11:41.998Z</time>
      </trkpt>
      <trkpt lat="42.94758" lon="1.00315">
        <ele>811.9</ele>
        <time>2023-04-04T11:11:48.998Z</time>
      </trkpt>
      <trkpt lat="42.94761" lon="1.00304">
        <ele>814.7</ele>
        <time>2023-04-04T11:11:54.998Z</time>
      </trkpt>
      <trkpt lat="42.94766" lon="1.00292">
        <ele>817.4</ele>
        <time>2023-04-04T11:11:58.998Z</time>
      </trkpt>
      <trkpt lat="42.94772" lon="1.00281">
        <ele>820.5</ele>
        <time>2023-04-04T11:12:03.998Z</time>
      </trkpt>
      <trkpt lat="42.94778" lon="1.0027">
        <ele>823.5</ele>
        <time>2023-04-04T11:12:10.998Z</time>
      </trkpt>
      <trkpt lat="42.94786" lon="1.00261">
        <ele>825.5</ele>
        <time>2023-04-04T11:12:20.997Z</time>
      </trkpt>
      <trkpt lat="42.94795" lon="1.00258">
        <ele>825.4</ele>
        <time>2023-04-04T11:12:24.997Z</time>
      </trkpt>
      <trkpt lat="42.94802" lon="1.0025">
        <ele>824.8</ele>
        <time>2023-04-04T11:12:29.997Z</time>
      </trkpt>
      <trkpt lat="42.9481" lon="1.00241">
        <ele>824.5</ele>
        <time>2023-04-04T11:12:35.997Z</time>
      </trkpt>
      <trkpt lat="42.94816" lon="1.00231">
        <ele>824.3</ele>
        <time>2023-04-04T11:12:41.997Z</time>
      </trkpt>
      <trkpt lat="42.94823" lon="1.00221">
        <ele>824.3</ele>
        <time>2023-04-04T11:12:47.996Z</time>
      </trkpt>
      <trkpt lat="42.9483" lon="1.00211">
        <ele>824.3</ele>
        <time>2023-04-04T11:12:53.996Z</time>
      </trkpt>
      <trkpt lat="42.94838" lon="1.00202">
        <ele>824.1</ele>
        <time>2023-04-04T11:12:59.996Z</time>
      </trkpt>
      <trkpt lat="42.94844" lon="1.0019">
        <ele>823.8</ele>
        <time>2023-04-04T11:13:05.996Z</time>
      </trkpt>
      <trkpt lat="42.94846" lon="1.00178">
        <ele>823.9</ele>
        <time>2023-04-04T11:13:11.995Z</time>
      </trkpt>
      <trkpt lat="42.94848" lon="1.00164">
        <ele>824.5</ele>
        <time>2023-04-04T11:13:17.995Z</time>
      </trkpt>
      <trkpt lat="42.94849" lon="1.00151">
        <ele>825.8</ele>
        <time>2023-04-04T11:13:22.995Z</time>
      </trkpt>
      <trkpt lat="42.94853" lon="1.00138">
        <ele>827</ele>
        <time>2023-04-04T11:13:27.995Z</time>
      </trkpt>
      <trkpt lat="42.94856" lon="1.00125">
        <ele>827.5</ele>
        <time>2023-04-04T11:13:32.994Z</time>
      </trkpt>
      <trkpt lat="42.94858" lon="1.00113">
        <ele>828.1</ele>
        <time>2023-04-04T11:13:37.994Z</time>
      </trkpt>
      <trkpt lat="42.94861" lon="1.00099">
        <ele>828.6</ele>
        <time>2023-04-04T11:13:43.994Z</time>
      </trkpt>
      <trkpt lat="42.94863" lon="1.00085">
        <ele>828.8</ele>
        <time>2023-04-04T11:13:49.994Z</time>
      </trkpt>
      <trkpt lat="42.94866" lon="1.00073">
        <ele>829</ele>
        <time>2023-04-04T11:13:54.994Z</time>
      </trkpt>
      <trkpt lat="42.94868" lon="1.00059">
        <ele>829.3</ele>
        <time>2023-04-04T11:13:59.993Z</time>
      </trkpt>
      <trkpt lat="42.94872" lon="1.00047">
        <ele>829.4</ele>
        <time>2023-04-04T11:14:05.993Z</time>
      </trkpt>
      <trkpt lat="42.94875" lon="1.00033">
        <ele>829.5</ele>
        <time>2023-04-04T11:14:11.993Z</time>
      </trkpt>
      <trkpt lat="42.94873" lon="1.00021">
        <ele>830.2</ele>
        <time>2023-04-04T11:14:16.993Z</time>
      </trkpt>
      <trkpt lat="42.94876" lon="1.00007">
        <ele>831.5</ele>
        <time>2023-04-04T11:14:21.992Z</time>
      </trkpt>
      <trkpt lat="42.9487" lon="1.00016">
        <ele>834.9</ele>
        <time>2023-04-04T11:14:31.992Z</time>
      </trkpt>
      <trkpt lat="42.9487" lon="1.00017">
        <ele>835.5</ele>
        <time>2023-04-04T11:14:36.992Z</time>
      </trkpt>
      <trkpt lat="42.9487" lon="1.00016">
        <ele>835.6</ele>
        <time>2023-04-04T11:14:37.992Z</time>
      </trkpt>
      <trkpt lat="42.9487" lon="1.00016">
        <ele>835.7</ele>
        <time>2023-04-04T11:14:38.992Z</time>
      </trkpt>
      <trkpt lat="42.94871" lon="1.00014">
        <ele>835.9</ele>
        <time>2023-04-04T11:14:41.992Z</time>
      </trkpt>
      <trkpt lat="42.94871" lon="1.00014">
        <ele>836</ele>
        <time>2023-04-04T11:14:45.991Z</time>
      </trkpt>
      <trkpt lat="42.9487" lon="1.00014">
        <ele>836</ele>
        <time>2023-04-04T11:14:46.991Z</time>
      </trkpt>
      <trkpt lat="42.9487" lon="1.00014">
        <ele>836.1</ele>
        <time>2023-04-04T11:14:47.991Z</time>
      </trkpt>
      <trkpt lat="42.9487" lon="1.00015">
        <ele>836.1</ele>
        <time>2023-04-04T11:14:48.991Z</time>
      </trkpt>
      <trkpt lat="42.9487" lon="1.00015">
        <ele>836.1</ele>
        <time>2023-04-04T11:14:49.991Z</time>
      </trkpt>
      <trkpt lat="42.9487" lon="1.00015">
        <ele>836.3</ele>
        <time>2023-04-04T11:15:01.991Z</time>
      </trkpt>
      <trkpt lat="42.94867" lon="1.00027">
        <ele>836.5</ele>
        <time>2023-04-04T11:15:10.990Z</time>
      </trkpt>
      <trkpt lat="42.94862" lon="1.00038">
        <ele>837</ele>
        <time>2023-04-04T11:15:19.990Z</time>
      </trkpt>
      <trkpt lat="42.94862" lon="1.00043">
        <ele>837.1</ele>
        <time>2023-04-04T11:15:24.990Z</time>
      </trkpt>
      <trkpt lat="42.94862" lon="1.00043">
        <ele>837.2</ele>
        <time>2023-04-04T11:15:25.990Z</time>
      </trkpt>
      <trkpt lat="42.94862" lon="1.00044">
        <ele>837.2</ele>
        <time>2023-04-04T11:15:27.990Z</time>
      </trkpt>
      <trkpt lat="42.94862" lon="1.00044">
        <ele>837.3</ele>
        <time>2023-04-04T11:15:29.990Z</time>
      </trkpt>
      <trkpt lat="42.94862" lon="1.00044">
        <ele>837.3</ele>
        <time>2023-04-04T11:15:30.990Z</time>
      </trkpt>
      <trkpt lat="42.94862" lon="1.00044">
        <ele>837.3</ele>
        <time>2023-04-04T11:15:31.990Z</time>
      </trkpt>
      <trkpt lat="42.94862" lon="1.00044">
        <ele>837.3</ele>
        <time>2023-04-04T11:15:34.989Z</time>
      </trkpt>
      <trkpt lat="42.94863" lon="1.00043">
        <ele>837.3</ele>
        <time>2023-04-04T11:18:05.983Z</time>
      </trkpt>
      <trkpt lat="42.94863" lon="1.00043">
        <ele>837.3</ele>
        <time>2023-04-04T11:18:06.983Z</time>
      </trkpt>
      <trkpt lat="42.94864" lon="1.00042">
        <ele>837.3</ele>
        <time>2023-04-04T11:18:10.983Z</time>
      </trkpt>
      <trkpt lat="42.94863" lon="1.00042">
        <ele>837.3</ele>
        <time>2023-04-04T11:18:12.983Z</time>
      </trkpt>
      <trkpt lat="42.94863" lon="1.00043">
        <ele>837.3</ele>
        <time>2023-04-04T11:18:14.983Z</time>
      </trkpt>
      <trkpt lat="42.94862" lon="1.00043">
        <ele>837.3</ele>
        <time>2023-04-04T11:18:16.986Z</time>
      </trkpt>
      <trkpt lat="42.94861" lon="1.00044">
        <ele>837.3</ele>
        <time>2023-04-04T11:18:19.988Z</time>
      </trkpt>
      <trkpt lat="42.94859" lon="1.00049">
        <ele>837.4</ele>
        <time>2023-04-04T11:18:28.993Z</time>
      </trkpt>
      <trkpt lat="42.94859" lon="1.00049">
        <ele>837.5</ele>
        <time>2023-04-04T11:18:29.994Z</time>
      </trkpt>
      <trkpt lat="42.94857" lon="1.00049">
        <ele>837.9</ele>
        <time>2023-04-04T11:18:39.997Z</time>
      </trkpt>
      <trkpt lat="42.94857" lon="1.00047">
        <ele>838.1</ele>
        <time>2023-04-04T11:18:42.997Z</time>
      </trkpt>
      <trkpt lat="42.94858" lon="1.00048">
        <ele>839.4</ele>
        <time>2023-04-04T11:18:53.998Z</time>
      </trkpt>
      <trkpt lat="42.94858" lon="1.00047">
        <ele>839.4</ele>
        <time>2023-04-04T11:18:55.998Z</time>
      </trkpt>
      <trkpt lat="42.94859" lon="1.00046">
        <ele>839.4</ele>
        <time>2023-04-04T11:18:58.998Z</time>
      </trkpt>
      <trkpt lat="42.9486" lon="1.00045">
        <ele>839.2</ele>
        <time>2023-04-04T11:19:07.998Z</time>
      </trkpt>
      <trkpt lat="42.9486" lon="1.00047">
        <ele>839</ele>
        <time>2023-04-04T11:19:14.998Z</time>
      </trkpt>
      <trkpt lat="42.9486" lon="1.00047">
        <ele>839</ele>
        <time>2023-04-04T11:19:15.998Z</time>
      </trkpt>
      <trkpt lat="42.94859" lon="1.00048">
        <ele>839</ele>
        <time>2023-04-04T11:19:17.998Z</time>
      </trkpt>
      <trkpt lat="42.94859" lon="1.00047">
        <ele>838.9</ele>
        <time>2023-04-04T11:19:33.998Z</time>
      </trkpt>
      <trkpt lat="42.94859" lon="1.00047">
        <ele>838.9</ele>
        <time>2023-04-04T11:19:34.998Z</time>
      </trkpt>
      <trkpt lat="42.94859" lon="1.00047">
        <ele>838.9</ele>
        <time>2023-04-04T11:19:38.997Z</time>
      </trkpt>
      <trkpt lat="42.94859" lon="1.00047">
        <ele>838.9</ele>
        <time>2023-04-04T11:19:39.997Z</time>
      </trkpt>
      <trkpt lat="42.94859" lon="1.00049">
        <ele>838.9</ele>
        <time>2023-04-04T11:19:43.997Z</time>
      </trkpt>
      <trkpt lat="42.94859" lon="1.00049">
        <ele>838.9</ele>
        <time>2023-04-04T11:19:44.997Z</time>
      </trkpt>
      <trkpt lat="42.9486" lon="1.0005">
        <ele>838.9</ele>
        <time>2023-04-04T11:19:49.997Z</time>
      </trkpt>
      <trkpt lat="42.9486" lon="1.0005">
        <ele>838.9</ele>
        <time>2023-04-04T11:19:50.997Z</time>
      </trkpt>
      <trkpt lat="42.94861" lon="1.0005">
        <ele>838.8</ele>
        <time>2023-04-04T11:19:51.997Z</time>
      </trkpt>
      <trkpt lat="42.94861" lon="1.00049">
        <ele>838.7</ele>
        <time>2023-04-04T11:19:55.997Z</time>
      </trkpt>
      <trkpt lat="42.9486" lon="1.00048">
        <ele>838.6</ele>
        <time>2023-04-04T11:19:58.997Z</time>
      </trkpt>
      <trkpt lat="42.9486" lon="1.00048">
        <ele>838.6</ele>
        <time>2023-04-04T11:19:59.997Z</time>
      </trkpt>
      <trkpt lat="42.9486" lon="1.00049">
        <ele>838.3</ele>
        <time>2023-04-04T11:20:43.995Z</time>
      </trkpt>
      <trkpt lat="42.94861" lon="1.00047">
        <ele>838.2</ele>
        <time>2023-04-04T11:20:49.995Z</time>
      </trkpt>
      <trkpt lat="42.94861" lon="1.00047">
        <ele>838</ele>
        <time>2023-04-04T11:21:01.994Z</time>
      </trkpt>
      <trkpt lat="42.94861" lon="1.00048">
        <ele>837.9</ele>
        <time>2023-04-04T11:21:07.994Z</time>
      </trkpt>
      <trkpt lat="42.94862" lon="1.00049">
        <ele>837.9</ele>
        <time>2023-04-04T11:21:08.994Z</time>
      </trkpt>
      <trkpt lat="42.94862" lon="1.0005">
        <ele>837.6</ele>
        <time>2023-04-04T11:21:15.993Z</time>
      </trkpt>
      <trkpt lat="42.94863" lon="1.00052">
        <ele>837.4</ele>
        <time>2023-04-04T11:21:18.993Z</time>
      </trkpt>
      <trkpt lat="42.94864" lon="1.00053">
        <ele>837.1</ele>
        <time>2023-04-04T11:21:21.993Z</time>
      </trkpt>
      <trkpt lat="42.94865" lon="1.00053">
        <ele>837</ele>
        <time>2023-04-04T11:21:22.993Z</time>
      </trkpt>
      <trkpt lat="42.94865" lon="1.00053">
        <ele>836.7</ele>
        <time>2023-04-04T11:21:24.993Z</time>
      </trkpt>
      <trkpt lat="42.94863" lon="1.00053">
        <ele>836.5</ele>
        <time>2023-04-04T11:21:25.993Z</time>
      </trkpt>
      <trkpt lat="42.94862" lon="1.00052">
        <ele>836.4</ele>
        <time>2023-04-04T11:21:29.993Z</time>
      </trkpt>
      <trkpt lat="42.9486" lon="1.0005">
        <ele>836.4</ele>
        <time>2023-04-04T11:21:32.993Z</time>
      </trkpt>
      <trkpt lat="42.9486" lon="1.0005">
        <ele>836.6</ele>
        <time>2023-04-04T11:21:34.993Z</time>
      </trkpt>
      <trkpt lat="42.9486" lon="1.00049">
        <ele>836.8</ele>
        <time>2023-04-04T11:21:36.993Z</time>
      </trkpt>
      <trkpt lat="42.9486" lon="1.00048">
        <ele>837</ele>
        <time>2023-04-04T11:21:40.992Z</time>
      </trkpt>
      <trkpt lat="42.94861" lon="1.00047">
        <ele>837.6</ele>
        <time>2023-04-04T11:22:23.991Z</time>
      </trkpt>
      <trkpt lat="42.9486" lon="1.00034">
        <ele>837.7</ele>
        <time>2023-04-04T11:22:32.990Z</time>
      </trkpt>
      <trkpt lat="42.94858" lon="1.0004">
        <ele>838.2</ele>
        <time>2023-04-04T11:22:37.990Z</time>
      </trkpt>
      <trkpt lat="42.94859" lon="1.00039">
        <ele>838.3</ele>
        <time>2023-04-04T11:22:38.990Z</time>
      </trkpt>
      <trkpt lat="42.9486" lon="1.0004">
        <ele>838.5</ele>
        <time>2023-04-04T11:22:41.990Z</time>
      </trkpt>
      <trkpt lat="42.9486" lon="1.00038">
        <ele>839.5</ele>
        <time>2023-04-04T11:23:27.988Z</time>
      </trkpt>
      <trkpt lat="42.94863" lon="1.0004">
        <ele>839.4</ele>
        <time>2023-04-04T11:23:31.988Z</time>
      </trkpt>
      <trkpt lat="42.94863" lon="1.00041">
        <ele>839.3</ele>
        <time>2023-04-04T11:23:32.988Z</time>
      </trkpt>
      <trkpt lat="42.94863" lon="1.00042">
        <ele>839</ele>
        <time>2023-04-04T11:23:35.988Z</time>
      </trkpt>
      <trkpt lat="42.94863" lon="1.00043">
        <ele>838.9</ele>
        <time>2023-04-04T11:23:36.988Z</time>
      </trkpt>
      <trkpt lat="42.94863" lon="1.00043">
        <ele>838.9</ele>
        <time>2023-04-04T11:23:37.988Z</time>
      </trkpt>
      <trkpt lat="42.9486" lon="1.00041">
        <ele>836.8</ele>
        <time>2023-04-04T12:19:36.976Z</time>
      </trkpt>
      <trkpt lat="42.9486" lon="1.00041">
        <ele>836.8</ele>
        <time>2023-04-04T12:19:37.976Z</time>
      </trkpt>
      <trkpt lat="42.94859" lon="1.0004">
        <ele>839.3</ele>
        <time>2023-04-04T12:23:11.993Z</time>
      </trkpt>
      <trkpt lat="42.94859" lon="1.0004">
        <ele>839.3</ele>
        <time>2023-04-04T12:23:12.993Z</time>
      </trkpt>
      <trkpt lat="42.94859" lon="1.00041">
        <ele>839.3</ele>
        <time>2023-04-04T12:23:18.992Z</time>
      </trkpt>
      <trkpt lat="42.94859" lon="1.00042">
        <ele>839.3</ele>
        <time>2023-04-04T12:23:20.992Z</time>
      </trkpt>
      <trkpt lat="42.94859" lon="1.00042">
        <ele>839.4</ele>
        <time>2023-04-04T12:23:38.992Z</time>
      </trkpt>
      <trkpt lat="42.9486" lon="1.00041">
        <ele>839.4</ele>
        <time>2023-04-04T12:23:42.991Z</time>
      </trkpt>
      <trkpt lat="42.9486" lon="1.00042">
        <ele>839.4</ele>
        <time>2023-04-04T12:23:43.991Z</time>
      </trkpt>
      <trkpt lat="42.9486" lon="1.00042">
        <ele>839.4</ele>
        <time>2023-04-04T12:23:44.991Z</time>
      </trkpt>
      <trkpt lat="42.94859" lon="1.00042">
        <ele>839.4</ele>
        <time>2023-04-04T12:23:53.991Z</time>
      </trkpt>
      <trkpt lat="42.94862" lon="1.0003">
        <ele>839.3</ele>
        <time>2023-04-04T12:24:00.991Z</time>
      </trkpt>
      <trkpt lat="42.94862" lon="1.00017">
        <ele>839.3</ele>
        <time>2023-04-04T12:24:07.990Z</time>
      </trkpt>
      <trkpt lat="42.94852" lon="1.0002">
        <ele>840</ele>
        <time>2023-04-04T12:24:12.990Z</time>
      </trkpt>
      <trkpt lat="42.94842" lon="1.00029">
        <ele>842.2</ele>
        <time>2023-04-04T12:24:15.990Z</time>
      </trkpt>
      <trkpt lat="42.94833" lon="1.00038">
        <ele>846.3</ele>
        <time>2023-04-04T12:24:17.990Z</time>
      </trkpt>
      <trkpt lat="42.94824" lon="1.00048">
        <ele>851.6</ele>
        <time>2023-04-04T12:24:19.990Z</time>
      </trkpt>
      <trkpt lat="42.94814" lon="1.00059">
        <ele>855.3</ele>
        <time>2023-04-04T12:24:21.990Z</time>
      </trkpt>
      <trkpt lat="42.94805" lon="1.00072">
        <ele>857.7</ele>
        <time>2023-04-04T12:24:23.990Z</time>
      </trkpt>
      <trkpt lat="42.94796" lon="1.00083">
        <ele>859.6</ele>
        <time>2023-04-04T12:24:25.990Z</time>
      </trkpt>
      <trkpt lat="42.94786" lon="1.00095">
        <ele>861.4</ele>
        <time>2023-04-04T12:24:27.990Z</time>
      </trkpt>
      <trkpt lat="42.94777" lon="1.00104">
        <ele>863.1</ele>
        <time>2023-04-04T12:24:29.989Z</time>
      </trkpt>
      <trkpt lat="42.9477" lon="1.00112">
        <ele>864.7</ele>
        <time>2023-04-04T12:24:31.989Z</time>
      </trkpt>
      <trkpt lat="42.94759" lon="1.00122">
        <ele>867.3</ele>
        <time>2023-04-04T12:24:34.989Z</time>
      </trkpt>
      <trkpt lat="42.94751" lon="1.0013">
        <ele>869.2</ele>
        <time>2023-04-04T12:24:36.989Z</time>
      </trkpt>
      <trkpt lat="42.94739" lon="1.00139">
        <ele>870.6</ele>
        <time>2023-04-04T12:24:39.989Z</time>
      </trkpt>
      <trkpt lat="42.94731" lon="1.00145">
        <ele>870.7</ele>
        <time>2023-04-04T12:24:41.989Z</time>
      </trkpt>
      <trkpt lat="42.94723" lon="1.00155">
        <ele>870.7</ele>
        <time>2023-04-04T12:24:43.989Z</time>
      </trkpt>
      <trkpt lat="42.94715" lon="1.00163">
        <ele>870.6</ele>
        <time>2023-04-04T12:24:45.989Z</time>
      </trkpt>
      <trkpt lat="42.94708" lon="1.00171">
        <ele>870.5</ele>
        <time>2023-04-04T12:24:47.989Z</time>
      </trkpt>
      <trkpt lat="42.94699" lon="1.00178">
        <ele>870.4</ele>
        <time>2023-04-04T12:24:49.989Z</time>
      </trkpt>
      <trkpt lat="42.94689" lon="1.00185">
        <ele>870.3</ele>
        <time>2023-04-04T12:24:51.989Z</time>
      </trkpt>
      <trkpt lat="42.9468" lon="1.0019">
        <ele>870.2</ele>
        <time>2023-04-04T12:24:54.988Z</time>
      </trkpt>
      <trkpt lat="42.94669" lon="1.00195">
        <ele>870.3</ele>
        <time>2023-04-04T12:24:57.988Z</time>
      </trkpt>
      <trkpt lat="42.94659" lon="1.00201">
        <ele>870.3</ele>
        <time>2023-04-04T12:25:00.988Z</time>
      </trkpt>
      <trkpt lat="42.94648" lon="1.00209">
        <ele>870.1</ele>
        <time>2023-04-04T12:25:03.988Z</time>
      </trkpt>
      <trkpt lat="42.94638" lon="1.00214">
        <ele>869.8</ele>
        <time>2023-04-04T12:25:05.988Z</time>
      </trkpt>
      <trkpt lat="42.94625" lon="1.00219">
        <ele>869.3</ele>
        <time>2023-04-04T12:25:07.988Z</time>
      </trkpt>
      <trkpt lat="42.94616" lon="1.00225">
        <ele>868.8</ele>
        <time>2023-04-04T12:25:09.988Z</time>
      </trkpt>
      <trkpt lat="42.94605" lon="1.00232">
        <ele>868</ele>
        <time>2023-04-04T12:25:12.988Z</time>
      </trkpt>
      <trkpt lat="42.94596" lon="1.00236">
        <ele>867.6</ele>
        <time>2023-04-04T12:25:14.988Z</time>
      </trkpt>
      <trkpt lat="42.94587" lon="1.0024">
        <ele>867.3</ele>
        <time>2023-04-04T12:25:16.988Z</time>
      </trkpt>
      <trkpt lat="42.94577" lon="1.00245">
        <ele>867.1</ele>
        <time>2023-04-04T12:25:18.988Z</time>
      </trkpt>
      <trkpt lat="42.94568" lon="1.0025">
        <ele>866.7</ele>
        <time>2023-04-04T12:25:20.987Z</time>
      </trkpt>
      <trkpt lat="42.94558" lon="1.00256">
        <ele>866.2</ele>
        <time>2023-04-04T12:25:22.987Z</time>
      </trkpt>
      <trkpt lat="42.9455" lon="1.00264">
        <ele>865.7</ele>
        <time>2023-04-04T12:25:24.987Z</time>
      </trkpt>
      <trkpt lat="42.94541" lon="1.00271">
        <ele>865.1</ele>
        <time>2023-04-04T12:25:27.987Z</time>
      </trkpt>
      <trkpt lat="42.94532" lon="1.00276">
        <ele>864.4</ele>
        <time>2023-04-04T12:25:31.987Z</time>
      </trkpt>
      <trkpt lat="42.94522" lon="1.00285">
        <ele>864.1</ele>
        <time>2023-04-04T12:25:35.987Z</time>
      </trkpt>
      <trkpt lat="42.94512" lon="1.00293">
        <ele>864.2</ele>
        <time>2023-04-04T12:25:38.987Z</time>
      </trkpt>
      <trkpt lat="42.94503" lon="1.00299">
        <ele>864.4</ele>
        <time>2023-04-04T12:25:41.987Z</time>
      </trkpt>
      <trkpt lat="42.94493" lon="1.00307">
        <ele>864.9</ele>
        <time>2023-04-04T12:25:45.986Z</time>
      </trkpt>
      <trkpt lat="42.94485" lon="1.00313">
        <ele>865.2</ele>
        <time>2023-04-04T12:25:48.986Z</time>
      </trkpt>
      <trkpt lat="42.94476" lon="1.00322">
        <ele>865.8</ele>
        <time>2023-04-04T12:25:52.986Z</time>
      </trkpt>
      <trkpt lat="42.94467" lon="1.00329">
        <ele>866.2</ele>
        <time>2023-04-04T12:25:55.986Z</time>
      </trkpt>
      <trkpt lat="42.94458" lon="1.00335">
        <ele>866.6</ele>
        <time>2023-04-04T12:25:58.986Z</time>
      </trkpt>
      <trkpt lat="42.94448" lon="1.00343">
        <ele>866.8</ele>
        <time>2023-04-04T12:26:01.986Z</time>
      </trkpt>
      <trkpt lat="42.94438" lon="1.00348">
        <ele>866.9</ele>
        <time>2023-04-04T12:26:04.986Z</time>
      </trkpt>
      <trkpt lat="42.94427" lon="1.00354">
        <ele>866.8</ele>
        <time>2023-04-04T12:26:07.986Z</time>
      </trkpt>
      <trkpt lat="42.94417" lon="1.00356">
        <ele>866.5</ele>
        <time>2023-04-04T12:26:09.985Z</time>
      </trkpt>
      <trkpt lat="42.94405" lon="1.00362">
        <ele>866</ele>
        <time>2023-04-04T12:26:12.985Z</time>
      </trkpt>
      <trkpt lat="42.94396" lon="1.00364">
        <ele>865.4</ele>
        <time>2023-04-04T12:26:14.985Z</time>
      </trkpt>
      <trkpt lat="42.94384" lon="1.00369">
        <ele>864</ele>
        <time>2023-04-04T12:26:17.985Z</time>
      </trkpt>
      <trkpt lat="42.94374" lon="1.00375">
        <ele>862.1</ele>
        <time>2023-04-04T12:26:21.985Z</time>
      </trkpt>
      <trkpt lat="42.94363" lon="1.0038">
        <ele>860.7</ele>
        <time>2023-04-04T12:26:24.985Z</time>
      </trkpt>
      <trkpt lat="42.94352" lon="1.00384">
        <ele>859.2</ele>
        <time>2023-04-04T12:26:27.985Z</time>
      </trkpt>
      <trkpt lat="42.94341" lon="1.00386">
        <ele>858</ele>
        <time>2023-04-04T12:26:29.985Z</time>
      </trkpt>
      <trkpt lat="42.94331" lon="1.00387">
        <ele>856.3</ele>
        <time>2023-04-04T12:26:31.985Z</time>
      </trkpt>
      <trkpt lat="42.94319" lon="1.00388">
        <ele>853.3</ele>
        <time>2023-04-04T12:26:34.984Z</time>
      </trkpt>
      <trkpt lat="42.94309" lon="1.00387">
        <ele>850.8</ele>
        <time>2023-04-04T12:26:36.984Z</time>
      </trkpt>
      <trkpt lat="42.94296" lon="1.00383">
        <ele>845.9</ele>
        <time>2023-04-04T12:26:39.984Z</time>
      </trkpt>
      <trkpt lat="42.94285" lon="1.00385">
        <ele>842.1</ele>
        <time>2023-04-04T12:26:41.984Z</time>
      </trkpt>
      <trkpt lat="42.94276" lon="1.00384">
        <ele>838.7</ele>
        <time>2023-04-04T12:26:43.984Z</time>
      </trkpt>
      <trkpt lat="42.94264" lon="1.00384">
        <ele>835.5</ele>
        <time>2023-04-04T12:26:45.984Z</time>
      </trkpt>
      <trkpt lat="42.94253" lon="1.00385">
        <ele>832.3</ele>
        <time>2023-04-04T12:26:47.984Z</time>
      </trkpt>
      <trkpt lat="42.9424" lon="1.00387">
        <ele>829.9</ele>
        <time>2023-04-04T12:26:49.984Z</time>
      </trkpt>
      <trkpt lat="42.94227" lon="1.00387">
        <ele>828.1</ele>
        <time>2023-04-04T12:26:51.984Z</time>
      </trkpt>
      <trkpt lat="42.94216" lon="1.00385">
        <ele>826.2</ele>
        <time>2023-04-04T12:26:53.984Z</time>
      </trkpt>
      <trkpt lat="42.94205" lon="1.00382">
        <ele>823.9</ele>
        <time>2023-04-04T12:26:55.984Z</time>
      </trkpt>
      <trkpt lat="42.94192" lon="1.00381">
        <ele>821.4</ele>
        <time>2023-04-04T12:26:57.984Z</time>
      </trkpt>
      <trkpt lat="42.94178" lon="1.00382">
        <ele>819.2</ele>
        <time>2023-04-04T12:26:59.983Z</time>
      </trkpt>
      <trkpt lat="42.94168" lon="1.00383">
        <ele>817.7</ele>
        <time>2023-04-04T12:27:01.983Z</time>
      </trkpt>
      <trkpt lat="42.94157" lon="1.00386">
        <ele>816.5</ele>
        <time>2023-04-04T12:27:04.983Z</time>
      </trkpt>
      <trkpt lat="42.94147" lon="1.00386">
        <ele>816.3</ele>
        <time>2023-04-04T12:27:07.983Z</time>
      </trkpt>
      <trkpt lat="42.94136" lon="1.00384">
        <ele>815.9</ele>
        <time>2023-04-04T12:27:10.983Z</time>
      </trkpt>
      <trkpt lat="42.94124" lon="1.00384">
        <ele>815.5</ele>
        <time>2023-04-04T12:27:13.983Z</time>
      </trkpt>
      <trkpt lat="42.94111" lon="1.00384">
        <ele>815</ele>
        <time>2023-04-04T12:27:16.983Z</time>
      </trkpt>
      <trkpt lat="42.94102" lon="1.00383">
        <ele>814.7</ele>
        <time>2023-04-04T12:27:18.983Z</time>
      </trkpt>
      <trkpt lat="42.94093" lon="1.00381">
        <ele>814.3</ele>
        <time>2023-04-04T12:27:20.983Z</time>
      </trkpt>
      <trkpt lat="42.94082" lon="1.00379">
        <ele>813.7</ele>
        <time>2023-04-04T12:27:22.983Z</time>
      </trkpt>
      <trkpt lat="42.94072" lon="1.00375">
        <ele>812.8</ele>
        <time>2023-04-04T12:27:24.982Z</time>
      </trkpt>
      <trkpt lat="42.94061" lon="1.00372">
        <ele>811.7</ele>
        <time>2023-04-04T12:27:26.982Z</time>
      </trkpt>
      <trkpt lat="42.94052" lon="1.00371">
        <ele>810.7</ele>
        <time>2023-04-04T12:27:28.982Z</time>
      </trkpt>
      <trkpt lat="42.94039" lon="1.00371">
        <ele>809.7</ele>
        <time>2023-04-04T12:27:31.982Z</time>
      </trkpt>
      <trkpt lat="42.94028" lon="1.00371">
        <ele>809.2</ele>
        <time>2023-04-04T12:27:34.982Z</time>
      </trkpt>
      <trkpt lat="42.94017" lon="1.00371">
        <ele>808.9</ele>
        <time>2023-04-04T12:27:37.982Z</time>
      </trkpt>
      <trkpt lat="42.94007" lon="1.00369">
        <ele>808.8</ele>
        <time>2023-04-04T12:27:40.982Z</time>
      </trkpt>
      <trkpt lat="42.93993" lon="1.00367">
        <ele>808.7</ele>
        <time>2023-04-04T12:27:43.982Z</time>
      </trkpt>
      <trkpt lat="42.93982" lon="1.00366">
        <ele>808.4</ele>
        <time>2023-04-04T12:27:45.982Z</time>
      </trkpt>
      <trkpt lat="42.93971" lon="1.00367">
        <ele>808</ele>
        <time>2023-04-04T12:27:47.982Z</time>
      </trkpt>
      <trkpt lat="42.9396" lon="1.0037">
        <ele>807.7</ele>
        <time>2023-04-04T12:27:50.981Z</time>
      </trkpt>
      <trkpt lat="42.93951" lon="1.00372">
        <ele>807.7</ele>
        <time>2023-04-04T12:27:53.981Z</time>
      </trkpt>
      <trkpt lat="42.93942" lon="1.00374">
        <ele>807.8</ele>
        <time>2023-04-04T12:27:56.981Z</time>
      </trkpt>
      <trkpt lat="42.93932" lon="1.00375">
        <ele>807.9</ele>
        <time>2023-04-04T12:27:59.981Z</time>
      </trkpt>
      <trkpt lat="42.9392" lon="1.00378">
        <ele>808.1</ele>
        <time>2023-04-04T12:28:02.981Z</time>
      </trkpt>
      <trkpt lat="42.93907" lon="1.00381">
        <ele>808.3</ele>
        <time>2023-04-04T12:28:05.981Z</time>
      </trkpt>
      <trkpt lat="42.93894" lon="1.00385">
        <ele>808.5</ele>
        <time>2023-04-04T12:28:08.981Z</time>
      </trkpt>
      <trkpt lat="42.93885" lon="1.00388">
        <ele>808.7</ele>
        <time>2023-04-04T12:28:10.981Z</time>
      </trkpt>
      <trkpt lat="42.93875" lon="1.00392">
        <ele>809</ele>
        <time>2023-04-04T12:28:12.980Z</time>
      </trkpt>
      <trkpt lat="42.93864" lon="1.00396">
        <ele>809.3</ele>
        <time>2023-04-04T12:28:14.980Z</time>
      </trkpt>
      <trkpt lat="42.93852" lon="1.004">
        <ele>809.6</ele>
        <time>2023-04-04T12:28:16.980Z</time>
      </trkpt>
      <trkpt lat="42.93842" lon="1.00405">
        <ele>810</ele>
        <time>2023-04-04T12:28:18.980Z</time>
      </trkpt>
      <trkpt lat="42.9383" lon="1.00411">
        <ele>810.5</ele>
        <time>2023-04-04T12:28:20.980Z</time>
      </trkpt>
      <trkpt lat="42.93817" lon="1.00417">
        <ele>811.2</ele>
        <time>2023-04-04T12:28:22.980Z</time>
      </trkpt>
      <trkpt lat="42.93808" lon="1.00422">
        <ele>812</ele>
        <time>2023-04-04T12:28:24.980Z</time>
      </trkpt>
      <trkpt lat="42.93807" lon="1.00421">
        <ele>812.6</ele>
        <time>2023-04-04T12:28:26.980Z</time>
      </trkpt>
      <trkpt lat="42.93807" lon="1.00419">
        <ele>813.4</ele>
        <time>2023-04-04T12:28:31.980Z</time>
      </trkpt>
      <trkpt lat="42.93796" lon="1.00423">
        <ele>813.5</ele>
        <time>2023-04-04T12:28:36.980Z</time>
      </trkpt>
      <trkpt lat="42.93786" lon="1.00426">
        <ele>813.5</ele>
        <time>2023-04-04T12:28:39.979Z</time>
      </trkpt>
      <trkpt lat="42.93775" lon="1.00429">
        <ele>813.4</ele>
        <time>2023-04-04T12:28:41.979Z</time>
      </trkpt>
      <trkpt lat="42.93762" lon="1.0043">
        <ele>813.2</ele>
        <time>2023-04-04T12:28:43.979Z</time>
      </trkpt>
      <trkpt lat="42.93752" lon="1.00434">
        <ele>813</ele>
        <time>2023-04-04T12:28:45.979Z</time>
      </trkpt>
      <trkpt lat="42.93742" lon="1.00436">
        <ele>812.6</ele>
        <time>2023-04-04T12:28:47.979Z</time>
      </trkpt>
      <trkpt lat="42.93728" lon="1.00437">
        <ele>812</ele>
        <time>2023-04-04T12:28:49.979Z</time>
      </trkpt>
      <trkpt lat="42.93717" lon="1.00439">
        <ele>811.3</ele>
        <time>2023-04-04T12:28:51.979Z</time>
      </trkpt>
      <trkpt lat="42.93708" lon="1.00441">
        <ele>810.3</ele>
        <time>2023-04-04T12:28:53.979Z</time>
      </trkpt>
      <trkpt lat="42.93697" lon="1.00448">
        <ele>809.6</ele>
        <time>2023-04-04T12:28:55.979Z</time>
      </trkpt>
      <trkpt lat="42.93688" lon="1.00448">
        <ele>808.8</ele>
        <time>2023-04-04T12:28:57.979Z</time>
      </trkpt>
      <trkpt lat="42.93674" lon="1.00451">
        <ele>807.6</ele>
        <time>2023-04-04T12:29:00.979Z</time>
      </trkpt>
      <trkpt lat="42.93661" lon="1.00449">
        <ele>806.3</ele>
        <time>2023-04-04T12:29:02.978Z</time>
      </trkpt>
      <trkpt lat="42.93647" lon="1.0045">
        <ele>804.7</ele>
        <time>2023-04-04T12:29:04.978Z</time>
      </trkpt>
      <trkpt lat="42.93632" lon="1.00456">
        <ele>803.4</ele>
        <time>2023-04-04T12:29:06.978Z</time>
      </trkpt>
      <trkpt lat="42.93618" lon="1.00462">
        <ele>802.4</ele>
        <time>2023-04-04T12:29:08.978Z</time>
      </trkpt>
      <trkpt lat="42.93607" lon="1.00472">
        <ele>801.8</ele>
        <time>2023-04-04T12:29:10.978Z</time>
      </trkpt>
      <trkpt lat="42.936" lon="1.00479">
        <ele>801.6</ele>
        <time>2023-04-04T12:29:12.978Z</time>
      </trkpt>
      <trkpt lat="42.9359" lon="1.00486">
        <ele>801.3</ele>
        <time>2023-04-04T12:29:16.978Z</time>
      </trkpt>
      <trkpt lat="42.93583" lon="1.00495">
        <ele>801.2</ele>
        <time>2023-04-04T12:29:19.978Z</time>
      </trkpt>
      <trkpt lat="42.93577" lon="1.00506">
        <ele>801.2</ele>
        <time>2023-04-04T12:29:22.978Z</time>
      </trkpt>
      <trkpt lat="42.93574" lon="1.00517">
        <ele>801.3</ele>
        <time>2023-04-04T12:29:26.978Z</time>
      </trkpt>
      <trkpt lat="42.93569" lon="1.00529">
        <ele>801.4</ele>
        <time>2023-04-04T12:29:30.977Z</time>
      </trkpt>
      <trkpt lat="42.93563" lon="1.00539">
        <ele>801.5</ele>
        <time>2023-04-04T12:29:36.977Z</time>
      </trkpt>
      <trkpt lat="42.93561" lon="1.0054">
        <ele>801.4</ele>
        <time>2023-04-04T12:29:39.977Z</time>
      </trkpt>
      <trkpt lat="42.9356" lon="1.00541">
        <ele>801.4</ele>
        <time>2023-04-04T12:29:57.976Z</time>
      </trkpt>
      <trkpt lat="42.9356" lon="1.00541">
        <ele>801.4</ele>
        <time>2023-04-04T12:29:58.976Z</time>
      </trkpt>
      <trkpt lat="42.93559" lon="1.00542">
        <ele>801.3</ele>
        <time>2023-04-04T12:30:07.976Z</time>
      </trkpt>
      <trkpt lat="42.93547" lon="1.00545">
        <ele>801.2</ele>
        <time>2023-04-04T12:30:13.976Z</time>
      </trkpt>
      <trkpt lat="42.93535" lon="1.00541">
        <ele>800.8</ele>
        <time>2023-04-04T12:30:15.976Z</time>
      </trkpt>
      <trkpt lat="42.93521" lon="1.00534">
        <ele>800</ele>
        <time>2023-04-04T12:30:17.975Z</time>
      </trkpt>
      <trkpt lat="42.93511" lon="1.00526">
        <ele>799.1</ele>
        <time>2023-04-04T12:30:18.975Z</time>
      </trkpt>
      <trkpt lat="42.93494" lon="1.00519">
        <ele>795.3</ele>
        <time>2023-04-04T12:30:20.975Z</time>
      </trkpt>
      <trkpt lat="42.93479" lon="1.00508">
        <ele>788.6</ele>
        <time>2023-04-04T12:30:22.975Z</time>
      </trkpt>
      <trkpt lat="42.9347" lon="1.00504">
        <ele>784.8</ele>
        <time>2023-04-04T12:30:23.975Z</time>
      </trkpt>
      <trkpt lat="42.93457" lon="1.00498">
        <ele>778.6</ele>
        <time>2023-04-04T12:30:25.975Z</time>
      </trkpt>
      <trkpt lat="42.93446" lon="1.00484">
        <ele>773.5</ele>
        <time>2023-04-04T12:30:28.975Z</time>
      </trkpt>
      <trkpt lat="42.93433" lon="1.0048">
        <ele>770.5</ele>
        <time>2023-04-04T12:30:30.975Z</time>
      </trkpt>
      <trkpt lat="42.93423" lon="1.00475">
        <ele>768.8</ele>
        <time>2023-04-04T12:30:31.975Z</time>
      </trkpt>
      <trkpt lat="42.93405" lon="1.00469">
        <ele>764.9</ele>
        <time>2023-04-04T12:30:33.975Z</time>
      </trkpt>
      <trkpt lat="42.93387" lon="1.00467">
        <ele>760.6</ele>
        <time>2023-04-04T12:30:35.975Z</time>
      </trkpt>
      <trkpt lat="42.93377" lon="1.00465">
        <ele>758.3</ele>
        <time>2023-04-04T12:30:36.975Z</time>
      </trkpt>
      <trkpt lat="42.93366" lon="1.00465">
        <ele>755.8</ele>
        <time>2023-04-04T12:30:37.975Z</time>
      </trkpt>
      <trkpt lat="42.9335" lon="1.00463">
        <ele>751.1</ele>
        <time>2023-04-04T12:30:39.975Z</time>
      </trkpt>
      <trkpt lat="42.93333" lon="1.00467">
        <ele>746.9</ele>
        <time>2023-04-04T12:30:41.974Z</time>
      </trkpt>
      <trkpt lat="42.93322" lon="1.00474">
        <ele>744</ele>
        <time>2023-04-04T12:30:43.974Z</time>
      </trkpt>
      <trkpt lat="42.93312" lon="1.00478">
        <ele>741.9</ele>
        <time>2023-04-04T12:30:45.974Z</time>
      </trkpt>
      <trkpt lat="42.93295" lon="1.00483">
        <ele>739.6</ele>
        <time>2023-04-04T12:30:47.974Z</time>
      </trkpt>
      <trkpt lat="42.93286" lon="1.00485">
        <ele>738.3</ele>
        <time>2023-04-04T12:30:48.974Z</time>
      </trkpt>
      <trkpt lat="42.93277" lon="1.00489">
        <ele>736.9</ele>
        <time>2023-04-04T12:30:49.974Z</time>
      </trkpt>
      <trkpt lat="42.93268" lon="1.00502">
        <ele>733.4</ele>
        <time>2023-04-04T12:30:52.974Z</time>
      </trkpt>
      <trkpt lat="42.9327" lon="1.00515">
        <ele>731.8</ele>
        <time>2023-04-04T12:30:56.974Z</time>
      </trkpt>
      <trkpt lat="42.93275" lon="1.0052">
        <ele>731.5</ele>
        <time>2023-04-04T12:31:03.974Z</time>
      </trkpt>
      <trkpt lat="42.93274" lon="1.00516">
        <ele>731.6</ele>
        <time>2023-04-04T12:31:10.973Z</time>
      </trkpt>
      <trkpt lat="42.93279" lon="1.00527">
        <ele>731.7</ele>
        <time>2023-04-04T12:31:16.973Z</time>
      </trkpt>
      <trkpt lat="42.93281" lon="1.0054">
        <ele>731.9</ele>
        <time>2023-04-04T12:31:19.973Z</time>
      </trkpt>
      <trkpt lat="42.93281" lon="1.00557">
        <ele>732.2</ele>
        <time>2023-04-04T12:31:22.973Z</time>
      </trkpt>
      <trkpt lat="42.9328" lon="1.00573">
        <ele>732.4</ele>
        <time>2023-04-04T12:31:24.973Z</time>
      </trkpt>
      <trkpt lat="42.93279" lon="1.00587">
        <ele>732.6</ele>
        <time>2023-04-04T12:31:26.973Z</time>
      </trkpt>
      <trkpt lat="42.93282" lon="1.00604">
        <ele>733.1</ele>
        <time>2023-04-04T12:31:29.973Z</time>
      </trkpt>
      <trkpt lat="42.93277" lon="1.00618">
        <ele>733.4</ele>
        <time>2023-04-04T12:31:31.972Z</time>
      </trkpt>
      <trkpt lat="42.93268" lon="1.00631">
        <ele>733.4</ele>
        <time>2023-04-04T12:31:33.972Z</time>
      </trkpt>
      <trkpt lat="42.93261" lon="1.00648">
        <ele>733.3</ele>
        <time>2023-04-04T12:31:35.972Z</time>
      </trkpt>
      <trkpt lat="42.93254" lon="1.00663">
        <ele>733.1</ele>
        <time>2023-04-04T12:31:37.972Z</time>
      </trkpt>
      <trkpt lat="42.93248" lon="1.00676">
        <ele>732.7</ele>
        <time>2023-04-04T12:31:39.972Z</time>
      </trkpt>
      <trkpt lat="42.93242" lon="1.00686">
        <ele>732.1</ele>
        <time>2023-04-04T12:31:41.972Z</time>
      </trkpt>
      <trkpt lat="42.93236" lon="1.00699">
        <ele>731</ele>
        <time>2023-04-04T12:31:44.972Z</time>
      </trkpt>
      <trkpt lat="42.93231" lon="1.00711">
        <ele>729.5</ele>
        <time>2023-04-04T12:31:48.972Z</time>
      </trkpt>
      <trkpt lat="42.93231" lon="1.00711">
        <ele>728.9</ele>
        <time>2023-04-04T12:31:50.972Z</time>
      </trkpt>
      <trkpt lat="42.9323" lon="1.00709">
        <ele>727.6</ele>
        <time>2023-04-04T12:32:00.971Z</time>
      </trkpt>
      <trkpt lat="42.9323" lon="1.00709">
        <ele>727.5</ele>
        <time>2023-04-04T12:32:01.971Z</time>
      </trkpt>
      <trkpt lat="42.9323" lon="1.00709">
        <ele>727.5</ele>
        <time>2023-04-04T12:32:02.971Z</time>
      </trkpt>
      <trkpt lat="42.9323" lon="1.00709">
        <ele>727.4</ele>
        <time>2023-04-04T12:32:03.971Z</time>
      </trkpt>
      <trkpt lat="42.93229" lon="1.00709">
        <ele>727.1</ele>
        <time>2023-04-04T12:32:10.971Z</time>
      </trkpt>
      <trkpt lat="42.9322" lon="1.00715">
        <ele>726.9</ele>
        <time>2023-04-04T12:32:21.970Z</time>
      </trkpt>
      <trkpt lat="42.93208" lon="1.00717">
        <ele>726.5</ele>
        <time>2023-04-04T12:32:23.970Z</time>
      </trkpt>
      <trkpt lat="42.93195" lon="1.00719">
        <ele>725.6</ele>
        <time>2023-04-04T12:32:25.970Z</time>
      </trkpt>
      <trkpt lat="42.93181" lon="1.00721">
        <ele>724</ele>
        <time>2023-04-04T12:32:27.970Z</time>
      </trkpt>
      <trkpt lat="42.93166" lon="1.00718">
        <ele>721.1</ele>
        <time>2023-04-04T12:32:29.970Z</time>
      </trkpt>
      <trkpt lat="42.93152" lon="1.00714">
        <ele>716.8</ele>
        <time>2023-04-04T12:32:31.970Z</time>
      </trkpt>
      <trkpt lat="42.93139" lon="1.00724">
        <ele>711.5</ele>
        <time>2023-04-04T12:32:35.970Z</time>
      </trkpt>
      <trkpt lat="42.93131" lon="1.0073">
        <ele>710.8</ele>
        <time>2023-04-04T12:32:36.970Z</time>
      </trkpt>
      <trkpt lat="42.93116" lon="1.00737">
        <ele>709.5</ele>
        <time>2023-04-04T12:32:38.970Z</time>
      </trkpt>
      <trkpt lat="42.93107" lon="1.00741">
        <ele>708.9</ele>
        <time>2023-04-04T12:32:39.970Z</time>
      </trkpt>
      <trkpt lat="42.93092" lon="1.00746">
        <ele>707.6</ele>
        <time>2023-04-04T12:32:41.970Z</time>
      </trkpt>
      <trkpt lat="42.93074" lon="1.00744">
        <ele>706</ele>
        <time>2023-04-04T12:32:43.970Z</time>
      </trkpt>
      <trkpt lat="42.93057" lon="1.00747">
        <ele>703.5</ele>
        <time>2023-04-04T12:32:45.969Z</time>
      </trkpt>
      <trkpt lat="42.93042" lon="1.00752">
        <ele>700.9</ele>
        <time>2023-04-04T12:32:47.969Z</time>
      </trkpt>
      <trkpt lat="42.93026" lon="1.00755">
        <ele>698.3</ele>
        <time>2023-04-04T12:32:49.969Z</time>
      </trkpt>
      <trkpt lat="42.93012" lon="1.00753">
        <ele>695.6</ele>
        <time>2023-04-04T12:32:51.969Z</time>
      </trkpt>
      <trkpt lat="42.93003" lon="1.00748">
        <ele>693.9</ele>
        <time>2023-04-04T12:32:52.969Z</time>
      </trkpt>
      <trkpt lat="42.92986" lon="1.00739">
        <ele>689.2</ele>
        <time>2023-04-04T12:32:54.969Z</time>
      </trkpt>
      <trkpt lat="42.9297" lon="1.00731">
        <ele>683.2</ele>
        <time>2023-04-04T12:32:56.969Z</time>
      </trkpt>
      <trkpt lat="42.92961" lon="1.00724">
        <ele>679.8</ele>
        <time>2023-04-04T12:32:57.969Z</time>
      </trkpt>
      <trkpt lat="42.92945" lon="1.00714">
        <ele>672.8</ele>
        <time>2023-04-04T12:32:59.969Z</time>
      </trkpt>
      <trkpt lat="42.92931" lon="1.00704">
        <ele>666.5</ele>
        <time>2023-04-04T12:33:01.969Z</time>
      </trkpt>
      <trkpt lat="42.92919" lon="1.00692">
        <ele>660.7</ele>
        <time>2023-04-04T12:33:03.969Z</time>
      </trkpt>
      <trkpt lat="42.92912" lon="1.00684">
        <ele>657.8</ele>
        <time>2023-04-04T12:33:04.969Z</time>
      </trkpt>
      <trkpt lat="42.929" lon="1.00672">
        <ele>652.3</ele>
        <time>2023-04-04T12:33:06.969Z</time>
      </trkpt>
      <trkpt lat="42.92888" lon="1.00665">
        <ele>647.5</ele>
        <time>2023-04-04T12:33:08.969Z</time>
      </trkpt>
      <trkpt lat="42.92877" lon="1.00656">
        <ele>643.8</ele>
        <time>2023-04-04T12:33:10.968Z</time>
      </trkpt>
      <trkpt lat="42.92868" lon="1.00648">
        <ele>640.3</ele>
        <time>2023-04-04T12:33:12.968Z</time>
      </trkpt>
      <trkpt lat="42.92858" lon="1.00636">
        <ele>636.4</ele>
        <time>2023-04-04T12:33:14.968Z</time>
      </trkpt>
      <trkpt lat="42.92847" lon="1.00625">
        <ele>632.2</ele>
        <time>2023-04-04T12:33:16.968Z</time>
      </trkpt>
      <trkpt lat="42.92836" lon="1.00615">
        <ele>628</ele>
        <time>2023-04-04T12:33:18.968Z</time>
      </trkpt>
      <trkpt lat="42.92825" lon="1.00609">
        <ele>623.9</ele>
        <time>2023-04-04T12:33:20.968Z</time>
      </trkpt>
      <trkpt lat="42.92815" lon="1.00604">
        <ele>620.8</ele>
        <time>2023-04-04T12:33:22.968Z</time>
      </trkpt>
      <trkpt lat="42.92805" lon="1.00606">
        <ele>618.6</ele>
        <time>2023-04-04T12:33:24.968Z</time>
      </trkpt>
      <trkpt lat="42.92797" lon="1.00594">
        <ele>616.3</ele>
        <time>2023-04-04T12:33:26.968Z</time>
      </trkpt>
      <trkpt lat="42.92791" lon="1.00583">
        <ele>614</ele>
        <time>2023-04-04T12:33:28.968Z</time>
      </trkpt>
      <trkpt lat="42.92792" lon="1.00561">
        <ele>611.8</ele>
        <time>2023-04-04T12:33:31.968Z</time>
      </trkpt>
      <trkpt lat="42.92791" lon="1.00549">
        <ele>610.9</ele>
        <time>2023-04-04T12:33:33.968Z</time>
      </trkpt>
      <trkpt lat="42.92799" lon="1.00536">
        <ele>610.5</ele>
        <time>2023-04-04T12:33:35.967Z</time>
      </trkpt>
      <trkpt lat="42.92806" lon="1.00528">
        <ele>610.7</ele>
        <time>2023-04-04T12:33:37.967Z</time>
      </trkpt>
      <trkpt lat="42.92816" lon="1.00518">
        <ele>611.5</ele>
        <time>2023-04-04T12:33:40.971Z</time>
      </trkpt>
      <trkpt lat="42.92827" lon="1.00521">
        <ele>613.2</ele>
        <time>2023-04-04T12:33:44.978Z</time>
      </trkpt>
      <trkpt lat="42.92833" lon="1.00506">
        <ele>615.4</ele>
        <time>2023-04-04T12:33:48.983Z</time>
      </trkpt>
      <trkpt lat="42.92833" lon="1.00494">
        <ele>616.7</ele>
        <time>2023-04-04T12:33:50.985Z</time>
      </trkpt>
      <trkpt lat="42.9283" lon="1.00482">
        <ele>618.6</ele>
        <time>2023-04-04T12:33:53.988Z</time>
      </trkpt>
      <trkpt lat="42.92826" lon="1.00469">
        <ele>620.2</ele>
        <time>2023-04-04T12:33:56.990Z</time>
      </trkpt>
      <trkpt lat="42.92821" lon="1.00459">
        <ele>621</ele>
        <time>2023-04-04T12:33:58.991Z</time>
      </trkpt>
      <trkpt lat="42.9281" lon="1.00439">
        <ele>621.5</ele>
        <time>2023-04-04T12:34:00.992Z</time>
      </trkpt>
      <trkpt lat="42.92801" lon="1.00426">
        <ele>621.5</ele>
        <time>2023-04-04T12:34:02.993Z</time>
      </trkpt>
      <trkpt lat="42.92793" lon="1.00417">
        <ele>621.2</ele>
        <time>2023-04-04T12:34:04.994Z</time>
      </trkpt>
      <trkpt lat="42.92787" lon="1.00407">
        <ele>620.6</ele>
        <time>2023-04-04T12:34:06.995Z</time>
      </trkpt>
      <trkpt lat="42.92778" lon="1.00396">
        <ele>619.5</ele>
        <time>2023-04-04T12:34:09.996Z</time>
      </trkpt>
      <trkpt lat="42.92769" lon="1.00387">
        <ele>618.2</ele>
        <time>2023-04-04T12:34:11.996Z</time>
      </trkpt>
      <trkpt lat="42.92761" lon="1.00378">
        <ele>616.5</ele>
        <time>2023-04-04T12:34:13.997Z</time>
      </trkpt>
      <trkpt lat="42.92751" lon="1.00365">
        <ele>614.4</ele>
        <time>2023-04-04T12:34:15.997Z</time>
      </trkpt>
      <trkpt lat="42.92736" lon="1.00347">
        <ele>611.7</ele>
        <time>2023-04-04T12:34:17.997Z</time>
      </trkpt>
      <trkpt lat="42.92727" lon="1.00334">
        <ele>609.9</ele>
        <time>2023-04-04T12:34:18.997Z</time>
      </trkpt>
      <trkpt lat="42.92719" lon="1.00327">
        <ele>607.8</ele>
        <time>2023-04-04T12:34:19.998Z</time>
      </trkpt>
      <trkpt lat="42.92704" lon="1.0032">
        <ele>602.4</ele>
        <time>2023-04-04T12:34:21.998Z</time>
      </trkpt>
      <trkpt lat="42.92696" lon="1.00305">
        <ele>596</ele>
        <time>2023-04-04T12:34:24.998Z</time>
      </trkpt>
      <trkpt lat="42.92695" lon="1.00292">
        <ele>593.9</ele>
        <time>2023-04-04T12:34:26.998Z</time>
      </trkpt>
      <trkpt lat="42.92691" lon="1.00271">
        <ele>592.5</ele>
        <time>2023-04-04T12:34:28.998Z</time>
      </trkpt>
      <trkpt lat="42.92693" lon="1.00252">
        <ele>591.9</ele>
        <time>2023-04-04T12:34:30.998Z</time>
      </trkpt>
      <trkpt lat="42.92696" lon="1.00233">
        <ele>591.4</ele>
        <time>2023-04-04T12:34:32.999Z</time>
      </trkpt>
      <trkpt lat="42.92684" lon="1.00222">
        <ele>589.8</ele>
        <time>2023-04-04T12:34:34.999Z</time>
      </trkpt>
      <trkpt lat="42.92679" lon="1.00219">
        <ele>583.1</ele>
        <time>2023-04-04T12:34:43.999Z</time>
      </trkpt>
      <trkpt lat="42.92679" lon="1.00219">
        <ele>582.8</ele>
        <time>2023-04-04T12:34:46.999Z</time>
      </trkpt>
      <trkpt lat="42.9268" lon="1.00219">
        <ele>582.7</ele>
        <time>2023-04-04T12:34:49.999Z</time>
      </trkpt>
      <trkpt lat="42.9268" lon="1.00217">
        <ele>582.6</ele>
        <time>2023-04-04T12:34:53.999Z</time>
      </trkpt>
      <trkpt lat="42.92681" lon="1.00216">
        <ele>582.5</ele>
        <time>2023-04-04T12:34:55.999Z</time>
      </trkpt>
      <trkpt lat="42.92681" lon="1.00215">
        <ele>582.5</ele>
        <time>2023-04-04T12:34:56.999Z</time>
      </trkpt>
      <trkpt lat="42.92681" lon="1.00215">
        <ele>582.5</ele>
        <time>2023-04-04T12:34:57.998Z</time>
      </trkpt>
      <trkpt lat="42.92679" lon="1.00215">
        <ele>582.4</ele>
        <time>2023-04-04T12:35:03.998Z</time>
      </trkpt>
      <trkpt lat="42.92679" lon="1.00215">
        <ele>582.4</ele>
        <time>2023-04-04T12:35:04.998Z</time>
      </trkpt>
      <trkpt lat="42.9268" lon="1.00215">
        <ele>582.3</ele>
        <time>2023-04-04T12:35:15.998Z</time>
      </trkpt>
      <trkpt lat="42.92677" lon="1.0023">
        <ele>582.3</ele>
        <time>2023-04-04T12:35:22.998Z</time>
      </trkpt>
      <trkpt lat="42.92674" lon="1.00245">
        <ele>582.4</ele>
        <time>2023-04-04T12:35:27.998Z</time>
      </trkpt>
      <trkpt lat="42.92672" lon="1.0026">
        <ele>582.5</ele>
        <time>2023-04-04T12:35:31.997Z</time>
      </trkpt>
      <trkpt lat="42.92669" lon="1.00275">
        <ele>582.4</ele>
        <time>2023-04-04T12:35:35.997Z</time>
      </trkpt>
      <trkpt lat="42.92667" lon="1.00288">
        <ele>582.3</ele>
        <time>2023-04-04T12:35:38.997Z</time>
      </trkpt>
      <trkpt lat="42.92666" lon="1.00302">
        <ele>582.1</ele>
        <time>2023-04-04T12:35:41.997Z</time>
      </trkpt>
      <trkpt lat="42.92664" lon="1.00315">
        <ele>581.8</ele>
        <time>2023-04-04T12:35:44.997Z</time>
      </trkpt>
      <trkpt lat="42.92665" lon="1.00331">
        <ele>581.4</ele>
        <time>2023-04-04T12:35:47.997Z</time>
      </trkpt>
      <trkpt lat="42.92665" lon="1.00348">
        <ele>580.9</ele>
        <time>2023-04-04T12:35:50.997Z</time>
      </trkpt>
      <trkpt lat="42.92665" lon="1.00365">
        <ele>580.1</ele>
        <time>2023-04-04T12:35:53.997Z</time>
      </trkpt>
      <trkpt lat="42.92668" lon="1.0038">
        <ele>579.1</ele>
        <time>2023-04-04T12:35:56.997Z</time>
      </trkpt>
      <trkpt lat="42.92669" lon="1.0039">
        <ele>577.8</ele>
        <time>2023-04-04T12:36:00.996Z</time>
      </trkpt>
      <trkpt lat="42.92669" lon="1.00389">
        <ele>577.6</ele>
        <time>2023-04-04T12:36:01.996Z</time>
      </trkpt>
      <trkpt lat="42.92668" lon="1.00388">
        <ele>576.8</ele>
        <time>2023-04-04T12:36:05.996Z</time>
      </trkpt>
      <trkpt lat="42.92668" lon="1.00388">
        <ele>576.6</ele>
        <time>2023-04-04T12:36:06.996Z</time>
      </trkpt>
      <trkpt lat="42.92668" lon="1.00388">
        <ele>576.5</ele>
        <time>2023-04-04T12:36:07.996Z</time>
      </trkpt>
      <trkpt lat="42.92668" lon="1.00389">
        <ele>576.2</ele>
        <time>2023-04-04T12:36:10.996Z</time>
      </trkpt>
      <trkpt lat="42.92668" lon="1.00389">
        <ele>576.1</ele>
        <time>2023-04-04T12:36:11.996Z</time>
      </trkpt>
      <trkpt lat="42.92668" lon="1.00389">
        <ele>576</ele>
        <time>2023-04-04T12:36:12.996Z</time>
      </trkpt>
      <trkpt lat="42.92669" lon="1.00402">
        <ele>575.6</ele>
        <time>2023-04-04T12:36:18.996Z</time>
      </trkpt>
      <trkpt lat="42.92672" lon="1.00414">
        <ele>575.3</ele>
        <time>2023-04-04T12:36:21.996Z</time>
      </trkpt>
      <trkpt lat="42.92678" lon="1.00426">
        <ele>575.3</ele>
        <time>2023-04-04T12:36:24.996Z</time>
      </trkpt>
      <trkpt lat="42.92688" lon="1.00433">
        <ele>575.8</ele>
        <time>2023-04-04T12:36:26.995Z</time>
      </trkpt>
      <trkpt lat="42.92689" lon="1.00448">
        <ele>576.8</ele>
        <time>2023-04-04T12:36:29.995Z</time>
      </trkpt>
      <trkpt lat="42.92686" lon="1.00461">
        <ele>577.5</ele>
        <time>2023-04-04T12:36:32.995Z</time>
      </trkpt>
      <trkpt lat="42.9268" lon="1.00474">
        <ele>577.7</ele>
        <time>2023-04-04T12:36:35.995Z</time>
      </trkpt>
      <trkpt lat="42.92676" lon="1.00488">
        <ele>577.7</ele>
        <time>2023-04-04T12:36:38.995Z</time>
      </trkpt>
      <trkpt lat="42.92672" lon="1.00503">
        <ele>577.5</ele>
        <time>2023-04-04T12:36:41.995Z</time>
      </trkpt>
      <trkpt lat="42.92667" lon="1.00518">
        <ele>577.4</ele>
        <time>2023-04-04T12:36:44.995Z</time>
      </trkpt>
      <trkpt lat="42.92663" lon="1.00533">
        <ele>577.3</ele>
        <time>2023-04-04T12:36:47.995Z</time>
      </trkpt>
      <trkpt lat="42.92657" lon="1.00543">
        <ele>577.2</ele>
        <time>2023-04-04T12:36:49.995Z</time>
      </trkpt>
      <trkpt lat="42.92655" lon="1.00556">
        <ele>577.1</ele>
        <time>2023-04-04T12:36:51.995Z</time>
      </trkpt>
      <trkpt lat="42.92652" lon="1.00569">
        <ele>577.1</ele>
        <time>2023-04-04T12:36:53.995Z</time>
      </trkpt>
      <trkpt lat="42.92653" lon="1.00583">
        <ele>577.2</ele>
        <time>2023-04-04T12:36:55.994Z</time>
      </trkpt>
      <trkpt lat="42.92654" lon="1.00598">
        <ele>577.3</ele>
        <time>2023-04-04T12:36:57.994Z</time>
      </trkpt>
      <trkpt lat="42.92656" lon="1.00612">
        <ele>577.5</ele>
        <time>2023-04-04T12:36:59.994Z</time>
      </trkpt>
      <trkpt lat="42.92658" lon="1.00627">
        <ele>577.7</ele>
        <time>2023-04-04T12:37:01.994Z</time>
      </trkpt>
      <trkpt lat="42.92655" lon="1.0064">
        <ele>577.8</ele>
        <time>2023-04-04T12:37:03.994Z</time>
      </trkpt>
      <trkpt lat="42.92657" lon="1.0066">
        <ele>577.9</ele>
        <time>2023-04-04T12:37:05.994Z</time>
      </trkpt>
      <trkpt lat="42.9266" lon="1.00676">
        <ele>578.1</ele>
        <time>2023-04-04T12:37:07.994Z</time>
      </trkpt>
      <trkpt lat="42.92662" lon="1.00693">
        <ele>578.2</ele>
        <time>2023-04-04T12:37:09.994Z</time>
      </trkpt>
      <trkpt lat="42.92664" lon="1.00707">
        <ele>578.3</ele>
        <time>2023-04-04T12:37:11.994Z</time>
      </trkpt>
      <trkpt lat="42.92667" lon="1.0072">
        <ele>578.5</ele>
        <time>2023-04-04T12:37:13.994Z</time>
      </trkpt>
      <trkpt lat="42.92672" lon="1.00734">
        <ele>578.7</ele>
        <time>2023-04-04T12:37:15.994Z</time>
      </trkpt>
      <trkpt lat="42.92675" lon="1.0075">
        <ele>579</ele>
        <time>2023-04-04T12:37:17.994Z</time>
      </trkpt>
      <trkpt lat="42.92684" lon="1.00767">
        <ele>579.4</ele>
        <time>2023-04-04T12:37:19.994Z</time>
      </trkpt>
      <trkpt lat="42.92689" lon="1.0078">
        <ele>580</ele>
        <time>2023-04-04T12:37:21.994Z</time>
      </trkpt>
      <trkpt lat="42.92691" lon="1.00794">
        <ele>580.6</ele>
        <time>2023-04-04T12:37:23.993Z</time>
      </trkpt>
      <trkpt lat="42.92695" lon="1.00808">
        <ele>581.2</ele>
        <time>2023-04-04T12:37:25.993Z</time>
      </trkpt>
      <trkpt lat="42.92698" lon="1.00821">
        <ele>581.7</ele>
        <time>2023-04-04T12:37:27.993Z</time>
      </trkpt>
      <trkpt lat="42.92699" lon="1.00833">
        <ele>581.9</ele>
        <time>2023-04-04T12:37:29.993Z</time>
      </trkpt>
      <trkpt lat="42.92703" lon="1.0085">
        <ele>582.2</ele>
        <time>2023-04-04T12:37:32.993Z</time>
      </trkpt>
      <trkpt lat="42.92704" lon="1.00863">
        <ele>582.4</ele>
        <time>2023-04-04T12:37:35.993Z</time>
      </trkpt>
      <trkpt lat="42.92703" lon="1.00876">
        <ele>582.3</ele>
        <time>2023-04-04T12:37:37.993Z</time>
      </trkpt>
      <trkpt lat="42.92701" lon="1.00892">
        <ele>582</ele>
        <time>2023-04-04T12:37:40.993Z</time>
      </trkpt>
      <trkpt lat="42.92698" lon="1.00913">
        <ele>581.3</ele>
        <time>2023-04-04T12:37:43.993Z</time>
      </trkpt>
      <trkpt lat="42.92697" lon="1.00927">
        <ele>580.7</ele>
        <time>2023-04-04T12:37:45.993Z</time>
      </trkpt>
      <trkpt lat="42.92695" lon="1.00942">
        <ele>579.6</ele>
        <time>2023-04-04T12:37:48.993Z</time>
      </trkpt>
      <trkpt lat="42.92694" lon="1.00957">
        <ele>578.7</ele>
        <time>2023-04-04T12:37:50.992Z</time>
      </trkpt>
      <trkpt lat="42.92692" lon="1.00973">
        <ele>577.8</ele>
        <time>2023-04-04T12:37:52.992Z</time>
      </trkpt>
      <trkpt lat="42.92691" lon="1.00994">
        <ele>576.9</ele>
        <time>2023-04-04T12:37:54.992Z</time>
      </trkpt>
      <trkpt lat="42.92689" lon="1.01011">
        <ele>575.9</ele>
        <time>2023-04-04T12:37:56.992Z</time>
      </trkpt>
      <trkpt lat="42.92684" lon="1.01033">
        <ele>574.1</ele>
        <time>2023-04-04T12:37:58.992Z</time>
      </trkpt>
      <trkpt lat="42.92679" lon="1.01055">
        <ele>571.5</ele>
        <time>2023-04-04T12:38:00.992Z</time>
      </trkpt>
      <trkpt lat="42.92677" lon="1.01076">
        <ele>568.4</ele>
        <time>2023-04-04T12:38:02.992Z</time>
      </trkpt>
      <trkpt lat="42.92682" lon="1.01095">
        <ele>566.3</ele>
        <time>2023-04-04T12:38:04.992Z</time>
      </trkpt>
      <trkpt lat="42.92689" lon="1.01112">
        <ele>565.5</ele>
        <time>2023-04-04T12:38:06.992Z</time>
      </trkpt>
      <trkpt lat="42.92695" lon="1.01129">
        <ele>565.3</ele>
        <time>2023-04-04T12:38:08.992Z</time>
      </trkpt>
      <trkpt lat="42.92702" lon="1.01142">
        <ele>565.5</ele>
        <time>2023-04-04T12:38:10.992Z</time>
      </trkpt>
      <trkpt lat="42.92707" lon="1.01152">
        <ele>565.8</ele>
        <time>2023-04-04T12:38:12.992Z</time>
      </trkpt>
      <trkpt lat="42.92712" lon="1.01163">
        <ele>566.2</ele>
        <time>2023-04-04T12:38:14.992Z</time>
      </trkpt>
      <trkpt lat="42.92719" lon="1.01177">
        <ele>566.5</ele>
        <time>2023-04-04T12:38:16.992Z</time>
      </trkpt>
      <trkpt lat="42.92725" lon="1.01189">
        <ele>566.8</ele>
        <time>2023-04-04T12:38:18.991Z</time>
      </trkpt>
      <trkpt lat="42.9273" lon="1.01201">
        <ele>567</ele>
        <time>2023-04-04T12:38:20.991Z</time>
      </trkpt>
      <trkpt lat="42.92733" lon="1.01213">
        <ele>567.1</ele>
        <time>2023-04-04T12:38:22.991Z</time>
      </trkpt>
      <trkpt lat="42.92736" lon="1.0123">
        <ele>566.8</ele>
        <time>2023-04-04T12:38:25.991Z</time>
      </trkpt>
      <trkpt lat="42.92733" lon="1.01249">
        <ele>566.2</ele>
        <time>2023-04-04T12:38:27.991Z</time>
      </trkpt>
      <trkpt lat="42.9273" lon="1.01267">
        <ele>564.9</ele>
        <time>2023-04-04T12:38:29.991Z</time>
      </trkpt>
      <trkpt lat="42.92729" lon="1.01289">
        <ele>562.6</ele>
        <time>2023-04-04T12:38:31.991Z</time>
      </trkpt>
      <trkpt lat="42.92732" lon="1.01313">
        <ele>559.8</ele>
        <time>2023-04-04T12:38:33.991Z</time>
      </trkpt>
      <trkpt lat="42.92732" lon="1.01337">
        <ele>556.8</ele>
        <time>2023-04-04T12:38:35.991Z</time>
      </trkpt>
      <trkpt lat="42.92735" lon="1.01361">
        <ele>554</ele>
        <time>2023-04-04T12:38:37.991Z</time>
      </trkpt>
      <trkpt lat="42.92737" lon="1.01374">
        <ele>552.7</ele>
        <time>2023-04-04T12:38:38.991Z</time>
      </trkpt>
      <trkpt lat="42.92742" lon="1.01394">
        <ele>550.7</ele>
        <time>2023-04-04T12:38:40.991Z</time>
      </trkpt>
      <trkpt lat="42.92742" lon="1.0141">
        <ele>549</ele>
        <time>2023-04-04T12:38:42.991Z</time>
      </trkpt>
      <trkpt lat="42.92736" lon="1.01422">
        <ele>547.1</ele>
        <time>2023-04-04T12:38:44.991Z</time>
      </trkpt>
      <trkpt lat="42.92727" lon="1.0143">
        <ele>544.8</ele>
        <time>2023-04-04T12:38:46.990Z</time>
      </trkpt>
      <trkpt lat="42.92718" lon="1.01439">
        <ele>541.3</ele>
        <time>2023-04-04T12:38:49.990Z</time>
      </trkpt>
      <trkpt lat="42.92708" lon="1.01447">
        <ele>538.9</ele>
        <time>2023-04-04T12:38:51.990Z</time>
      </trkpt>
      <trkpt lat="42.92703" lon="1.01457">
        <ele>536.5</ele>
        <time>2023-04-04T12:38:53.990Z</time>
      </trkpt>
      <trkpt lat="42.92704" lon="1.01473">
        <ele>534.6</ele>
        <time>2023-04-04T12:38:55.990Z</time>
      </trkpt>
      <trkpt lat="42.92711" lon="1.01484">
        <ele>533.8</ele>
        <time>2023-04-04T12:38:57.990Z</time>
      </trkpt>
      <trkpt lat="42.92717" lon="1.01495">
        <ele>533.7</ele>
        <time>2023-04-04T12:38:59.990Z</time>
      </trkpt>
      <trkpt lat="42.92724" lon="1.01507">
        <ele>533.8</ele>
        <time>2023-04-04T12:39:01.990Z</time>
      </trkpt>
      <trkpt lat="42.9273" lon="1.0152">
        <ele>534.1</ele>
        <time>2023-04-04T12:39:03.990Z</time>
      </trkpt>
      <trkpt lat="42.92736" lon="1.01532">
        <ele>534.4</ele>
        <time>2023-04-04T12:39:05.990Z</time>
      </trkpt>
      <trkpt lat="42.92741" lon="1.01545">
        <ele>534.8</ele>
        <time>2023-04-04T12:39:07.990Z</time>
      </trkpt>
      <trkpt lat="42.92744" lon="1.01558">
        <ele>535.2</ele>
        <time>2023-04-04T12:39:09.990Z</time>
      </trkpt>
      <trkpt lat="42.92746" lon="1.01571">
        <ele>535.5</ele>
        <time>2023-04-04T12:39:11.990Z</time>
      </trkpt>
      <trkpt lat="42.92748" lon="1.01584">
        <ele>535.7</ele>
        <time>2023-04-04T12:39:13.989Z</time>
      </trkpt>
      <trkpt lat="42.92748" lon="1.01598">
        <ele>535.9</ele>
        <time>2023-04-04T12:39:15.989Z</time>
      </trkpt>
      <trkpt lat="42.92746" lon="1.01611">
        <ele>536.1</ele>
        <time>2023-04-04T12:39:17.989Z</time>
      </trkpt>
      <trkpt lat="42.92743" lon="1.01624">
        <ele>536.1</ele>
        <time>2023-04-04T12:39:19.989Z</time>
      </trkpt>
      <trkpt lat="42.92738" lon="1.0164">
        <ele>536.2</ele>
        <time>2023-04-04T12:39:21.989Z</time>
      </trkpt>
      <trkpt lat="42.92732" lon="1.01653">
        <ele>536.1</ele>
        <time>2023-04-04T12:39:23.989Z</time>
      </trkpt>
      <trkpt lat="42.92724" lon="1.01665">
        <ele>535.9</ele>
        <time>2023-04-04T12:39:25.989Z</time>
      </trkpt>
      <trkpt lat="42.92717" lon="1.01676">
        <ele>535.5</ele>
        <time>2023-04-04T12:39:27.989Z</time>
      </trkpt>
      <trkpt lat="42.92714" lon="1.01688">
        <ele>535.1</ele>
        <time>2023-04-04T12:39:29.989Z</time>
      </trkpt>
      <trkpt lat="42.92707" lon="1.017">
        <ele>534.6</ele>
        <time>2023-04-04T12:39:31.989Z</time>
      </trkpt>
      <trkpt lat="42.927" lon="1.01715">
        <ele>533.9</ele>
        <time>2023-04-04T12:39:33.989Z</time>
      </trkpt>
      <trkpt lat="42.92695" lon="1.01729">
        <ele>533.2</ele>
        <time>2023-04-04T12:39:35.989Z</time>
      </trkpt>
      <trkpt lat="42.9269" lon="1.01741">
        <ele>532.5</ele>
        <time>2023-04-04T12:39:37.989Z</time>
      </trkpt>
      <trkpt lat="42.92684" lon="1.01754">
        <ele>531.8</ele>
        <time>2023-04-04T12:39:39.989Z</time>
      </trkpt>
      <trkpt lat="42.92679" lon="1.0177">
        <ele>531.2</ele>
        <time>2023-04-04T12:39:41.988Z</time>
      </trkpt>
      <trkpt lat="42.92674" lon="1.01784">
        <ele>530.7</ele>
        <time>2023-04-04T12:39:43.988Z</time>
      </trkpt>
      <trkpt lat="42.9267" lon="1.01799">
        <ele>530.4</ele>
        <time>2023-04-04T12:39:45.988Z</time>
      </trkpt>
      <trkpt lat="42.92666" lon="1.01815">
        <ele>530.1</ele>
        <time>2023-04-04T12:39:47.988Z</time>
      </trkpt>
      <trkpt lat="42.92662" lon="1.0183">
        <ele>530</ele>
        <time>2023-04-04T12:39:49.988Z</time>
      </trkpt>
      <trkpt lat="42.92661" lon="1.01849">
        <ele>529.8</ele>
        <time>2023-04-04T12:39:51.988Z</time>
      </trkpt>
      <trkpt lat="42.92659" lon="1.01862">
        <ele>529.5</ele>
        <time>2023-04-04T12:39:53.988Z</time>
      </trkpt>
      <trkpt lat="42.92658" lon="1.01878">
        <ele>529.1</ele>
        <time>2023-04-04T12:39:55.988Z</time>
      </trkpt>
      <trkpt lat="42.92659" lon="1.01893">
        <ele>528.6</ele>
        <time>2023-04-04T12:39:57.988Z</time>
      </trkpt>
      <trkpt lat="42.92662" lon="1.01908">
        <ele>528.1</ele>
        <time>2023-04-04T12:39:59.988Z</time>
      </trkpt>
      <trkpt lat="42.92667" lon="1.01923">
        <ele>527.7</ele>
        <time>2023-04-04T12:40:01.988Z</time>
      </trkpt>
      <trkpt lat="42.92673" lon="1.01937">
        <ele>527</ele>
        <time>2023-04-04T12:40:03.988Z</time>
      </trkpt>
      <trkpt lat="42.9268" lon="1.01951">
        <ele>526.1</ele>
        <time>2023-04-04T12:40:05.988Z</time>
      </trkpt>
      <trkpt lat="42.92686" lon="1.01963">
        <ele>525</ele>
        <time>2023-04-04T12:40:07.988Z</time>
      </trkpt>
      <trkpt lat="42.92694" lon="1.01976">
        <ele>523.8</ele>
        <time>2023-04-04T12:40:09.987Z</time>
      </trkpt>
      <trkpt lat="42.92703" lon="1.0199">
        <ele>522.4</ele>
        <time>2023-04-04T12:40:11.987Z</time>
      </trkpt>
      <trkpt lat="42.9271" lon="1.02003">
        <ele>521</ele>
        <time>2023-04-04T12:40:13.987Z</time>
      </trkpt>
      <trkpt lat="42.92719" lon="1.02016">
        <ele>519.7</ele>
        <time>2023-04-04T12:40:15.987Z</time>
      </trkpt>
      <trkpt lat="42.92726" lon="1.02029">
        <ele>518.7</ele>
        <time>2023-04-04T12:40:17.987Z</time>
      </trkpt>
      <trkpt lat="42.92733" lon="1.02041">
        <ele>517.8</ele>
        <time>2023-04-04T12:40:19.987Z</time>
      </trkpt>
      <trkpt lat="42.92741" lon="1.02052">
        <ele>517.1</ele>
        <time>2023-04-04T12:40:21.987Z</time>
      </trkpt>
      <trkpt lat="42.92749" lon="1.02064">
        <ele>516.4</ele>
        <time>2023-04-04T12:40:23.987Z</time>
      </trkpt>
      <trkpt lat="42.92756" lon="1.02073">
        <ele>515.8</ele>
        <time>2023-04-04T12:40:25.987Z</time>
      </trkpt>
      <trkpt lat="42.92763" lon="1.02083">
        <ele>515.3</ele>
        <time>2023-04-04T12:40:27.987Z</time>
      </trkpt>
      <trkpt lat="42.92773" lon="1.02097">
        <ele>514.9</ele>
        <time>2023-04-04T12:40:29.987Z</time>
      </trkpt>
      <trkpt lat="42.92781" lon="1.02106">
        <ele>514.6</ele>
        <time>2023-04-04T12:40:31.987Z</time>
      </trkpt>
      <trkpt lat="42.92788" lon="1.02116">
        <ele>514.3</ele>
        <time>2023-04-04T12:40:33.987Z</time>
      </trkpt>
      <trkpt lat="42.92797" lon="1.02128">
        <ele>513.9</ele>
        <time>2023-04-04T12:40:36.986Z</time>
      </trkpt>
      <trkpt lat="42.92805" lon="1.0214">
        <ele>513.5</ele>
        <time>2023-04-04T12:40:39.986Z</time>
      </trkpt>
      <trkpt lat="42.92817" lon="1.02149">
        <ele>513.1</ele>
        <time>2023-04-04T12:40:42.986Z</time>
      </trkpt>
      <trkpt lat="42.92823" lon="1.02158">
        <ele>512.9</ele>
        <time>2023-04-04T12:40:44.986Z</time>
      </trkpt>
      <trkpt lat="42.9283" lon="1.02167">
        <ele>512.6</ele>
        <time>2023-04-04T12:40:46.986Z</time>
      </trkpt>
      <trkpt lat="42.92836" lon="1.02177">
        <ele>512.4</ele>
        <time>2023-04-04T12:40:48.986Z</time>
      </trkpt>
      <trkpt lat="42.92845" lon="1.02189">
        <ele>512.2</ele>
        <time>2023-04-04T12:40:51.986Z</time>
      </trkpt>
      <trkpt lat="42.92852" lon="1.02198">
        <ele>512.2</ele>
        <time>2023-04-04T12:40:53.986Z</time>
      </trkpt>
      <trkpt lat="42.92857" lon="1.02209">
        <ele>512.2</ele>
        <time>2023-04-04T12:40:55.986Z</time>
      </trkpt>
      <trkpt lat="42.92865" lon="1.02222">
        <ele>512.2</ele>
        <time>2023-04-04T12:40:58.986Z</time>
      </trkpt>
      <trkpt lat="42.92874" lon="1.02235">
        <ele>512.2</ele>
        <time>2023-04-04T12:41:01.986Z</time>
      </trkpt>
      <trkpt lat="42.92882" lon="1.02247">
        <ele>512.2</ele>
        <time>2023-04-04T12:41:04.985Z</time>
      </trkpt>
      <trkpt lat="42.92892" lon="1.0226">
        <ele>512.1</ele>
        <time>2023-04-04T12:41:07.985Z</time>
      </trkpt>
      <trkpt lat="42.92901" lon="1.02271">
        <ele>512.1</ele>
        <time>2023-04-04T12:41:10.985Z</time>
      </trkpt>
      <trkpt lat="42.9291" lon="1.02282">
        <ele>512</ele>
        <time>2023-04-04T12:41:13.985Z</time>
      </trkpt>
      <trkpt lat="42.9292" lon="1.02289">
        <ele>512</ele>
        <time>2023-04-04T12:41:16.985Z</time>
      </trkpt>
      <trkpt lat="42.92932" lon="1.02291">
        <ele>512</ele>
        <time>2023-04-04T12:41:18.985Z</time>
      </trkpt>
      <trkpt lat="42.92942" lon="1.02304">
        <ele>512.1</ele>
        <time>2023-04-04T12:41:21.985Z</time>
      </trkpt>
      <trkpt lat="42.92951" lon="1.0231">
        <ele>512.2</ele>
        <time>2023-04-04T12:41:23.985Z</time>
      </trkpt>
      <trkpt lat="42.92962" lon="1.02315">
        <ele>512.3</ele>
        <time>2023-04-04T12:41:25.985Z</time>
      </trkpt>
      <trkpt lat="42.92971" lon="1.02321">
        <ele>512.4</ele>
        <time>2023-04-04T12:41:27.985Z</time>
      </trkpt>
      <trkpt lat="42.92981" lon="1.02326">
        <ele>512.5</ele>
        <time>2023-04-04T12:41:29.985Z</time>
      </trkpt>
      <trkpt lat="42.92991" lon="1.0233">
        <ele>512.6</ele>
        <time>2023-04-04T12:41:31.985Z</time>
      </trkpt>
      <trkpt lat="42.93001" lon="1.02333">
        <ele>512.8</ele>
        <time>2023-04-04T12:41:33.984Z</time>
      </trkpt>
      <trkpt lat="42.93011" lon="1.02336">
        <ele>513.1</ele>
        <time>2023-04-04T12:41:35.984Z</time>
      </trkpt>
      <trkpt lat="42.93022" lon="1.02341">
        <ele>514.1</ele>
        <time>2023-04-04T12:41:38.984Z</time>
      </trkpt>
      <trkpt lat="42.93031" lon="1.02344">
        <ele>515.3</ele>
        <time>2023-04-04T12:41:40.984Z</time>
      </trkpt>
      <trkpt lat="42.93041" lon="1.02349">
        <ele>518.4</ele>
        <time>2023-04-04T12:41:44.984Z</time>
      </trkpt>
      <trkpt lat="42.93051" lon="1.02358">
        <ele>520.9</ele>
        <time>2023-04-04T12:41:48.984Z</time>
      </trkpt>
      <trkpt lat="42.9306" lon="1.02366">
        <ele>522</ele>
        <time>2023-04-04T12:41:51.984Z</time>
      </trkpt>
      <trkpt lat="42.93069" lon="1.02375">
        <ele>522.5</ele>
        <time>2023-04-04T12:41:54.984Z</time>
      </trkpt>
      <trkpt lat="42.93078" lon="1.02384">
        <ele>522.5</ele>
        <time>2023-04-04T12:41:57.984Z</time>
      </trkpt>
      <trkpt lat="42.93086" lon="1.0239">
        <ele>522.4</ele>
        <time>2023-04-04T12:42:00.983Z</time>
      </trkpt>
      <trkpt lat="42.93095" lon="1.02396">
        <ele>522.4</ele>
        <time>2023-04-04T12:42:03.983Z</time>
      </trkpt>
      <trkpt lat="42.93105" lon="1.02399">
        <ele>522.4</ele>
        <time>2023-04-04T12:42:06.983Z</time>
      </trkpt>
      <trkpt lat="42.93115" lon="1.02402">
        <ele>522.6</ele>
        <time>2023-04-04T12:42:09.983Z</time>
      </trkpt>
      <trkpt lat="42.93127" lon="1.02401">
        <ele>523.4</ele>
        <time>2023-04-04T12:42:13.983Z</time>
      </trkpt>
      <trkpt lat="42.93137" lon="1.02402">
        <ele>524.7</ele>
        <time>2023-04-04T12:42:17.983Z</time>
      </trkpt>
      <trkpt lat="42.93147" lon="1.02408">
        <ele>526.1</ele>
        <time>2023-04-04T12:42:21.983Z</time>
      </trkpt>
      <trkpt lat="42.93157" lon="1.02411">
        <ele>527.1</ele>
        <time>2023-04-04T12:42:25.983Z</time>
      </trkpt>
      <trkpt lat="42.93167" lon="1.02416">
        <ele>527.9</ele>
        <time>2023-04-04T12:42:29.982Z</time>
      </trkpt>
      <trkpt lat="42.93175" lon="1.02422">
        <ele>528.3</ele>
        <time>2023-04-04T12:42:32.982Z</time>
      </trkpt>
      <trkpt lat="42.93185" lon="1.02427">
        <ele>528.6</ele>
        <time>2023-04-04T12:42:35.982Z</time>
      </trkpt>
      <trkpt lat="42.93194" lon="1.02433">
        <ele>528.8</ele>
        <time>2023-04-04T12:42:38.982Z</time>
      </trkpt>
      <trkpt lat="42.93204" lon="1.02436">
        <ele>529</ele>
        <time>2023-04-04T12:42:41.982Z</time>
      </trkpt>
      <trkpt lat="42.93215" lon="1.02437">
        <ele>529.3</ele>
        <time>2023-04-04T12:42:44.982Z</time>
      </trkpt>
      <trkpt lat="42.93225" lon="1.02437">
        <ele>530</ele>
        <time>2023-04-04T12:42:47.982Z</time>
      </trkpt>
      <trkpt lat="42.93236" lon="1.02442">
        <ele>530.9</ele>
        <time>2023-04-04T12:42:51.982Z</time>
      </trkpt>
      <trkpt lat="42.93246" lon="1.02443">
        <ele>531.5</ele>
        <time>2023-04-04T12:42:54.982Z</time>
      </trkpt>
      <trkpt lat="42.93255" lon="1.02445">
        <ele>532.1</ele>
        <time>2023-04-04T12:42:57.981Z</time>
      </trkpt>
      <trkpt lat="42.93265" lon="1.02446">
        <ele>532.9</ele>
        <time>2023-04-04T12:43:01.981Z</time>
      </trkpt>
      <trkpt lat="42.93275" lon="1.02447">
        <ele>533.6</ele>
        <time>2023-04-04T12:43:04.981Z</time>
      </trkpt>
      <trkpt lat="42.93286" lon="1.0245">
        <ele>534.1</ele>
        <time>2023-04-04T12:43:07.981Z</time>
      </trkpt>
      <trkpt lat="42.93296" lon="1.02453">
        <ele>534.3</ele>
        <time>2023-04-04T12:43:10.981Z</time>
      </trkpt>
      <trkpt lat="42.93304" lon="1.02457">
        <ele>534.5</ele>
        <time>2023-04-04T12:43:13.981Z</time>
      </trkpt>
      <trkpt lat="42.93316" lon="1.02456">
        <ele>534.6</ele>
        <time>2023-04-04T12:43:17.981Z</time>
      </trkpt>
      <trkpt lat="42.93327" lon="1.02452">
        <ele>535.5</ele>
        <time>2023-04-04T12:43:21.981Z</time>
      </trkpt>
      <trkpt lat="42.93339" lon="1.02451">
        <ele>537.1</ele>
        <time>2023-04-04T12:43:25.980Z</time>
      </trkpt>
      <trkpt lat="42.93349" lon="1.02449">
        <ele>539.2</ele>
        <time>2023-04-04T12:43:29.980Z</time>
      </trkpt>
      <trkpt lat="42.93358" lon="1.02448">
        <ele>541.3</ele>
        <time>2023-04-04T12:43:33.980Z</time>
      </trkpt>
      <trkpt lat="42.93369" lon="1.02446">
        <ele>543.5</ele>
        <time>2023-04-04T12:43:38.980Z</time>
      </trkpt>
      <trkpt lat="42.93378" lon="1.02446">
        <ele>545.1</ele>
        <time>2023-04-04T12:43:42.980Z</time>
      </trkpt>
      <trkpt lat="42.9339" lon="1.02446">
        <ele>546.4</ele>
        <time>2023-04-04T12:43:46.980Z</time>
      </trkpt>
      <trkpt lat="42.93401" lon="1.02446">
        <ele>547.7</ele>
        <time>2023-04-04T12:43:50.980Z</time>
      </trkpt>
      <trkpt lat="42.93411" lon="1.02443">
        <ele>549.3</ele>
        <time>2023-04-04T12:43:55.979Z</time>
      </trkpt>
      <trkpt lat="42.9342" lon="1.02437">
        <ele>551.6</ele>
        <time>2023-04-04T12:43:59.979Z</time>
      </trkpt>
      <trkpt lat="42.93428" lon="1.0243">
        <ele>557</ele>
        <time>2023-04-04T12:44:04.979Z</time>
      </trkpt>
      <trkpt lat="42.93436" lon="1.02429">
        <ele>563.8</ele>
        <time>2023-04-04T12:44:13.979Z</time>
      </trkpt>
      <trkpt lat="42.93438" lon="1.02431">
        <ele>564.5</ele>
        <time>2023-04-04T12:44:18.979Z</time>
      </trkpt>
      <trkpt lat="42.93439" lon="1.0243">
        <ele>564.8</ele>
        <time>2023-04-04T12:44:25.978Z</time>
      </trkpt>
      <trkpt lat="42.93439" lon="1.02431">
        <ele>564.9</ele>
        <time>2023-04-04T12:44:27.978Z</time>
      </trkpt>
      <trkpt lat="42.93439" lon="1.0243">
        <ele>565</ele>
        <time>2023-04-04T12:44:29.978Z</time>
      </trkpt>
      <trkpt lat="42.93439" lon="1.0243">
        <ele>565.1</ele>
        <time>2023-04-04T12:44:32.978Z</time>
      </trkpt>
      <trkpt lat="42.93439" lon="1.0243">
        <ele>565.1</ele>
        <time>2023-04-04T12:44:33.978Z</time>
      </trkpt>
      <trkpt lat="42.9344" lon="1.0243">
        <ele>565.2</ele>
        <time>2023-04-04T12:44:36.978Z</time>
      </trkpt>
      <trkpt lat="42.9344" lon="1.02429">
        <ele>565.4</ele>
        <time>2023-04-04T12:44:38.978Z</time>
      </trkpt>
      <trkpt lat="42.93441" lon="1.02428">
        <ele>565.6</ele>
        <time>2023-04-04T12:44:41.981Z</time>
      </trkpt>
      <trkpt lat="42.93441" lon="1.02428">
        <ele>565.7</ele>
        <time>2023-04-04T12:44:42.982Z</time>
      </trkpt>
      <trkpt lat="42.93442" lon="1.02429">
        <ele>565.7</ele>
        <time>2023-04-04T12:44:43.983Z</time>
      </trkpt>
      <trkpt lat="42.93442" lon="1.0243">
        <ele>565.8</ele>
        <time>2023-04-04T12:44:45.985Z</time>
      </trkpt>
      <trkpt lat="42.93443" lon="1.02428">
        <ele>566.1</ele>
        <time>2023-04-04T12:44:50.990Z</time>
      </trkpt>
      <trkpt lat="42.93443" lon="1.02428">
        <ele>566.1</ele>
        <time>2023-04-04T12:44:51.990Z</time>
      </trkpt>
      <trkpt lat="42.93446" lon="1.02424">
        <ele>566.7</ele>
        <time>2023-04-04T12:44:58.994Z</time>
      </trkpt>
      <trkpt lat="42.93446" lon="1.02424">
        <ele>566.9</ele>
        <time>2023-04-04T12:44:59.994Z</time>
      </trkpt>
      <trkpt lat="42.93447" lon="1.02424">
        <ele>569.9</ele>
        <time>2023-04-04T12:45:16.998Z</time>
      </trkpt>
      <trkpt lat="42.93453" lon="1.02436">
        <ele>569.9</ele>
        <time>2023-04-04T12:45:31.998Z</time>
      </trkpt>
      <trkpt lat="42.93461" lon="1.02448">
        <ele>569.2</ele>
        <time>2023-04-04T12:45:35.998Z</time>
      </trkpt>
      <trkpt lat="42.93468" lon="1.02458">
        <ele>568.5</ele>
        <time>2023-04-04T12:45:38.998Z</time>
      </trkpt>
      <trkpt lat="42.93475" lon="1.02465">
        <ele>567.5</ele>
        <time>2023-04-04T12:45:41.998Z</time>
      </trkpt>
      <trkpt lat="42.93486" lon="1.02471">
        <ele>566.9</ele>
        <time>2023-04-04T12:45:45.998Z</time>
      </trkpt>
      <trkpt lat="42.93496" lon="1.02476">
        <ele>567.1</ele>
        <time>2023-04-04T12:45:48.998Z</time>
      </trkpt>
      <trkpt lat="42.93505" lon="1.02484">
        <ele>567.3</ele>
        <time>2023-04-04T12:45:51.998Z</time>
      </trkpt>
      <trkpt lat="42.93514" lon="1.02492">
        <ele>567.4</ele>
        <time>2023-04-04T12:45:55.998Z</time>
      </trkpt>
      <trkpt lat="42.93524" lon="1.02495">
        <ele>567.5</ele>
        <time>2023-04-04T12:45:58.998Z</time>
      </trkpt>
      <trkpt lat="42.93533" lon="1.02499">
        <ele>568.2</ele>
        <time>2023-04-04T12:46:02.998Z</time>
      </trkpt>
      <trkpt lat="42.93541" lon="1.02507">
        <ele>568.7</ele>
        <time>2023-04-04T12:46:07.998Z</time>
      </trkpt>
      <trkpt lat="42.93551" lon="1.02511">
        <ele>568.9</ele>
        <time>2023-04-04T12:46:13.997Z</time>
      </trkpt>
      <trkpt lat="42.93561" lon="1.02517">
        <ele>569.4</ele>
        <time>2023-04-04T12:46:18.997Z</time>
      </trkpt>
      <trkpt lat="42.93571" lon="1.02523">
        <ele>569.7</ele>
        <time>2023-04-04T12:46:23.997Z</time>
      </trkpt>
      <trkpt lat="42.93582" lon="1.02523">
        <ele>570.3</ele>
        <time>2023-04-04T12:46:27.997Z</time>
      </trkpt>
      <trkpt lat="42.93594" lon="1.02523">
        <ele>572</ele>
        <time>2023-04-04T12:46:31.997Z</time>
      </trkpt>
      <trkpt lat="42.93604" lon="1.02525">
        <ele>574.2</ele>
        <time>2023-04-04T12:46:35.997Z</time>
      </trkpt>
      <trkpt lat="42.93617" lon="1.02526">
        <ele>576.4</ele>
        <time>2023-04-04T12:46:39.997Z</time>
      </trkpt>
      <trkpt lat="42.93628" lon="1.02527">
        <ele>579.2</ele>
        <time>2023-04-04T12:46:45.996Z</time>
      </trkpt>
      <trkpt lat="42.93637" lon="1.0253">
        <ele>580.3</ele>
        <time>2023-04-04T12:46:49.996Z</time>
      </trkpt>
      <trkpt lat="42.93646" lon="1.02531">
        <ele>581.8</ele>
        <time>2023-04-04T12:46:55.996Z</time>
      </trkpt>
      <trkpt lat="42.93659" lon="1.02539">
        <ele>582.9</ele>
        <time>2023-04-04T12:47:02.996Z</time>
      </trkpt>
      <trkpt lat="42.93666" lon="1.02547">
        <ele>582.9</ele>
        <time>2023-04-04T12:47:07.995Z</time>
      </trkpt>
      <trkpt lat="42.93672" lon="1.02558">
        <ele>582.1</ele>
        <time>2023-04-04T12:47:12.995Z</time>
      </trkpt>
      <trkpt lat="42.93681" lon="1.02564">
        <ele>580.2</ele>
        <time>2023-04-04T12:47:16.995Z</time>
      </trkpt>
      <trkpt lat="42.9369" lon="1.02567">
        <ele>577.4</ele>
        <time>2023-04-04T12:47:21.995Z</time>
      </trkpt>
      <trkpt lat="42.93699" lon="1.02569">
        <ele>575</ele>
        <time>2023-04-04T12:47:27.995Z</time>
      </trkpt>
      <trkpt lat="42.93708" lon="1.02572">
        <ele>573.6</ele>
        <time>2023-04-04T12:47:32.995Z</time>
      </trkpt>
      <trkpt lat="42.93719" lon="1.02571">
        <ele>572.5</ele>
        <time>2023-04-04T12:47:37.994Z</time>
      </trkpt>
      <trkpt lat="42.93729" lon="1.02575">
        <ele>571.4</ele>
        <time>2023-04-04T12:47:42.994Z</time>
      </trkpt>
      <trkpt lat="42.93739" lon="1.02577">
        <ele>570.4</ele>
        <time>2023-04-04T12:47:46.994Z</time>
      </trkpt>
      <trkpt lat="42.93748" lon="1.02583">
        <ele>569.1</ele>
        <time>2023-04-04T12:47:50.994Z</time>
      </trkpt>
      <trkpt lat="42.93758" lon="1.02588">
        <ele>567.7</ele>
        <time>2023-04-04T12:47:54.994Z</time>
      </trkpt>
      <trkpt lat="42.93768" lon="1.0259">
        <ele>566.8</ele>
        <time>2023-04-04T12:47:59.994Z</time>
      </trkpt>
      <trkpt lat="42.93777" lon="1.02597">
        <ele>566.4</ele>
        <time>2023-04-04T12:48:03.993Z</time>
      </trkpt>
      <trkpt lat="42.93788" lon="1.026">
        <ele>566</ele>
        <time>2023-04-04T12:48:07.993Z</time>
      </trkpt>
      <trkpt lat="42.93798" lon="1.026">
        <ele>566</ele>
        <time>2023-04-04T12:48:11.993Z</time>
      </trkpt>
      <trkpt lat="42.93808" lon="1.02593">
        <ele>566.5</ele>
        <time>2023-04-04T12:48:15.993Z</time>
      </trkpt>
      <trkpt lat="42.93815" lon="1.02584">
        <ele>567.2</ele>
        <time>2023-04-04T12:48:18.993Z</time>
      </trkpt>
      <trkpt lat="42.9382" lon="1.02573">
        <ele>568.5</ele>
        <time>2023-04-04T12:48:21.993Z</time>
      </trkpt>
      <trkpt lat="42.93825" lon="1.02563">
        <ele>570.5</ele>
        <time>2023-04-04T12:48:24.993Z</time>
      </trkpt>
      <trkpt lat="42.9383" lon="1.0255">
        <ele>573.2</ele>
        <time>2023-04-04T12:48:27.992Z</time>
      </trkpt>
      <trkpt lat="42.93834" lon="1.02537">
        <ele>576.3</ele>
        <time>2023-04-04T12:48:30.992Z</time>
      </trkpt>
      <trkpt lat="42.93841" lon="1.02526">
        <ele>580.4</ele>
        <time>2023-04-04T12:48:35.992Z</time>
      </trkpt>
      <trkpt lat="42.93847" lon="1.02516">
        <ele>583.7</ele>
        <time>2023-04-04T12:48:40.992Z</time>
      </trkpt>
      <trkpt lat="42.93857" lon="1.02523">
        <ele>585.2</ele>
        <time>2023-04-04T12:48:44.992Z</time>
      </trkpt>
      <trkpt lat="42.93864" lon="1.02531">
        <ele>585.9</ele>
        <time>2023-04-04T12:48:49.992Z</time>
      </trkpt>
      <trkpt lat="42.93869" lon="1.02541">
        <ele>585.9</ele>
        <time>2023-04-04T12:48:55.991Z</time>
      </trkpt>
      <trkpt lat="42.93876" lon="1.02551">
        <ele>585.8</ele>
        <time>2023-04-04T12:49:00.991Z</time>
      </trkpt>
      <trkpt lat="42.93883" lon="1.02561">
        <ele>585.6</ele>
        <time>2023-04-04T12:49:04.991Z</time>
      </trkpt>
      <trkpt lat="42.93894" lon="1.02565">
        <ele>585.6</ele>
        <time>2023-04-04T12:49:08.991Z</time>
      </trkpt>
      <trkpt lat="42.93905" lon="1.02562">
        <ele>585.9</ele>
        <time>2023-04-04T12:49:11.991Z</time>
      </trkpt>
      <trkpt lat="42.93915" lon="1.02562">
        <ele>586.5</ele>
        <time>2023-04-04T12:49:14.991Z</time>
      </trkpt>
      <trkpt lat="42.93924" lon="1.02566">
        <ele>587.4</ele>
        <time>2023-04-04T12:49:17.991Z</time>
      </trkpt>
      <trkpt lat="42.93934" lon="1.02565">
        <ele>588.7</ele>
        <time>2023-04-04T12:49:20.990Z</time>
      </trkpt>
      <trkpt lat="42.93943" lon="1.02567">
        <ele>590.3</ele>
        <time>2023-04-04T12:49:23.990Z</time>
      </trkpt>
      <trkpt lat="42.93949" lon="1.02576">
        <ele>591.4</ele>
        <time>2023-04-04T12:49:26.990Z</time>
      </trkpt>
      <trkpt lat="42.93951" lon="1.02589">
        <ele>591.9</ele>
        <time>2023-04-04T12:49:30.990Z</time>
      </trkpt>
      <trkpt lat="42.93949" lon="1.02606">
        <ele>591.9</ele>
        <time>2023-04-04T12:49:33.990Z</time>
      </trkpt>
      <trkpt lat="42.93951" lon="1.0262">
        <ele>591.7</ele>
        <time>2023-04-04T12:49:37.990Z</time>
      </trkpt>
      <trkpt lat="42.9395" lon="1.02636">
        <ele>591.4</ele>
        <time>2023-04-04T12:49:40.990Z</time>
      </trkpt>
      <trkpt lat="42.9395" lon="1.0265">
        <ele>591.1</ele>
        <time>2023-04-04T12:49:43.990Z</time>
      </trkpt>
      <trkpt lat="42.93951" lon="1.02664">
        <ele>590.7</ele>
        <time>2023-04-04T12:49:46.989Z</time>
      </trkpt>
      <trkpt lat="42.93955" lon="1.02679">
        <ele>590.1</ele>
        <time>2023-04-04T12:49:49.989Z</time>
      </trkpt>
      <trkpt lat="42.93959" lon="1.02691">
        <ele>589.1</ele>
        <time>2023-04-04T12:49:52.989Z</time>
      </trkpt>
      <trkpt lat="42.93962" lon="1.02704">
        <ele>587.5</ele>
        <time>2023-04-04T12:49:55.989Z</time>
      </trkpt>
      <trkpt lat="42.93967" lon="1.02718">
        <ele>585.4</ele>
        <time>2023-04-04T12:49:58.989Z</time>
      </trkpt>
      <trkpt lat="42.93975" lon="1.02729">
        <ele>583.3</ele>
        <time>2023-04-04T12:50:01.989Z</time>
      </trkpt>
      <trkpt lat="42.93984" lon="1.02739">
        <ele>581.4</ele>
        <time>2023-04-04T12:50:04.989Z</time>
      </trkpt>
      <trkpt lat="42.93993" lon="1.02744">
        <ele>580.1</ele>
        <time>2023-04-04T12:50:07.989Z</time>
      </trkpt>
      <trkpt lat="42.94003" lon="1.02748">
        <ele>578.9</ele>
        <time>2023-04-04T12:50:11.989Z</time>
      </trkpt>
      <trkpt lat="42.94012" lon="1.02754">
        <ele>577</ele>
        <time>2023-04-04T12:50:15.988Z</time>
      </trkpt>
      <trkpt lat="42.94022" lon="1.02763">
        <ele>573.5</ele>
        <time>2023-04-04T12:50:20.988Z</time>
      </trkpt>
      <trkpt lat="42.94031" lon="1.02771">
        <ele>570.1</ele>
        <time>2023-04-04T12:50:23.988Z</time>
      </trkpt>
      <trkpt lat="42.94041" lon="1.02777">
        <ele>566.2</ele>
        <time>2023-04-04T12:50:26.988Z</time>
      </trkpt>
      <trkpt lat="42.94053" lon="1.02783">
        <ele>562.2</ele>
        <time>2023-04-04T12:50:29.988Z</time>
      </trkpt>
      <trkpt lat="42.94063" lon="1.02789">
        <ele>558.5</ele>
        <time>2023-04-04T12:50:32.988Z</time>
      </trkpt>
      <trkpt lat="42.94072" lon="1.02787">
        <ele>555.9</ele>
        <time>2023-04-04T12:50:35.988Z</time>
      </trkpt>
      <trkpt lat="42.94084" lon="1.02786">
        <ele>553.3</ele>
        <time>2023-04-04T12:50:41.987Z</time>
      </trkpt>
      <trkpt lat="42.94093" lon="1.02782">
        <ele>552.6</ele>
        <time>2023-04-04T12:50:45.987Z</time>
      </trkpt>
      <trkpt lat="42.94102" lon="1.02776">
        <ele>552.3</ele>
        <time>2023-04-04T12:50:49.987Z</time>
      </trkpt>
      <trkpt lat="42.9411" lon="1.02765">
        <ele>552.4</ele>
        <time>2023-04-04T12:50:52.987Z</time>
      </trkpt>
      <trkpt lat="42.94115" lon="1.0275">
        <ele>552.7</ele>
        <time>2023-04-04T12:50:55.987Z</time>
      </trkpt>
      <trkpt lat="42.94122" lon="1.02738">
        <ele>553.1</ele>
        <time>2023-04-04T12:50:57.987Z</time>
      </trkpt>
      <trkpt lat="42.94129" lon="1.02721">
        <ele>553.6</ele>
        <time>2023-04-04T12:51:00.987Z</time>
      </trkpt>
      <trkpt lat="42.94136" lon="1.02707">
        <ele>554.2</ele>
        <time>2023-04-04T12:51:03.987Z</time>
      </trkpt>
      <trkpt lat="42.94147" lon="1.02695">
        <ele>554.3</ele>
        <time>2023-04-04T12:51:05.986Z</time>
      </trkpt>
      <trkpt lat="42.94156" lon="1.02681">
        <ele>554.2</ele>
        <time>2023-04-04T12:51:07.986Z</time>
      </trkpt>
      <trkpt lat="42.94164" lon="1.02669">
        <ele>553.9</ele>
        <time>2023-04-04T12:51:09.986Z</time>
      </trkpt>
      <trkpt lat="42.94172" lon="1.02655">
        <ele>553.8</ele>
        <time>2023-04-04T12:51:11.986Z</time>
      </trkpt>
      <trkpt lat="42.94179" lon="1.02646">
        <ele>554.1</ele>
        <time>2023-04-04T12:51:12.986Z</time>
      </trkpt>
      <trkpt lat="42.94187" lon="1.02631">
        <ele>555</ele>
        <time>2023-04-04T12:51:14.986Z</time>
      </trkpt>
      <trkpt lat="42.94197" lon="1.02614">
        <ele>557</ele>
        <time>2023-04-04T12:51:16.986Z</time>
      </trkpt>
      <trkpt lat="42.94206" lon="1.02603">
        <ele>558.6</ele>
        <time>2023-04-04T12:51:17.986Z</time>
      </trkpt>
      <trkpt lat="42.94217" lon="1.02584">
        <ele>562.6</ele>
        <time>2023-04-04T12:51:19.986Z</time>
      </trkpt>
      <trkpt lat="42.94223" lon="1.02574">
        <ele>564.6</ele>
        <time>2023-04-04T12:51:20.986Z</time>
      </trkpt>
      <trkpt lat="42.94228" lon="1.02564">
        <ele>566.5</ele>
        <time>2023-04-04T12:51:21.986Z</time>
      </trkpt>
      <trkpt lat="42.94235" lon="1.02552">
        <ele>568.1</ele>
        <time>2023-04-04T12:51:22.986Z</time>
      </trkpt>
      <trkpt lat="42.94247" lon="1.02533">
        <ele>570.1</ele>
        <time>2023-04-04T12:51:24.986Z</time>
      </trkpt>
      <trkpt lat="42.94253" lon="1.02524">
        <ele>570.9</ele>
        <time>2023-04-04T12:51:25.986Z</time>
      </trkpt>
      <trkpt lat="42.94269" lon="1.0251">
        <ele>573.6</ele>
        <time>2023-04-04T12:51:27.986Z</time>
      </trkpt>
      <trkpt lat="42.94277" lon="1.02501">
        <ele>575.6</ele>
        <time>2023-04-04T12:51:28.986Z</time>
      </trkpt>
      <trkpt lat="42.94287" lon="1.02518">
        <ele>582.2</ele>
        <time>2023-04-04T12:51:32.985Z</time>
      </trkpt>
      <trkpt lat="42.94279" lon="1.02534">
        <ele>582.8</ele>
        <time>2023-04-04T12:51:33.985Z</time>
      </trkpt>
      <trkpt lat="42.94274" lon="1.02549">
        <ele>583.3</ele>
        <time>2023-04-04T12:51:35.985Z</time>
      </trkpt>
      <trkpt lat="42.94273" lon="1.02565">
        <ele>583.6</ele>
        <time>2023-04-04T12:51:38.985Z</time>
      </trkpt>
      <trkpt lat="42.9427" lon="1.0258">
        <ele>583.6</ele>
        <time>2023-04-04T12:51:42.985Z</time>
      </trkpt>
      <trkpt lat="42.94271" lon="1.02596">
        <ele>583.9</ele>
        <time>2023-04-04T12:51:46.985Z</time>
      </trkpt>
      <trkpt lat="42.94272" lon="1.02611">
        <ele>584.3</ele>
        <time>2023-04-04T12:51:50.985Z</time>
      </trkpt>
      <trkpt lat="42.94276" lon="1.02626">
        <ele>585</ele>
        <time>2023-04-04T12:51:54.989Z</time>
      </trkpt>
      <trkpt lat="42.94278" lon="1.02639">
        <ele>585.9</ele>
        <time>2023-04-04T12:51:57.991Z</time>
      </trkpt>
      <trkpt lat="42.94279" lon="1.02654">
        <ele>587.1</ele>
        <time>2023-04-04T12:52:01.993Z</time>
      </trkpt>
      <trkpt lat="42.94279" lon="1.02666">
        <ele>587.8</ele>
        <time>2023-04-04T12:52:04.994Z</time>
      </trkpt>
      <trkpt lat="42.94278" lon="1.02678">
        <ele>588.2</ele>
        <time>2023-04-04T12:52:07.995Z</time>
      </trkpt>
      <trkpt lat="42.94279" lon="1.02694">
        <ele>588.1</ele>
        <time>2023-04-04T12:52:11.996Z</time>
      </trkpt>
      <trkpt lat="42.94282" lon="1.0271">
        <ele>587.7</ele>
        <time>2023-04-04T12:52:15.997Z</time>
      </trkpt>
      <trkpt lat="42.94288" lon="1.02722">
        <ele>587.2</ele>
        <time>2023-04-04T12:52:19.997Z</time>
      </trkpt>
      <trkpt lat="42.94294" lon="1.02735">
        <ele>586.7</ele>
        <time>2023-04-04T12:52:23.998Z</time>
      </trkpt>
      <trkpt lat="42.943" lon="1.02745">
        <ele>586.1</ele>
        <time>2023-04-04T12:52:26.998Z</time>
      </trkpt>
      <trkpt lat="42.94306" lon="1.02756">
        <ele>585.1</ele>
        <time>2023-04-04T12:52:30.998Z</time>
      </trkpt>
      <trkpt lat="42.94312" lon="1.02768">
        <ele>583.5</ele>
        <time>2023-04-04T12:52:35.998Z</time>
      </trkpt>
      <trkpt lat="42.94318" lon="1.02779">
        <ele>581.9</ele>
        <time>2023-04-04T12:52:40.998Z</time>
      </trkpt>
      <trkpt lat="42.94324" lon="1.02789">
        <ele>580.4</ele>
        <time>2023-04-04T12:52:45.998Z</time>
      </trkpt>
      <trkpt lat="42.94333" lon="1.02795">
        <ele>578.8</ele>
        <time>2023-04-04T12:52:52.998Z</time>
      </trkpt>
      <trkpt lat="42.94342" lon="1.02799">
        <ele>578.4</ele>
        <time>2023-04-04T12:52:59.998Z</time>
      </trkpt>
      <trkpt lat="42.94352" lon="1.02806">
        <ele>578.5</ele>
        <time>2023-04-04T12:53:04.998Z</time>
      </trkpt>
      <trkpt lat="42.94362" lon="1.028">
        <ele>578.9</ele>
        <time>2023-04-04T12:53:07.998Z</time>
      </trkpt>
      <trkpt lat="42.9437" lon="1.02792">
        <ele>579.6</ele>
        <time>2023-04-04T12:53:09.998Z</time>
      </trkpt>
      <trkpt lat="42.94382" lon="1.02781">
        <ele>581</ele>
        <time>2023-04-04T12:53:11.998Z</time>
      </trkpt>
      <trkpt lat="42.94394" lon="1.02772">
        <ele>583.4</ele>
        <time>2023-04-04T12:53:13.998Z</time>
      </trkpt>
      <trkpt lat="42.94404" lon="1.02764">
        <ele>586.6</ele>
        <time>2023-04-04T12:53:15.998Z</time>
      </trkpt>
      <trkpt lat="42.94416" lon="1.0276">
        <ele>589.9</ele>
        <time>2023-04-04T12:53:17.998Z</time>
      </trkpt>
      <trkpt lat="42.94427" lon="1.02768">
        <ele>592.9</ele>
        <time>2023-04-04T12:53:19.998Z</time>
      </trkpt>
      <trkpt lat="42.94429" lon="1.02793">
        <ele>594</ele>
        <time>2023-04-04T12:53:21.997Z</time>
      </trkpt>
      <trkpt lat="42.94433" lon="1.02807">
        <ele>594.2</ele>
        <time>2023-04-04T12:53:23.997Z</time>
      </trkpt>
      <trkpt lat="42.94435" lon="1.0282">
        <ele>594</ele>
        <time>2023-04-04T12:53:25.997Z</time>
      </trkpt>
      <trkpt lat="42.94435" lon="1.02833">
        <ele>593.5</ele>
        <time>2023-04-04T12:53:28.997Z</time>
      </trkpt>
      <trkpt lat="42.94439" lon="1.02846">
        <ele>592.5</ele>
        <time>2023-04-04T12:53:32.997Z</time>
      </trkpt>
      <trkpt lat="42.94445" lon="1.02857">
        <ele>591.1</ele>
        <time>2023-04-04T12:53:37.997Z</time>
      </trkpt>
      <trkpt lat="42.94454" lon="1.02854">
        <ele>590.3</ele>
        <time>2023-04-04T12:53:41.997Z</time>
      </trkpt>
      <trkpt lat="42.94459" lon="1.02843">
        <ele>590.6</ele>
        <time>2023-04-04T12:53:45.997Z</time>
      </trkpt>
      <trkpt lat="42.94465" lon="1.02831">
        <ele>592</ele>
        <time>2023-04-04T12:53:50.996Z</time>
      </trkpt>
      <trkpt lat="42.94469" lon="1.02819">
        <ele>593.8</ele>
        <time>2023-04-04T12:53:54.996Z</time>
      </trkpt>
      <trkpt lat="42.94477" lon="1.02829">
        <ele>595.6</ele>
        <time>2023-04-04T12:53:59.996Z</time>
      </trkpt>
      <trkpt lat="42.94482" lon="1.02841">
        <ele>595.5</ele>
        <time>2023-04-04T12:54:02.996Z</time>
      </trkpt>
      <trkpt lat="42.9449" lon="1.02849">
        <ele>595.1</ele>
        <time>2023-04-04T12:54:05.996Z</time>
      </trkpt>
      <trkpt lat="42.94497" lon="1.02856">
        <ele>594.4</ele>
        <time>2023-04-04T12:54:09.996Z</time>
      </trkpt>
      <trkpt lat="42.94506" lon="1.02861">
        <ele>593.7</ele>
        <time>2023-04-04T12:54:14.995Z</time>
      </trkpt>
      <trkpt lat="42.94512" lon="1.02876">
        <ele>593</ele>
        <time>2023-04-04T12:54:20.995Z</time>
      </trkpt>
      <trkpt lat="42.94517" lon="1.02891">
        <ele>591.9</ele>
        <time>2023-04-04T12:54:24.995Z</time>
      </trkpt>
      <trkpt lat="42.94522" lon="1.02903">
        <ele>590.1</ele>
        <time>2023-04-04T12:54:28.995Z</time>
      </trkpt>
      <trkpt lat="42.94538" lon="1.029">
        <ele>590.3</ele>
        <time>2023-04-04T12:54:30.995Z</time>
      </trkpt>
      <trkpt lat="42.94551" lon="1.02893">
        <ele>591.3</ele>
        <time>2023-04-04T12:54:32.995Z</time>
      </trkpt>
      <trkpt lat="42.94564" lon="1.02885">
        <ele>593.1</ele>
        <time>2023-04-04T12:54:34.995Z</time>
      </trkpt>
      <trkpt lat="42.94573" lon="1.02878">
        <ele>594.4</ele>
        <time>2023-04-04T12:54:35.995Z</time>
      </trkpt>
      <trkpt lat="42.94581" lon="1.02874">
        <ele>596</ele>
        <time>2023-04-04T12:54:36.995Z</time>
      </trkpt>
      <trkpt lat="42.94595" lon="1.02868">
        <ele>600.7</ele>
        <time>2023-04-04T12:54:38.994Z</time>
      </trkpt>
      <trkpt lat="42.94609" lon="1.02861">
        <ele>607.6</ele>
        <time>2023-04-04T12:54:40.994Z</time>
      </trkpt>
      <trkpt lat="42.94617" lon="1.02869">
        <ele>613.9</ele>
        <time>2023-04-04T12:54:42.994Z</time>
      </trkpt>
      <trkpt lat="42.94617" lon="1.02883">
        <ele>618.1</ele>
        <time>2023-04-04T12:54:45.994Z</time>
      </trkpt>
      <trkpt lat="42.9461" lon="1.02896">
        <ele>617</ele>
        <time>2023-04-04T12:54:48.994Z</time>
      </trkpt>
      <trkpt lat="42.9461" lon="1.0291">
        <ele>616.1</ele>
        <time>2023-04-04T12:54:52.994Z</time>
      </trkpt>
      <trkpt lat="42.94609" lon="1.02923">
        <ele>615.5</ele>
        <time>2023-04-04T12:54:55.994Z</time>
      </trkpt>
      <trkpt lat="42.94607" lon="1.02938">
        <ele>614.8</ele>
        <time>2023-04-04T12:54:58.994Z</time>
      </trkpt>
      <trkpt lat="42.94605" lon="1.02952">
        <ele>614</ele>
        <time>2023-04-04T12:55:01.994Z</time>
      </trkpt>
      <trkpt lat="42.94602" lon="1.02964">
        <ele>613.1</ele>
        <time>2023-04-04T12:55:04.993Z</time>
      </trkpt>
      <trkpt lat="42.94597" lon="1.02979">
        <ele>612.1</ele>
        <time>2023-04-04T12:55:07.993Z</time>
      </trkpt>
      <trkpt lat="42.94591" lon="1.02994">
        <ele>610.6</ele>
        <time>2023-04-04T12:55:10.993Z</time>
      </trkpt>
      <trkpt lat="42.94586" lon="1.03007">
        <ele>609.4</ele>
        <time>2023-04-04T12:55:12.993Z</time>
      </trkpt>
      <trkpt lat="42.94579" lon="1.0302">
        <ele>607.7</ele>
        <time>2023-04-04T12:55:14.993Z</time>
      </trkpt>
      <trkpt lat="42.94576" lon="1.03035">
        <ele>605.8</ele>
        <time>2023-04-04T12:55:16.993Z</time>
      </trkpt>
      <trkpt lat="42.9457" lon="1.03047">
        <ele>603.7</ele>
        <time>2023-04-04T12:55:18.993Z</time>
      </trkpt>
      <trkpt lat="42.94562" lon="1.0306">
        <ele>601.4</ele>
        <time>2023-04-04T12:55:20.993Z</time>
      </trkpt>
      <trkpt lat="42.94556" lon="1.0307">
        <ele>599.2</ele>
        <time>2023-04-04T12:55:22.993Z</time>
      </trkpt>
      <trkpt lat="42.94549" lon="1.03082">
        <ele>597.2</ele>
        <time>2023-04-04T12:55:24.993Z</time>
      </trkpt>
      <trkpt lat="42.94544" lon="1.03097">
        <ele>595.1</ele>
        <time>2023-04-04T12:55:26.993Z</time>
      </trkpt>
      <trkpt lat="42.94541" lon="1.0311">
        <ele>592.8</ele>
        <time>2023-04-04T12:55:28.993Z</time>
      </trkpt>
      <trkpt lat="42.94537" lon="1.03124">
        <ele>590.6</ele>
        <time>2023-04-04T12:55:30.992Z</time>
      </trkpt>
      <trkpt lat="42.94534" lon="1.0314">
        <ele>588.4</ele>
        <time>2023-04-04T12:55:32.992Z</time>
      </trkpt>
      <trkpt lat="42.94533" lon="1.03153">
        <ele>586.5</ele>
        <time>2023-04-04T12:55:34.992Z</time>
      </trkpt>
      <trkpt lat="42.9453" lon="1.03167">
        <ele>585</ele>
        <time>2023-04-04T12:55:36.992Z</time>
      </trkpt>
      <trkpt lat="42.94527" lon="1.03182">
        <ele>583.3</ele>
        <time>2023-04-04T12:55:38.992Z</time>
      </trkpt>
      <trkpt lat="42.94526" lon="1.03196">
        <ele>581.3</ele>
        <time>2023-04-04T12:55:40.992Z</time>
      </trkpt>
      <trkpt lat="42.94526" lon="1.03214">
        <ele>578.8</ele>
        <time>2023-04-04T12:55:42.992Z</time>
      </trkpt>
      <trkpt lat="42.94528" lon="1.03226">
        <ele>575.3</ele>
        <time>2023-04-04T12:55:45.992Z</time>
      </trkpt>
      <trkpt lat="42.94535" lon="1.03241">
        <ele>572.5</ele>
        <time>2023-04-04T12:55:47.992Z</time>
      </trkpt>
      <trkpt lat="42.94547" lon="1.03245">
        <ele>568.7</ele>
        <time>2023-04-04T12:55:50.992Z</time>
      </trkpt>
      <trkpt lat="42.94561" lon="1.0324">
        <ele>566.3</ele>
        <time>2023-04-04T12:55:53.992Z</time>
      </trkpt>
      <trkpt lat="42.94573" lon="1.03233">
        <ele>565.5</ele>
        <time>2023-04-04T12:55:55.991Z</time>
      </trkpt>
      <trkpt lat="42.94588" lon="1.03224">
        <ele>565.2</ele>
        <time>2023-04-04T12:55:57.991Z</time>
      </trkpt>
      <trkpt lat="42.94603" lon="1.03218">
        <ele>565.8</ele>
        <time>2023-04-04T12:55:59.991Z</time>
      </trkpt>
      <trkpt lat="42.94621" lon="1.03208">
        <ele>567</ele>
        <time>2023-04-04T12:56:01.991Z</time>
      </trkpt>
      <trkpt lat="42.94637" lon="1.03199">
        <ele>569</ele>
        <time>2023-04-04T12:56:03.991Z</time>
      </trkpt>
      <trkpt lat="42.94662" lon="1.03191">
        <ele>571.4</ele>
        <time>2023-04-04T12:56:05.991Z</time>
      </trkpt>
      <trkpt lat="42.94672" lon="1.03187">
        <ele>572.9</ele>
        <time>2023-04-04T12:56:06.991Z</time>
      </trkpt>
      <trkpt lat="42.94683" lon="1.03185">
        <ele>575</ele>
        <time>2023-04-04T12:56:07.991Z</time>
      </trkpt>
      <trkpt lat="42.94693" lon="1.03183">
        <ele>577.7</ele>
        <time>2023-04-04T12:56:08.991Z</time>
      </trkpt>
      <trkpt lat="42.9471" lon="1.03184">
        <ele>584</ele>
        <time>2023-04-04T12:56:10.991Z</time>
      </trkpt>
      <trkpt lat="42.9472" lon="1.03188">
        <ele>589.6</ele>
        <time>2023-04-04T12:56:12.991Z</time>
      </trkpt>
      <trkpt lat="42.94727" lon="1.032">
        <ele>593.5</ele>
        <time>2023-04-04T12:56:14.991Z</time>
      </trkpt>
      <trkpt lat="42.94723" lon="1.03214">
        <ele>595.6</ele>
        <time>2023-04-04T12:56:16.991Z</time>
      </trkpt>
      <trkpt lat="42.94713" lon="1.03226">
        <ele>595.5</ele>
        <time>2023-04-04T12:56:18.991Z</time>
      </trkpt>
      <trkpt lat="42.94707" lon="1.03241">
        <ele>594.8</ele>
        <time>2023-04-04T12:56:20.990Z</time>
      </trkpt>
      <trkpt lat="42.94699" lon="1.03252">
        <ele>593.7</ele>
        <time>2023-04-04T12:56:22.990Z</time>
      </trkpt>
      <trkpt lat="42.94692" lon="1.03269">
        <ele>592.2</ele>
        <time>2023-04-04T12:56:24.990Z</time>
      </trkpt>
      <trkpt lat="42.94688" lon="1.03281">
        <ele>591.5</ele>
        <time>2023-04-04T12:56:25.990Z</time>
      </trkpt>
      <trkpt lat="42.94683" lon="1.03303">
        <ele>590.4</ele>
        <time>2023-04-04T12:56:27.990Z</time>
      </trkpt>
      <trkpt lat="42.94675" lon="1.03332">
        <ele>589.6</ele>
        <time>2023-04-04T12:56:29.990Z</time>
      </trkpt>
      <trkpt lat="42.94668" lon="1.03347">
        <ele>588.8</ele>
        <time>2023-04-04T12:56:30.990Z</time>
      </trkpt>
      <trkpt lat="42.94663" lon="1.03358">
        <ele>587.8</ele>
        <time>2023-04-04T12:56:31.990Z</time>
      </trkpt>
      <trkpt lat="42.94655" lon="1.03379">
        <ele>585.7</ele>
        <time>2023-04-04T12:56:33.990Z</time>
      </trkpt>
      <trkpt lat="42.94649" lon="1.0339">
        <ele>584.4</ele>
        <time>2023-04-04T12:56:34.990Z</time>
      </trkpt>
      <trkpt lat="42.94643" lon="1.03409">
        <ele>582</ele>
        <time>2023-04-04T12:56:36.990Z</time>
      </trkpt>
      <trkpt lat="42.94639" lon="1.03423">
        <ele>580.1</ele>
        <time>2023-04-04T12:56:38.990Z</time>
      </trkpt>
      <trkpt lat="42.94633" lon="1.03434">
        <ele>579</ele>
        <time>2023-04-04T12:56:39.990Z</time>
      </trkpt>
      <trkpt lat="42.94622" lon="1.03454">
        <ele>576.5</ele>
        <time>2023-04-04T12:56:41.990Z</time>
      </trkpt>
      <trkpt lat="42.94616" lon="1.0347">
        <ele>573.8</ele>
        <time>2023-04-04T12:56:43.990Z</time>
      </trkpt>
      <trkpt lat="42.94611" lon="1.0349">
        <ele>571.9</ele>
        <time>2023-04-04T12:56:45.989Z</time>
      </trkpt>
      <trkpt lat="42.94609" lon="1.03505">
        <ele>570.6</ele>
        <time>2023-04-04T12:56:47.989Z</time>
      </trkpt>
      <trkpt lat="42.94611" lon="1.03526">
        <ele>569.2</ele>
        <time>2023-04-04T12:56:50.989Z</time>
      </trkpt>
      <trkpt lat="42.94616" lon="1.03541">
        <ele>568.6</ele>
        <time>2023-04-04T12:56:53.989Z</time>
      </trkpt>
      <trkpt lat="42.94622" lon="1.03557">
        <ele>568.3</ele>
        <time>2023-04-04T12:56:56.989Z</time>
      </trkpt>
      <trkpt lat="42.94629" lon="1.03571">
        <ele>568.5</ele>
        <time>2023-04-04T12:56:59.989Z</time>
      </trkpt>
      <trkpt lat="42.94637" lon="1.03582">
        <ele>569</ele>
        <time>2023-04-04T12:57:02.989Z</time>
      </trkpt>
      <trkpt lat="42.94643" lon="1.03598">
        <ele>569.7</ele>
        <time>2023-04-04T12:57:05.989Z</time>
      </trkpt>
      <trkpt lat="42.94652" lon="1.03612">
        <ele>570.1</ele>
        <time>2023-04-04T12:57:06.989Z</time>
      </trkpt>
      <trkpt lat="42.9465" lon="1.0363">
        <ele>570.8</ele>
        <time>2023-04-04T12:57:08.989Z</time>
      </trkpt>
      <trkpt lat="42.94645" lon="1.03644">
        <ele>570.8</ele>
        <time>2023-04-04T12:57:10.988Z</time>
      </trkpt>
      <trkpt lat="42.94641" lon="1.03661">
        <ele>570.1</ele>
        <time>2023-04-04T12:57:13.988Z</time>
      </trkpt>
      <trkpt lat="42.94641" lon="1.03676">
        <ele>569.5</ele>
        <time>2023-04-04T12:57:15.988Z</time>
      </trkpt>
      <trkpt lat="42.94641" lon="1.03691">
        <ele>568.8</ele>
        <time>2023-04-04T12:57:17.988Z</time>
      </trkpt>
      <trkpt lat="42.94643" lon="1.03708">
        <ele>568.1</ele>
        <time>2023-04-04T12:57:19.988Z</time>
      </trkpt>
      <trkpt lat="42.94647" lon="1.03722">
        <ele>567.7</ele>
        <time>2023-04-04T12:57:21.988Z</time>
      </trkpt>
      <trkpt lat="42.94654" lon="1.03732">
        <ele>567.7</ele>
        <time>2023-04-04T12:57:23.988Z</time>
      </trkpt>
      <trkpt lat="42.94659" lon="1.03749">
        <ele>568</ele>
        <time>2023-04-04T12:57:25.988Z</time>
      </trkpt>
      <trkpt lat="42.94671" lon="1.03759">
        <ele>568.4</ele>
        <time>2023-04-04T12:57:27.988Z</time>
      </trkpt>
      <trkpt lat="42.94684" lon="1.03778">
        <ele>568.7</ele>
        <time>2023-04-04T12:57:29.988Z</time>
      </trkpt>
      <trkpt lat="42.94691" lon="1.03789">
        <ele>568.7</ele>
        <time>2023-04-04T12:57:30.988Z</time>
      </trkpt>
      <trkpt lat="42.94697" lon="1.03799">
        <ele>568.6</ele>
        <time>2023-04-04T12:57:31.988Z</time>
      </trkpt>
      <trkpt lat="42.94704" lon="1.0381">
        <ele>568.5</ele>
        <time>2023-04-04T12:57:32.988Z</time>
      </trkpt>
      <trkpt lat="42.9471" lon="1.0382">
        <ele>568.4</ele>
        <time>2023-04-04T12:57:33.988Z</time>
      </trkpt>
      <trkpt lat="42.94718" lon="1.03832">
        <ele>568.2</ele>
        <time>2023-04-04T12:57:34.988Z</time>
      </trkpt>
      <trkpt lat="42.94724" lon="1.03843">
        <ele>568</ele>
        <time>2023-04-04T12:57:35.988Z</time>
      </trkpt>
      <trkpt lat="42.94731" lon="1.03855">
        <ele>567.8</ele>
        <time>2023-04-04T12:57:36.987Z</time>
      </trkpt>
      <trkpt lat="42.94736" lon="1.03865">
        <ele>567.4</ele>
        <time>2023-04-04T12:57:37.987Z</time>
      </trkpt>
      <trkpt lat="42.94743" lon="1.03876">
        <ele>567.1</ele>
        <time>2023-04-04T12:57:38.987Z</time>
      </trkpt>
      <trkpt lat="42.94752" lon="1.03895">
        <ele>566.1</ele>
        <time>2023-04-04T12:57:40.987Z</time>
      </trkpt>
      <trkpt lat="42.94758" lon="1.03904">
        <ele>565.3</ele>
        <time>2023-04-04T12:57:41.987Z</time>
      </trkpt>
      <trkpt lat="42.9477" lon="1.03924">
        <ele>563</ele>
        <time>2023-04-04T12:57:43.987Z</time>
      </trkpt>
      <trkpt lat="42.94783" lon="1.03945">
        <ele>558.7</ele>
        <time>2023-04-04T12:57:45.987Z</time>
      </trkpt>
      <trkpt lat="42.94789" lon="1.03955">
        <ele>556</ele>
        <time>2023-04-04T12:57:46.987Z</time>
      </trkpt>
      <trkpt lat="42.94798" lon="1.0397">
        <ele>550.9</ele>
        <time>2023-04-04T12:57:48.987Z</time>
      </trkpt>
      <trkpt lat="42.94805" lon="1.03981">
        <ele>548.8</ele>
        <time>2023-04-04T12:57:49.987Z</time>
      </trkpt>
      <trkpt lat="42.94811" lon="1.03995">
        <ele>546.7</ele>
        <time>2023-04-04T12:57:50.987Z</time>
      </trkpt>
      <trkpt lat="42.94814" lon="1.04007">
        <ele>544.5</ele>
        <time>2023-04-04T12:57:51.987Z</time>
      </trkpt>
      <trkpt lat="42.9482" lon="1.04031">
        <ele>539.1</ele>
        <time>2023-04-04T12:57:53.987Z</time>
      </trkpt>
      <trkpt lat="42.94829" lon="1.0405">
        <ele>533.9</ele>
        <time>2023-04-04T12:57:55.987Z</time>
      </trkpt>
      <trkpt lat="42.94841" lon="1.04067">
        <ele>528.8</ele>
        <time>2023-04-04T12:57:57.987Z</time>
      </trkpt>
      <trkpt lat="42.94848" lon="1.04075">
        <ele>525.7</ele>
        <time>2023-04-04T12:57:58.987Z</time>
      </trkpt>
      <trkpt lat="42.94863" lon="1.04087">
        <ele>519.4</ele>
        <time>2023-04-04T12:58:00.987Z</time>
      </trkpt>
      <trkpt lat="42.9488" lon="1.041">
        <ele>512.7</ele>
        <time>2023-04-04T12:58:02.986Z</time>
      </trkpt>
      <trkpt lat="42.94895" lon="1.04107">
        <ele>507.6</ele>
        <time>2023-04-04T12:58:04.986Z</time>
      </trkpt>
      <trkpt lat="42.94908" lon="1.04117">
        <ele>503.4</ele>
        <time>2023-04-04T12:58:06.986Z</time>
      </trkpt>
      <trkpt lat="42.94919" lon="1.04116">
        <ele>501.9</ele>
        <time>2023-04-04T12:58:07.986Z</time>
      </trkpt>
      <trkpt lat="42.94934" lon="1.0412">
        <ele>499</ele>
        <time>2023-04-04T12:58:09.986Z</time>
      </trkpt>
      <trkpt lat="42.94948" lon="1.04126">
        <ele>496.5</ele>
        <time>2023-04-04T12:58:11.986Z</time>
      </trkpt>
      <trkpt lat="42.94963" lon="1.0413">
        <ele>494.4</ele>
        <time>2023-04-04T12:58:13.986Z</time>
      </trkpt>
      <trkpt lat="42.94974" lon="1.04137">
        <ele>492.7</ele>
        <time>2023-04-04T12:58:15.986Z</time>
      </trkpt>
      <trkpt lat="42.94989" lon="1.04145">
        <ele>491.2</ele>
        <time>2023-04-04T12:58:17.986Z</time>
      </trkpt>
      <trkpt lat="42.95001" lon="1.04153">
        <ele>490.3</ele>
        <time>2023-04-04T12:58:19.986Z</time>
      </trkpt>
      <trkpt lat="42.9501" lon="1.0416">
        <ele>490.5</ele>
        <time>2023-04-04T12:58:21.986Z</time>
      </trkpt>
      <trkpt lat="42.95014" lon="1.04162">
        <ele>491.2</ele>
        <time>2023-04-04T12:58:23.986Z</time>
      </trkpt>
      <trkpt lat="42.95015" lon="1.04159">
        <ele>491.5</ele>
        <time>2023-04-04T12:58:24.986Z</time>
      </trkpt>
      <trkpt lat="42.95015" lon="1.04161">
        <ele>492.5</ele>
        <time>2023-04-04T12:58:28.985Z</time>
      </trkpt>
      <trkpt lat="42.95015" lon="1.04161">
        <ele>493.1</ele>
        <time>2023-04-04T12:58:33.985Z</time>
      </trkpt>
      <trkpt lat="42.95015" lon="1.04161">
        <ele>493.1</ele>
        <time>2023-04-04T12:58:34.985Z</time>
      </trkpt>
      <trkpt lat="42.95016" lon="1.0416">
        <ele>493.3</ele>
        <time>2023-04-04T12:58:38.985Z</time>
      </trkpt>
      <trkpt lat="42.95015" lon="1.04175">
        <ele>493.5</ele>
        <time>2023-04-04T12:58:43.985Z</time>
      </trkpt>
      <trkpt lat="42.95018" lon="1.04189">
        <ele>493.8</ele>
        <time>2023-04-04T12:58:46.985Z</time>
      </trkpt>
      <trkpt lat="42.95016" lon="1.04204">
        <ele>494.2</ele>
        <time>2023-04-04T12:58:50.985Z</time>
      </trkpt>
      <trkpt lat="42.95024" lon="1.04219">
        <ele>494.6</ele>
        <time>2023-04-04T12:58:54.984Z</time>
      </trkpt>
      <trkpt lat="42.95034" lon="1.04215">
        <ele>495.6</ele>
        <time>2023-04-04T12:58:56.984Z</time>
      </trkpt>
      <trkpt lat="42.95044" lon="1.0421">
        <ele>497.5</ele>
        <time>2023-04-04T12:58:58.984Z</time>
      </trkpt>
      <trkpt lat="42.95052" lon="1.04202">
        <ele>503.7</ele>
        <time>2023-04-04T12:59:02.984Z</time>
      </trkpt>
      <trkpt lat="42.95056" lon="1.04216">
        <ele>510</ele>
        <time>2023-04-04T12:59:12.984Z</time>
      </trkpt>
      <trkpt lat="42.95067" lon="1.04224">
        <ele>510.5</ele>
        <time>2023-04-04T12:59:15.984Z</time>
      </trkpt>
      <trkpt lat="42.95057" lon="1.04228">
        <ele>512.2</ele>
        <time>2023-04-04T12:59:19.983Z</time>
      </trkpt>
      <trkpt lat="42.95085" lon="1.04238">
        <ele>512.5</ele>
        <time>2023-04-04T12:59:26.989Z</time>
      </trkpt>
      <trkpt lat="42.95095" lon="1.04236">
        <ele>520.6</ele>
        <time>2023-04-04T12:59:31.992Z</time>
      </trkpt>
      <trkpt lat="42.95102" lon="1.04244">
        <ele>526.6</ele>
        <time>2023-04-04T12:59:35.994Z</time>
      </trkpt>
      <trkpt lat="42.9511" lon="1.04252">
        <ele>530.6</ele>
        <time>2023-04-04T12:59:39.995Z</time>
      </trkpt>
      <trkpt lat="42.95119" lon="1.04257">
        <ele>534.8</ele>
        <time>2023-04-04T12:59:44.996Z</time>
      </trkpt>
      <trkpt lat="42.95128" lon="1.04262">
        <ele>538.9</ele>
        <time>2023-04-04T12:59:50.997Z</time>
      </trkpt>
      <trkpt lat="42.95137" lon="1.04267">
        <ele>542.8</ele>
        <time>2023-04-04T12:59:56.998Z</time>
      </trkpt>
      <trkpt lat="42.95145" lon="1.04276">
        <ele>546.6</ele>
        <time>2023-04-04T13:00:04.998Z</time>
      </trkpt>
      <trkpt lat="42.95151" lon="1.0429">
        <ele>548.2</ele>
        <time>2023-04-04T13:00:10.998Z</time>
      </trkpt>
      <trkpt lat="42.95154" lon="1.04304">
        <ele>548.6</ele>
        <time>2023-04-04T13:00:13.998Z</time>
      </trkpt>
      <trkpt lat="42.9516" lon="1.04316">
        <ele>549.3</ele>
        <time>2023-04-04T13:00:17.998Z</time>
      </trkpt>
      <trkpt lat="42.95168" lon="1.04328">
        <ele>550.4</ele>
        <time>2023-04-04T13:00:21.998Z</time>
      </trkpt>
      <trkpt lat="42.95175" lon="1.04339">
        <ele>551.6</ele>
        <time>2023-04-04T13:00:25.998Z</time>
      </trkpt>
      <trkpt lat="42.95177" lon="1.04352">
        <ele>552.8</ele>
        <time>2023-04-04T13:00:29.998Z</time>
      </trkpt>
      <trkpt lat="42.95176" lon="1.04368">
        <ele>553.1</ele>
        <time>2023-04-04T13:00:32.998Z</time>
      </trkpt>
      <trkpt lat="42.95173" lon="1.04384">
        <ele>552.8</ele>
        <time>2023-04-04T13:00:35.998Z</time>
      </trkpt>
      <trkpt lat="42.95173" lon="1.044">
        <ele>552.1</ele>
        <time>2023-04-04T13:00:39.998Z</time>
      </trkpt>
      <trkpt lat="42.95175" lon="1.04417">
        <ele>551.6</ele>
        <time>2023-04-04T13:00:42.998Z</time>
      </trkpt>
      <trkpt lat="42.95177" lon="1.04431">
        <ele>551.5</ele>
        <time>2023-04-04T13:00:45.998Z</time>
      </trkpt>
      <trkpt lat="42.9518" lon="1.04447">
        <ele>551.8</ele>
        <time>2023-04-04T13:00:48.998Z</time>
      </trkpt>
      <trkpt lat="42.95182" lon="1.04462">
        <ele>552.3</ele>
        <time>2023-04-04T13:00:51.997Z</time>
      </trkpt>
      <trkpt lat="42.95182" lon="1.04475">
        <ele>553.1</ele>
        <time>2023-04-04T13:00:54.997Z</time>
      </trkpt>
      <trkpt lat="42.95182" lon="1.04491">
        <ele>554.1</ele>
        <time>2023-04-04T13:00:58.997Z</time>
      </trkpt>
      <trkpt lat="42.95182" lon="1.04505">
        <ele>555.2</ele>
        <time>2023-04-04T13:01:02.997Z</time>
      </trkpt>
      <trkpt lat="42.95181" lon="1.04518">
        <ele>555.9</ele>
        <time>2023-04-04T13:01:05.997Z</time>
      </trkpt>
      <trkpt lat="42.95179" lon="1.04533">
        <ele>556.7</ele>
        <time>2023-04-04T13:01:09.997Z</time>
      </trkpt>
      <trkpt lat="42.95179" lon="1.04547">
        <ele>557.6</ele>
        <time>2023-04-04T13:01:13.997Z</time>
      </trkpt>
      <trkpt lat="42.95181" lon="1.0456">
        <ele>558.4</ele>
        <time>2023-04-04T13:01:16.997Z</time>
      </trkpt>
      <trkpt lat="42.95184" lon="1.04574">
        <ele>559.9</ele>
        <time>2023-04-04T13:01:19.996Z</time>
      </trkpt>
      <trkpt lat="42.95186" lon="1.04587">
        <ele>561.8</ele>
        <time>2023-04-04T13:01:22.996Z</time>
      </trkpt>
      <trkpt lat="42.95188" lon="1.046">
        <ele>564.2</ele>
        <time>2023-04-04T13:01:26.996Z</time>
      </trkpt>
      <trkpt lat="42.95192" lon="1.04612">
        <ele>566.5</ele>
        <time>2023-04-04T13:01:31.996Z</time>
      </trkpt>
      <trkpt lat="42.95196" lon="1.04625">
        <ele>568.6</ele>
        <time>2023-04-04T13:01:36.996Z</time>
      </trkpt>
      <trkpt lat="42.95202" lon="1.04637">
        <ele>571.2</ele>
        <time>2023-04-04T13:01:42.995Z</time>
      </trkpt>
      <trkpt lat="42.95206" lon="1.04649">
        <ele>573.2</ele>
        <time>2023-04-04T13:01:46.995Z</time>
      </trkpt>
      <trkpt lat="42.95206" lon="1.04664">
        <ele>575.1</ele>
        <time>2023-04-04T13:01:51.995Z</time>
      </trkpt>
      <trkpt lat="42.95203" lon="1.04676">
        <ele>575.5</ele>
        <time>2023-04-04T13:01:55.995Z</time>
      </trkpt>
      <trkpt lat="42.95204" lon="1.04691">
        <ele>575.7</ele>
        <time>2023-04-04T13:01:59.995Z</time>
      </trkpt>
      <trkpt lat="42.95207" lon="1.04703">
        <ele>576.1</ele>
        <time>2023-04-04T13:02:03.995Z</time>
      </trkpt>
      <trkpt lat="42.95205" lon="1.04717">
        <ele>576.5</ele>
        <time>2023-04-04T13:02:08.994Z</time>
      </trkpt>
      <trkpt lat="42.95206" lon="1.0473">
        <ele>576.7</ele>
        <time>2023-04-04T13:02:12.994Z</time>
      </trkpt>
      <trkpt lat="42.95208" lon="1.04744">
        <ele>576.9</ele>
        <time>2023-04-04T13:02:16.994Z</time>
      </trkpt>
      <trkpt lat="42.9521" lon="1.04757">
        <ele>577.3</ele>
        <time>2023-04-04T13:02:19.994Z</time>
      </trkpt>
      <trkpt lat="42.9521" lon="1.04769">
        <ele>578.1</ele>
        <time>2023-04-04T13:02:22.994Z</time>
      </trkpt>
      <trkpt lat="42.95208" lon="1.04781">
        <ele>579.1</ele>
        <time>2023-04-04T13:02:25.994Z</time>
      </trkpt>
      <trkpt lat="42.95205" lon="1.04794">
        <ele>580.3</ele>
        <time>2023-04-04T13:02:29.994Z</time>
      </trkpt>
      <trkpt lat="42.95202" lon="1.04807">
        <ele>581.2</ele>
        <time>2023-04-04T13:02:34.993Z</time>
      </trkpt>
      <trkpt lat="42.95202" lon="1.04823">
        <ele>582.1</ele>
        <time>2023-04-04T13:02:39.993Z</time>
      </trkpt>
      <trkpt lat="42.95203" lon="1.04838">
        <ele>583.4</ele>
        <time>2023-04-04T13:02:43.993Z</time>
      </trkpt>
      <trkpt lat="42.95201" lon="1.04853">
        <ele>584.6</ele>
        <time>2023-04-04T13:02:48.993Z</time>
      </trkpt>
      <trkpt lat="42.95202" lon="1.04868">
        <ele>585.4</ele>
        <time>2023-04-04T13:02:52.993Z</time>
      </trkpt>
      <trkpt lat="42.95202" lon="1.04885">
        <ele>586.5</ele>
        <time>2023-04-04T13:02:56.993Z</time>
      </trkpt>
      <trkpt lat="42.95202" lon="1.04899">
        <ele>587.3</ele>
        <time>2023-04-04T13:02:59.992Z</time>
      </trkpt>
      <trkpt lat="42.95199" lon="1.04913">
        <ele>587.9</ele>
        <time>2023-04-04T13:03:02.992Z</time>
      </trkpt>
      <trkpt lat="42.95196" lon="1.04926">
        <ele>588.2</ele>
        <time>2023-04-04T13:03:06.992Z</time>
      </trkpt>
      <trkpt lat="42.95193" lon="1.04938">
        <ele>588</ele>
        <time>2023-04-04T13:03:10.992Z</time>
      </trkpt>
      <trkpt lat="42.95193" lon="1.04953">
        <ele>587.9</ele>
        <time>2023-04-04T13:03:15.992Z</time>
      </trkpt>
      <trkpt lat="42.95194" lon="1.04967">
        <ele>588</ele>
        <time>2023-04-04T13:03:20.992Z</time>
      </trkpt>
      <trkpt lat="42.95191" lon="1.0498">
        <ele>588</ele>
        <time>2023-04-04T13:03:24.991Z</time>
      </trkpt>
      <trkpt lat="42.9519" lon="1.04993">
        <ele>588</ele>
        <time>2023-04-04T13:03:29.991Z</time>
      </trkpt>
      <trkpt lat="42.95186" lon="1.05005">
        <ele>587.9</ele>
        <time>2023-04-04T13:03:34.991Z</time>
      </trkpt>
      <trkpt lat="42.95186" lon="1.05021">
        <ele>587.5</ele>
        <time>2023-04-04T13:03:39.991Z</time>
      </trkpt>
      <trkpt lat="42.95189" lon="1.05034">
        <ele>586.9</ele>
        <time>2023-04-04T13:03:43.991Z</time>
      </trkpt>
      <trkpt lat="42.9519" lon="1.05048">
        <ele>585.7</ele>
        <time>2023-04-04T13:03:48.991Z</time>
      </trkpt>
      <trkpt lat="42.95192" lon="1.05063">
        <ele>584</ele>
        <time>2023-04-04T13:03:53.990Z</time>
      </trkpt>
      <trkpt lat="42.95193" lon="1.05076">
        <ele>582</ele>
        <time>2023-04-04T13:03:59.990Z</time>
      </trkpt>
      <trkpt lat="42.95193" lon="1.05089">
        <ele>580.4</ele>
        <time>2023-04-04T13:04:04.990Z</time>
      </trkpt>
      <trkpt lat="42.95193" lon="1.05102">
        <ele>579.2</ele>
        <time>2023-04-04T13:04:10.990Z</time>
      </trkpt>
      <trkpt lat="42.95193" lon="1.05115">
        <ele>578.3</ele>
        <time>2023-04-04T13:04:15.989Z</time>
      </trkpt>
      <trkpt lat="42.95192" lon="1.05128">
        <ele>577.4</ele>
        <time>2023-04-04T13:04:21.989Z</time>
      </trkpt>
      <trkpt lat="42.95189" lon="1.05141">
        <ele>576.2</ele>
        <time>2023-04-04T13:04:26.989Z</time>
      </trkpt>
      <trkpt lat="42.95184" lon="1.05153">
        <ele>574.5</ele>
        <time>2023-04-04T13:04:31.989Z</time>
      </trkpt>
      <trkpt lat="42.95176" lon="1.05161">
        <ele>571.8</ele>
        <time>2023-04-04T13:04:35.989Z</time>
      </trkpt>
      <trkpt lat="42.95182" lon="1.05171">
        <ele>569</ele>
        <time>2023-04-04T13:04:43.988Z</time>
      </trkpt>
      <trkpt lat="42.95179" lon="1.05184">
        <ele>569.4</ele>
        <time>2023-04-04T13:04:52.988Z</time>
      </trkpt>
      <trkpt lat="42.95171" lon="1.05194">
        <ele>568.5</ele>
        <time>2023-04-04T13:04:57.988Z</time>
      </trkpt>
      <trkpt lat="42.95163" lon="1.05202">
        <ele>566</ele>
        <time>2023-04-04T13:05:04.987Z</time>
      </trkpt>
      <trkpt lat="42.95154" lon="1.05211">
        <ele>563.3</ele>
        <time>2023-04-04T13:05:09.987Z</time>
      </trkpt>
      <trkpt lat="42.95161" lon="1.0522">
        <ele>561.3</ele>
        <time>2023-04-04T13:05:17.987Z</time>
      </trkpt>
      <trkpt lat="42.95157" lon="1.05231">
        <ele>561.4</ele>
        <time>2023-04-04T13:05:23.987Z</time>
      </trkpt>
      <trkpt lat="42.9515" lon="1.0524">
        <ele>560.1</ele>
        <time>2023-04-04T13:05:31.986Z</time>
      </trkpt>
      <trkpt lat="42.95143" lon="1.0525">
        <ele>558.6</ele>
        <time>2023-04-04T13:05:36.986Z</time>
      </trkpt>
      <trkpt lat="42.95138" lon="1.05264">
        <ele>556.4</ele>
        <time>2023-04-04T13:05:42.986Z</time>
      </trkpt>
      <trkpt lat="42.95129" lon="1.05279">
        <ele>554.7</ele>
        <time>2023-04-04T13:05:44.986Z</time>
      </trkpt>
      <trkpt lat="42.95126" lon="1.05293">
        <ele>552.2</ele>
        <time>2023-04-04T13:05:46.986Z</time>
      </trkpt>
      <trkpt lat="42.95125" lon="1.05311">
        <ele>548.9</ele>
        <time>2023-04-04T13:05:49.986Z</time>
      </trkpt>
      <trkpt lat="42.95127" lon="1.0533">
        <ele>547</ele>
        <time>2023-04-04T13:05:54.986Z</time>
      </trkpt>
      <trkpt lat="42.95131" lon="1.05342">
        <ele>546.7</ele>
        <time>2023-04-04T13:05:58.985Z</time>
      </trkpt>
      <trkpt lat="42.95132" lon="1.05356">
        <ele>546.5</ele>
        <time>2023-04-04T13:06:02.985Z</time>
      </trkpt>
      <trkpt lat="42.95133" lon="1.0537">
        <ele>546.3</ele>
        <time>2023-04-04T13:06:05.985Z</time>
      </trkpt>
      <trkpt lat="42.95135" lon="1.05385">
        <ele>546.1</ele>
        <time>2023-04-04T13:06:07.985Z</time>
      </trkpt>
      <trkpt lat="42.95136" lon="1.05399">
        <ele>545.9</ele>
        <time>2023-04-04T13:06:08.985Z</time>
      </trkpt>
      <trkpt lat="42.95135" lon="1.05411">
        <ele>545.4</ele>
        <time>2023-04-04T13:06:10.985Z</time>
      </trkpt>
      <trkpt lat="42.95132" lon="1.05428">
        <ele>544.4</ele>
        <time>2023-04-04T13:06:12.985Z</time>
      </trkpt>
      <trkpt lat="42.95134" lon="1.05441">
        <ele>542.9</ele>
        <time>2023-04-04T13:06:14.985Z</time>
      </trkpt>
      <trkpt lat="42.95142" lon="1.05461">
        <ele>541.7</ele>
        <time>2023-04-04T13:06:16.985Z</time>
      </trkpt>
      <trkpt lat="42.95143" lon="1.05479">
        <ele>540.7</ele>
        <time>2023-04-04T13:06:18.985Z</time>
      </trkpt>
      <trkpt lat="42.95143" lon="1.05496">
        <ele>539.2</ele>
        <time>2023-04-04T13:06:20.984Z</time>
      </trkpt>
      <trkpt lat="42.95144" lon="1.05514">
        <ele>537.6</ele>
        <time>2023-04-04T13:06:22.984Z</time>
      </trkpt>
      <trkpt lat="42.95143" lon="1.05533">
        <ele>536.1</ele>
        <time>2023-04-04T13:06:24.984Z</time>
      </trkpt>
      <trkpt lat="42.95141" lon="1.05554">
        <ele>534.6</ele>
        <time>2023-04-04T13:06:26.984Z</time>
      </trkpt>
      <trkpt lat="42.95135" lon="1.05574">
        <ele>532.4</ele>
        <time>2023-04-04T13:06:28.984Z</time>
      </trkpt>
      <trkpt lat="42.9513" lon="1.05585">
        <ele>529.6</ele>
        <time>2023-04-04T13:06:30.984Z</time>
      </trkpt>
      <trkpt lat="42.95122" lon="1.05598">
        <ele>526.5</ele>
        <time>2023-04-04T13:06:32.984Z</time>
      </trkpt>
      <trkpt lat="42.95114" lon="1.05613">
        <ele>523.6</ele>
        <time>2023-04-04T13:06:34.984Z</time>
      </trkpt>
      <trkpt lat="42.9511" lon="1.05626">
        <ele>522.5</ele>
        <time>2023-04-04T13:06:35.984Z</time>
      </trkpt>
      <trkpt lat="42.95107" lon="1.05647">
        <ele>521.3</ele>
        <time>2023-04-04T13:06:37.984Z</time>
      </trkpt>
      <trkpt lat="42.95106" lon="1.05664">
        <ele>521.1</ele>
        <time>2023-04-04T13:06:39.984Z</time>
      </trkpt>
      <trkpt lat="42.95103" lon="1.05679">
        <ele>521.4</ele>
        <time>2023-04-04T13:06:41.984Z</time>
      </trkpt>
      <trkpt lat="42.95098" lon="1.05694">
        <ele>522</ele>
        <time>2023-04-04T13:06:45.984Z</time>
      </trkpt>
      <trkpt lat="42.95094" lon="1.05705">
        <ele>522.4</ele>
        <time>2023-04-04T13:06:48.983Z</time>
      </trkpt>
      <trkpt lat="42.95088" lon="1.05716">
        <ele>522.5</ele>
        <time>2023-04-04T13:06:51.983Z</time>
      </trkpt>
      <trkpt lat="42.95083" lon="1.05727">
        <ele>522.6</ele>
        <time>2023-04-04T13:06:54.983Z</time>
      </trkpt>
      <trkpt lat="42.95075" lon="1.05737">
        <ele>522.6</ele>
        <time>2023-04-04T13:06:57.983Z</time>
      </trkpt>
      <trkpt lat="42.95063" lon="1.05742">
        <ele>522.1</ele>
        <time>2023-04-04T13:07:00.983Z</time>
      </trkpt>
      <trkpt lat="42.95053" lon="1.05745">
        <ele>520.6</ele>
        <time>2023-04-04T13:07:03.983Z</time>
      </trkpt>
      <trkpt lat="42.95044" lon="1.05751">
        <ele>517.9</ele>
        <time>2023-04-04T13:07:06.983Z</time>
      </trkpt>
      <trkpt lat="42.95034" lon="1.05754">
        <ele>514.2</ele>
        <time>2023-04-04T13:07:09.983Z</time>
      </trkpt>
      <trkpt lat="42.95023" lon="1.05757">
        <ele>511.1</ele>
        <time>2023-04-04T13:07:11.982Z</time>
      </trkpt>
      <trkpt lat="42.95013" lon="1.05766">
        <ele>508.3</ele>
        <time>2023-04-04T13:07:13.982Z</time>
      </trkpt>
      <trkpt lat="42.95004" lon="1.05777">
        <ele>505.6</ele>
        <time>2023-04-04T13:07:16.982Z</time>
      </trkpt>
      <trkpt lat="42.94999" lon="1.05787">
        <ele>505</ele>
        <time>2023-04-04T13:07:20.982Z</time>
      </trkpt>
      <trkpt lat="42.94994" lon="1.05791">
        <ele>504.7</ele>
        <time>2023-04-04T13:07:28.990Z</time>
      </trkpt>
      <trkpt lat="42.94994" lon="1.0579">
        <ele>504.3</ele>
        <time>2023-04-04T13:07:43.996Z</time>
      </trkpt>
      <trkpt lat="42.94987" lon="1.05799">
        <ele>504.2</ele>
        <time>2023-04-04T13:07:47.997Z</time>
      </trkpt>
      <trkpt lat="42.94982" lon="1.0581">
        <ele>504.3</ele>
        <time>2023-04-04T13:07:50.997Z</time>
      </trkpt>
      <trkpt lat="42.94976" lon="1.05825">
        <ele>504.6</ele>
        <time>2023-04-04T13:07:54.998Z</time>
      </trkpt>
      <trkpt lat="42.94968" lon="1.05838">
        <ele>504.8</ele>
        <time>2023-04-04T13:07:57.998Z</time>
      </trkpt>
      <trkpt lat="42.94959" lon="1.05844">
        <ele>504.7</ele>
        <time>2023-04-04T13:08:01.998Z</time>
      </trkpt>
      <trkpt lat="42.94951" lon="1.05837">
        <ele>504</ele>
        <time>2023-04-04T13:08:04.998Z</time>
      </trkpt>
      <trkpt lat="42.94942" lon="1.0583">
        <ele>500.7</ele>
        <time>2023-04-04T13:08:08.998Z</time>
      </trkpt>
      <trkpt lat="42.94932" lon="1.05826">
        <ele>494.2</ele>
        <time>2023-04-04T13:08:12.998Z</time>
      </trkpt>
      <trkpt lat="42.94923" lon="1.05824">
        <ele>487.2</ele>
        <time>2023-04-04T13:08:18.998Z</time>
      </trkpt>
      <trkpt lat="42.94916" lon="1.05816">
        <ele>482.8</ele>
        <time>2023-04-04T13:08:25.998Z</time>
      </trkpt>
      <trkpt lat="42.94907" lon="1.05816">
        <ele>480.8</ele>
        <time>2023-04-04T13:08:32.998Z</time>
      </trkpt>
      <trkpt lat="42.94898" lon="1.05806">
        <ele>479.4</ele>
        <time>2023-04-04T13:08:37.998Z</time>
      </trkpt>
      <trkpt lat="42.94891" lon="1.05798">
        <ele>477.8</ele>
        <time>2023-04-04T13:08:41.998Z</time>
      </trkpt>
      <trkpt lat="42.94882" lon="1.05791">
        <ele>476.3</ele>
        <time>2023-04-04T13:08:44.998Z</time>
      </trkpt>
      <trkpt lat="42.94871" lon="1.05789">
        <ele>474.1</ele>
        <time>2023-04-04T13:08:49.998Z</time>
      </trkpt>
      <trkpt lat="42.94865" lon="1.05799">
        <ele>472.9</ele>
        <time>2023-04-04T13:08:53.997Z</time>
      </trkpt>
      <trkpt lat="42.94864" lon="1.05813">
        <ele>472.6</ele>
        <time>2023-04-04T13:08:56.997Z</time>
      </trkpt>
      <trkpt lat="42.94865" lon="1.05827">
        <ele>472.7</ele>
        <time>2023-04-04T13:08:59.997Z</time>
      </trkpt>
      <trkpt lat="42.94863" lon="1.05841">
        <ele>472.9</ele>
        <time>2023-04-04T13:09:02.997Z</time>
      </trkpt>
      <trkpt lat="42.94861" lon="1.05853">
        <ele>473.2</ele>
        <time>2023-04-04T13:09:05.997Z</time>
      </trkpt>
      <trkpt lat="42.94858" lon="1.05867">
        <ele>473.6</ele>
        <time>2023-04-04T13:09:09.997Z</time>
      </trkpt>
      <trkpt lat="42.94852" lon="1.0588">
        <ele>473.8</ele>
        <time>2023-04-04T13:09:13.997Z</time>
      </trkpt>
      <trkpt lat="42.94847" lon="1.05892">
        <ele>473.8</ele>
        <time>2023-04-04T13:09:17.997Z</time>
      </trkpt>
      <trkpt lat="42.94837" lon="1.05882">
        <ele>473.2</ele>
        <time>2023-04-04T13:09:25.996Z</time>
      </trkpt>
      <trkpt lat="42.9483" lon="1.05867">
        <ele>472.6</ele>
        <time>2023-04-04T13:09:28.996Z</time>
      </trkpt>
      <trkpt lat="42.94821" lon="1.05877">
        <ele>470.9</ele>
        <time>2023-04-04T13:09:34.996Z</time>
      </trkpt>
      <trkpt lat="42.94814" lon="1.05886">
        <ele>470.5</ele>
        <time>2023-04-04T13:09:36.996Z</time>
      </trkpt>
      <trkpt lat="42.94804" lon="1.05897">
        <ele>470.1</ele>
        <time>2023-04-04T13:09:39.996Z</time>
      </trkpt>
      <trkpt lat="42.94798" lon="1.05905">
        <ele>469.8</ele>
        <time>2023-04-04T13:09:41.996Z</time>
      </trkpt>
      <trkpt lat="42.94787" lon="1.05918">
        <ele>469.5</ele>
        <time>2023-04-04T13:09:44.995Z</time>
      </trkpt>
      <trkpt lat="42.94782" lon="1.05931">
        <ele>469.1</ele>
        <time>2023-04-04T13:09:47.995Z</time>
      </trkpt>
      <trkpt lat="42.94781" lon="1.05944">
        <ele>469</ele>
        <time>2023-04-04T13:09:49.995Z</time>
      </trkpt>
      <trkpt lat="42.94786" lon="1.05955">
        <ele>468.9</ele>
        <time>2023-04-04T13:09:51.995Z</time>
      </trkpt>
      <trkpt lat="42.94785" lon="1.05972">
        <ele>468.8</ele>
        <time>2023-04-04T13:09:54.995Z</time>
      </trkpt>
      <trkpt lat="42.94784" lon="1.05986">
        <ele>468.7</ele>
        <time>2023-04-04T13:09:57.995Z</time>
      </trkpt>
      <trkpt lat="42.94782" lon="1.05999">
        <ele>468.7</ele>
        <time>2023-04-04T13:10:00.995Z</time>
      </trkpt>
      <trkpt lat="42.94778" lon="1.06014">
        <ele>468.6</ele>
        <time>2023-04-04T13:10:03.995Z</time>
      </trkpt>
      <trkpt lat="42.94776" lon="1.06026">
        <ele>468.5</ele>
        <time>2023-04-04T13:10:05.995Z</time>
      </trkpt>
      <trkpt lat="42.94768" lon="1.06036">
        <ele>468.2</ele>
        <time>2023-04-04T13:10:07.995Z</time>
      </trkpt>
      <trkpt lat="42.9476" lon="1.06048">
        <ele>467.9</ele>
        <time>2023-04-04T13:10:09.994Z</time>
      </trkpt>
      <trkpt lat="42.94752" lon="1.0606">
        <ele>467.4</ele>
        <time>2023-04-04T13:10:11.994Z</time>
      </trkpt>
      <trkpt lat="42.94747" lon="1.06073">
        <ele>466.7</ele>
        <time>2023-04-04T13:10:13.994Z</time>
      </trkpt>
      <trkpt lat="42.94742" lon="1.06085">
        <ele>466</ele>
        <time>2023-04-04T13:10:15.994Z</time>
      </trkpt>
      <trkpt lat="42.9474" lon="1.06097">
        <ele>465.4</ele>
        <time>2023-04-04T13:10:17.994Z</time>
      </trkpt>
      <trkpt lat="42.94737" lon="1.06114">
        <ele>464.6</ele>
        <time>2023-04-04T13:10:20.994Z</time>
      </trkpt>
      <trkpt lat="42.94736" lon="1.06132">
        <ele>464.1</ele>
        <time>2023-04-04T13:10:23.994Z</time>
      </trkpt>
      <trkpt lat="42.94732" lon="1.06144">
        <ele>463.8</ele>
        <time>2023-04-04T13:10:25.994Z</time>
      </trkpt>
      <trkpt lat="42.94729" lon="1.06161">
        <ele>463.5</ele>
        <time>2023-04-04T13:10:28.994Z</time>
      </trkpt>
      <trkpt lat="42.94727" lon="1.06175">
        <ele>463.3</ele>
        <time>2023-04-04T13:10:30.994Z</time>
      </trkpt>
      <trkpt lat="42.94727" lon="1.06191">
        <ele>463.1</ele>
        <time>2023-04-04T13:10:33.994Z</time>
      </trkpt>
      <trkpt lat="42.94722" lon="1.06206">
        <ele>463</ele>
        <time>2023-04-04T13:10:36.993Z</time>
      </trkpt>
      <trkpt lat="42.94722" lon="1.0622">
        <ele>462.8</ele>
        <time>2023-04-04T13:10:39.993Z</time>
      </trkpt>
      <trkpt lat="42.94725" lon="1.06235">
        <ele>462.7</ele>
        <time>2023-04-04T13:10:43.993Z</time>
      </trkpt>
      <trkpt lat="42.9472" lon="1.06251">
        <ele>462.6</ele>
        <time>2023-04-04T13:10:46.993Z</time>
      </trkpt>
      <trkpt lat="42.94715" lon="1.06267">
        <ele>462.5</ele>
        <time>2023-04-04T13:10:49.993Z</time>
      </trkpt>
      <trkpt lat="42.94712" lon="1.06281">
        <ele>462.3</ele>
        <time>2023-04-04T13:10:52.993Z</time>
      </trkpt>
      <trkpt lat="42.94707" lon="1.06293">
        <ele>462.2</ele>
        <time>2023-04-04T13:10:55.993Z</time>
      </trkpt>
      <trkpt lat="42.94702" lon="1.06307">
        <ele>462</ele>
        <time>2023-04-04T13:10:58.993Z</time>
      </trkpt>
      <trkpt lat="42.94695" lon="1.06324">
        <ele>461.9</ele>
        <time>2023-04-04T13:11:01.992Z</time>
      </trkpt>
      <trkpt lat="42.94693" lon="1.06336">
        <ele>461.7</ele>
        <time>2023-04-04T13:11:03.992Z</time>
      </trkpt>
      <trkpt lat="42.94688" lon="1.06347">
        <ele>461.6</ele>
        <time>2023-04-04T13:11:05.992Z</time>
      </trkpt>
      <trkpt lat="42.94688" lon="1.06361">
        <ele>461.4</ele>
        <time>2023-04-04T13:11:08.992Z</time>
      </trkpt>
      <trkpt lat="42.94689" lon="1.06375">
        <ele>461.2</ele>
        <time>2023-04-04T13:11:12.992Z</time>
      </trkpt>
      <trkpt lat="42.94688" lon="1.06389">
        <ele>461</ele>
        <time>2023-04-04T13:11:15.992Z</time>
      </trkpt>
      <trkpt lat="42.94688" lon="1.06403">
        <ele>460.9</ele>
        <time>2023-04-04T13:11:18.992Z</time>
      </trkpt>
      <trkpt lat="42.94689" lon="1.06419">
        <ele>460.7</ele>
        <time>2023-04-04T13:11:21.992Z</time>
      </trkpt>
      <trkpt lat="42.9469" lon="1.06436">
        <ele>460.6</ele>
        <time>2023-04-04T13:11:24.992Z</time>
      </trkpt>
      <trkpt lat="42.9469" lon="1.06454">
        <ele>460.5</ele>
        <time>2023-04-04T13:11:27.991Z</time>
      </trkpt>
      <trkpt lat="42.94689" lon="1.06467">
        <ele>460.4</ele>
        <time>2023-04-04T13:11:29.991Z</time>
      </trkpt>
      <trkpt lat="42.9469" lon="1.06479">
        <ele>460.3</ele>
        <time>2023-04-04T13:11:31.991Z</time>
      </trkpt>
      <trkpt lat="42.94691" lon="1.06498">
        <ele>460.2</ele>
        <time>2023-04-04T13:11:34.991Z</time>
      </trkpt>
      <trkpt lat="42.94695" lon="1.06514">
        <ele>460.1</ele>
        <time>2023-04-04T13:11:38.991Z</time>
      </trkpt>
      <trkpt lat="42.94695" lon="1.06527">
        <ele>460.1</ele>
        <time>2023-04-04T13:11:40.991Z</time>
      </trkpt>
      <trkpt lat="42.94696" lon="1.0654">
        <ele>460.1</ele>
        <time>2023-04-04T13:11:43.991Z</time>
      </trkpt>
      <trkpt lat="42.94695" lon="1.06552">
        <ele>460.1</ele>
        <time>2023-04-04T13:11:46.991Z</time>
      </trkpt>
      <trkpt lat="42.94693" lon="1.06566">
        <ele>460</ele>
        <time>2023-04-04T13:11:49.991Z</time>
      </trkpt>
      <trkpt lat="42.94692" lon="1.06583">
        <ele>460</ele>
        <time>2023-04-04T13:11:52.990Z</time>
      </trkpt>
      <trkpt lat="42.94684" lon="1.06594">
        <ele>460</ele>
        <time>2023-04-04T13:11:56.990Z</time>
      </trkpt>
      <trkpt lat="42.94673" lon="1.066">
        <ele>459.9</ele>
        <time>2023-04-04T13:12:00.990Z</time>
      </trkpt>
      <trkpt lat="42.94661" lon="1.06604">
        <ele>459.9</ele>
        <time>2023-04-04T13:12:03.990Z</time>
      </trkpt>
      <trkpt lat="42.94648" lon="1.0661">
        <ele>459.8</ele>
        <time>2023-04-04T13:12:07.990Z</time>
      </trkpt>
      <trkpt lat="42.94636" lon="1.06614">
        <ele>459.8</ele>
        <time>2023-04-04T13:12:11.990Z</time>
      </trkpt>
      <trkpt lat="42.94631" lon="1.06625">
        <ele>459.9</ele>
        <time>2023-04-04T13:12:13.990Z</time>
      </trkpt>
      <trkpt lat="42.94629" lon="1.0664">
        <ele>459.9</ele>
        <time>2023-04-04T13:12:17.989Z</time>
      </trkpt>
      <trkpt lat="42.9463" lon="1.06654">
        <ele>459.9</ele>
        <time>2023-04-04T13:12:20.989Z</time>
      </trkpt>
      <trkpt lat="42.94629" lon="1.06669">
        <ele>460</ele>
        <time>2023-04-04T13:12:23.989Z</time>
      </trkpt>
      <trkpt lat="42.94628" lon="1.06685">
        <ele>460</ele>
        <time>2023-04-04T13:12:26.989Z</time>
      </trkpt>
      <trkpt lat="42.94629" lon="1.06702">
        <ele>459.9</ele>
        <time>2023-04-04T13:12:29.989Z</time>
      </trkpt>
      <trkpt lat="42.9463" lon="1.06716">
        <ele>459.9</ele>
        <time>2023-04-04T13:12:32.989Z</time>
      </trkpt>
      <trkpt lat="42.9463" lon="1.0673">
        <ele>459.8</ele>
        <time>2023-04-04T13:12:35.989Z</time>
      </trkpt>
      <trkpt lat="42.94632" lon="1.06744">
        <ele>459.7</ele>
        <time>2023-04-04T13:12:38.989Z</time>
      </trkpt>
      <trkpt lat="42.94635" lon="1.06759">
        <ele>459.5</ele>
        <time>2023-04-04T13:12:41.988Z</time>
      </trkpt>
      <trkpt lat="42.94637" lon="1.06775">
        <ele>459.3</ele>
        <time>2023-04-04T13:12:44.988Z</time>
      </trkpt>
      <trkpt lat="42.94641" lon="1.06792">
        <ele>459</ele>
        <time>2023-04-04T13:12:47.988Z</time>
      </trkpt>
      <trkpt lat="42.94646" lon="1.06805">
        <ele>458.8</ele>
        <time>2023-04-04T13:12:50.988Z</time>
      </trkpt>
      <trkpt lat="42.94652" lon="1.06818">
        <ele>458.5</ele>
        <time>2023-04-04T13:12:53.988Z</time>
      </trkpt>
      <trkpt lat="42.94659" lon="1.06831">
        <ele>458.1</ele>
        <time>2023-04-04T13:12:56.988Z</time>
      </trkpt>
      <trkpt lat="42.94666" lon="1.06844">
        <ele>457.7</ele>
        <time>2023-04-04T13:12:59.988Z</time>
      </trkpt>
      <trkpt lat="42.9467" lon="1.0686">
        <ele>457.4</ele>
        <time>2023-04-04T13:13:02.988Z</time>
      </trkpt>
      <trkpt lat="42.94674" lon="1.06874">
        <ele>457</ele>
        <time>2023-04-04T13:13:05.988Z</time>
      </trkpt>
      <trkpt lat="42.94677" lon="1.0689">
        <ele>456.7</ele>
        <time>2023-04-04T13:13:08.987Z</time>
      </trkpt>
      <trkpt lat="42.94678" lon="1.06902">
        <ele>456.5</ele>
        <time>2023-04-04T13:13:10.987Z</time>
      </trkpt>
      <trkpt lat="42.9468" lon="1.0692">
        <ele>456.3</ele>
        <time>2023-04-04T13:13:13.987Z</time>
      </trkpt>
      <trkpt lat="42.94682" lon="1.06936">
        <ele>456</ele>
        <time>2023-04-04T13:13:16.987Z</time>
      </trkpt>
      <trkpt lat="42.94682" lon="1.06952">
        <ele>455.7</ele>
        <time>2023-04-04T13:13:19.987Z</time>
      </trkpt>
      <trkpt lat="42.94682" lon="1.06965">
        <ele>455.4</ele>
        <time>2023-04-04T13:13:21.987Z</time>
      </trkpt>
      <trkpt lat="42.94683" lon="1.06982">
        <ele>455</ele>
        <time>2023-04-04T13:13:24.987Z</time>
      </trkpt>
      <trkpt lat="42.94684" lon="1.06997">
        <ele>454.7</ele>
        <time>2023-04-04T13:13:26.987Z</time>
      </trkpt>
      <trkpt lat="42.94685" lon="1.07014">
        <ele>454.2</ele>
        <time>2023-04-04T13:13:29.987Z</time>
      </trkpt>
      <trkpt lat="42.94687" lon="1.07031">
        <ele>454</ele>
        <time>2023-04-04T13:13:32.986Z</time>
      </trkpt>
      <trkpt lat="42.94689" lon="1.07043">
        <ele>453.8</ele>
        <time>2023-04-04T13:13:34.986Z</time>
      </trkpt>
      <trkpt lat="42.94691" lon="1.07055">
        <ele>453.7</ele>
        <time>2023-04-04T13:13:36.986Z</time>
      </trkpt>
      <trkpt lat="42.94694" lon="1.07072">
        <ele>453.6</ele>
        <time>2023-04-04T13:13:39.986Z</time>
      </trkpt>
      <trkpt lat="42.94696" lon="1.07089">
        <ele>453.6</ele>
        <time>2023-04-04T13:13:42.986Z</time>
      </trkpt>
      <trkpt lat="42.94697" lon="1.07107">
        <ele>453.6</ele>
        <time>2023-04-04T13:13:45.986Z</time>
      </trkpt>
      <trkpt lat="42.947" lon="1.07121">
        <ele>453.7</ele>
        <time>2023-04-04T13:13:48.986Z</time>
      </trkpt>
      <trkpt lat="42.94703" lon="1.07139">
        <ele>453.8</ele>
        <time>2023-04-04T13:13:51.986Z</time>
      </trkpt>
      <trkpt lat="42.94706" lon="1.07152">
        <ele>453.9</ele>
        <time>2023-04-04T13:13:54.986Z</time>
      </trkpt>
      <trkpt lat="42.9471" lon="1.07168">
        <ele>454</ele>
        <time>2023-04-04T13:13:57.985Z</time>
      </trkpt>
      <trkpt lat="42.94715" lon="1.07179">
        <ele>454.1</ele>
        <time>2023-04-04T13:13:58.985Z</time>
      </trkpt>
      <trkpt lat="42.9472" lon="1.07193">
        <ele>454.1</ele>
        <time>2023-04-04T13:14:00.985Z</time>
      </trkpt>
      <trkpt lat="42.94722" lon="1.07211">
        <ele>454.1</ele>
        <time>2023-04-04T13:14:02.985Z</time>
      </trkpt>
      <trkpt lat="42.94719" lon="1.07226">
        <ele>454.1</ele>
        <time>2023-04-04T13:14:04.985Z</time>
      </trkpt>
      <trkpt lat="42.94721" lon="1.07244">
        <ele>454.1</ele>
        <time>2023-04-04T13:14:07.985Z</time>
      </trkpt>
      <trkpt lat="42.94722" lon="1.07256">
        <ele>454.1</ele>
        <time>2023-04-04T13:14:10.985Z</time>
      </trkpt>
      <trkpt lat="42.94723" lon="1.07269">
        <ele>454.1</ele>
        <time>2023-04-04T13:14:13.985Z</time>
      </trkpt>
      <trkpt lat="42.94724" lon="1.07283">
        <ele>454.1</ele>
        <time>2023-04-04T13:14:19.985Z</time>
      </trkpt>
      <trkpt lat="42.94727" lon="1.07297">
        <ele>454.2</ele>
        <time>2023-04-04T13:14:24.984Z</time>
      </trkpt>
      <trkpt lat="42.9473" lon="1.07313">
        <ele>454.2</ele>
        <time>2023-04-04T13:14:28.984Z</time>
      </trkpt>
      <trkpt lat="42.94736" lon="1.07328">
        <ele>454.2</ele>
        <time>2023-04-04T13:14:31.984Z</time>
      </trkpt>
      <trkpt lat="42.9474" lon="1.07339">
        <ele>454.1</ele>
        <time>2023-04-04T13:14:33.984Z</time>
      </trkpt>
      <trkpt lat="42.94746" lon="1.07355">
        <ele>454</ele>
        <time>2023-04-04T13:14:36.988Z</time>
      </trkpt>
      <trkpt lat="42.94752" lon="1.07368">
        <ele>453.9</ele>
        <time>2023-04-04T13:14:39.990Z</time>
      </trkpt>
      <trkpt lat="42.94758" lon="1.07383">
        <ele>453.7</ele>
        <time>2023-04-04T13:14:42.992Z</time>
      </trkpt>
      <trkpt lat="42.94764" lon="1.07396">
        <ele>453.6</ele>
        <time>2023-04-04T13:14:45.993Z</time>
      </trkpt>
      <trkpt lat="42.94772" lon="1.07408">
        <ele>453.4</ele>
        <time>2023-04-04T13:14:48.994Z</time>
      </trkpt>
      <trkpt lat="42.9478" lon="1.0742">
        <ele>453.3</ele>
        <time>2023-04-04T13:14:51.995Z</time>
      </trkpt>
      <trkpt lat="42.94788" lon="1.0743">
        <ele>453.2</ele>
        <time>2023-04-04T13:14:54.996Z</time>
      </trkpt>
      <trkpt lat="42.94797" lon="1.07441">
        <ele>453.2</ele>
        <time>2023-04-04T13:14:57.997Z</time>
      </trkpt>
      <trkpt lat="42.94807" lon="1.0745">
        <ele>453.2</ele>
        <time>2023-04-04T13:15:00.997Z</time>
      </trkpt>
      <trkpt lat="42.94816" lon="1.07454">
        <ele>453.2</ele>
        <time>2023-04-04T13:15:02.997Z</time>
      </trkpt>
      <trkpt lat="42.94832" lon="1.07458">
        <ele>453.1</ele>
        <time>2023-04-04T13:15:04.998Z</time>
      </trkpt>
      <trkpt lat="42.94839" lon="1.07465">
        <ele>453.1</ele>
        <time>2023-04-04T13:15:05.998Z</time>
      </trkpt>
      <trkpt lat="42.94844" lon="1.07476">
        <ele>453.1</ele>
        <time>2023-04-04T13:15:07.998Z</time>
      </trkpt>
      <trkpt lat="42.94851" lon="1.07488">
        <ele>453.1</ele>
        <time>2023-04-04T13:15:09.998Z</time>
      </trkpt>
      <trkpt lat="42.94856" lon="1.07501">
        <ele>453</ele>
        <time>2023-04-04T13:15:12.998Z</time>
      </trkpt>
      <trkpt lat="42.94864" lon="1.07515">
        <ele>452.9</ele>
        <time>2023-04-04T13:15:15.998Z</time>
      </trkpt>
      <trkpt lat="42.94873" lon="1.07526">
        <ele>452.7</ele>
        <time>2023-04-04T13:15:18.998Z</time>
      </trkpt>
      <trkpt lat="42.94879" lon="1.07538">
        <ele>452.6</ele>
        <time>2023-04-04T13:15:21.998Z</time>
      </trkpt>
      <trkpt lat="42.94885" lon="1.07552">
        <ele>452.4</ele>
        <time>2023-04-04T13:15:23.998Z</time>
      </trkpt>
      <trkpt lat="42.94889" lon="1.0757">
        <ele>452.3</ele>
        <time>2023-04-04T13:15:25.998Z</time>
      </trkpt>
      <trkpt lat="42.94893" lon="1.07583">
        <ele>452.1</ele>
        <time>2023-04-04T13:15:27.998Z</time>
      </trkpt>
      <trkpt lat="42.94897" lon="1.07595">
        <ele>451.9</ele>
        <time>2023-04-04T13:15:29.998Z</time>
      </trkpt>
      <trkpt lat="42.94904" lon="1.07603">
        <ele>451.7</ele>
        <time>2023-04-04T13:15:31.998Z</time>
      </trkpt>
      <trkpt lat="42.94911" lon="1.0761">
        <ele>451.4</ele>
        <time>2023-04-04T13:15:34.998Z</time>
      </trkpt>
      <trkpt lat="42.9492" lon="1.07618">
        <ele>451.2</ele>
        <time>2023-04-04T13:15:37.998Z</time>
      </trkpt>
      <trkpt lat="42.94927" lon="1.07627">
        <ele>451</ele>
        <time>2023-04-04T13:15:40.998Z</time>
      </trkpt>
      <trkpt lat="42.94935" lon="1.07636">
        <ele>450.8</ele>
        <time>2023-04-04T13:15:44.998Z</time>
      </trkpt>
      <trkpt lat="42.94941" lon="1.07648">
        <ele>450.7</ele>
        <time>2023-04-04T13:15:48.998Z</time>
      </trkpt>
      <trkpt lat="42.94948" lon="1.0766">
        <ele>450.6</ele>
        <time>2023-04-04T13:15:51.998Z</time>
      </trkpt>
      <trkpt lat="42.94956" lon="1.07669">
        <ele>450.5</ele>
        <time>2023-04-04T13:15:53.998Z</time>
      </trkpt>
      <trkpt lat="42.9496" lon="1.07681">
        <ele>450.5</ele>
        <time>2023-04-04T13:15:55.998Z</time>
      </trkpt>
      <trkpt lat="42.94962" lon="1.07697">
        <ele>450.4</ele>
        <time>2023-04-04T13:15:57.998Z</time>
      </trkpt>
      <trkpt lat="42.94963" lon="1.07712">
        <ele>450.3</ele>
        <time>2023-04-04T13:15:59.997Z</time>
      </trkpt>
      <trkpt lat="42.94962" lon="1.07725">
        <ele>450.2</ele>
        <time>2023-04-04T13:16:01.997Z</time>
      </trkpt>
      <trkpt lat="42.94963" lon="1.07738">
        <ele>450.1</ele>
        <time>2023-04-04T13:16:03.997Z</time>
      </trkpt>
      <trkpt lat="42.94968" lon="1.07757">
        <ele>449.9</ele>
        <time>2023-04-04T13:16:06.997Z</time>
      </trkpt>
      <trkpt lat="42.94971" lon="1.07768">
        <ele>449.8</ele>
        <time>2023-04-04T13:16:08.997Z</time>
      </trkpt>
      <trkpt lat="42.94973" lon="1.07781">
        <ele>449.7</ele>
        <time>2023-04-04T13:16:10.997Z</time>
      </trkpt>
      <trkpt lat="42.94976" lon="1.07794">
        <ele>449.5</ele>
        <time>2023-04-04T13:16:12.997Z</time>
      </trkpt>
      <trkpt lat="42.94978" lon="1.07812">
        <ele>449.4</ele>
        <time>2023-04-04T13:16:15.997Z</time>
      </trkpt>
      <trkpt lat="42.94982" lon="1.07823">
        <ele>449.2</ele>
        <time>2023-04-04T13:16:18.997Z</time>
      </trkpt>
      <trkpt lat="42.94986" lon="1.07838">
        <ele>449</ele>
        <time>2023-04-04T13:16:21.997Z</time>
      </trkpt>
      <trkpt lat="42.94991" lon="1.07853">
        <ele>448.8</ele>
        <time>2023-04-04T13:16:24.997Z</time>
      </trkpt>
      <trkpt lat="42.94997" lon="1.07866">
        <ele>448.6</ele>
        <time>2023-04-04T13:16:27.996Z</time>
      </trkpt>
      <trkpt lat="42.95004" lon="1.07878">
        <ele>448.5</ele>
        <time>2023-04-04T13:16:30.996Z</time>
      </trkpt>
      <trkpt lat="42.95012" lon="1.07889">
        <ele>448.3</ele>
        <time>2023-04-04T13:16:33.996Z</time>
      </trkpt>
      <trkpt lat="42.95021" lon="1.07901">
        <ele>448.2</ele>
        <time>2023-04-04T13:16:36.996Z</time>
      </trkpt>
      <trkpt lat="42.95031" lon="1.07913">
        <ele>448.2</ele>
        <time>2023-04-04T13:16:39.996Z</time>
      </trkpt>
      <trkpt lat="42.95038" lon="1.07921">
        <ele>448.2</ele>
        <time>2023-04-04T13:16:41.996Z</time>
      </trkpt>
      <trkpt lat="42.9505" lon="1.07932">
        <ele>448.2</ele>
        <time>2023-04-04T13:16:44.996Z</time>
      </trkpt>
      <trkpt lat="42.95061" lon="1.0794">
        <ele>448.2</ele>
        <time>2023-04-04T13:16:46.996Z</time>
      </trkpt>
      <trkpt lat="42.95069" lon="1.07948">
        <ele>448.2</ele>
        <time>2023-04-04T13:16:48.996Z</time>
      </trkpt>
      <trkpt lat="42.95076" lon="1.07957">
        <ele>448.2</ele>
        <time>2023-04-04T13:16:50.996Z</time>
      </trkpt>
      <trkpt lat="42.95085" lon="1.07969">
        <ele>448.1</ele>
        <time>2023-04-04T13:16:53.995Z</time>
      </trkpt>
      <trkpt lat="42.95092" lon="1.07981">
        <ele>448</ele>
        <time>2023-04-04T13:16:56.995Z</time>
      </trkpt>
      <trkpt lat="42.95098" lon="1.07993">
        <ele>447.8</ele>
        <time>2023-04-04T13:16:59.995Z</time>
      </trkpt>
      <trkpt lat="42.95107" lon="1.08003">
        <ele>447.7</ele>
        <time>2023-04-04T13:17:03.995Z</time>
      </trkpt>
      <trkpt lat="42.95113" lon="1.08013">
        <ele>447.6</ele>
        <time>2023-04-04T13:17:06.995Z</time>
      </trkpt>
      <trkpt lat="42.95117" lon="1.08025">
        <ele>447.5</ele>
        <time>2023-04-04T13:17:09.995Z</time>
      </trkpt>
      <trkpt lat="42.95122" lon="1.08036">
        <ele>447.5</ele>
        <time>2023-04-04T13:17:12.995Z</time>
      </trkpt>
      <trkpt lat="42.95129" lon="1.08048">
        <ele>447.5</ele>
        <time>2023-04-04T13:17:16.995Z</time>
      </trkpt>
      <trkpt lat="42.95133" lon="1.08061">
        <ele>447.5</ele>
        <time>2023-04-04T13:17:32.994Z</time>
      </trkpt>
      <trkpt lat="42.95142" lon="1.08072">
        <ele>447.5</ele>
        <time>2023-04-04T13:17:36.994Z</time>
      </trkpt>
      <trkpt lat="42.9515" lon="1.08084">
        <ele>447.4</ele>
        <time>2023-04-04T13:17:40.994Z</time>
      </trkpt>
      <trkpt lat="42.95155" lon="1.08094">
        <ele>447.4</ele>
        <time>2023-04-04T13:17:44.993Z</time>
      </trkpt>
      <trkpt lat="42.95163" lon="1.08103">
        <ele>447.3</ele>
        <time>2023-04-04T13:17:51.993Z</time>
      </trkpt>
      <trkpt lat="42.95163" lon="1.081">
        <ele>447.1</ele>
        <time>2023-04-04T13:17:59.993Z</time>
      </trkpt>
      <trkpt lat="42.95162" lon="1.081">
        <ele>446.8</ele>
        <time>2023-04-04T13:18:10.992Z</time>
      </trkpt>
      <trkpt lat="42.95161" lon="1.08101">
        <ele>446.8</ele>
        <time>2023-04-04T13:18:12.992Z</time>
      </trkpt>
      <trkpt lat="42.95162" lon="1.08101">
        <ele>446.8</ele>
        <time>2023-04-04T13:18:13.992Z</time>
      </trkpt>
      <trkpt lat="42.95166" lon="1.08101">
        <ele>446.7</ele>
        <time>2023-04-04T13:18:21.992Z</time>
      </trkpt>
      <trkpt lat="42.95166" lon="1.081">
        <ele>446.7</ele>
        <time>2023-04-04T13:18:23.992Z</time>
      </trkpt>
      <trkpt lat="42.95165" lon="1.08102">
        <ele>446.5</ele>
        <time>2023-04-04T13:18:31.992Z</time>
      </trkpt>
      <trkpt lat="42.95165" lon="1.08102">
        <ele>446.5</ele>
        <time>2023-04-04T13:18:32.992Z</time>
      </trkpt>
      <trkpt lat="42.95173" lon="1.0811">
        <ele>446.5</ele>
        <time>2023-04-04T13:18:38.991Z</time>
      </trkpt>
      <trkpt lat="42.95182" lon="1.08119">
        <ele>446.4</ele>
        <time>2023-04-04T13:18:43.991Z</time>
      </trkpt>
      <trkpt lat="42.95182" lon="1.08132">
        <ele>446.4</ele>
        <time>2023-04-04T13:18:47.991Z</time>
      </trkpt>
      <trkpt lat="42.95181" lon="1.08145">
        <ele>446.3</ele>
        <time>2023-04-04T13:18:50.991Z</time>
      </trkpt>
      <trkpt lat="42.9518" lon="1.08157">
        <ele>446.3</ele>
        <time>2023-04-04T13:18:53.991Z</time>
      </trkpt>
      <trkpt lat="42.95179" lon="1.08171">
        <ele>446.3</ele>
        <time>2023-04-04T13:18:57.991Z</time>
      </trkpt>
      <trkpt lat="42.95179" lon="1.08187">
        <ele>446.2</ele>
        <time>2023-04-04T13:19:01.990Z</time>
      </trkpt>
      <trkpt lat="42.9518" lon="1.082">
        <ele>446.3</ele>
        <time>2023-04-04T13:19:05.990Z</time>
      </trkpt>
      <trkpt lat="42.95182" lon="1.08214">
        <ele>446.3</ele>
        <time>2023-04-04T13:19:09.990Z</time>
      </trkpt>
      <trkpt lat="42.95183" lon="1.08229">
        <ele>446.3</ele>
        <time>2023-04-04T13:19:13.990Z</time>
      </trkpt>
      <trkpt lat="42.95184" lon="1.08243">
        <ele>446.4</ele>
        <time>2023-04-04T13:19:17.990Z</time>
      </trkpt>
      <trkpt lat="42.95186" lon="1.08257">
        <ele>446.5</ele>
        <time>2023-04-04T13:19:21.990Z</time>
      </trkpt>
      <trkpt lat="42.95189" lon="1.08272">
        <ele>446.6</ele>
        <time>2023-04-04T13:19:25.989Z</time>
      </trkpt>
      <trkpt lat="42.95195" lon="1.08286">
        <ele>446.8</ele>
        <time>2023-04-04T13:19:29.989Z</time>
      </trkpt>
      <trkpt lat="42.952" lon="1.083">
        <ele>446.9</ele>
        <time>2023-04-04T13:19:33.989Z</time>
      </trkpt>
      <trkpt lat="42.95205" lon="1.08311">
        <ele>447</ele>
        <time>2023-04-04T13:19:36.989Z</time>
      </trkpt>
      <trkpt lat="42.95211" lon="1.08323">
        <ele>447</ele>
        <time>2023-04-04T13:19:39.989Z</time>
      </trkpt>
      <trkpt lat="42.95219" lon="1.08333">
        <ele>447.1</ele>
        <time>2023-04-04T13:19:42.989Z</time>
      </trkpt>
      <trkpt lat="42.95225" lon="1.08345">
        <ele>447.1</ele>
        <time>2023-04-04T13:19:45.989Z</time>
      </trkpt>
      <trkpt lat="42.9523" lon="1.08355">
        <ele>447.1</ele>
        <time>2023-04-04T13:19:47.989Z</time>
      </trkpt>
      <trkpt lat="42.95236" lon="1.08367">
        <ele>447.1</ele>
        <time>2023-04-04T13:19:49.988Z</time>
      </trkpt>
      <trkpt lat="42.95243" lon="1.08379">
        <ele>447.1</ele>
        <time>2023-04-04T13:19:51.988Z</time>
      </trkpt>
      <trkpt lat="42.95251" lon="1.08392">
        <ele>447.1</ele>
        <time>2023-04-04T13:19:53.988Z</time>
      </trkpt>
      <trkpt lat="42.95256" lon="1.08409">
        <ele>447.1</ele>
        <time>2023-04-04T13:19:55.988Z</time>
      </trkpt>
      <trkpt lat="42.95255" lon="1.08429">
        <ele>447.2</ele>
        <time>2023-04-04T13:19:57.988Z</time>
      </trkpt>
      <trkpt lat="42.95258" lon="1.08446">
        <ele>447.3</ele>
        <time>2023-04-04T13:19:59.988Z</time>
      </trkpt>
      <trkpt lat="42.95263" lon="1.08464">
        <ele>447.6</ele>
        <time>2023-04-04T13:20:01.988Z</time>
      </trkpt>
      <trkpt lat="42.95263" lon="1.08482">
        <ele>448</ele>
        <time>2023-04-04T13:20:03.988Z</time>
      </trkpt>
      <trkpt lat="42.95271" lon="1.08494">
        <ele>448.6</ele>
        <time>2023-04-04T13:20:05.988Z</time>
      </trkpt>
      <trkpt lat="42.95282" lon="1.08499">
        <ele>449.4</ele>
        <time>2023-04-04T13:20:07.988Z</time>
      </trkpt>
      <trkpt lat="42.95294" lon="1.08498">
        <ele>450</ele>
        <time>2023-04-04T13:20:09.988Z</time>
      </trkpt>
      <trkpt lat="42.95303" lon="1.08496">
        <ele>450.5</ele>
        <time>2023-04-04T13:20:11.988Z</time>
      </trkpt>
      <trkpt lat="42.95312" lon="1.08491">
        <ele>450.7</ele>
        <time>2023-04-04T13:20:13.988Z</time>
      </trkpt>
      <trkpt lat="42.95321" lon="1.08486">
        <ele>450.7</ele>
        <time>2023-04-04T13:20:15.987Z</time>
      </trkpt>
      <trkpt lat="42.95334" lon="1.08477">
        <ele>450.5</ele>
        <time>2023-04-04T13:20:18.987Z</time>
      </trkpt>
      <trkpt lat="42.95344" lon="1.08471">
        <ele>450.2</ele>
        <time>2023-04-04T13:20:20.987Z</time>
      </trkpt>
      <trkpt lat="42.95359" lon="1.08471">
        <ele>449.6</ele>
        <time>2023-04-04T13:20:23.987Z</time>
      </trkpt>
      <trkpt lat="42.95368" lon="1.08475">
        <ele>449</ele>
        <time>2023-04-04T13:20:26.987Z</time>
      </trkpt>
      <trkpt lat="42.95379" lon="1.08481">
        <ele>448.3</ele>
        <time>2023-04-04T13:20:30.987Z</time>
      </trkpt>
      <trkpt lat="42.95387" lon="1.08487">
        <ele>447.9</ele>
        <time>2023-04-04T13:20:33.987Z</time>
      </trkpt>
      <trkpt lat="42.95396" lon="1.08496">
        <ele>447.4</ele>
        <time>2023-04-04T13:20:37.987Z</time>
      </trkpt>
      <trkpt lat="42.95404" lon="1.08502">
        <ele>447.1</ele>
        <time>2023-04-04T13:20:40.986Z</time>
      </trkpt>
      <trkpt lat="42.95414" lon="1.08508">
        <ele>446.8</ele>
        <time>2023-04-04T13:20:43.986Z</time>
      </trkpt>
      <trkpt lat="42.95426" lon="1.08516">
        <ele>446.5</ele>
        <time>2023-04-04T13:20:46.986Z</time>
      </trkpt>
      <trkpt lat="42.95435" lon="1.08527">
        <ele>446.2</ele>
        <time>2023-04-04T13:20:49.986Z</time>
      </trkpt>
      <trkpt lat="42.95444" lon="1.08537">
        <ele>445.8</ele>
        <time>2023-04-04T13:20:52.986Z</time>
      </trkpt>
      <trkpt lat="42.95452" lon="1.08543">
        <ele>445.4</ele>
        <time>2023-04-04T13:20:55.986Z</time>
      </trkpt>
      <trkpt lat="42.95453" lon="1.08543">
        <ele>445</ele>
        <time>2023-04-04T13:20:58.986Z</time>
      </trkpt>
      <trkpt lat="42.95453" lon="1.08543">
        <ele>444.2</ele>
        <time>2023-04-04T13:21:08.985Z</time>
      </trkpt>
      <trkpt lat="42.95454" lon="1.08543">
        <ele>444.1</ele>
        <time>2023-04-04T13:21:11.985Z</time>
      </trkpt>
      <trkpt lat="42.95454" lon="1.08544">
        <ele>444</ele>
        <time>2023-04-04T13:21:13.985Z</time>
      </trkpt>
      <trkpt lat="42.95454" lon="1.08544">
        <ele>444</ele>
        <time>2023-04-04T13:21:14.985Z</time>
      </trkpt>
      <trkpt lat="42.95452" lon="1.08545">
        <ele>443.9</ele>
        <time>2023-04-04T13:21:18.985Z</time>
      </trkpt>
      <trkpt lat="42.95452" lon="1.08545">
        <ele>443.9</ele>
        <time>2023-04-04T13:21:19.985Z</time>
      </trkpt>
      <trkpt lat="42.95452" lon="1.08544">
        <ele>443.7</ele>
        <time>2023-04-04T13:21:38.984Z</time>
      </trkpt>
      <trkpt lat="42.95459" lon="1.08552">
        <ele>443.7</ele>
        <time>2023-04-04T13:21:43.984Z</time>
      </trkpt>
      <trkpt lat="42.95468" lon="1.08562">
        <ele>443.6</ele>
        <time>2023-04-04T13:21:47.984Z</time>
      </trkpt>
      <trkpt lat="42.95476" lon="1.08574">
        <ele>443.4</ele>
        <time>2023-04-04T13:21:50.984Z</time>
      </trkpt>
      <trkpt lat="42.95486" lon="1.08583">
        <ele>443.1</ele>
        <time>2023-04-04T13:21:52.984Z</time>
      </trkpt>
      <trkpt lat="42.95497" lon="1.0859">
        <ele>442.8</ele>
        <time>2023-04-04T13:21:54.984Z</time>
      </trkpt>
      <trkpt lat="42.95515" lon="1.08584">
        <ele>442.2</ele>
        <time>2023-04-04T13:21:56.983Z</time>
      </trkpt>
      <trkpt lat="42.95525" lon="1.0859">
        <ele>441.5</ele>
        <time>2023-04-04T13:21:58.983Z</time>
      </trkpt>
      <trkpt lat="42.95533" lon="1.08604">
        <ele>441</ele>
        <time>2023-04-04T13:22:00.983Z</time>
      </trkpt>
      <trkpt lat="42.95544" lon="1.08616">
        <ele>440.6</ele>
        <time>2023-04-04T13:22:02.983Z</time>
      </trkpt>
      <trkpt lat="42.95555" lon="1.08628">
        <ele>440.3</ele>
        <time>2023-04-04T13:22:04.983Z</time>
      </trkpt>
      <trkpt lat="42.95565" lon="1.0864">
        <ele>440.1</ele>
        <time>2023-04-04T13:22:06.983Z</time>
      </trkpt>
      <trkpt lat="42.95575" lon="1.08649">
        <ele>439.9</ele>
        <time>2023-04-04T13:22:08.983Z</time>
      </trkpt>
      <trkpt lat="42.95587" lon="1.08658">
        <ele>439.7</ele>
        <time>2023-04-04T13:22:10.983Z</time>
      </trkpt>
      <trkpt lat="42.95595" lon="1.08668">
        <ele>439.5</ele>
        <time>2023-04-04T13:22:12.983Z</time>
      </trkpt>
      <trkpt lat="42.95602" lon="1.08679">
        <ele>439.4</ele>
        <time>2023-04-04T13:22:14.983Z</time>
      </trkpt>
      <trkpt lat="42.95613" lon="1.08691">
        <ele>439.4</ele>
        <time>2023-04-04T13:22:16.983Z</time>
      </trkpt>
      <trkpt lat="42.95623" lon="1.08697">
        <ele>439.3</ele>
        <time>2023-04-04T13:22:18.983Z</time>
      </trkpt>
      <trkpt lat="42.95637" lon="1.08692">
        <ele>439.2</ele>
        <time>2023-04-04T13:22:20.983Z</time>
      </trkpt>
      <trkpt lat="42.95647" lon="1.08683">
        <ele>439</ele>
        <time>2023-04-04T13:22:22.982Z</time>
      </trkpt>
      <trkpt lat="42.95656" lon="1.08673">
        <ele>438.8</ele>
        <time>2023-04-04T13:22:24.982Z</time>
      </trkpt>
      <trkpt lat="42.95663" lon="1.08662">
        <ele>438.6</ele>
        <time>2023-04-04T13:22:26.982Z</time>
      </trkpt>
      <trkpt lat="42.95673" lon="1.08648">
        <ele>438.4</ele>
        <time>2023-04-04T13:22:29.982Z</time>
      </trkpt>
      <trkpt lat="42.9568" lon="1.08639">
        <ele>438.3</ele>
        <time>2023-04-04T13:22:31.982Z</time>
      </trkpt>
      <trkpt lat="42.95688" lon="1.08628">
        <ele>438.3</ele>
        <time>2023-04-04T13:22:34.982Z</time>
      </trkpt>
      <trkpt lat="42.95697" lon="1.08619">
        <ele>438.3</ele>
        <time>2023-04-04T13:22:37.982Z</time>
      </trkpt>
      <trkpt lat="42.95706" lon="1.08608">
        <ele>438.3</ele>
        <time>2023-04-04T13:22:40.982Z</time>
      </trkpt>
      <trkpt lat="42.95717" lon="1.086">
        <ele>438.3</ele>
        <time>2023-04-04T13:22:43.982Z</time>
      </trkpt>
      <trkpt lat="42.95727" lon="1.086">
        <ele>438.4</ele>
        <time>2023-04-04T13:22:45.982Z</time>
      </trkpt>
      <trkpt lat="42.95736" lon="1.08607">
        <ele>438.4</ele>
        <time>2023-04-04T13:22:48.981Z</time>
      </trkpt>
      <trkpt lat="42.95745" lon="1.08615">
        <ele>438.4</ele>
        <time>2023-04-04T13:22:51.981Z</time>
      </trkpt>
      <trkpt lat="42.95755" lon="1.08622">
        <ele>438.4</ele>
        <time>2023-04-04T13:22:54.981Z</time>
      </trkpt>
      <trkpt lat="42.95765" lon="1.08631">
        <ele>438.4</ele>
        <time>2023-04-04T13:22:57.981Z</time>
      </trkpt>
      <trkpt lat="42.95773" lon="1.08638">
        <ele>438.4</ele>
        <time>2023-04-04T13:22:59.981Z</time>
      </trkpt>
      <trkpt lat="42.9578" lon="1.08646">
        <ele>438.4</ele>
        <time>2023-04-04T13:23:01.981Z</time>
      </trkpt>
      <trkpt lat="42.95792" lon="1.08656">
        <ele>438.4</ele>
        <time>2023-04-04T13:23:04.981Z</time>
      </trkpt>
      <trkpt lat="42.95801" lon="1.08662">
        <ele>438.3</ele>
        <time>2023-04-04T13:23:06.981Z</time>
      </trkpt>
      <trkpt lat="42.95812" lon="1.08671">
        <ele>438.3</ele>
        <time>2023-04-04T13:23:09.981Z</time>
      </trkpt>
      <trkpt lat="42.95822" lon="1.08682">
        <ele>438.3</ele>
        <time>2023-04-04T13:23:12.980Z</time>
      </trkpt>
      <trkpt lat="42.9583" lon="1.08695">
        <ele>438.3</ele>
        <time>2023-04-04T13:23:15.980Z</time>
      </trkpt>
      <trkpt lat="42.95836" lon="1.08705">
        <ele>438.3</ele>
        <time>2023-04-04T13:23:17.980Z</time>
      </trkpt>
      <trkpt lat="42.95842" lon="1.08721">
        <ele>438.2</ele>
        <time>2023-04-04T13:23:20.980Z</time>
      </trkpt>
      <trkpt lat="42.95848" lon="1.08731">
        <ele>438.2</ele>
        <time>2023-04-04T13:23:22.980Z</time>
      </trkpt>
      <trkpt lat="42.95854" lon="1.08741">
        <ele>438.2</ele>
        <time>2023-04-04T13:23:24.980Z</time>
      </trkpt>
      <trkpt lat="42.95862" lon="1.0875">
        <ele>438.2</ele>
        <time>2023-04-04T13:23:26.980Z</time>
      </trkpt>
      <trkpt lat="42.95869" lon="1.08758">
        <ele>438.1</ele>
        <time>2023-04-04T13:23:28.980Z</time>
      </trkpt>
      <trkpt lat="42.95882" lon="1.08766">
        <ele>438.1</ele>
        <time>2023-04-04T13:23:31.980Z</time>
      </trkpt>
      <trkpt lat="42.95894" lon="1.0877">
        <ele>438</ele>
        <time>2023-04-04T13:23:33.980Z</time>
      </trkpt>
      <trkpt lat="42.95903" lon="1.08773">
        <ele>437.9</ele>
        <time>2023-04-04T13:23:35.980Z</time>
      </trkpt>
      <trkpt lat="42.95912" lon="1.08777">
        <ele>437.8</ele>
        <time>2023-04-04T13:23:37.979Z</time>
      </trkpt>
      <trkpt lat="42.95924" lon="1.0878">
        <ele>437.7</ele>
        <time>2023-04-04T13:23:39.979Z</time>
      </trkpt>
      <trkpt lat="42.95935" lon="1.08784">
        <ele>437.6</ele>
        <time>2023-04-04T13:23:41.979Z</time>
      </trkpt>
      <trkpt lat="42.95945" lon="1.0879">
        <ele>437.5</ele>
        <time>2023-04-04T13:23:43.979Z</time>
      </trkpt>
      <trkpt lat="42.95952" lon="1.08799">
        <ele>437.4</ele>
        <time>2023-04-04T13:23:45.979Z</time>
      </trkpt>
      <trkpt lat="42.95961" lon="1.0881">
        <ele>437.3</ele>
        <time>2023-04-04T13:23:47.979Z</time>
      </trkpt>
      <trkpt lat="42.95969" lon="1.08818">
        <ele>437.2</ele>
        <time>2023-04-04T13:23:49.979Z</time>
      </trkpt>
      <trkpt lat="42.95979" lon="1.08828">
        <ele>437.1</ele>
        <time>2023-04-04T13:23:51.979Z</time>
      </trkpt>
      <trkpt lat="42.95988" lon="1.08841">
        <ele>437</ele>
        <time>2023-04-04T13:23:53.979Z</time>
      </trkpt>
      <trkpt lat="42.95995" lon="1.08851">
        <ele>436.8</ele>
        <time>2023-04-04T13:23:55.979Z</time>
      </trkpt>
      <trkpt lat="42.96003" lon="1.08862">
        <ele>436.8</ele>
        <time>2023-04-04T13:23:57.979Z</time>
      </trkpt>
      <trkpt lat="42.96007" lon="1.08877">
        <ele>436.7</ele>
        <time>2023-04-04T13:23:59.979Z</time>
      </trkpt>
      <trkpt lat="42.9601" lon="1.0889">
        <ele>436.7</ele>
        <time>2023-04-04T13:24:01.979Z</time>
      </trkpt>
      <trkpt lat="42.96016" lon="1.08903">
        <ele>436.8</ele>
        <time>2023-04-04T13:24:03.978Z</time>
      </trkpt>
      <trkpt lat="42.96021" lon="1.08917">
        <ele>436.8</ele>
        <time>2023-04-04T13:24:05.978Z</time>
      </trkpt>
      <trkpt lat="42.96027" lon="1.08931">
        <ele>436.9</ele>
        <time>2023-04-04T13:24:07.978Z</time>
      </trkpt>
      <trkpt lat="42.96027" lon="1.08948">
        <ele>437.1</ele>
        <time>2023-04-04T13:24:09.978Z</time>
      </trkpt>
      <trkpt lat="42.96027" lon="1.08961">
        <ele>437.1</ele>
        <time>2023-04-04T13:24:11.978Z</time>
      </trkpt>
      <trkpt lat="42.96027" lon="1.08975">
        <ele>437.1</ele>
        <time>2023-04-04T13:24:13.978Z</time>
      </trkpt>
      <trkpt lat="42.96023" lon="1.08988">
        <ele>437.1</ele>
        <time>2023-04-04T13:24:15.981Z</time>
      </trkpt>
      <trkpt lat="42.96026" lon="1.09">
        <ele>437.1</ele>
        <time>2023-04-04T13:24:17.984Z</time>
      </trkpt>
      <trkpt lat="42.96032" lon="1.09012">
        <ele>437.1</ele>
        <time>2023-04-04T13:24:19.986Z</time>
      </trkpt>
      <trkpt lat="42.96039" lon="1.0902">
        <ele>437.1</ele>
        <time>2023-04-04T13:24:20.987Z</time>
      </trkpt>
      <trkpt lat="42.96043" lon="1.09033">
        <ele>437.2</ele>
        <time>2023-04-04T13:24:22.988Z</time>
      </trkpt>
      <trkpt lat="42.96049" lon="1.09044">
        <ele>437.3</ele>
        <time>2023-04-04T13:24:24.990Z</time>
      </trkpt>
      <trkpt lat="42.96058" lon="1.09051">
        <ele>437.5</ele>
        <time>2023-04-04T13:24:26.991Z</time>
      </trkpt>
      <trkpt lat="42.96064" lon="1.09059">
        <ele>437.7</ele>
        <time>2023-04-04T13:24:28.992Z</time>
      </trkpt>
      <trkpt lat="42.96074" lon="1.09069">
        <ele>438.2</ele>
        <time>2023-04-04T13:24:31.994Z</time>
      </trkpt>
      <trkpt lat="42.96084" lon="1.09069">
        <ele>438.7</ele>
        <time>2023-04-04T13:24:33.994Z</time>
      </trkpt>
      <trkpt lat="42.96094" lon="1.09074">
        <ele>439.5</ele>
        <time>2023-04-04T13:24:35.995Z</time>
      </trkpt>
      <trkpt lat="42.96101" lon="1.09081">
        <ele>440.4</ele>
        <time>2023-04-04T13:24:37.996Z</time>
      </trkpt>
      <trkpt lat="42.96114" lon="1.09085">
        <ele>442.3</ele>
        <time>2023-04-04T13:24:40.996Z</time>
      </trkpt>
      <trkpt lat="42.96125" lon="1.09082">
        <ele>444.6</ele>
        <time>2023-04-04T13:24:43.997Z</time>
      </trkpt>
      <trkpt lat="42.96132" lon="1.09093">
        <ele>446.8</ele>
        <time>2023-04-04T13:24:47.997Z</time>
      </trkpt>
      <trkpt lat="42.96135" lon="1.09106">
        <ele>447.4</ele>
        <time>2023-04-04T13:24:50.998Z</time>
      </trkpt>
      <trkpt lat="42.96141" lon="1.09119">
        <ele>447.4</ele>
        <time>2023-04-04T13:24:53.998Z</time>
      </trkpt>
      <trkpt lat="42.96148" lon="1.09133">
        <ele>447.2</ele>
        <time>2023-04-04T13:24:56.998Z</time>
      </trkpt>
      <trkpt lat="42.96154" lon="1.0915">
        <ele>446.8</ele>
        <time>2023-04-04T13:24:59.998Z</time>
      </trkpt>
      <trkpt lat="42.96162" lon="1.09162">
        <ele>446.3</ele>
        <time>2023-04-04T13:25:02.998Z</time>
      </trkpt>
      <trkpt lat="42.96169" lon="1.09171">
        <ele>445.9</ele>
        <time>2023-04-04T13:25:04.998Z</time>
      </trkpt>
      <trkpt lat="42.96176" lon="1.09182">
        <ele>445.5</ele>
        <time>2023-04-04T13:25:06.998Z</time>
      </trkpt>
      <trkpt lat="42.96182" lon="1.09196">
        <ele>445</ele>
        <time>2023-04-04T13:25:08.998Z</time>
      </trkpt>
      <trkpt lat="42.96189" lon="1.09209">
        <ele>444.3</ele>
        <time>2023-04-04T13:25:10.998Z</time>
      </trkpt>
      <trkpt lat="42.96198" lon="1.09222">
        <ele>443.6</ele>
        <time>2023-04-04T13:25:12.998Z</time>
      </trkpt>
      <trkpt lat="42.96206" lon="1.09235">
        <ele>442.6</ele>
        <time>2023-04-04T13:25:14.998Z</time>
      </trkpt>
      <trkpt lat="42.96212" lon="1.09248">
        <ele>441.4</ele>
        <time>2023-04-04T13:25:16.998Z</time>
      </trkpt>
      <trkpt lat="42.9622" lon="1.09256">
        <ele>440.3</ele>
        <time>2023-04-04T13:25:18.998Z</time>
      </trkpt>
      <trkpt lat="42.96227" lon="1.09264">
        <ele>439.5</ele>
        <time>2023-04-04T13:25:20.998Z</time>
      </trkpt>
      <trkpt lat="42.96234" lon="1.09278">
        <ele>438.6</ele>
        <time>2023-04-04T13:25:23.998Z</time>
      </trkpt>
      <trkpt lat="42.96241" lon="1.09291">
        <ele>438.1</ele>
        <time>2023-04-04T13:25:25.998Z</time>
      </trkpt>
      <trkpt lat="42.96254" lon="1.09298">
        <ele>437.5</ele>
        <time>2023-04-04T13:25:28.998Z</time>
      </trkpt>
      <trkpt lat="42.96267" lon="1.09298">
        <ele>437.3</ele>
        <time>2023-04-04T13:25:31.998Z</time>
      </trkpt>
      <trkpt lat="42.96278" lon="1.09304">
        <ele>437.2</ele>
        <time>2023-04-04T13:25:33.998Z</time>
      </trkpt>
      <trkpt lat="42.96287" lon="1.09309">
        <ele>437.1</ele>
        <time>2023-04-04T13:25:35.998Z</time>
      </trkpt>
      <trkpt lat="42.96295" lon="1.09318">
        <ele>436.9</ele>
        <time>2023-04-04T13:25:37.998Z</time>
      </trkpt>
      <trkpt lat="42.96303" lon="1.09329">
        <ele>436.7</ele>
        <time>2023-04-04T13:25:40.998Z</time>
      </trkpt>
      <trkpt lat="42.96297" lon="1.09342">
        <ele>436.4</ele>
        <time>2023-04-04T13:25:43.998Z</time>
      </trkpt>
      <trkpt lat="42.96288" lon="1.09352">
        <ele>436.2</ele>
        <time>2023-04-04T13:25:45.998Z</time>
      </trkpt>
      <trkpt lat="42.96278" lon="1.0936">
        <ele>435.9</ele>
        <time>2023-04-04T13:25:48.998Z</time>
      </trkpt>
      <trkpt lat="42.96267" lon="1.09368">
        <ele>435.7</ele>
        <time>2023-04-04T13:25:51.997Z</time>
      </trkpt>
      <trkpt lat="42.96258" lon="1.09378">
        <ele>435.5</ele>
        <time>2023-04-04T13:25:54.997Z</time>
      </trkpt>
      <trkpt lat="42.96257" lon="1.09394">
        <ele>435.3</ele>
        <time>2023-04-04T13:25:57.997Z</time>
      </trkpt>
      <trkpt lat="42.96262" lon="1.09409">
        <ele>435.3</ele>
        <time>2023-04-04T13:26:00.997Z</time>
      </trkpt>
      <trkpt lat="42.96266" lon="1.09424">
        <ele>435.2</ele>
        <time>2023-04-04T13:26:03.997Z</time>
      </trkpt>
      <trkpt lat="42.96269" lon="1.09437">
        <ele>435.1</ele>
        <time>2023-04-04T13:26:05.997Z</time>
      </trkpt>
      <trkpt lat="42.96274" lon="1.09452">
        <ele>435</ele>
        <time>2023-04-04T13:26:08.997Z</time>
      </trkpt>
      <trkpt lat="42.96279" lon="1.09466">
        <ele>434.8</ele>
        <time>2023-04-04T13:26:11.997Z</time>
      </trkpt>
      <trkpt lat="42.96284" lon="1.09477">
        <ele>434.7</ele>
        <time>2023-04-04T13:26:13.997Z</time>
      </trkpt>
      <trkpt lat="42.9629" lon="1.09492">
        <ele>434.4</ele>
        <time>2023-04-04T13:26:16.996Z</time>
      </trkpt>
      <trkpt lat="42.963" lon="1.09505">
        <ele>434.1</ele>
        <time>2023-04-04T13:26:19.996Z</time>
      </trkpt>
      <trkpt lat="42.96307" lon="1.09512">
        <ele>433.8</ele>
        <time>2023-04-04T13:26:21.996Z</time>
      </trkpt>
      <trkpt lat="42.96316" lon="1.09525">
        <ele>433.3</ele>
        <time>2023-04-04T13:26:24.996Z</time>
      </trkpt>
      <trkpt lat="42.96324" lon="1.09538">
        <ele>432.8</ele>
        <time>2023-04-04T13:26:27.996Z</time>
      </trkpt>
      <trkpt lat="42.96332" lon="1.09548">
        <ele>432.1</ele>
        <time>2023-04-04T13:26:30.996Z</time>
      </trkpt>
      <trkpt lat="42.9634" lon="1.0956">
        <ele>431.6</ele>
        <time>2023-04-04T13:26:33.996Z</time>
      </trkpt>
      <trkpt lat="42.96344" lon="1.09573">
        <ele>431.2</ele>
        <time>2023-04-04T13:26:35.996Z</time>
      </trkpt>
      <trkpt lat="42.96339" lon="1.09589">
        <ele>430.7</ele>
        <time>2023-04-04T13:26:38.996Z</time>
      </trkpt>
      <trkpt lat="42.96334" lon="1.09601">
        <ele>430.4</ele>
        <time>2023-04-04T13:26:40.996Z</time>
      </trkpt>
      <trkpt lat="42.96337" lon="1.09614">
        <ele>430.2</ele>
        <time>2023-04-04T13:26:42.995Z</time>
      </trkpt>
      <trkpt lat="42.96341" lon="1.09628">
        <ele>430</ele>
        <time>2023-04-04T13:26:44.995Z</time>
      </trkpt>
      <trkpt lat="42.96347" lon="1.09641">
        <ele>429.9</ele>
        <time>2023-04-04T13:26:46.995Z</time>
      </trkpt>
      <trkpt lat="42.96352" lon="1.09652">
        <ele>429.7</ele>
        <time>2023-04-04T13:26:48.995Z</time>
      </trkpt>
      <trkpt lat="42.96355" lon="1.09663">
        <ele>429.7</ele>
        <time>2023-04-04T13:26:50.995Z</time>
      </trkpt>
      <trkpt lat="42.96353" lon="1.09676">
        <ele>429.6</ele>
        <time>2023-04-04T13:26:52.995Z</time>
      </trkpt>
      <trkpt lat="42.96347" lon="1.09685">
        <ele>429.4</ele>
        <time>2023-04-04T13:26:54.995Z</time>
      </trkpt>
      <trkpt lat="42.96337" lon="1.09697">
        <ele>429.3</ele>
        <time>2023-04-04T13:26:57.995Z</time>
      </trkpt>
      <trkpt lat="42.96329" lon="1.09709">
        <ele>429.1</ele>
        <time>2023-04-04T13:27:00.995Z</time>
      </trkpt>
      <trkpt lat="42.96322" lon="1.09719">
        <ele>428.9</ele>
        <time>2023-04-04T13:27:03.995Z</time>
      </trkpt>
      <trkpt lat="42.96315" lon="1.0973">
        <ele>428.7</ele>
        <time>2023-04-04T13:27:06.995Z</time>
      </trkpt>
      <trkpt lat="42.96309" lon="1.09739">
        <ele>428.5</ele>
        <time>2023-04-04T13:27:09.994Z</time>
      </trkpt>
      <trkpt lat="42.96303" lon="1.09749">
        <ele>428.3</ele>
        <time>2023-04-04T13:27:12.994Z</time>
      </trkpt>
      <trkpt lat="42.96296" lon="1.09759">
        <ele>428</ele>
        <time>2023-04-04T13:27:15.994Z</time>
      </trkpt>
      <trkpt lat="42.96289" lon="1.0977">
        <ele>427.8</ele>
        <time>2023-04-04T13:27:18.994Z</time>
      </trkpt>
      <trkpt lat="42.96281" lon="1.0978">
        <ele>427.6</ele>
        <time>2023-04-04T13:27:21.994Z</time>
      </trkpt>
      <trkpt lat="42.96273" lon="1.09791">
        <ele>427.4</ele>
        <time>2023-04-04T13:27:24.994Z</time>
      </trkpt>
      <trkpt lat="42.96264" lon="1.09802">
        <ele>427.1</ele>
        <time>2023-04-04T13:27:27.994Z</time>
      </trkpt>
      <trkpt lat="42.96258" lon="1.09814">
        <ele>426.9</ele>
        <time>2023-04-04T13:27:30.994Z</time>
      </trkpt>
      <trkpt lat="42.9626" lon="1.09833">
        <ele>426.6</ele>
        <time>2023-04-04T13:27:33.993Z</time>
      </trkpt>
      <trkpt lat="42.96264" lon="1.09844">
        <ele>426.4</ele>
        <time>2023-04-04T13:27:35.993Z</time>
      </trkpt>
      <trkpt lat="42.96271" lon="1.09855">
        <ele>426.3</ele>
        <time>2023-04-04T13:27:37.993Z</time>
      </trkpt>
      <trkpt lat="42.96279" lon="1.09865">
        <ele>426.2</ele>
        <time>2023-04-04T13:27:39.993Z</time>
      </trkpt>
      <trkpt lat="42.96286" lon="1.09875">
        <ele>426</ele>
        <time>2023-04-04T13:27:41.993Z</time>
      </trkpt>
      <trkpt lat="42.96294" lon="1.09887">
        <ele>425.9</ele>
        <time>2023-04-04T13:27:44.993Z</time>
      </trkpt>
      <trkpt lat="42.96302" lon="1.099">
        <ele>425.8</ele>
        <time>2023-04-04T13:27:47.993Z</time>
      </trkpt>
      <trkpt lat="42.96307" lon="1.09914">
        <ele>425.7</ele>
        <time>2023-04-04T13:27:50.993Z</time>
      </trkpt>
      <trkpt lat="42.96313" lon="1.09926">
        <ele>425.6</ele>
        <time>2023-04-04T13:27:53.993Z</time>
      </trkpt>
      <trkpt lat="42.96319" lon="1.09939">
        <ele>425.5</ele>
        <time>2023-04-04T13:27:56.993Z</time>
      </trkpt>
      <trkpt lat="42.96323" lon="1.09953">
        <ele>425.4</ele>
        <time>2023-04-04T13:27:59.992Z</time>
      </trkpt>
      <trkpt lat="42.96326" lon="1.09969">
        <ele>425.3</ele>
        <time>2023-04-04T13:28:02.992Z</time>
      </trkpt>
      <trkpt lat="42.96326" lon="1.09983">
        <ele>425.2</ele>
        <time>2023-04-04T13:28:04.992Z</time>
      </trkpt>
      <trkpt lat="42.96327" lon="1.09995">
        <ele>425.1</ele>
        <time>2023-04-04T13:28:06.992Z</time>
      </trkpt>
      <trkpt lat="42.96328" lon="1.10007">
        <ele>425</ele>
        <time>2023-04-04T13:28:08.992Z</time>
      </trkpt>
      <trkpt lat="42.96328" lon="1.1002">
        <ele>424.9</ele>
        <time>2023-04-04T13:28:10.992Z</time>
      </trkpt>
      <trkpt lat="42.96329" lon="1.10037">
        <ele>424.7</ele>
        <time>2023-04-04T13:28:13.992Z</time>
      </trkpt>
      <trkpt lat="42.9633" lon="1.10054">
        <ele>424.6</ele>
        <time>2023-04-04T13:28:16.992Z</time>
      </trkpt>
      <trkpt lat="42.96329" lon="1.10071">
        <ele>424.4</ele>
        <time>2023-04-04T13:28:19.992Z</time>
      </trkpt>
      <trkpt lat="42.96331" lon="1.10088">
        <ele>424.2</ele>
        <time>2023-04-04T13:28:22.992Z</time>
      </trkpt>
      <trkpt lat="42.96335" lon="1.10104">
        <ele>424.1</ele>
        <time>2023-04-04T13:28:25.991Z</time>
      </trkpt>
      <trkpt lat="42.96341" lon="1.10118">
        <ele>424</ele>
        <time>2023-04-04T13:28:28.991Z</time>
      </trkpt>
      <trkpt lat="42.96348" lon="1.10134">
        <ele>424</ele>
        <time>2023-04-04T13:28:31.991Z</time>
      </trkpt>
      <trkpt lat="42.96355" lon="1.10146">
        <ele>424</ele>
        <time>2023-04-04T13:28:34.991Z</time>
      </trkpt>
      <trkpt lat="42.96365" lon="1.10155">
        <ele>424</ele>
        <time>2023-04-04T13:28:37.991Z</time>
      </trkpt>
      <trkpt lat="42.96375" lon="1.10163">
        <ele>424</ele>
        <time>2023-04-04T13:28:40.991Z</time>
      </trkpt>
      <trkpt lat="42.96383" lon="1.10173">
        <ele>424.1</ele>
        <time>2023-04-04T13:28:43.991Z</time>
      </trkpt>
      <trkpt lat="42.96389" lon="1.10182">
        <ele>424.2</ele>
        <time>2023-04-04T13:28:46.991Z</time>
      </trkpt>
      <trkpt lat="42.96394" lon="1.10193">
        <ele>424.3</ele>
        <time>2023-04-04T13:28:49.991Z</time>
      </trkpt>
      <trkpt lat="42.96401" lon="1.10204">
        <ele>424.4</ele>
        <time>2023-04-04T13:28:52.990Z</time>
      </trkpt>
      <trkpt lat="42.96408" lon="1.10214">
        <ele>424.5</ele>
        <time>2023-04-04T13:28:55.990Z</time>
      </trkpt>
      <trkpt lat="42.96418" lon="1.10223">
        <ele>424.6</ele>
        <time>2023-04-04T13:28:58.990Z</time>
      </trkpt>
      <trkpt lat="42.96425" lon="1.10231">
        <ele>424.6</ele>
        <time>2023-04-04T13:29:00.990Z</time>
      </trkpt>
      <trkpt lat="42.96434" lon="1.10243">
        <ele>424.7</ele>
        <time>2023-04-04T13:29:03.990Z</time>
      </trkpt>
      <trkpt lat="42.96437" lon="1.10255">
        <ele>424.7</ele>
        <time>2023-04-04T13:29:06.990Z</time>
      </trkpt>
      <trkpt lat="42.96441" lon="1.10267">
        <ele>424.7</ele>
        <time>2023-04-04T13:29:09.990Z</time>
      </trkpt>
      <trkpt lat="42.96446" lon="1.10281">
        <ele>424.7</ele>
        <time>2023-04-04T13:29:13.990Z</time>
      </trkpt>
      <trkpt lat="42.96452" lon="1.10291">
        <ele>424.6</ele>
        <time>2023-04-04T13:29:16.989Z</time>
      </trkpt>
      <trkpt lat="42.96459" lon="1.103">
        <ele>424.6</ele>
        <time>2023-04-04T13:29:19.989Z</time>
      </trkpt>
      <trkpt lat="42.96467" lon="1.10314">
        <ele>424.5</ele>
        <time>2023-04-04T13:29:22.989Z</time>
      </trkpt>
      <trkpt lat="42.96475" lon="1.10327">
        <ele>424.5</ele>
        <time>2023-04-04T13:29:25.989Z</time>
      </trkpt>
      <trkpt lat="42.96482" lon="1.10336">
        <ele>424.5</ele>
        <time>2023-04-04T13:29:28.989Z</time>
      </trkpt>
      <trkpt lat="42.9649" lon="1.10348">
        <ele>424.4</ele>
        <time>2023-04-04T13:29:32.989Z</time>
      </trkpt>
      <trkpt lat="42.96501" lon="1.10356">
        <ele>424.4</ele>
        <time>2023-04-04T13:29:36.989Z</time>
      </trkpt>
      <trkpt lat="42.96503" lon="1.10369">
        <ele>424.4</ele>
        <time>2023-04-04T13:29:41.989Z</time>
      </trkpt>
      <trkpt lat="42.96495" lon="1.10377">
        <ele>424.4</ele>
        <time>2023-04-04T13:29:45.988Z</time>
      </trkpt>
      <trkpt lat="42.96487" lon="1.10384">
        <ele>424.3</ele>
        <time>2023-04-04T13:29:48.988Z</time>
      </trkpt>
      <trkpt lat="42.9648" lon="1.10392">
        <ele>424.2</ele>
        <time>2023-04-04T13:29:52.988Z</time>
      </trkpt>
      <trkpt lat="42.96471" lon="1.10401">
        <ele>424.1</ele>
        <time>2023-04-04T13:29:56.988Z</time>
      </trkpt>
      <trkpt lat="42.96463" lon="1.10409">
        <ele>424</ele>
        <time>2023-04-04T13:30:01.988Z</time>
      </trkpt>
      <trkpt lat="42.96459" lon="1.10421">
        <ele>423.8</ele>
        <time>2023-04-04T13:30:06.988Z</time>
      </trkpt>
      <trkpt lat="42.9646" lon="1.10433">
        <ele>423.8</ele>
        <time>2023-04-04T13:30:10.987Z</time>
      </trkpt>
      <trkpt lat="42.96463" lon="1.10448">
        <ele>423.7</ele>
        <time>2023-04-04T13:30:15.987Z</time>
      </trkpt>
      <trkpt lat="42.96468" lon="1.1046">
        <ele>423.6</ele>
        <time>2023-04-04T13:30:19.987Z</time>
      </trkpt>
      <trkpt lat="42.96471" lon="1.1047">
        <ele>423.5</ele>
        <time>2023-04-04T13:30:24.987Z</time>
      </trkpt>
      <trkpt lat="42.96471" lon="1.10469">
        <ele>423.4</ele>
        <time>2023-04-04T13:30:33.987Z</time>
      </trkpt>
      <trkpt lat="42.9647" lon="1.10471">
        <ele>423.4</ele>
        <time>2023-04-04T13:30:36.986Z</time>
      </trkpt>
      <trkpt lat="42.96466" lon="1.10476">
        <ele>423.3</ele>
        <time>2023-04-04T13:30:47.986Z</time>
      </trkpt>
      <trkpt lat="42.96466" lon="1.10476">
        <ele>423.3</ele>
        <time>2023-04-04T13:30:48.986Z</time>
      </trkpt>
      <trkpt lat="42.96466" lon="1.10478">
        <ele>423.3</ele>
        <time>2023-04-04T13:30:51.986Z</time>
      </trkpt>
      <trkpt lat="42.96466" lon="1.10479">
        <ele>423.3</ele>
        <time>2023-04-04T13:30:53.986Z</time>
      </trkpt>
      <trkpt lat="42.96466" lon="1.10478">
        <ele>423.3</ele>
        <time>2023-04-04T13:30:57.986Z</time>
      </trkpt>
      <trkpt lat="42.96467" lon="1.10477">
        <ele>423.3</ele>
        <time>2023-04-04T13:30:59.985Z</time>
      </trkpt>
      <trkpt lat="42.96469" lon="1.10475">
        <ele>423.3</ele>
        <time>2023-04-04T13:31:50.984Z</time>
      </trkpt>
      <trkpt lat="42.96473" lon="1.10489">
        <ele>423.3</ele>
        <time>2023-04-04T13:31:58.983Z</time>
      </trkpt>
      <trkpt lat="42.96479" lon="1.10499">
        <ele>423.3</ele>
        <time>2023-04-04T13:32:05.983Z</time>
      </trkpt>
      <trkpt lat="42.96485" lon="1.10512">
        <ele>423.2</ele>
        <time>2023-04-04T13:32:12.983Z</time>
      </trkpt>
      <trkpt lat="42.9649" lon="1.10525">
        <ele>423.1</ele>
        <time>2023-04-04T13:32:15.983Z</time>
      </trkpt>
      <trkpt lat="42.96495" lon="1.10541">
        <ele>423</ele>
        <time>2023-04-04T13:32:18.982Z</time>
      </trkpt>
      <trkpt lat="42.96499" lon="1.10557">
        <ele>422.9</ele>
        <time>2023-04-04T13:32:20.982Z</time>
      </trkpt>
      <trkpt lat="42.96501" lon="1.10571">
        <ele>422.8</ele>
        <time>2023-04-04T13:32:22.982Z</time>
      </trkpt>
      <trkpt lat="42.96507" lon="1.10587">
        <ele>422.5</ele>
        <time>2023-04-04T13:32:25.982Z</time>
      </trkpt>
      <trkpt lat="42.96511" lon="1.10601">
        <ele>422.3</ele>
        <time>2023-04-04T13:32:28.982Z</time>
      </trkpt>
      <trkpt lat="42.96513" lon="1.10615">
        <ele>422.2</ele>
        <time>2023-04-04T13:32:31.982Z</time>
      </trkpt>
      <trkpt lat="42.96521" lon="1.10627">
        <ele>422.1</ele>
        <time>2023-04-04T13:32:35.982Z</time>
      </trkpt>
      <trkpt lat="42.96526" lon="1.10641">
        <ele>422.1</ele>
        <time>2023-04-04T13:32:39.982Z</time>
      </trkpt>
      <trkpt lat="42.96532" lon="1.10654">
        <ele>422.2</ele>
        <time>2023-04-04T13:32:42.981Z</time>
      </trkpt>
      <trkpt lat="42.96535" lon="1.10669">
        <ele>422.2</ele>
        <time>2023-04-04T13:32:46.981Z</time>
      </trkpt>
      <trkpt lat="42.96536" lon="1.10684">
        <ele>422.2</ele>
        <time>2023-04-04T13:32:50.981Z</time>
      </trkpt>
      <trkpt lat="42.96539" lon="1.107">
        <ele>422.3</ele>
        <time>2023-04-04T13:32:54.981Z</time>
      </trkpt>
      <trkpt lat="42.96542" lon="1.10715">
        <ele>422.4</ele>
        <time>2023-04-04T13:32:58.981Z</time>
      </trkpt>
      <trkpt lat="42.96549" lon="1.10726">
        <ele>422.5</ele>
        <time>2023-04-04T13:33:02.981Z</time>
      </trkpt>
      <trkpt lat="42.9655" lon="1.10739">
        <ele>422.5</ele>
        <time>2023-04-04T13:33:05.981Z</time>
      </trkpt>
      <trkpt lat="42.96557" lon="1.10747">
        <ele>422.5</ele>
        <time>2023-04-04T13:33:08.980Z</time>
      </trkpt>
      <trkpt lat="42.96559" lon="1.10761">
        <ele>422.6</ele>
        <time>2023-04-04T13:33:12.980Z</time>
      </trkpt>
      <trkpt lat="42.96553" lon="1.10771">
        <ele>422.7</ele>
        <time>2023-04-04T13:33:16.980Z</time>
      </trkpt>
      <trkpt lat="42.96552" lon="1.10788">
        <ele>422.8</ele>
        <time>2023-04-04T13:33:23.980Z</time>
      </trkpt>
      <trkpt lat="42.96549" lon="1.10801">
        <ele>423</ele>
        <time>2023-04-04T13:33:27.980Z</time>
      </trkpt>
      <trkpt lat="42.96552" lon="1.10816">
        <ele>423.2</ele>
        <time>2023-04-04T13:33:31.980Z</time>
      </trkpt>
      <trkpt lat="42.96558" lon="1.10828">
        <ele>423.3</ele>
        <time>2023-04-04T13:33:35.979Z</time>
      </trkpt>
      <trkpt lat="42.96563" lon="1.10839">
        <ele>423.3</ele>
        <time>2023-04-04T13:33:38.979Z</time>
      </trkpt>
      <trkpt lat="42.96569" lon="1.1085">
        <ele>423.3</ele>
        <time>2023-04-04T13:33:42.979Z</time>
      </trkpt>
      <trkpt lat="42.96576" lon="1.10861">
        <ele>423.4</ele>
        <time>2023-04-04T13:33:46.979Z</time>
      </trkpt>
      <trkpt lat="42.96583" lon="1.10876">
        <ele>423.4</ele>
        <time>2023-04-04T13:33:50.979Z</time>
      </trkpt>
      <trkpt lat="42.96589" lon="1.10887">
        <ele>423.5</ele>
        <time>2023-04-04T13:33:53.979Z</time>
      </trkpt>
      <trkpt lat="42.96598" lon="1.10894">
        <ele>423.4</ele>
        <time>2023-04-04T13:33:57.979Z</time>
      </trkpt>
      <trkpt lat="42.96607" lon="1.10903">
        <ele>423.4</ele>
        <time>2023-04-04T13:34:01.982Z</time>
      </trkpt>
      <trkpt lat="42.96616" lon="1.10909">
        <ele>423.3</ele>
        <time>2023-04-04T13:34:04.985Z</time>
      </trkpt>
      <trkpt lat="42.96624" lon="1.10916">
        <ele>423.1</ele>
        <time>2023-04-04T13:34:07.988Z</time>
      </trkpt>
      <trkpt lat="42.96632" lon="1.10923">
        <ele>422.9</ele>
        <time>2023-04-04T13:34:10.990Z</time>
      </trkpt>
      <trkpt lat="42.96641" lon="1.10934">
        <ele>422.6</ele>
        <time>2023-04-04T13:34:14.992Z</time>
      </trkpt>
      <trkpt lat="42.96648" lon="1.10946">
        <ele>422.2</ele>
        <time>2023-04-04T13:34:18.994Z</time>
      </trkpt>
      <trkpt lat="42.96654" lon="1.10956">
        <ele>422</ele>
        <time>2023-04-04T13:34:21.995Z</time>
      </trkpt>
      <trkpt lat="42.96662" lon="1.10965">
        <ele>421.6</ele>
        <time>2023-04-04T13:34:24.996Z</time>
      </trkpt>
      <trkpt lat="42.96668" lon="1.10974">
        <ele>421.2</ele>
        <time>2023-04-04T13:34:27.996Z</time>
      </trkpt>
      <trkpt lat="42.96674" lon="1.10983">
        <ele>420.7</ele>
        <time>2023-04-04T13:34:30.997Z</time>
      </trkpt>
      <trkpt lat="42.96682" lon="1.10993">
        <ele>420.3</ele>
        <time>2023-04-04T13:34:33.997Z</time>
      </trkpt>
      <trkpt lat="42.9669" lon="1.11004">
        <ele>419.9</ele>
        <time>2023-04-04T13:34:37.998Z</time>
      </trkpt>
      <trkpt lat="42.96697" lon="1.11014">
        <ele>419.8</ele>
        <time>2023-04-04T13:34:40.998Z</time>
      </trkpt>
      <trkpt lat="42.96703" lon="1.11029">
        <ele>419.8</ele>
        <time>2023-04-04T13:34:44.998Z</time>
      </trkpt>
      <trkpt lat="42.96708" lon="1.11041">
        <ele>420</ele>
        <time>2023-04-04T13:34:48.998Z</time>
      </trkpt>
      <trkpt lat="42.96714" lon="1.11054">
        <ele>420.1</ele>
        <time>2023-04-04T13:34:52.998Z</time>
      </trkpt>
      <trkpt lat="42.96722" lon="1.11067">
        <ele>420.2</ele>
        <time>2023-04-04T13:34:56.998Z</time>
      </trkpt>
      <trkpt lat="42.96729" lon="1.11076">
        <ele>420.1</ele>
        <time>2023-04-04T13:34:59.998Z</time>
      </trkpt>
      <trkpt lat="42.96735" lon="1.11086">
        <ele>419.9</ele>
        <time>2023-04-04T13:35:03.998Z</time>
      </trkpt>
      <trkpt lat="42.96743" lon="1.11096">
        <ele>419.6</ele>
        <time>2023-04-04T13:35:06.998Z</time>
      </trkpt>
      <trkpt lat="42.96751" lon="1.11107">
        <ele>419.2</ele>
        <time>2023-04-04T13:35:10.998Z</time>
      </trkpt>
      <trkpt lat="42.9676" lon="1.11115">
        <ele>418.8</ele>
        <time>2023-04-04T13:35:13.998Z</time>
      </trkpt>
      <trkpt lat="42.96771" lon="1.11127">
        <ele>418.7</ele>
        <time>2023-04-04T13:35:16.998Z</time>
      </trkpt>
      <trkpt lat="42.96776" lon="1.11144">
        <ele>418.7</ele>
        <time>2023-04-04T13:35:19.998Z</time>
      </trkpt>
      <trkpt lat="42.96782" lon="1.11159">
        <ele>418.7</ele>
        <time>2023-04-04T13:35:22.998Z</time>
      </trkpt>
      <trkpt lat="42.96788" lon="1.11173">
        <ele>418.9</ele>
        <time>2023-04-04T13:35:25.998Z</time>
      </trkpt>
      <trkpt lat="42.96793" lon="1.11187">
        <ele>419.1</ele>
        <time>2023-04-04T13:35:28.998Z</time>
      </trkpt>
      <trkpt lat="42.968" lon="1.11202">
        <ele>419.6</ele>
        <time>2023-04-04T13:35:31.997Z</time>
      </trkpt>
      <trkpt lat="42.96805" lon="1.11218">
        <ele>420.2</ele>
        <time>2023-04-04T13:35:34.997Z</time>
      </trkpt>
      <trkpt lat="42.96809" lon="1.11231">
        <ele>421</ele>
        <time>2023-04-04T13:35:38.997Z</time>
      </trkpt>
      <trkpt lat="42.96809" lon="1.11244">
        <ele>422.2</ele>
        <time>2023-04-04T13:35:44.997Z</time>
      </trkpt>
      <trkpt lat="42.96808" lon="1.11257">
        <ele>423.5</ele>
        <time>2023-04-04T13:35:50.997Z</time>
      </trkpt>
      <trkpt lat="42.96811" lon="1.11272">
        <ele>424.7</ele>
        <time>2023-04-04T13:35:55.996Z</time>
      </trkpt>
      <trkpt lat="42.96818" lon="1.11282">
        <ele>425</ele>
        <time>2023-04-04T13:35:59.996Z</time>
      </trkpt>
      <trkpt lat="42.96824" lon="1.11294">
        <ele>424.9</ele>
        <time>2023-04-04T13:36:04.996Z</time>
      </trkpt>
      <trkpt lat="42.9683" lon="1.11306">
        <ele>424.7</ele>
        <time>2023-04-04T13:36:08.996Z</time>
      </trkpt>
      <trkpt lat="42.96836" lon="1.11317">
        <ele>424.2</ele>
        <time>2023-04-04T13:36:12.996Z</time>
      </trkpt>
      <trkpt lat="42.96843" lon="1.11326">
        <ele>423.8</ele>
        <time>2023-04-04T13:36:16.996Z</time>
      </trkpt>
      <trkpt lat="42.96846" lon="1.11341">
        <ele>423.7</ele>
        <time>2023-04-04T13:36:20.995Z</time>
      </trkpt>
      <trkpt lat="42.9685" lon="1.11354">
        <ele>424.2</ele>
        <time>2023-04-04T13:36:24.995Z</time>
      </trkpt>
      <trkpt lat="42.96855" lon="1.11368">
        <ele>425.4</ele>
        <time>2023-04-04T13:36:29.995Z</time>
      </trkpt>
      <trkpt lat="42.96861" lon="1.11379">
        <ele>426.4</ele>
        <time>2023-04-04T13:36:32.995Z</time>
      </trkpt>
      <trkpt lat="42.96866" lon="1.11392">
        <ele>427.7</ele>
        <time>2023-04-04T13:36:36.995Z</time>
      </trkpt>
      <trkpt lat="42.96869" lon="1.11407">
        <ele>429.1</ele>
        <time>2023-04-04T13:36:40.995Z</time>
      </trkpt>
      <trkpt lat="42.96872" lon="1.11422">
        <ele>430.5</ele>
        <time>2023-04-04T13:36:44.995Z</time>
      </trkpt>
      <trkpt lat="42.96876" lon="1.11436">
        <ele>431.3</ele>
        <time>2023-04-04T13:36:48.994Z</time>
      </trkpt>
      <trkpt lat="42.96878" lon="1.11449">
        <ele>431.6</ele>
        <time>2023-04-04T13:36:52.994Z</time>
      </trkpt>
      <trkpt lat="42.9688" lon="1.11464">
        <ele>431.9</ele>
        <time>2023-04-04T13:36:57.994Z</time>
      </trkpt>
      <trkpt lat="42.96883" lon="1.11476">
        <ele>432</ele>
        <time>2023-04-04T13:37:01.994Z</time>
      </trkpt>
      <trkpt lat="42.96886" lon="1.11488">
        <ele>431.9</ele>
        <time>2023-04-04T13:37:05.994Z</time>
      </trkpt>
      <trkpt lat="42.96891" lon="1.11502">
        <ele>431.6</ele>
        <time>2023-04-04T13:37:10.993Z</time>
      </trkpt>
      <trkpt lat="42.96894" lon="1.11514">
        <ele>431.1</ele>
        <time>2023-04-04T13:37:13.993Z</time>
      </trkpt>
      <trkpt lat="42.96896" lon="1.11529">
        <ele>430.3</ele>
        <time>2023-04-04T13:37:17.993Z</time>
      </trkpt>
      <trkpt lat="42.96898" lon="1.11542">
        <ele>429.2</ele>
        <time>2023-04-04T13:37:21.993Z</time>
      </trkpt>
      <trkpt lat="42.96899" lon="1.11556">
        <ele>427.9</ele>
        <time>2023-04-04T13:37:25.993Z</time>
      </trkpt>
      <trkpt lat="42.96901" lon="1.11569">
        <ele>426.6</ele>
        <time>2023-04-04T13:37:30.993Z</time>
      </trkpt>
      <trkpt lat="42.96906" lon="1.1158">
        <ele>425.5</ele>
        <time>2023-04-04T13:37:33.993Z</time>
      </trkpt>
      <trkpt lat="42.96911" lon="1.11594">
        <ele>423.3</ele>
        <time>2023-04-04T13:37:37.992Z</time>
      </trkpt>
      <trkpt lat="42.96913" lon="1.11606">
        <ele>422</ele>
        <time>2023-04-04T13:37:40.992Z</time>
      </trkpt>
      <trkpt lat="42.96913" lon="1.11618">
        <ele>421</ele>
        <time>2023-04-04T13:37:44.992Z</time>
      </trkpt>
      <trkpt lat="42.96911" lon="1.11632">
        <ele>421.1</ele>
        <time>2023-04-04T13:37:48.992Z</time>
      </trkpt>
      <trkpt lat="42.96912" lon="1.11647">
        <ele>421.2</ele>
        <time>2023-04-04T13:37:53.992Z</time>
      </trkpt>
      <trkpt lat="42.96914" lon="1.11661">
        <ele>421.3</ele>
        <time>2023-04-04T13:37:57.992Z</time>
      </trkpt>
      <trkpt lat="42.96918" lon="1.11673">
        <ele>421.1</ele>
        <time>2023-04-04T13:38:01.991Z</time>
      </trkpt>
      <trkpt lat="42.9692" lon="1.11688">
        <ele>421</ele>
        <time>2023-04-04T13:38:06.991Z</time>
      </trkpt>
      <trkpt lat="42.96921" lon="1.11701">
        <ele>421.1</ele>
        <time>2023-04-04T13:38:10.991Z</time>
      </trkpt>
      <trkpt lat="42.96924" lon="1.11712">
        <ele>421.3</ele>
        <time>2023-04-04T13:38:14.991Z</time>
      </trkpt>
      <trkpt lat="42.96925" lon="1.11725">
        <ele>421.6</ele>
        <time>2023-04-04T13:38:18.991Z</time>
      </trkpt>
      <trkpt lat="42.96928" lon="1.11739">
        <ele>422</ele>
        <time>2023-04-04T13:38:23.991Z</time>
      </trkpt>
      <trkpt lat="42.9693" lon="1.11752">
        <ele>422.4</ele>
        <time>2023-04-04T13:38:28.990Z</time>
      </trkpt>
      <trkpt lat="42.96927" lon="1.11764">
        <ele>423.3</ele>
        <time>2023-04-04T13:38:35.990Z</time>
      </trkpt>
      <trkpt lat="42.96927" lon="1.11777">
        <ele>424.5</ele>
        <time>2023-04-04T13:38:40.990Z</time>
      </trkpt>
      <trkpt lat="42.96928" lon="1.11791">
        <ele>426</ele>
        <time>2023-04-04T13:38:46.990Z</time>
      </trkpt>
      <trkpt lat="42.96933" lon="1.11803">
        <ele>427</ele>
        <time>2023-04-04T13:38:51.989Z</time>
      </trkpt>
      <trkpt lat="42.96933" lon="1.11816">
        <ele>427.8</ele>
        <time>2023-04-04T13:38:56.989Z</time>
      </trkpt>
      <trkpt lat="42.96935" lon="1.11829">
        <ele>428.7</ele>
        <time>2023-04-04T13:39:01.989Z</time>
      </trkpt>
      <trkpt lat="42.96936" lon="1.11842">
        <ele>429.4</ele>
        <time>2023-04-04T13:39:07.989Z</time>
      </trkpt>
      <trkpt lat="42.96939" lon="1.11846">
        <ele>429.8</ele>
        <time>2023-04-04T13:39:10.989Z</time>
      </trkpt>
      <trkpt lat="42.9694" lon="1.11848">
        <ele>429.9</ele>
        <time>2023-04-04T13:39:12.989Z</time>
      </trkpt>
      <trkpt lat="42.9694" lon="1.11848">
        <ele>430.1</ele>
        <time>2023-04-04T13:39:14.988Z</time>
      </trkpt>
      <trkpt lat="42.9694" lon="1.1185">
        <ele>430.2</ele>
        <time>2023-04-04T13:39:16.988Z</time>
      </trkpt>
      <trkpt lat="42.96942" lon="1.11849">
        <ele>430.2</ele>
        <time>2023-04-04T13:39:20.988Z</time>
      </trkpt>
      <trkpt lat="42.96942" lon="1.11849">
        <ele>430.2</ele>
        <time>2023-04-04T13:39:21.988Z</time>
      </trkpt>
      <trkpt lat="42.96942" lon="1.11849">
        <ele>430.2</ele>
        <time>2023-04-04T13:39:22.988Z</time>
      </trkpt>
      <trkpt lat="42.96942" lon="1.11853">
        <ele>430.3</ele>
        <time>2023-04-04T13:39:26.988Z</time>
      </trkpt>
      <trkpt lat="42.96942" lon="1.11853">
        <ele>430.3</ele>
        <time>2023-04-04T13:39:27.988Z</time>
      </trkpt>
      <trkpt lat="42.96941" lon="1.11856">
        <ele>430.3</ele>
        <time>2023-04-04T13:39:28.988Z</time>
      </trkpt>
      <trkpt lat="42.96939" lon="1.11858">
        <ele>430.6</ele>
        <time>2023-04-04T13:39:31.988Z</time>
      </trkpt>
      <trkpt lat="42.96938" lon="1.11859">
        <ele>430.7</ele>
        <time>2023-04-04T13:39:32.988Z</time>
      </trkpt>
      <trkpt lat="42.96938" lon="1.11859">
        <ele>430.8</ele>
        <time>2023-04-04T13:39:33.988Z</time>
      </trkpt>
      <trkpt lat="42.96939" lon="1.11861">
        <ele>431.9</ele>
        <time>2023-04-04T13:39:50.987Z</time>
      </trkpt>
      <trkpt lat="42.96939" lon="1.1186">
        <ele>432</ele>
        <time>2023-04-04T13:39:52.987Z</time>
      </trkpt>
      <trkpt lat="42.96941" lon="1.11861">
        <ele>432</ele>
        <time>2023-04-04T13:39:56.987Z</time>
      </trkpt>
      <trkpt lat="42.96942" lon="1.11875">
        <ele>432.2</ele>
        <time>2023-04-04T13:40:02.987Z</time>
      </trkpt>
      <trkpt lat="42.96944" lon="1.11889">
        <ele>432.5</ele>
        <time>2023-04-04T13:40:07.986Z</time>
      </trkpt>
      <trkpt lat="42.96945" lon="1.11902">
        <ele>433.2</ele>
        <time>2023-04-04T13:40:13.986Z</time>
      </trkpt>
      <trkpt lat="42.96947" lon="1.11915">
        <ele>434</ele>
        <time>2023-04-04T13:40:18.986Z</time>
      </trkpt>
      <trkpt lat="42.96949" lon="1.11929">
        <ele>434.9</ele>
        <time>2023-04-04T13:40:23.986Z</time>
      </trkpt>
      <trkpt lat="42.96954" lon="1.11941">
        <ele>435.4</ele>
        <time>2023-04-04T13:40:27.986Z</time>
      </trkpt>
      <trkpt lat="42.96957" lon="1.11955">
        <ele>435.7</ele>
        <time>2023-04-04T13:40:32.985Z</time>
      </trkpt>
      <trkpt lat="42.9696" lon="1.11967">
        <ele>436.1</ele>
        <time>2023-04-04T13:40:37.985Z</time>
      </trkpt>
      <trkpt lat="42.96959" lon="1.1198">
        <ele>436.7</ele>
        <time>2023-04-04T13:40:42.985Z</time>
      </trkpt>
      <trkpt lat="42.9696" lon="1.11993">
        <ele>437.6</ele>
        <time>2023-04-04T13:40:46.985Z</time>
      </trkpt>
      <trkpt lat="42.96964" lon="1.12005">
        <ele>438.8</ele>
        <time>2023-04-04T13:40:52.985Z</time>
      </trkpt>
      <trkpt lat="42.96968" lon="1.12017">
        <ele>439.1</ele>
        <time>2023-04-04T13:40:57.984Z</time>
      </trkpt>
      <trkpt lat="42.9697" lon="1.1203">
        <ele>439.3</ele>
        <time>2023-04-04T13:41:01.984Z</time>
      </trkpt>
      <trkpt lat="42.96971" lon="1.12045">
        <ele>439.8</ele>
        <time>2023-04-04T13:41:06.984Z</time>
      </trkpt>
      <trkpt lat="42.96976" lon="1.12056">
        <ele>440.1</ele>
        <time>2023-04-04T13:41:11.984Z</time>
      </trkpt>
      <trkpt lat="42.9698" lon="1.12068">
        <ele>440.2</ele>
        <time>2023-04-04T13:41:17.984Z</time>
      </trkpt>
      <trkpt lat="42.96983" lon="1.12079">
        <ele>440.2</ele>
        <time>2023-04-04T13:41:22.983Z</time>
      </trkpt>
      <trkpt lat="42.96992" lon="1.12092">
        <ele>440</ele>
        <time>2023-04-04T13:41:26.983Z</time>
      </trkpt>
      <trkpt lat="42.96999" lon="1.12101">
        <ele>439.8</ele>
        <time>2023-04-04T13:41:29.986Z</time>
      </trkpt>
      <trkpt lat="42.97005" lon="1.12111">
        <ele>439.5</ele>
        <time>2023-04-04T13:41:33.990Z</time>
      </trkpt>
      <trkpt lat="42.97011" lon="1.12125">
        <ele>439.6</ele>
        <time>2023-04-04T13:41:37.992Z</time>
      </trkpt>
      <trkpt lat="42.97016" lon="1.12137">
        <ele>440</ele>
        <time>2023-04-04T13:41:43.995Z</time>
      </trkpt>
      <trkpt lat="42.97021" lon="1.1215">
        <ele>440.3</ele>
        <time>2023-04-04T13:41:46.995Z</time>
      </trkpt>
      <trkpt lat="42.97023" lon="1.12162">
        <ele>441.1</ele>
        <time>2023-04-04T13:41:50.996Z</time>
      </trkpt>
      <trkpt lat="42.97025" lon="1.12175">
        <ele>442.9</ele>
        <time>2023-04-04T13:41:55.997Z</time>
      </trkpt>
      <trkpt lat="42.9703" lon="1.12187">
        <ele>445.2</ele>
        <time>2023-04-04T13:42:00.998Z</time>
      </trkpt>
      <trkpt lat="42.97036" lon="1.12199">
        <ele>447</ele>
        <time>2023-04-04T13:42:07.998Z</time>
      </trkpt>
      <trkpt lat="42.97038" lon="1.12213">
        <ele>448.4</ele>
        <time>2023-04-04T13:42:12.998Z</time>
      </trkpt>
      <trkpt lat="42.97045" lon="1.12222">
        <ele>449.9</ele>
        <time>2023-04-04T13:42:18.998Z</time>
      </trkpt>
      <trkpt lat="42.97053" lon="1.12229">
        <ele>449.9</ele>
        <time>2023-04-04T13:42:22.998Z</time>
      </trkpt>
      <trkpt lat="42.97061" lon="1.1224">
        <ele>449.9</ele>
        <time>2023-04-04T13:42:27.998Z</time>
      </trkpt>
      <trkpt lat="42.97071" lon="1.12247">
        <ele>449.5</ele>
        <time>2023-04-04T13:42:32.998Z</time>
      </trkpt>
      <trkpt lat="42.97077" lon="1.12258">
        <ele>449.2</ele>
        <time>2023-04-04T13:42:36.998Z</time>
      </trkpt>
      <trkpt lat="42.97083" lon="1.12268">
        <ele>449.2</ele>
        <time>2023-04-04T13:42:40.998Z</time>
      </trkpt>
      <trkpt lat="42.97088" lon="1.12282">
        <ele>449.9</ele>
        <time>2023-04-04T13:42:46.998Z</time>
      </trkpt>
      <trkpt lat="42.97091" lon="1.12295">
        <ele>452.5</ele>
        <time>2023-04-04T13:42:52.997Z</time>
      </trkpt>
      <trkpt lat="42.971" lon="1.12303">
        <ele>455.1</ele>
        <time>2023-04-04T13:42:58.997Z</time>
      </trkpt>
      <trkpt lat="42.97106" lon="1.12312">
        <ele>456.1</ele>
        <time>2023-04-04T13:43:04.997Z</time>
      </trkpt>
      <trkpt lat="42.97107" lon="1.12326">
        <ele>458.2</ele>
        <time>2023-04-04T13:43:09.997Z</time>
      </trkpt>
      <trkpt lat="42.97108" lon="1.1234">
        <ele>462.4</ele>
        <time>2023-04-04T13:43:15.997Z</time>
      </trkpt>
      <trkpt lat="42.97114" lon="1.12349">
        <ele>464.9</ele>
        <time>2023-04-04T13:43:24.996Z</time>
      </trkpt>
      <trkpt lat="42.97114" lon="1.12349">
        <ele>464.9</ele>
        <time>2023-04-04T13:43:25.996Z</time>
      </trkpt>
      <trkpt lat="42.97113" lon="1.12352">
        <ele>465.4</ele>
        <time>2023-04-04T13:43:32.996Z</time>
      </trkpt>
      <trkpt lat="42.97112" lon="1.12352">
        <ele>465.6</ele>
        <time>2023-04-04T13:43:34.996Z</time>
      </trkpt>
      <trkpt lat="42.97112" lon="1.12354">
        <ele>465.9</ele>
        <time>2023-04-04T13:43:37.996Z</time>
      </trkpt>
      <trkpt lat="42.97113" lon="1.12359">
        <ele>466.3</ele>
        <time>2023-04-04T13:43:40.996Z</time>
      </trkpt>
      <trkpt lat="42.97114" lon="1.12359">
        <ele>467</ele>
        <time>2023-04-04T13:43:48.995Z</time>
      </trkpt>
      <trkpt lat="42.97114" lon="1.12359">
        <ele>467.1</ele>
        <time>2023-04-04T13:43:51.995Z</time>
      </trkpt>
      <trkpt lat="42.97114" lon="1.1236">
        <ele>467.3</ele>
        <time>2023-04-04T13:43:56.995Z</time>
      </trkpt>
      <trkpt lat="42.97114" lon="1.1236">
        <ele>467.3</ele>
        <time>2023-04-04T13:43:57.995Z</time>
      </trkpt>
      <trkpt lat="42.97113" lon="1.12362">
        <ele>467.8</ele>
        <time>2023-04-04T13:44:38.993Z</time>
      </trkpt>
      <trkpt lat="42.97113" lon="1.12362">
        <ele>467.9</ele>
        <time>2023-04-04T13:44:40.993Z</time>
      </trkpt>
      <trkpt lat="42.97115" lon="1.12362">
        <ele>468</ele>
        <time>2023-04-04T13:44:58.993Z</time>
      </trkpt>
      <trkpt lat="42.97115" lon="1.12362">
        <ele>468</ele>
        <time>2023-04-04T13:44:59.992Z</time>
      </trkpt>
      <trkpt lat="42.97115" lon="1.12362">
        <ele>468</ele>
        <time>2023-04-04T13:45:07.992Z</time>
      </trkpt>
      <trkpt lat="42.97115" lon="1.12362">
        <ele>468</ele>
        <time>2023-04-04T13:45:08.992Z</time>
      </trkpt>
      <trkpt lat="42.97116" lon="1.12362">
        <ele>468</ele>
        <time>2023-04-04T13:45:34.991Z</time>
      </trkpt>
      <trkpt lat="42.97116" lon="1.12362">
        <ele>468</ele>
        <time>2023-04-04T13:45:35.991Z</time>
      </trkpt>
      <trkpt lat="42.97118" lon="1.12361">
        <ele>468</ele>
        <time>2023-04-04T13:45:38.991Z</time>
      </trkpt>
      <trkpt lat="42.97118" lon="1.12361">
        <ele>468</ele>
        <time>2023-04-04T13:45:39.991Z</time>
      </trkpt>
      <trkpt lat="42.97118" lon="1.12361">
        <ele>468</ele>
        <time>2023-04-04T13:45:42.991Z</time>
      </trkpt>
      <trkpt lat="42.97118" lon="1.12361">
        <ele>467.9</ele>
        <time>2023-04-04T13:45:43.991Z</time>
      </trkpt>
      <trkpt lat="42.97118" lon="1.1236">
        <ele>467.7</ele>
        <time>2023-04-04T13:46:08.990Z</time>
      </trkpt>
      <trkpt lat="42.97118" lon="1.1236">
        <ele>467.6</ele>
        <time>2023-04-04T13:46:09.990Z</time>
      </trkpt>
      <trkpt lat="42.97118" lon="1.12362">
        <ele>467.2</ele>
        <time>2023-04-04T13:47:06.987Z</time>
      </trkpt>
      <trkpt lat="42.97118" lon="1.12362">
        <ele>467.2</ele>
        <time>2023-04-04T13:47:07.987Z</time>
      </trkpt>
      <trkpt lat="42.97118" lon="1.12362">
        <ele>467.2</ele>
        <time>2023-04-04T13:47:08.987Z</time>
      </trkpt>
      <trkpt lat="42.97122" lon="1.12373">
        <ele>467.3</ele>
        <time>2023-04-04T13:47:14.987Z</time>
      </trkpt>
      <trkpt lat="42.97129" lon="1.12382">
        <ele>467.6</ele>
        <time>2023-04-04T13:47:20.987Z</time>
      </trkpt>
      <trkpt lat="42.97138" lon="1.12389">
        <ele>467.9</ele>
        <time>2023-04-04T13:47:26.987Z</time>
      </trkpt>
      <trkpt lat="42.97147" lon="1.12395">
        <ele>468.2</ele>
        <time>2023-04-04T13:47:32.986Z</time>
      </trkpt>
      <trkpt lat="42.97158" lon="1.12399">
        <ele>468.4</ele>
        <time>2023-04-04T13:47:37.986Z</time>
      </trkpt>
      <trkpt lat="42.97166" lon="1.12405">
        <ele>468.5</ele>
        <time>2023-04-04T13:47:41.986Z</time>
      </trkpt>
      <trkpt lat="42.97174" lon="1.12414">
        <ele>468.7</ele>
        <time>2023-04-04T13:47:44.986Z</time>
      </trkpt>
      <trkpt lat="42.97184" lon="1.12422">
        <ele>468.8</ele>
        <time>2023-04-04T13:47:47.986Z</time>
      </trkpt>
      <trkpt lat="42.97192" lon="1.12428">
        <ele>468.7</ele>
        <time>2023-04-04T13:47:51.986Z</time>
      </trkpt>
      <trkpt lat="42.97201" lon="1.12431">
        <ele>468.2</ele>
        <time>2023-04-04T13:47:56.985Z</time>
      </trkpt>
      <trkpt lat="42.9721" lon="1.12437">
        <ele>467.6</ele>
        <time>2023-04-04T13:48:00.985Z</time>
      </trkpt>
      <trkpt lat="42.9722" lon="1.12441">
        <ele>466.3</ele>
        <time>2023-04-04T13:48:05.985Z</time>
      </trkpt>
      <trkpt lat="42.9723" lon="1.12442">
        <ele>464.2</ele>
        <time>2023-04-04T13:48:10.985Z</time>
      </trkpt>
      <trkpt lat="42.9723" lon="1.12443">
        <ele>463.1</ele>
        <time>2023-04-04T13:48:13.985Z</time>
      </trkpt>
      <trkpt lat="42.9723" lon="1.12442">
        <ele>462.5</ele>
        <time>2023-04-04T13:48:15.985Z</time>
      </trkpt>
      <trkpt lat="42.9723" lon="1.12442">
        <ele>462.3</ele>
        <time>2023-04-04T13:48:16.985Z</time>
      </trkpt>
      <trkpt lat="42.97231" lon="1.12443">
        <ele>462</ele>
        <time>2023-04-04T13:48:18.984Z</time>
      </trkpt>
      <trkpt lat="42.97231" lon="1.12443">
        <ele>461.9</ele>
        <time>2023-04-04T13:48:19.984Z</time>
      </trkpt>
      <trkpt lat="42.97232" lon="1.12443">
        <ele>461.8</ele>
        <time>2023-04-04T13:48:20.984Z</time>
      </trkpt>
      <trkpt lat="42.97232" lon="1.12443">
        <ele>461.7</ele>
        <time>2023-04-04T13:48:21.984Z</time>
      </trkpt>
      <trkpt lat="42.97231" lon="1.12443">
        <ele>461.5</ele>
        <time>2023-04-04T13:48:23.984Z</time>
      </trkpt>
      <trkpt lat="42.97231" lon="1.12442">
        <ele>461.4</ele>
        <time>2023-04-04T13:48:25.984Z</time>
      </trkpt>
      <trkpt lat="42.97235" lon="1.12439">
        <ele>460.7</ele>
        <time>2023-04-04T13:48:50.993Z</time>
      </trkpt>
      <trkpt lat="42.97235" lon="1.12439">
        <ele>460.7</ele>
        <time>2023-04-04T13:48:51.993Z</time>
      </trkpt>
      <trkpt lat="42.97235" lon="1.12439">
        <ele>460.5</ele>
        <time>2023-04-04T13:48:54.994Z</time>
      </trkpt>
      <trkpt lat="42.97244" lon="1.12446">
        <ele>459.9</ele>
        <time>2023-04-04T13:49:00.996Z</time>
      </trkpt>
      <trkpt lat="42.97246" lon="1.12459">
        <ele>460</ele>
        <time>2023-04-04T13:49:05.997Z</time>
      </trkpt>
      <trkpt lat="42.97251" lon="1.12471">
        <ele>460.5</ele>
        <time>2023-04-04T13:49:09.997Z</time>
      </trkpt>
      <trkpt lat="42.97258" lon="1.1248">
        <ele>461.5</ele>
        <time>2023-04-04T13:49:14.998Z</time>
      </trkpt>
      <trkpt lat="42.97267" lon="1.12489">
        <ele>462.2</ele>
        <time>2023-04-04T13:49:19.998Z</time>
      </trkpt>
      <trkpt lat="42.97275" lon="1.12495">
        <ele>462.4</ele>
        <time>2023-04-04T13:49:23.998Z</time>
      </trkpt>
      <trkpt lat="42.97283" lon="1.12503">
        <ele>462.1</ele>
        <time>2023-04-04T13:49:28.998Z</time>
      </trkpt>
      <trkpt lat="42.9729" lon="1.12512">
        <ele>461.7</ele>
        <time>2023-04-04T13:49:33.998Z</time>
      </trkpt>
      <trkpt lat="42.97296" lon="1.12523">
        <ele>461.1</ele>
        <time>2023-04-04T13:49:39.998Z</time>
      </trkpt>
      <trkpt lat="42.97303" lon="1.12532">
        <ele>460.4</ele>
        <time>2023-04-04T13:49:44.998Z</time>
      </trkpt>
      <trkpt lat="42.97314" lon="1.1254">
        <ele>459.9</ele>
        <time>2023-04-04T13:49:47.998Z</time>
      </trkpt>
      <trkpt lat="42.97323" lon="1.12544">
        <ele>459.2</ele>
        <time>2023-04-04T13:49:49.998Z</time>
      </trkpt>
      <trkpt lat="42.97337" lon="1.12548">
        <ele>457.5</ele>
        <time>2023-04-04T13:49:52.998Z</time>
      </trkpt>
      <trkpt lat="42.97347" lon="1.1255">
        <ele>455.7</ele>
        <time>2023-04-04T13:49:54.998Z</time>
      </trkpt>
      <trkpt lat="42.97358" lon="1.12557">
        <ele>453.5</ele>
        <time>2023-04-04T13:49:56.998Z</time>
      </trkpt>
      <trkpt lat="42.97362" lon="1.1257">
        <ele>452</ele>
        <time>2023-04-04T13:49:58.998Z</time>
      </trkpt>
      <trkpt lat="42.97365" lon="1.12586">
        <ele>451.8</ele>
        <time>2023-04-04T13:50:01.998Z</time>
      </trkpt>
      <trkpt lat="42.97371" lon="1.12596">
        <ele>452.1</ele>
        <time>2023-04-04T13:50:10.997Z</time>
      </trkpt>
      <trkpt lat="42.9738" lon="1.12606">
        <ele>452</ele>
        <time>2023-04-04T13:50:14.997Z</time>
      </trkpt>
      <trkpt lat="42.97387" lon="1.12616">
        <ele>452</ele>
        <time>2023-04-04T13:50:18.997Z</time>
      </trkpt>
      <trkpt lat="42.97393" lon="1.12626">
        <ele>452.1</ele>
        <time>2023-04-04T13:50:23.997Z</time>
      </trkpt>
      <trkpt lat="42.97402" lon="1.12627">
        <ele>452</ele>
        <time>2023-04-04T13:50:25.997Z</time>
      </trkpt>
      <trkpt lat="42.97415" lon="1.12624">
        <ele>451.7</ele>
        <time>2023-04-04T13:50:27.997Z</time>
      </trkpt>
      <trkpt lat="42.97427" lon="1.12624">
        <ele>451.4</ele>
        <time>2023-04-04T13:50:28.997Z</time>
      </trkpt>
      <trkpt lat="42.9744" lon="1.12624">
        <ele>450</ele>
        <time>2023-04-04T13:50:30.997Z</time>
      </trkpt>
      <trkpt lat="42.97454" lon="1.12627">
        <ele>447</ele>
        <time>2023-04-04T13:50:32.997Z</time>
      </trkpt>
      <trkpt lat="42.9747" lon="1.12633">
        <ele>442.1</ele>
        <time>2023-04-04T13:50:34.996Z</time>
      </trkpt>
      <trkpt lat="42.97487" lon="1.12639">
        <ele>436.3</ele>
        <time>2023-04-04T13:50:36.996Z</time>
      </trkpt>
      <trkpt lat="42.97497" lon="1.12641">
        <ele>431.7</ele>
        <time>2023-04-04T13:50:38.996Z</time>
      </trkpt>
      <trkpt lat="42.97515" lon="1.12646">
        <ele>428.2</ele>
        <time>2023-04-04T13:50:40.996Z</time>
      </trkpt>
      <trkpt lat="42.97528" lon="1.1265">
        <ele>425.1</ele>
        <time>2023-04-04T13:50:42.996Z</time>
      </trkpt>
      <trkpt lat="42.97536" lon="1.12656">
        <ele>423.4</ele>
        <time>2023-04-04T13:50:44.996Z</time>
      </trkpt>
      <trkpt lat="42.97545" lon="1.12661">
        <ele>421.5</ele>
        <time>2023-04-04T13:50:48.996Z</time>
      </trkpt>
      <trkpt lat="42.9755" lon="1.12666">
        <ele>420</ele>
        <time>2023-04-04T13:50:53.996Z</time>
      </trkpt>
      <trkpt lat="42.9755" lon="1.12667">
        <ele>418.8</ele>
        <time>2023-04-04T13:51:31.994Z</time>
      </trkpt>
      <trkpt lat="42.97558" lon="1.12678">
        <ele>418.9</ele>
        <time>2023-04-04T13:51:37.994Z</time>
      </trkpt>
      <trkpt lat="42.97567" lon="1.12687">
        <ele>418.9</ele>
        <time>2023-04-04T13:51:40.994Z</time>
      </trkpt>
      <trkpt lat="42.97577" lon="1.12696">
        <ele>418.8</ele>
        <time>2023-04-04T13:51:43.994Z</time>
      </trkpt>
      <trkpt lat="42.97586" lon="1.12701">
        <ele>418.7</ele>
        <time>2023-04-04T13:51:45.994Z</time>
      </trkpt>
      <trkpt lat="42.97596" lon="1.12703">
        <ele>418.6</ele>
        <time>2023-04-04T13:51:46.994Z</time>
      </trkpt>
      <trkpt lat="42.97621" lon="1.12706">
        <ele>418.3</ele>
        <time>2023-04-04T13:51:47.994Z</time>
      </trkpt>
      <trkpt lat="42.97633" lon="1.12708">
        <ele>418</ele>
        <time>2023-04-04T13:51:48.994Z</time>
      </trkpt>
      <trkpt lat="42.97643" lon="1.12713">
        <ele>417.5</ele>
        <time>2023-04-04T13:51:49.993Z</time>
      </trkpt>
      <trkpt lat="42.97655" lon="1.12719">
        <ele>416.8</ele>
        <time>2023-04-04T13:51:50.993Z</time>
      </trkpt>
      <trkpt lat="42.97666" lon="1.12726">
        <ele>415.7</ele>
        <time>2023-04-04T13:51:51.993Z</time>
      </trkpt>
      <trkpt lat="42.97679" lon="1.12735">
        <ele>414.5</ele>
        <time>2023-04-04T13:51:52.993Z</time>
      </trkpt>
      <trkpt lat="42.97689" lon="1.12749">
        <ele>413.3</ele>
        <time>2023-04-04T13:51:53.993Z</time>
      </trkpt>
      <trkpt lat="42.97693" lon="1.1276">
        <ele>412.3</ele>
        <time>2023-04-04T13:51:54.993Z</time>
      </trkpt>
      <trkpt lat="42.977" lon="1.12771">
        <ele>411.4</ele>
        <time>2023-04-04T13:51:55.993Z</time>
      </trkpt>
      <trkpt lat="42.97708" lon="1.12779">
        <ele>410.6</ele>
        <time>2023-04-04T13:51:56.993Z</time>
      </trkpt>
      <trkpt lat="42.97716" lon="1.12787">
        <ele>409.9</ele>
        <time>2023-04-04T13:51:57.993Z</time>
      </trkpt>
      <trkpt lat="42.97724" lon="1.12795">
        <ele>409.3</ele>
        <time>2023-04-04T13:51:58.993Z</time>
      </trkpt>
      <trkpt lat="42.97732" lon="1.12803">
        <ele>408.6</ele>
        <time>2023-04-04T13:51:59.993Z</time>
      </trkpt>
      <trkpt lat="42.97745" lon="1.12807">
        <ele>407.9</ele>
        <time>2023-04-04T13:52:00.993Z</time>
      </trkpt>
      <trkpt lat="42.97758" lon="1.12816">
        <ele>407.1</ele>
        <time>2023-04-04T13:52:01.993Z</time>
      </trkpt>
      <trkpt lat="42.97769" lon="1.12826">
        <ele>406.4</ele>
        <time>2023-04-04T13:52:02.993Z</time>
      </trkpt>
      <trkpt lat="42.97776" lon="1.12839">
        <ele>405.7</ele>
        <time>2023-04-04T13:52:03.993Z</time>
      </trkpt>
      <trkpt lat="42.97785" lon="1.12848">
        <ele>405.1</ele>
        <time>2023-04-04T13:52:04.993Z</time>
      </trkpt>
      <trkpt lat="42.97794" lon="1.12861">
        <ele>404.6</ele>
        <time>2023-04-04T13:52:05.993Z</time>
      </trkpt>
      <trkpt lat="42.97787" lon="1.12886">
        <ele>404.2</ele>
        <time>2023-04-04T13:52:06.993Z</time>
      </trkpt>
      <trkpt lat="42.97794" lon="1.12899">
        <ele>403.8</ele>
        <time>2023-04-04T13:52:07.993Z</time>
      </trkpt>
      <trkpt lat="42.97801" lon="1.12912">
        <ele>403.2</ele>
        <time>2023-04-04T13:52:09.993Z</time>
      </trkpt>
      <trkpt lat="42.9781" lon="1.12928">
        <ele>402.7</ele>
        <time>2023-04-04T13:52:11.993Z</time>
      </trkpt>
      <trkpt lat="42.9782" lon="1.12945">
        <ele>402.4</ele>
        <time>2023-04-04T13:52:13.993Z</time>
      </trkpt>
      <trkpt lat="42.9783" lon="1.12962">
        <ele>402.1</ele>
        <time>2023-04-04T13:52:15.992Z</time>
      </trkpt>
      <trkpt lat="42.97837" lon="1.12974">
        <ele>401.8</ele>
        <time>2023-04-04T13:52:17.992Z</time>
      </trkpt>
      <trkpt lat="42.97844" lon="1.12987">
        <ele>401.4</ele>
        <time>2023-04-04T13:52:20.992Z</time>
      </trkpt>
      <trkpt lat="42.97851" lon="1.12998">
        <ele>401</ele>
        <time>2023-04-04T13:52:24.992Z</time>
      </trkpt>
      <trkpt lat="42.97857" lon="1.13009">
        <ele>400.8</ele>
        <time>2023-04-04T13:52:29.992Z</time>
      </trkpt>
      <trkpt lat="42.97864" lon="1.13021">
        <ele>400.8</ele>
        <time>2023-04-04T13:52:33.992Z</time>
      </trkpt>
      <trkpt lat="42.97871" lon="1.13033">
        <ele>400.9</ele>
        <time>2023-04-04T13:52:37.992Z</time>
      </trkpt>
      <trkpt lat="42.97877" lon="1.13044">
        <ele>401</ele>
        <time>2023-04-04T13:52:40.991Z</time>
      </trkpt>
      <trkpt lat="42.97884" lon="1.13056">
        <ele>401</ele>
        <time>2023-04-04T13:52:43.991Z</time>
      </trkpt>
      <trkpt lat="42.97894" lon="1.13064">
        <ele>401</ele>
        <time>2023-04-04T13:52:46.991Z</time>
      </trkpt>
      <trkpt lat="42.97904" lon="1.13075">
        <ele>400.8</ele>
        <time>2023-04-04T13:52:50.991Z</time>
      </trkpt>
      <trkpt lat="42.97911" lon="1.13089">
        <ele>400.6</ele>
        <time>2023-04-04T13:52:54.991Z</time>
      </trkpt>
      <trkpt lat="42.97918" lon="1.13099">
        <ele>400.3</ele>
        <time>2023-04-04T13:52:57.991Z</time>
      </trkpt>
      <trkpt lat="42.97925" lon="1.1311">
        <ele>400.1</ele>
        <time>2023-04-04T13:53:00.991Z</time>
      </trkpt>
      <trkpt lat="42.97931" lon="1.1312">
        <ele>400</ele>
        <time>2023-04-04T13:53:03.991Z</time>
      </trkpt>
      <trkpt lat="42.97937" lon="1.13132">
        <ele>400</ele>
        <time>2023-04-04T13:53:06.990Z</time>
      </trkpt>
      <trkpt lat="42.97947" lon="1.13142">
        <ele>400</ele>
        <time>2023-04-04T13:53:10.990Z</time>
      </trkpt>
      <trkpt lat="42.97954" lon="1.13153">
        <ele>400</ele>
        <time>2023-04-04T13:53:14.990Z</time>
      </trkpt>
      <trkpt lat="42.97961" lon="1.13165">
        <ele>400</ele>
        <time>2023-04-04T13:53:17.990Z</time>
      </trkpt>
      <trkpt lat="42.97968" lon="1.13176">
        <ele>399.9</ele>
        <time>2023-04-04T13:53:20.990Z</time>
      </trkpt>
      <trkpt lat="42.97975" lon="1.13188">
        <ele>400</ele>
        <time>2023-04-04T13:53:23.990Z</time>
      </trkpt>
      <trkpt lat="42.97982" lon="1.13199">
        <ele>400</ele>
        <time>2023-04-04T13:53:26.990Z</time>
      </trkpt>
      <trkpt lat="42.97991" lon="1.13208">
        <ele>399.9</ele>
        <time>2023-04-04T13:53:29.990Z</time>
      </trkpt>
      <trkpt lat="42.97998" lon="1.13218">
        <ele>399.9</ele>
        <time>2023-04-04T13:53:32.989Z</time>
      </trkpt>
      <trkpt lat="42.98005" lon="1.1323">
        <ele>399.9</ele>
        <time>2023-04-04T13:53:35.989Z</time>
      </trkpt>
      <trkpt lat="42.98013" lon="1.13241">
        <ele>399.8</ele>
        <time>2023-04-04T13:53:39.989Z</time>
      </trkpt>
      <trkpt lat="42.9802" lon="1.13251">
        <ele>399.8</ele>
        <time>2023-04-04T13:53:42.989Z</time>
      </trkpt>
      <trkpt lat="42.98027" lon="1.13262">
        <ele>399.9</ele>
        <time>2023-04-04T13:53:46.989Z</time>
      </trkpt>
      <trkpt lat="42.98035" lon="1.13271">
        <ele>399.9</ele>
        <time>2023-04-04T13:53:49.989Z</time>
      </trkpt>
      <trkpt lat="42.98044" lon="1.1328">
        <ele>399.9</ele>
        <time>2023-04-04T13:53:52.989Z</time>
      </trkpt>
      <trkpt lat="42.98052" lon="1.13288">
        <ele>400</ele>
        <time>2023-04-04T13:53:55.989Z</time>
      </trkpt>
      <trkpt lat="42.98062" lon="1.13295">
        <ele>400</ele>
        <time>2023-04-04T13:53:58.988Z</time>
      </trkpt>
      <trkpt lat="42.98071" lon="1.13304">
        <ele>400</ele>
        <time>2023-04-04T13:54:01.988Z</time>
      </trkpt>
      <trkpt lat="42.98079" lon="1.13312">
        <ele>400</ele>
        <time>2023-04-04T13:54:04.988Z</time>
      </trkpt>
      <trkpt lat="42.98088" lon="1.13318">
        <ele>400</ele>
        <time>2023-04-04T13:54:07.988Z</time>
      </trkpt>
      <trkpt lat="42.98097" lon="1.13323">
        <ele>400</ele>
        <time>2023-04-04T13:54:09.988Z</time>
      </trkpt>
      <trkpt lat="42.98106" lon="1.13329">
        <ele>400</ele>
        <time>2023-04-04T13:54:11.988Z</time>
      </trkpt>
      <trkpt lat="42.98116" lon="1.13335">
        <ele>399.9</ele>
        <time>2023-04-04T13:54:13.988Z</time>
      </trkpt>
      <trkpt lat="42.98124" lon="1.13339">
        <ele>399.9</ele>
        <time>2023-04-04T13:54:15.988Z</time>
      </trkpt>
      <trkpt lat="42.98135" lon="1.13346">
        <ele>399.8</ele>
        <time>2023-04-04T13:54:18.988Z</time>
      </trkpt>
      <trkpt lat="42.98143" lon="1.13352">
        <ele>399.8</ele>
        <time>2023-04-04T13:54:20.988Z</time>
      </trkpt>
      <trkpt lat="42.98152" lon="1.13358">
        <ele>399.7</ele>
        <time>2023-04-04T13:54:22.987Z</time>
      </trkpt>
      <trkpt lat="42.9816" lon="1.13363">
        <ele>399.6</ele>
        <time>2023-04-04T13:54:24.987Z</time>
      </trkpt>
      <trkpt lat="42.98171" lon="1.1337">
        <ele>399.4</ele>
        <time>2023-04-04T13:54:27.987Z</time>
      </trkpt>
      <trkpt lat="42.98183" lon="1.13377">
        <ele>399.2</ele>
        <time>2023-04-04T13:54:30.987Z</time>
      </trkpt>
      <trkpt lat="42.98192" lon="1.13382">
        <ele>399.1</ele>
        <time>2023-04-04T13:54:32.987Z</time>
      </trkpt>
      <trkpt lat="42.98201" lon="1.13388">
        <ele>398.9</ele>
        <time>2023-04-04T13:54:34.987Z</time>
      </trkpt>
      <trkpt lat="42.98209" lon="1.13394">
        <ele>398.8</ele>
        <time>2023-04-04T13:54:36.987Z</time>
      </trkpt>
      <trkpt lat="42.98218" lon="1.13408">
        <ele>398.6</ele>
        <time>2023-04-04T13:54:39.987Z</time>
      </trkpt>
      <trkpt lat="42.98225" lon="1.13418">
        <ele>398.4</ele>
        <time>2023-04-04T13:54:41.987Z</time>
      </trkpt>
      <trkpt lat="42.98233" lon="1.13434">
        <ele>398.2</ele>
        <time>2023-04-04T13:54:44.987Z</time>
      </trkpt>
      <trkpt lat="42.98244" lon="1.1345">
        <ele>398.1</ele>
        <time>2023-04-04T13:54:47.987Z</time>
      </trkpt>
      <trkpt lat="42.98251" lon="1.13459">
        <ele>398.1</ele>
        <time>2023-04-04T13:54:49.986Z</time>
      </trkpt>
      <trkpt lat="42.98259" lon="1.13465">
        <ele>398</ele>
        <time>2023-04-04T13:54:51.986Z</time>
      </trkpt>
      <trkpt lat="42.98269" lon="1.13477">
        <ele>398</ele>
        <time>2023-04-04T13:54:53.986Z</time>
      </trkpt>
      <trkpt lat="42.98277" lon="1.13486">
        <ele>398</ele>
        <time>2023-04-04T13:54:55.986Z</time>
      </trkpt>
      <trkpt lat="42.98284" lon="1.13496">
        <ele>398.1</ele>
        <time>2023-04-04T13:54:57.986Z</time>
      </trkpt>
      <trkpt lat="42.98293" lon="1.13508">
        <ele>398.1</ele>
        <time>2023-04-04T13:55:00.986Z</time>
      </trkpt>
      <trkpt lat="42.98299" lon="1.1352">
        <ele>398.1</ele>
        <time>2023-04-04T13:55:02.986Z</time>
      </trkpt>
      <trkpt lat="42.98306" lon="1.13532">
        <ele>398.1</ele>
        <time>2023-04-04T13:55:05.986Z</time>
      </trkpt>
      <trkpt lat="42.98311" lon="1.13542">
        <ele>398.1</ele>
        <time>2023-04-04T13:55:07.986Z</time>
      </trkpt>
      <trkpt lat="42.98317" lon="1.13557">
        <ele>398.1</ele>
        <time>2023-04-04T13:55:10.986Z</time>
      </trkpt>
      <trkpt lat="42.98322" lon="1.13571">
        <ele>398.1</ele>
        <time>2023-04-04T13:55:13.985Z</time>
      </trkpt>
      <trkpt lat="42.98328" lon="1.13581">
        <ele>398</ele>
        <time>2023-04-04T13:55:15.985Z</time>
      </trkpt>
      <trkpt lat="42.9833" lon="1.13594">
        <ele>398</ele>
        <time>2023-04-04T13:55:17.985Z</time>
      </trkpt>
      <trkpt lat="42.98334" lon="1.13605">
        <ele>397.9</ele>
        <time>2023-04-04T13:55:19.985Z</time>
      </trkpt>
      <trkpt lat="42.98338" lon="1.13617">
        <ele>397.9</ele>
        <time>2023-04-04T13:55:21.985Z</time>
      </trkpt>
      <trkpt lat="42.98342" lon="1.13629">
        <ele>397.8</ele>
        <time>2023-04-04T13:55:23.985Z</time>
      </trkpt>
      <trkpt lat="42.98347" lon="1.13642">
        <ele>397.8</ele>
        <time>2023-04-04T13:55:26.985Z</time>
      </trkpt>
      <trkpt lat="42.98352" lon="1.13656">
        <ele>397.8</ele>
        <time>2023-04-04T13:55:29.985Z</time>
      </trkpt>
      <trkpt lat="42.98358" lon="1.1367">
        <ele>397.9</ele>
        <time>2023-04-04T13:55:32.985Z</time>
      </trkpt>
      <trkpt lat="42.98364" lon="1.13685">
        <ele>397.9</ele>
        <time>2023-04-04T13:55:35.985Z</time>
      </trkpt>
      <trkpt lat="42.98369" lon="1.13699">
        <ele>398</ele>
        <time>2023-04-04T13:55:38.985Z</time>
      </trkpt>
      <trkpt lat="42.98375" lon="1.13713">
        <ele>398.1</ele>
        <time>2023-04-04T13:55:41.984Z</time>
      </trkpt>
      <trkpt lat="42.98381" lon="1.13726">
        <ele>398.1</ele>
        <time>2023-04-04T13:55:44.984Z</time>
      </trkpt>
      <trkpt lat="42.98386" lon="1.1374">
        <ele>398.1</ele>
        <time>2023-04-04T13:55:47.984Z</time>
      </trkpt>
      <trkpt lat="42.9839" lon="1.13755">
        <ele>398.1</ele>
        <time>2023-04-04T13:55:51.984Z</time>
      </trkpt>
      <trkpt lat="42.98391" lon="1.13771">
        <ele>397.9</ele>
        <time>2023-04-04T13:55:55.984Z</time>
      </trkpt>
      <trkpt lat="42.98392" lon="1.13786">
        <ele>397.7</ele>
        <time>2023-04-04T13:55:59.984Z</time>
      </trkpt>
      <trkpt lat="42.98394" lon="1.13801">
        <ele>397.3</ele>
        <time>2023-04-04T13:56:04.983Z</time>
      </trkpt>
      <trkpt lat="42.98388" lon="1.13806">
        <ele>396.2</ele>
        <time>2023-04-04T13:56:14.986Z</time>
      </trkpt>
      <trkpt lat="42.98388" lon="1.13806">
        <ele>396.1</ele>
        <time>2023-04-04T13:56:15.987Z</time>
      </trkpt>
      <trkpt lat="42.9839" lon="1.13804">
        <ele>395.6</ele>
        <time>2023-04-04T13:56:22.992Z</time>
      </trkpt>
      <trkpt lat="42.98387" lon="1.13804">
        <ele>394.9</ele>
        <time>2023-04-04T13:59:53.993Z</time>
      </trkpt>
      <trkpt lat="42.98388" lon="1.13804">
        <ele>394.9</ele>
        <time>2023-04-04T13:59:57.992Z</time>
      </trkpt>
      <trkpt lat="42.98389" lon="1.13804">
        <ele>394.9</ele>
        <time>2023-04-04T13:59:58.992Z</time>
      </trkpt>
      <trkpt lat="42.98379" lon="1.13802">
        <ele>394.9</ele>
        <time>2023-04-04T14:00:11.992Z</time>
      </trkpt>
      <trkpt lat="42.98371" lon="1.1381">
        <ele>394.9</ele>
        <time>2023-04-04T14:00:33.991Z</time>
      </trkpt>
      <trkpt lat="42.98372" lon="1.13823">
        <ele>394.8</ele>
        <time>2023-04-04T14:00:44.991Z</time>
      </trkpt>
      <trkpt lat="42.98367" lon="1.13834">
        <ele>394.7</ele>
        <time>2023-04-04T14:00:59.995Z</time>
      </trkpt>
      <trkpt lat="42.98367" lon="1.13834">
        <ele>394.7</ele>
        <time>2023-04-04T14:00:59.995Z</time>
      </trkpt>
      <trkpt lat="42.98367" lon="1.13834">
        <ele>394.7</ele>
        <time>2023-04-04T14:00:59.995Z</time>
      </trkpt>
      <trkpt lat="42.98367" lon="1.13834">
        <ele>394.7</ele>
        <time>2023-04-04T14:00:59.995Z</time>
      </trkpt>
    </trkseg>
  </trk>
</gpx>